<?xml version='1.0' encoding='UTF-8'?><gpx version="1.1" creator="JPX - https://github.com/jenetics/jpx" xmlns="http://www.topografix.com/GPX/1/1"><trk><trkseg><trkpt lat="43.8226557" lon="13.0364414"><ele>7.333333333333334</ele><time>2026-04-11T07:42:54.542Z</time></trkpt><trkpt lat="43.8225743" lon="13.0363885"><ele>7.666666666666667</ele><time>2026-04-11T07:42:57.544Z</time></trkpt><trkpt lat="43.82248" lon="13.0362767"><ele>8.0</ele><time>2026-04-11T07:42:59.544Z</time></trkpt><trkpt lat="43.8224177" lon="13.0362116"><ele>8.333333333333334</ele><time>2026-04-11T07:43:00.544Z</time></trkpt><trkpt lat="43.8223576" lon="13.0361436"><ele>8.666666666666666</ele><time>2026-04-11T07:43:01.543Z</time></trkpt><trkpt lat="43.8222964" lon="13.0360742"><ele>9.0</ele><time>2026-04-11T07:43:02.542Z</time></trkpt><trkpt lat="43.8222338" lon="13.0360029"><ele>9.0</ele><time>2026-04-11T07:43:03.542Z</time></trkpt><trkpt lat="43.8221664" lon="13.0359254"><ele>9.0</ele><time>2026-04-11T07:43:04.543Z</time></trkpt><trkpt lat="43.8220991" lon="13.0358524"><ele>9.0</ele><time>2026-04-11T07:43:05.542Z</time></trkpt><trkpt lat="43.8220306" lon="13.0357716"><ele>9.0</ele><time>2026-04-11T07:43:06.543Z</time></trkpt><trkpt lat="43.8219574" lon="13.0356775"><ele>9.0</ele><time>2026-04-11T07:43:07.543Z</time></trkpt><trkpt lat="43.8218767" lon="13.0355858"><ele>8.75</ele><time>2026-04-11T07:43:08.543Z</time></trkpt><trkpt lat="43.8217896" lon="13.0354844"><ele>8.5</ele><time>2026-04-11T07:43:09.543Z</time></trkpt><trkpt lat="43.8217054" lon="13.0353855"><ele>8.25</ele><time>2026-04-11T07:43:10.544Z</time></trkpt><trkpt lat="43.8216156" lon="13.0352765"><ele>8.0</ele><time>2026-04-11T07:43:11.544Z</time></trkpt><trkpt lat="43.8215202" lon="13.0351642"><ele>8.0</ele><time>2026-04-11T07:43:12.544Z</time></trkpt><trkpt lat="43.8214226" lon="13.0350393"><ele>8.0</ele><time>2026-04-11T07:43:13.542Z</time></trkpt><trkpt lat="43.8213212" lon="13.0349152"><ele>8.0</ele><time>2026-04-11T07:43:14.543Z</time></trkpt><trkpt lat="43.8212172" lon="13.034783"><ele>8.0</ele><time>2026-04-11T07:43:15.544Z</time></trkpt><trkpt lat="43.8211222" lon="13.0346333"><ele>8.25</ele><time>2026-04-11T07:43:16.543Z</time></trkpt><trkpt lat="43.8210401" lon="13.0344763"><ele>8.5</ele><time>2026-04-11T07:43:17.543Z</time></trkpt><trkpt lat="43.8209656" lon="13.0343063"><ele>8.75</ele><time>2026-04-11T07:43:18.541Z</time></trkpt><trkpt lat="43.8208986" lon="13.0341295"><ele>9.0</ele><time>2026-04-11T07:43:19.544Z</time></trkpt><trkpt lat="43.8208506" lon="13.0339384"><ele>9.666666666666666</ele><time>2026-04-11T07:43:20.543Z</time></trkpt><trkpt lat="43.82081" lon="13.0337371"><ele>10.333333333333332</ele><time>2026-04-11T07:43:21.543Z</time></trkpt><trkpt lat="43.8207842" lon="13.0335284"><ele>11.0</ele><time>2026-04-11T07:43:22.543Z</time></trkpt><trkpt lat="43.8207725" lon="13.0333121"><ele>10.0</ele><time>2026-04-11T07:43:23.544Z</time></trkpt><trkpt lat="43.8207613" lon="13.0330922"><ele>9.0</ele><time>2026-04-11T07:43:24.544Z</time></trkpt><trkpt lat="43.8207634" lon="13.0328814"><ele>8.0</ele><time>2026-04-11T07:43:25.541Z</time></trkpt><trkpt lat="43.8207605" lon="13.0326548"><ele>8.333333333333332</ele><time>2026-04-11T07:43:26.541Z</time></trkpt><trkpt lat="43.8207622" lon="13.0324271"><ele>8.666666666666666</ele><time>2026-04-11T07:43:27.544Z</time></trkpt><trkpt lat="43.8207697" lon="13.0322036"><ele>9.0</ele><time>2026-04-11T07:43:28.543Z</time></trkpt><trkpt lat="43.8207745" lon="13.0319754"><ele>9.0</ele><time>2026-04-11T07:43:29.543Z</time></trkpt><trkpt lat="43.8207776" lon="13.0317424"><ele>9.0</ele><time>2026-04-11T07:43:30.543Z</time></trkpt><trkpt lat="43.8207801" lon="13.0315043"><ele>9.0</ele><time>2026-04-11T07:43:31.544Z</time></trkpt><trkpt lat="43.8207854" lon="13.0312645"><ele>8.666666666666666</ele><time>2026-04-11T07:43:32.542Z</time></trkpt><trkpt lat="43.8207922" lon="13.0310304"><ele>8.333333333333332</ele><time>2026-04-11T07:43:33.543Z</time></trkpt><trkpt lat="43.8207991" lon="13.0307914"><ele>8.0</ele><time>2026-04-11T07:43:34.543Z</time></trkpt><trkpt lat="43.8208043" lon="13.0305647"><ele>8.666666666666666</ele><time>2026-04-11T07:43:35.542Z</time></trkpt><trkpt lat="43.820805" lon="13.0303318"><ele>9.333333333333334</ele><time>2026-04-11T07:43:36.544Z</time></trkpt><trkpt lat="43.8208041" lon="13.0301011"><ele>10.0</ele><time>2026-04-11T07:43:37.543Z</time></trkpt><trkpt lat="43.8208013" lon="13.0298722"><ele>11.0</ele><time>2026-04-11T07:43:38.542Z</time></trkpt><trkpt lat="43.8207963" lon="13.0296526"><ele>12.0</ele><time>2026-04-11T07:43:39.544Z</time></trkpt><trkpt lat="43.8207923" lon="13.0294319"><ele>13.0</ele><time>2026-04-11T07:43:40.541Z</time></trkpt><trkpt lat="43.8207865" lon="13.0292246"><ele>12.8</ele><time>2026-04-11T07:43:41.542Z</time></trkpt><trkpt lat="43.820766" lon="13.0290404"><ele>12.600000000000001</ele><time>2026-04-11T07:43:42.543Z</time></trkpt><trkpt lat="43.8207374" lon="13.0288794"><ele>12.399999999999999</ele><time>2026-04-11T07:43:43.543Z</time></trkpt><trkpt lat="43.8207046" lon="13.0287404"><ele>12.2</ele><time>2026-04-11T07:43:44.542Z</time></trkpt><trkpt lat="43.8206784" lon="13.0286292"><ele>12.0</ele><time>2026-04-11T07:43:45.542Z</time></trkpt><trkpt lat="43.8206545" lon="13.0284909"><ele>12.0</ele><time>2026-04-11T07:43:47.544Z</time></trkpt><trkpt lat="43.8206345" lon="13.0283771"><ele>12.0</ele><time>2026-04-11T07:43:49.543Z</time></trkpt><trkpt lat="43.820569" lon="13.0282566"><ele>12.0</ele><time>2026-04-11T07:43:51.542Z</time></trkpt><trkpt lat="43.8204509" lon="13.0282299"><ele>12.0</ele><time>2026-04-11T07:43:53.543Z</time></trkpt><trkpt lat="43.820391" lon="13.0282828"><ele>12.0</ele><time>2026-04-11T07:43:54.541Z</time></trkpt><trkpt lat="43.8203413" lon="13.0283735"><ele>12.0</ele><time>2026-04-11T07:43:55.543Z</time></trkpt><trkpt lat="43.8202927" lon="13.0285042"><ele>12.0</ele><time>2026-04-11T07:43:56.543Z</time></trkpt><trkpt lat="43.8202223" lon="13.0286339"><ele>12.0</ele><time>2026-04-11T07:43:57.544Z</time></trkpt><trkpt lat="43.8201299" lon="13.0287547"><ele>12.0</ele><time>2026-04-11T07:43:58.541Z</time></trkpt><trkpt lat="43.8200186" lon="13.028882"><ele>12.666666666666668</ele><time>2026-04-11T07:43:59.544Z</time></trkpt><trkpt lat="43.8198979" lon="13.0290158"><ele>13.333333333333334</ele><time>2026-04-11T07:44:00.544Z</time></trkpt><trkpt lat="43.8197741" lon="13.0291647"><ele>14.0</ele><time>2026-04-11T07:44:01.543Z</time></trkpt><trkpt lat="43.8196466" lon="13.0293109"><ele>14.0</ele><time>2026-04-11T07:44:02.543Z</time></trkpt><trkpt lat="43.819511" lon="13.0294587"><ele>14.0</ele><time>2026-04-11T07:44:03.544Z</time></trkpt><trkpt lat="43.8193668" lon="13.0296056"><ele>14.0</ele><time>2026-04-11T07:44:04.544Z</time></trkpt><trkpt lat="43.8192166" lon="13.0297481"><ele>13.333333333333334</ele><time>2026-04-11T07:44:05.544Z</time></trkpt><trkpt lat="43.8190614" lon="13.029881"><ele>12.666666666666668</ele><time>2026-04-11T07:44:06.544Z</time></trkpt><trkpt lat="43.8189045" lon="13.0300025"><ele>12.0</ele><time>2026-04-11T07:44:07.543Z</time></trkpt><trkpt lat="43.8187494" lon="13.0301029"><ele>12.0</ele><time>2026-04-11T07:44:08.544Z</time></trkpt><trkpt lat="43.8186019" lon="13.0301921"><ele>12.0</ele><time>2026-04-11T07:44:09.542Z</time></trkpt><trkpt lat="43.8184574" lon="13.0302789"><ele>12.0</ele><time>2026-04-11T07:44:10.543Z</time></trkpt><trkpt lat="43.8183097" lon="13.0303441"><ele>12.0</ele><time>2026-04-11T07:44:11.543Z</time></trkpt><trkpt lat="43.8181605" lon="13.0304011"><ele>12.0</ele><time>2026-04-11T07:44:12.544Z</time></trkpt><trkpt lat="43.8180055" lon="13.0304515"><ele>12.0</ele><time>2026-04-11T07:44:13.543Z</time></trkpt><trkpt lat="43.8178473" lon="13.0304894"><ele>12.0</ele><time>2026-04-11T07:44:14.542Z</time></trkpt><trkpt lat="43.8176877" lon="13.0305309"><ele>12.0</ele><time>2026-04-11T07:44:15.543Z</time></trkpt><trkpt lat="43.8175229" lon="13.0305754"><ele>12.0</ele><time>2026-04-11T07:44:16.542Z</time></trkpt><trkpt lat="43.8173524" lon="13.030623"><ele>13.0</ele><time>2026-04-11T07:44:17.543Z</time></trkpt><trkpt lat="43.8171826" lon="13.0306774"><ele>14.0</ele><time>2026-04-11T07:44:18.543Z</time></trkpt><trkpt lat="43.8170119" lon="13.0307461"><ele>15.0</ele><time>2026-04-11T07:44:19.543Z</time></trkpt><trkpt lat="43.8168399" lon="13.0308259"><ele>14.333333333333332</ele><time>2026-04-11T07:44:20.542Z</time></trkpt><trkpt lat="43.8166762" lon="13.0309296"><ele>13.666666666666666</ele><time>2026-04-11T07:44:21.544Z</time></trkpt><trkpt lat="43.8165189" lon="13.0310503"><ele>13.0</ele><time>2026-04-11T07:44:22.543Z</time></trkpt><trkpt lat="43.8163681" lon="13.0311948"><ele>13.0</ele><time>2026-04-11T07:44:23.544Z</time></trkpt><trkpt lat="43.8162263" lon="13.0313592"><ele>13.0</ele><time>2026-04-11T07:44:24.543Z</time></trkpt><trkpt lat="43.8160923" lon="13.0315456"><ele>13.0</ele><time>2026-04-11T07:44:25.543Z</time></trkpt><trkpt lat="43.8159596" lon="13.031746"><ele>13.0</ele><time>2026-04-11T07:44:26.542Z</time></trkpt><trkpt lat="43.8158331" lon="13.0319609"><ele>13.0</ele><time>2026-04-11T07:44:27.542Z</time></trkpt><trkpt lat="43.8157044" lon="13.0321702"><ele>13.0</ele><time>2026-04-11T07:44:28.541Z</time></trkpt><trkpt lat="43.8155813" lon="13.0323672"><ele>13.0</ele><time>2026-04-11T07:44:29.542Z</time></trkpt><trkpt lat="43.8154578" lon="13.0325487"><ele>13.0</ele><time>2026-04-11T07:44:30.541Z</time></trkpt><trkpt lat="43.8153341" lon="13.0327103"><ele>13.0</ele><time>2026-04-11T07:44:31.543Z</time></trkpt><trkpt lat="43.8152115" lon="13.0328515"><ele>13.666666666666666</ele><time>2026-04-11T07:44:32.544Z</time></trkpt><trkpt lat="43.8150855" lon="13.0329779"><ele>14.333333333333332</ele><time>2026-04-11T07:44:33.543Z</time></trkpt><trkpt lat="43.8149566" lon="13.0330835"><ele>15.0</ele><time>2026-04-11T07:44:34.544Z</time></trkpt><trkpt lat="43.8148199" lon="13.0331755"><ele>15.0</ele><time>2026-04-11T07:44:35.543Z</time></trkpt><trkpt lat="43.814679" lon="13.0332541"><ele>15.0</ele><time>2026-04-11T07:44:36.544Z</time></trkpt><trkpt lat="43.8145281" lon="13.0333245"><ele>15.0</ele><time>2026-04-11T07:44:37.542Z</time></trkpt><trkpt lat="43.8143699" lon="13.0333805"><ele>13.25</ele><time>2026-04-11T07:44:38.543Z</time></trkpt><trkpt lat="43.8142193" lon="13.0334231"><ele>11.5</ele><time>2026-04-11T07:44:39.543Z</time></trkpt><trkpt lat="43.8140798" lon="13.0334527"><ele>9.75</ele><time>2026-04-11T07:44:40.544Z</time></trkpt><trkpt lat="43.8139487" lon="13.0334675"><ele>8.0</ele><time>2026-04-11T07:44:41.543Z</time></trkpt><trkpt lat="43.8138375" lon="13.0334653"><ele>7.999999999999999</ele><time>2026-04-11T07:44:42.542Z</time></trkpt><trkpt lat="43.8137377" lon="13.0334412"><ele>8.0</ele><time>2026-04-11T07:44:43.543Z</time></trkpt><trkpt lat="43.8136524" lon="13.0334031"><ele>8.0</ele><time>2026-04-11T07:44:44.544Z</time></trkpt><trkpt lat="43.8135698" lon="13.033383"><ele>8.0</ele><time>2026-04-11T07:44:45.544Z</time></trkpt><trkpt lat="43.8134992" lon="13.033406"><ele>7.999999999999999</ele><time>2026-04-11T07:44:46.544Z</time></trkpt><trkpt lat="43.8134429" lon="13.0334697"><ele>8.0</ele><time>2026-04-11T07:44:47.543Z</time></trkpt><trkpt lat="43.8134093" lon="13.0335655"><ele>7.75</ele><time>2026-04-11T07:44:48.543Z</time></trkpt><trkpt lat="43.8133983" lon="13.0336889"><ele>7.5</ele><time>2026-04-11T07:44:49.543Z</time></trkpt><trkpt lat="43.8133745" lon="13.0338407"><ele>7.25</ele><time>2026-04-11T07:44:50.542Z</time></trkpt><trkpt lat="43.8133267" lon="13.0340202"><ele>7.0</ele><time>2026-04-11T07:44:51.543Z</time></trkpt><trkpt lat="43.813257" lon="13.0342251"><ele>7.0</ele><time>2026-04-11T07:44:52.542Z</time></trkpt><trkpt lat="43.8131849" lon="13.0344394"><ele>7.0</ele><time>2026-04-11T07:44:53.543Z</time></trkpt><trkpt lat="43.8131164" lon="13.0346674"><ele>7.0</ele><time>2026-04-11T07:44:54.542Z</time></trkpt><trkpt lat="43.8130468" lon="13.0349166"><ele>6.666666666666667</ele><time>2026-04-11T07:44:55.544Z</time></trkpt><trkpt lat="43.8129797" lon="13.0351763"><ele>6.333333333333334</ele><time>2026-04-11T07:44:56.544Z</time></trkpt><trkpt lat="43.8129102" lon="13.0354357"><ele>6.0</ele><time>2026-04-11T07:44:57.544Z</time></trkpt><trkpt lat="43.8128421" lon="13.0357032"><ele>6.333333333333334</ele><time>2026-04-11T07:44:58.543Z</time></trkpt><trkpt lat="43.8127757" lon="13.0359811"><ele>6.666666666666667</ele><time>2026-04-11T07:44:59.541Z</time></trkpt><trkpt lat="43.8127081" lon="13.0362607"><ele>7.0</ele><time>2026-04-11T07:45:00.544Z</time></trkpt><trkpt lat="43.8126442" lon="13.036553"><ele>7.0</ele><time>2026-04-11T07:45:01.543Z</time></trkpt><trkpt lat="43.8125714" lon="13.0368444"><ele>7.0</ele><time>2026-04-11T07:45:02.544Z</time></trkpt><trkpt lat="43.8124983" lon="13.0371375"><ele>7.0</ele><time>2026-04-11T07:45:03.542Z</time></trkpt><trkpt lat="43.8124227" lon="13.0374327"><ele>8.0</ele><time>2026-04-11T07:45:04.543Z</time></trkpt><trkpt lat="43.812343" lon="13.0377291"><ele>9.0</ele><time>2026-04-11T07:45:05.542Z</time></trkpt><trkpt lat="43.8122649" lon="13.0380387"><ele>8.5</ele><time>2026-04-11T07:45:06.544Z</time></trkpt><trkpt lat="43.8121952" lon="13.0383314"><ele>8.0</ele><time>2026-04-11T07:45:07.544Z</time></trkpt><trkpt lat="43.8121197" lon="13.0386322"><ele>8.0</ele><time>2026-04-11T07:45:08.543Z</time></trkpt><trkpt lat="43.812043" lon="13.0389351"><ele>8.0</ele><time>2026-04-11T07:45:09.543Z</time></trkpt><trkpt lat="43.8119694" lon="13.0392479"><ele>6.5</ele><time>2026-04-11T07:45:10.544Z</time></trkpt><trkpt lat="43.8118922" lon="13.0395668"><ele>5.0</ele><time>2026-04-11T07:45:11.542Z</time></trkpt><trkpt lat="43.8118106" lon="13.0398898"><ele>3.5</ele><time>2026-04-11T07:45:12.542Z</time></trkpt><trkpt lat="43.8117308" lon="13.040212"><ele>2.0</ele><time>2026-04-11T07:45:13.543Z</time></trkpt><trkpt lat="43.8116521" lon="13.0405421"><ele>3.0</ele><time>2026-04-11T07:45:14.543Z</time></trkpt><trkpt lat="43.811569" lon="13.0408742"><ele>4.0</ele><time>2026-04-11T07:45:15.543Z</time></trkpt><trkpt lat="43.8114868" lon="13.0412072"><ele>4.0</ele><time>2026-04-11T07:45:16.544Z</time></trkpt><trkpt lat="43.8114054" lon="13.0415332"><ele>4.0</ele><time>2026-04-11T07:45:17.542Z</time></trkpt><trkpt lat="43.8113272" lon="13.0418456"><ele>5.5</ele><time>2026-04-11T07:45:18.543Z</time></trkpt><trkpt lat="43.8112539" lon="13.0421517"><ele>7.0</ele><time>2026-04-11T07:45:19.542Z</time></trkpt><trkpt lat="43.8111854" lon="13.042463"><ele>6.5</ele><time>2026-04-11T07:45:20.543Z</time></trkpt><trkpt lat="43.8111147" lon="13.0427671"><ele>6.0</ele><time>2026-04-11T07:45:21.544Z</time></trkpt><trkpt lat="43.8110408" lon="13.0430677"><ele>6.0</ele><time>2026-04-11T07:45:22.544Z</time></trkpt><trkpt lat="43.8109664" lon="13.0433554"><ele>6.0</ele><time>2026-04-11T07:45:23.544Z</time></trkpt><trkpt lat="43.8108926" lon="13.043645"><ele>6.0</ele><time>2026-04-11T07:45:24.544Z</time></trkpt><trkpt lat="43.8108212" lon="13.0439308"><ele>6.333333333333334</ele><time>2026-04-11T07:45:25.544Z</time></trkpt><trkpt lat="43.8107509" lon="13.0442252"><ele>6.666666666666667</ele><time>2026-04-11T07:45:26.543Z</time></trkpt><trkpt lat="43.8106814" lon="13.0445184"><ele>7.0</ele><time>2026-04-11T07:45:27.544Z</time></trkpt><trkpt lat="43.8106196" lon="13.0448081"><ele>6.666666666666667</ele><time>2026-04-11T07:45:28.543Z</time></trkpt><trkpt lat="43.8105606" lon="13.045109"><ele>6.333333333333334</ele><time>2026-04-11T07:45:29.543Z</time></trkpt><trkpt lat="43.8105104" lon="13.045408"><ele>6.0</ele><time>2026-04-11T07:45:30.544Z</time></trkpt><trkpt lat="43.8104644" lon="13.0457161"><ele>5.0</ele><time>2026-04-11T07:45:31.543Z</time></trkpt><trkpt lat="43.8104224" lon="13.046026"><ele>4.0</ele><time>2026-04-11T07:45:32.543Z</time></trkpt><trkpt lat="43.8103871" lon="13.0463386"><ele>4.333333333333333</ele><time>2026-04-11T07:45:33.543Z</time></trkpt><trkpt lat="43.8103627" lon="13.0466321"><ele>4.666666666666667</ele><time>2026-04-11T07:45:34.544Z</time></trkpt><trkpt lat="43.810341" lon="13.0469273"><ele>5.0</ele><time>2026-04-11T07:45:35.543Z</time></trkpt><trkpt lat="43.8103224" lon="13.0471831"><ele>5.0</ele><time>2026-04-11T07:45:36.544Z</time></trkpt><trkpt lat="43.8103069" lon="13.0474176"><ele>5.0</ele><time>2026-04-11T07:45:37.543Z</time></trkpt><trkpt lat="43.8102923" lon="13.0476259"><ele>5.0</ele><time>2026-04-11T07:45:38.544Z</time></trkpt><trkpt lat="43.8102786" lon="13.0478139"><ele>5.0</ele><time>2026-04-11T07:45:39.544Z</time></trkpt><trkpt lat="43.8102673" lon="13.0479754"><ele>5.0</ele><time>2026-04-11T07:45:40.542Z</time></trkpt><trkpt lat="43.8102556" lon="13.0481006"><ele>5.0</ele><time>2026-04-11T07:45:41.544Z</time></trkpt><trkpt lat="43.8102269" lon="13.0482451"><ele>5.0</ele><time>2026-04-11T07:45:43.544Z</time></trkpt><trkpt lat="43.8101727" lon="13.0483378"><ele>5.0</ele><time>2026-04-11T07:45:45.543Z</time></trkpt><trkpt lat="43.8101114" lon="13.0484134"><ele>5.2</ele><time>2026-04-11T07:45:47.544Z</time></trkpt><trkpt lat="43.8100574" lon="13.0485581"><ele>5.4</ele><time>2026-04-11T07:45:49.541Z</time></trkpt><trkpt lat="43.8100522" lon="13.0486547"><ele>5.6</ele><time>2026-04-11T07:45:50.544Z</time></trkpt><trkpt lat="43.8100519" lon="13.0487582"><ele>5.8</ele><time>2026-04-11T07:45:51.543Z</time></trkpt><trkpt lat="43.8100339" lon="13.0488839"><ele>6.0</ele><time>2026-04-11T07:45:52.543Z</time></trkpt><trkpt lat="43.80998" lon="13.0490159"><ele>6.25</ele><time>2026-04-11T07:45:53.542Z</time></trkpt><trkpt lat="43.8099146" lon="13.0491462"><ele>6.5</ele><time>2026-04-11T07:45:54.543Z</time></trkpt><trkpt lat="43.8098368" lon="13.0492896"><ele>6.75</ele><time>2026-04-11T07:45:55.543Z</time></trkpt><trkpt lat="43.8097561" lon="13.049454"><ele>7.0</ele><time>2026-04-11T07:45:56.544Z</time></trkpt><trkpt lat="43.8096743" lon="13.0496245"><ele>7.0</ele><time>2026-04-11T07:45:57.542Z</time></trkpt><trkpt lat="43.8095924" lon="13.0498041"><ele>7.0</ele><time>2026-04-11T07:45:58.544Z</time></trkpt><trkpt lat="43.809513" lon="13.0499878"><ele>7.0</ele><time>2026-04-11T07:45:59.544Z</time></trkpt><trkpt lat="43.8094389" lon="13.0501836"><ele>7.0</ele><time>2026-04-11T07:46:00.543Z</time></trkpt><trkpt lat="43.8093642" lon="13.0503935"><ele>7.0</ele><time>2026-04-11T07:46:01.542Z</time></trkpt><trkpt lat="43.8092891" lon="13.0506143"><ele>7.0</ele><time>2026-04-11T07:46:02.543Z</time></trkpt><trkpt lat="43.8092158" lon="13.0508298"><ele>7.0</ele><time>2026-04-11T07:46:03.543Z</time></trkpt><trkpt lat="43.809147" lon="13.051051"><ele>7.0</ele><time>2026-04-11T07:46:04.544Z</time></trkpt><trkpt lat="43.8090777" lon="13.0512831"><ele>7.0</ele><time>2026-04-11T07:46:05.544Z</time></trkpt><trkpt lat="43.8090164" lon="13.0515239"><ele>7.666666666666667</ele><time>2026-04-11T07:46:06.543Z</time></trkpt><trkpt lat="43.8089531" lon="13.0517716"><ele>8.333333333333334</ele><time>2026-04-11T07:46:07.543Z</time></trkpt><trkpt lat="43.8088895" lon="13.0520189"><ele>9.0</ele><time>2026-04-11T07:46:08.542Z</time></trkpt><trkpt lat="43.8088243" lon="13.0522679"><ele>9.666666666666666</ele><time>2026-04-11T07:46:09.543Z</time></trkpt><trkpt lat="43.8087593" lon="13.0525141"><ele>10.333333333333332</ele><time>2026-04-11T07:46:10.543Z</time></trkpt><trkpt lat="43.8086927" lon="13.0527687"><ele>11.0</ele><time>2026-04-11T07:46:11.544Z</time></trkpt><trkpt lat="43.8086275" lon="13.0530277"><ele>11.0</ele><time>2026-04-11T07:46:12.543Z</time></trkpt><trkpt lat="43.8085641" lon="13.0532767"><ele>11.0</ele><time>2026-04-11T07:46:13.543Z</time></trkpt><trkpt lat="43.8084946" lon="13.0535357"><ele>11.0</ele><time>2026-04-11T07:46:14.544Z</time></trkpt><trkpt lat="43.8084255" lon="13.0537926"><ele>10.666666666666666</ele><time>2026-04-11T07:46:15.543Z</time></trkpt><trkpt lat="43.8083609" lon="13.0540452"><ele>10.333333333333334</ele><time>2026-04-11T07:46:16.543Z</time></trkpt><trkpt lat="43.8083029" lon="13.0542899"><ele>10.0</ele><time>2026-04-11T07:46:17.541Z</time></trkpt><trkpt lat="43.8082604" lon="13.0545137"><ele>10.0</ele><time>2026-04-11T07:46:18.543Z</time></trkpt><trkpt lat="43.8082296" lon="13.0547243"><ele>10.0</ele><time>2026-04-11T07:46:19.543Z</time></trkpt><trkpt lat="43.8082092" lon="13.0549376"><ele>10.0</ele><time>2026-04-11T07:46:20.542Z</time></trkpt><trkpt lat="43.8081927" lon="13.055146"><ele>10.333333333333334</ele><time>2026-04-11T07:46:21.544Z</time></trkpt><trkpt lat="43.8081921" lon="13.0553583"><ele>10.666666666666666</ele><time>2026-04-11T07:46:22.543Z</time></trkpt><trkpt lat="43.8081975" lon="13.0555679"><ele>11.0</ele><time>2026-04-11T07:46:23.544Z</time></trkpt><trkpt lat="43.8082212" lon="13.0557682"><ele>11.0</ele><time>2026-04-11T07:46:24.543Z</time></trkpt><trkpt lat="43.8082501" lon="13.0559382"><ele>11.0</ele><time>2026-04-11T07:46:25.543Z</time></trkpt><trkpt lat="43.8082765" lon="13.0560779"><ele>11.0</ele><time>2026-04-11T07:46:26.543Z</time></trkpt><trkpt lat="43.8083027" lon="13.0562101"><ele>11.0</ele><time>2026-04-11T07:46:27.544Z</time></trkpt><trkpt lat="43.8083243" lon="13.0563464"><ele>11.0</ele><time>2026-04-11T07:46:28.543Z</time></trkpt><trkpt lat="43.8083627" lon="13.0564783"><ele>11.0</ele><time>2026-04-11T07:46:29.543Z</time></trkpt><trkpt lat="43.8084096" lon="13.056618"><ele>11.0</ele><time>2026-04-11T07:46:30.542Z</time></trkpt><trkpt lat="43.8084368" lon="13.0567598"><ele>11.0</ele><time>2026-04-11T07:46:31.543Z</time></trkpt><trkpt lat="43.8084361" lon="13.0568931"><ele>11.0</ele><time>2026-04-11T07:46:32.544Z</time></trkpt><trkpt lat="43.8083726" lon="13.0570198"><ele>11.0</ele><time>2026-04-11T07:46:33.543Z</time></trkpt><trkpt lat="43.808286" lon="13.0571444"><ele>11.0</ele><time>2026-04-11T07:46:34.543Z</time></trkpt><trkpt lat="43.8081696" lon="13.0572416"><ele>11.0</ele><time>2026-04-11T07:46:35.543Z</time></trkpt><trkpt lat="43.8080171" lon="13.0573217"><ele>11.0</ele><time>2026-04-11T07:46:36.544Z</time></trkpt><trkpt lat="43.8078464" lon="13.0573754"><ele>11.0</ele><time>2026-04-11T07:46:37.544Z</time></trkpt><trkpt lat="43.8076783" lon="13.057409"><ele>11.0</ele><time>2026-04-11T07:46:38.544Z</time></trkpt><trkpt lat="43.807514" lon="13.0574309"><ele>11.0</ele><time>2026-04-11T07:46:39.544Z</time></trkpt><trkpt lat="43.8073564" lon="13.0574561"><ele>10.666666666666666</ele><time>2026-04-11T07:46:40.543Z</time></trkpt><trkpt lat="43.8071988" lon="13.0574841"><ele>10.333333333333334</ele><time>2026-04-11T07:46:41.543Z</time></trkpt><trkpt lat="43.8070394" lon="13.0575117"><ele>10.0</ele><time>2026-04-11T07:46:42.544Z</time></trkpt><trkpt lat="43.8068924" lon="13.0575417"><ele>9.5</ele><time>2026-04-11T07:46:43.544Z</time></trkpt><trkpt lat="43.8067473" lon="13.0575616"><ele>9.0</ele><time>2026-04-11T07:46:44.541Z</time></trkpt><trkpt lat="43.8066072" lon="13.0575859"><ele>8.5</ele><time>2026-04-11T07:46:45.543Z</time></trkpt><trkpt lat="43.8064705" lon="13.0576047"><ele>8.0</ele><time>2026-04-11T07:46:46.542Z</time></trkpt><trkpt lat="43.8063368" lon="13.0576178"><ele>8.0</ele><time>2026-04-11T07:46:47.544Z</time></trkpt><trkpt lat="43.8062016" lon="13.0576381"><ele>8.0</ele><time>2026-04-11T07:46:48.542Z</time></trkpt><trkpt lat="43.806072" lon="13.0576641"><ele>8.0</ele><time>2026-04-11T07:46:49.543Z</time></trkpt><trkpt lat="43.8059365" lon="13.0576983"><ele>8.0</ele><time>2026-04-11T07:46:50.543Z</time></trkpt><trkpt lat="43.8058191" lon="13.0577409"><ele>8.200000000000001</ele><time>2026-04-11T07:46:51.544Z</time></trkpt><trkpt lat="43.8057158" lon="13.0577981"><ele>8.4</ele><time>2026-04-11T07:46:52.543Z</time></trkpt><trkpt lat="43.8056307" lon="13.0578631"><ele>8.600000000000001</ele><time>2026-04-11T07:46:53.543Z</time></trkpt><trkpt lat="43.8055567" lon="13.0579333"><ele>8.8</ele><time>2026-04-11T07:46:54.542Z</time></trkpt><trkpt lat="43.805492" lon="13.0579969"><ele>9.0</ele><time>2026-04-11T07:46:55.543Z</time></trkpt><trkpt lat="43.8053748" lon="13.0580283"><ele>9.0</ele><time>2026-04-11T07:46:57.542Z</time></trkpt><trkpt lat="43.8053087" lon="13.0579851"><ele>9.0</ele><time>2026-04-11T07:46:58.542Z</time></trkpt><trkpt lat="43.8052346" lon="13.0578998"><ele>9.0</ele><time>2026-04-11T07:46:59.543Z</time></trkpt><trkpt lat="43.8051611" lon="13.0577997"><ele>9.0</ele><time>2026-04-11T07:47:00.543Z</time></trkpt><trkpt lat="43.8050926" lon="13.0576937"><ele>9.0</ele><time>2026-04-11T07:47:01.543Z</time></trkpt><trkpt lat="43.8050194" lon="13.057587"><ele>9.2</ele><time>2026-04-11T07:47:02.542Z</time></trkpt><trkpt lat="43.8049466" lon="13.0574837"><ele>9.4</ele><time>2026-04-11T07:47:03.543Z</time></trkpt><trkpt lat="43.8048778" lon="13.057382"><ele>9.6</ele><time>2026-04-11T07:47:04.543Z</time></trkpt><trkpt lat="43.8048111" lon="13.0572906"><ele>9.8</ele><time>2026-04-11T07:47:05.544Z</time></trkpt><trkpt lat="43.8047497" lon="13.057209"><ele>10.0</ele><time>2026-04-11T07:47:06.544Z</time></trkpt><trkpt lat="43.8046898" lon="13.0571528"><ele>10.0</ele><time>2026-04-11T07:47:07.544Z</time></trkpt><trkpt lat="43.8046223" lon="13.0571265"><ele>10.0</ele><time>2026-04-11T07:47:08.543Z</time></trkpt><trkpt lat="43.8045496" lon="13.057143"><ele>10.0</ele><time>2026-04-11T07:47:09.544Z</time></trkpt><trkpt lat="43.8044796" lon="13.057204"><ele>10.0</ele><time>2026-04-11T07:47:10.544Z</time></trkpt><trkpt lat="43.8044022" lon="13.057306"><ele>10.0</ele><time>2026-04-11T07:47:11.542Z</time></trkpt><trkpt lat="43.8043171" lon="13.0574074"><ele>10.0</ele><time>2026-04-11T07:47:12.544Z</time></trkpt><trkpt lat="43.8042306" lon="13.0574912"><ele>12.6</ele><time>2026-04-11T07:47:13.542Z</time></trkpt><trkpt lat="43.804135" lon="13.0575541"><ele>15.2</ele><time>2026-04-11T07:47:14.543Z</time></trkpt><trkpt lat="43.8040308" lon="13.057591"><ele>17.799999999999997</ele><time>2026-04-11T07:47:15.543Z</time></trkpt><trkpt lat="43.8039288" lon="13.0576105"><ele>20.4</ele><time>2026-04-11T07:47:16.542Z</time></trkpt><trkpt lat="43.8038399" lon="13.0576307"><ele>23.0</ele><time>2026-04-11T07:47:17.542Z</time></trkpt><trkpt lat="43.8037444" lon="13.0576529"><ele>23.0</ele><time>2026-04-11T07:47:18.544Z</time></trkpt><trkpt lat="43.8036394" lon="13.057671"><ele>23.0</ele><time>2026-04-11T07:47:19.543Z</time></trkpt><trkpt lat="43.8035291" lon="13.0576761"><ele>23.0</ele><time>2026-04-11T07:47:20.543Z</time></trkpt><trkpt lat="43.803411" lon="13.0576762"><ele>23.0</ele><time>2026-04-11T07:47:21.544Z</time></trkpt><trkpt lat="43.8032874" lon="13.0576626"><ele>26.0</ele><time>2026-04-11T07:47:22.544Z</time></trkpt><trkpt lat="43.8031607" lon="13.0576314"><ele>29.0</ele><time>2026-04-11T07:47:23.543Z</time></trkpt><trkpt lat="43.8030427" lon="13.0575965"><ele>32.0</ele><time>2026-04-11T07:47:24.544Z</time></trkpt><trkpt lat="43.8029153" lon="13.0575599"><ele>35.0</ele><time>2026-04-11T07:47:25.544Z</time></trkpt><trkpt lat="43.802786" lon="13.0575137"><ele>37.0</ele><time>2026-04-11T07:47:26.542Z</time></trkpt><trkpt lat="43.8026587" lon="13.0574671"><ele>39.0</ele><time>2026-04-11T07:47:27.543Z</time></trkpt><trkpt lat="43.8025272" lon="13.0574179"><ele>41.0</ele><time>2026-04-11T07:47:28.544Z</time></trkpt><trkpt lat="43.8024026" lon="13.0573684"><ele>43.0</ele><time>2026-04-11T07:47:29.542Z</time></trkpt><trkpt lat="43.802279" lon="13.0572982"><ele>45.0</ele><time>2026-04-11T07:47:30.543Z</time></trkpt><trkpt lat="43.8021615" lon="13.0572172"><ele>47.0</ele><time>2026-04-11T07:47:31.543Z</time></trkpt><trkpt lat="43.8020436" lon="13.0571167"><ele>49.0</ele><time>2026-04-11T07:47:32.544Z</time></trkpt><trkpt lat="43.8019241" lon="13.0570217"><ele>51.0</ele><time>2026-04-11T07:47:33.544Z</time></trkpt><trkpt lat="43.8017947" lon="13.0569562"><ele>52.33333333333333</ele><time>2026-04-11T07:47:34.542Z</time></trkpt><trkpt lat="43.8016539" lon="13.0569052"><ele>53.666666666666664</ele><time>2026-04-11T07:47:35.544Z</time></trkpt><trkpt lat="43.8015043" lon="13.0568534"><ele>55.0</ele><time>2026-04-11T07:47:36.542Z</time></trkpt><trkpt lat="43.8013529" lon="13.0567949"><ele>55.0</ele><time>2026-04-11T07:47:37.544Z</time></trkpt><trkpt lat="43.8012001" lon="13.0567375"><ele>55.0</ele><time>2026-04-11T07:47:38.543Z</time></trkpt><trkpt lat="43.801043" lon="13.0566818"><ele>55.0</ele><time>2026-04-11T07:47:39.543Z</time></trkpt><trkpt lat="43.8008835" lon="13.0566195"><ele>57.666666666666664</ele><time>2026-04-11T07:47:40.544Z</time></trkpt><trkpt lat="43.8007306" lon="13.0565641"><ele>60.33333333333333</ele><time>2026-04-11T07:47:41.544Z</time></trkpt><trkpt lat="43.8005812" lon="13.056507"><ele>63.0</ele><time>2026-04-11T07:47:42.544Z</time></trkpt><trkpt lat="43.8004432" lon="13.0564503"><ele>63.0</ele><time>2026-04-11T07:47:43.543Z</time></trkpt><trkpt lat="43.8003124" lon="13.0564086"><ele>63.0</ele><time>2026-04-11T07:47:44.543Z</time></trkpt><trkpt lat="43.8001893" lon="13.0563731"><ele>63.0</ele><time>2026-04-11T07:47:45.544Z</time></trkpt><trkpt lat="43.800062" lon="13.0563316"><ele>63.0</ele><time>2026-04-11T07:47:46.543Z</time></trkpt><trkpt lat="43.7999415" lon="13.0562928"><ele>63.599999999999994</ele><time>2026-04-11T07:47:47.544Z</time></trkpt><trkpt lat="43.7998292" lon="13.0562557"><ele>64.19999999999999</ele><time>2026-04-11T07:47:48.544Z</time></trkpt><trkpt lat="43.7997176" lon="13.0562249"><ele>64.8</ele><time>2026-04-11T07:47:49.543Z</time></trkpt><trkpt lat="43.7996184" lon="13.0562014"><ele>65.39999999999999</ele><time>2026-04-11T07:47:50.543Z</time></trkpt><trkpt lat="43.7995304" lon="13.0561522"><ele>66.0</ele><time>2026-04-11T07:47:51.543Z</time></trkpt><trkpt lat="43.7994429" lon="13.0560941"><ele>66.0</ele><time>2026-04-11T07:47:52.543Z</time></trkpt><trkpt lat="43.7993661" lon="13.0560005"><ele>66.0</ele><time>2026-04-11T07:47:53.544Z</time></trkpt><trkpt lat="43.799296" lon="13.0558961"><ele>66.0</ele><time>2026-04-11T07:47:54.543Z</time></trkpt><trkpt lat="43.7992157" lon="13.0558051"><ele>66.0</ele><time>2026-04-11T07:47:55.544Z</time></trkpt><trkpt lat="43.7991112" lon="13.0557192"><ele>66.0</ele><time>2026-04-11T07:47:56.544Z</time></trkpt><trkpt lat="43.7989957" lon="13.0556329"><ele>67.5</ele><time>2026-04-11T07:47:57.543Z</time></trkpt><trkpt lat="43.7988711" lon="13.0555431"><ele>69.0</ele><time>2026-04-11T07:47:58.543Z</time></trkpt><trkpt lat="43.7987361" lon="13.0554495"><ele>70.5</ele><time>2026-04-11T07:47:59.544Z</time></trkpt><trkpt lat="43.7986094" lon="13.0553578"><ele>72.0</ele><time>2026-04-11T07:48:00.542Z</time></trkpt><trkpt lat="43.7984859" lon="13.0552645"><ele>72.0</ele><time>2026-04-11T07:48:01.543Z</time></trkpt><trkpt lat="43.7983696" lon="13.0551744"><ele>72.0</ele><time>2026-04-11T07:48:02.544Z</time></trkpt><trkpt lat="43.7982637" lon="13.0550988"><ele>72.0</ele><time>2026-04-11T07:48:03.543Z</time></trkpt><trkpt lat="43.7981744" lon="13.055035"><ele>72.0</ele><time>2026-04-11T07:48:04.544Z</time></trkpt><trkpt lat="43.7980949" lon="13.0549826"><ele>72.0</ele><time>2026-04-11T07:48:05.544Z</time></trkpt><trkpt lat="43.7980242" lon="13.0549353"><ele>72.0</ele><time>2026-04-11T07:48:06.542Z</time></trkpt><trkpt lat="43.7979173" lon="13.0549397"><ele>72.0</ele><time>2026-04-11T07:48:08.543Z</time></trkpt><trkpt lat="43.797776" lon="13.0549957"><ele>72.0</ele><time>2026-04-11T07:48:10.542Z</time></trkpt><trkpt lat="43.7976756" lon="13.0550353"><ele>72.0</ele><time>2026-04-11T07:48:11.543Z</time></trkpt><trkpt lat="43.7975693" lon="13.0550856"><ele>72.75</ele><time>2026-04-11T07:48:12.544Z</time></trkpt><trkpt lat="43.7974542" lon="13.0551374"><ele>73.5</ele><time>2026-04-11T07:48:13.543Z</time></trkpt><trkpt lat="43.7973288" lon="13.0551902"><ele>74.25</ele><time>2026-04-11T07:48:14.544Z</time></trkpt><trkpt lat="43.7971962" lon="13.0552487"><ele>75.0</ele><time>2026-04-11T07:48:15.542Z</time></trkpt><trkpt lat="43.797061" lon="13.0553004"><ele>75.0</ele><time>2026-04-11T07:48:16.544Z</time></trkpt><trkpt lat="43.7969257" lon="13.0553465"><ele>75.0</ele><time>2026-04-11T07:48:17.544Z</time></trkpt><trkpt lat="43.7967839" lon="13.0553871"><ele>75.0</ele><time>2026-04-11T07:48:18.543Z</time></trkpt><trkpt lat="43.7966388" lon="13.0554302"><ele>75.0</ele><time>2026-04-11T07:48:19.543Z</time></trkpt><trkpt lat="43.7964921" lon="13.0554763"><ele>75.66666666666667</ele><time>2026-04-11T07:48:20.543Z</time></trkpt><trkpt lat="43.7963431" lon="13.0555148"><ele>76.33333333333334</ele><time>2026-04-11T07:48:21.544Z</time></trkpt><trkpt lat="43.7961925" lon="13.0555608"><ele>77.0</ele><time>2026-04-11T07:48:22.542Z</time></trkpt><trkpt lat="43.7960474" lon="13.0556041"><ele>77.25</ele><time>2026-04-11T07:48:23.544Z</time></trkpt><trkpt lat="43.7959064" lon="13.0556457"><ele>77.5</ele><time>2026-04-11T07:48:24.543Z</time></trkpt><trkpt lat="43.7957605" lon="13.0556969"><ele>77.75</ele><time>2026-04-11T07:48:25.542Z</time></trkpt><trkpt lat="43.7956238" lon="13.0557547"><ele>78.0</ele><time>2026-04-11T07:48:26.543Z</time></trkpt><trkpt lat="43.7954892" lon="13.0558282"><ele>78.25</ele><time>2026-04-11T07:48:27.542Z</time></trkpt><trkpt lat="43.7953547" lon="13.0558973"><ele>78.5</ele><time>2026-04-11T07:48:28.544Z</time></trkpt><trkpt lat="43.7952189" lon="13.0559671"><ele>78.75</ele><time>2026-04-11T07:48:29.542Z</time></trkpt><trkpt lat="43.7950808" lon="13.0560409"><ele>79.0</ele><time>2026-04-11T07:48:30.541Z</time></trkpt><trkpt lat="43.7949374" lon="13.0561074"><ele>79.0</ele><time>2026-04-11T07:48:31.542Z</time></trkpt><trkpt lat="43.7947975" lon="13.0561607"><ele>79.0</ele><time>2026-04-11T07:48:32.543Z</time></trkpt><trkpt lat="43.794651" lon="13.0561997"><ele>79.0</ele><time>2026-04-11T07:48:33.543Z</time></trkpt><trkpt lat="43.7945035" lon="13.056228"><ele>79.0</ele><time>2026-04-11T07:48:34.544Z</time></trkpt><trkpt lat="43.7943595" lon="13.056262"><ele>81.25</ele><time>2026-04-11T07:48:35.544Z</time></trkpt><trkpt lat="43.7942207" lon="13.0562986"><ele>83.5</ele><time>2026-04-11T07:48:36.544Z</time></trkpt><trkpt lat="43.7940872" lon="13.0563306"><ele>85.75</ele><time>2026-04-11T07:48:37.544Z</time></trkpt><trkpt lat="43.7939543" lon="13.0563583"><ele>88.0</ele><time>2026-04-11T07:48:38.542Z</time></trkpt><trkpt lat="43.7938142" lon="13.0563714"><ele>88.0</ele><time>2026-04-11T07:48:39.543Z</time></trkpt><trkpt lat="43.7936733" lon="13.0563808"><ele>88.0</ele><time>2026-04-11T07:48:40.543Z</time></trkpt><trkpt lat="43.7935344" lon="13.0563675"><ele>88.0</ele><time>2026-04-11T07:48:41.543Z</time></trkpt><trkpt lat="43.7934097" lon="13.056331"><ele>88.0</ele><time>2026-04-11T07:48:42.544Z</time></trkpt><trkpt lat="43.7932838" lon="13.0562863"><ele>88.25</ele><time>2026-04-11T07:48:43.544Z</time></trkpt><trkpt lat="43.7931554" lon="13.0562199"><ele>88.5</ele><time>2026-04-11T07:48:44.544Z</time></trkpt><trkpt lat="43.7930157" lon="13.0561501"><ele>88.75</ele><time>2026-04-11T07:48:45.544Z</time></trkpt><trkpt lat="43.7928829" lon="13.0560935"><ele>89.0</ele><time>2026-04-11T07:48:46.543Z</time></trkpt><trkpt lat="43.7927422" lon="13.0560377"><ele>90.0</ele><time>2026-04-11T07:48:47.544Z</time></trkpt><trkpt lat="43.792603" lon="13.0559781"><ele>91.0</ele><time>2026-04-11T07:48:48.542Z</time></trkpt><trkpt lat="43.7924733" lon="13.0559216"><ele>92.0</ele><time>2026-04-11T07:48:49.543Z</time></trkpt><trkpt lat="43.7923595" lon="13.0558699"><ele>93.0</ele><time>2026-04-11T07:48:50.543Z</time></trkpt><trkpt lat="43.7922382" lon="13.055813"><ele>92.25</ele><time>2026-04-11T07:48:51.543Z</time></trkpt><trkpt lat="43.7921217" lon="13.0557549"><ele>91.5</ele><time>2026-04-11T07:48:52.544Z</time></trkpt><trkpt lat="43.7919978" lon="13.0556953"><ele>90.75</ele><time>2026-04-11T07:48:53.544Z</time></trkpt><trkpt lat="43.7918605" lon="13.055652"><ele>90.0</ele><time>2026-04-11T07:48:54.542Z</time></trkpt><trkpt lat="43.7917237" lon="13.0556206"><ele>90.0</ele><time>2026-04-11T07:48:55.543Z</time></trkpt><trkpt lat="43.7915813" lon="13.0555989"><ele>90.0</ele><time>2026-04-11T07:48:56.543Z</time></trkpt><trkpt lat="43.7914427" lon="13.0555915"><ele>90.0</ele><time>2026-04-11T07:48:57.543Z</time></trkpt><trkpt lat="43.7913111" lon="13.0555817"><ele>90.0</ele><time>2026-04-11T07:48:58.543Z</time></trkpt><trkpt lat="43.7911866" lon="13.0555727"><ele>90.0</ele><time>2026-04-11T07:48:59.544Z</time></trkpt><trkpt lat="43.7910746" lon="13.055559"><ele>90.0</ele><time>2026-04-11T07:49:00.543Z</time></trkpt><trkpt lat="43.7909775" lon="13.0555587"><ele>90.0</ele><time>2026-04-11T07:49:01.543Z</time></trkpt><trkpt lat="43.7908709" lon="13.0555728"><ele>90.0</ele><time>2026-04-11T07:49:02.542Z</time></trkpt><trkpt lat="43.7907664" lon="13.0556046"><ele>90.0</ele><time>2026-04-11T07:49:03.542Z</time></trkpt><trkpt lat="43.7906587" lon="13.0556378"><ele>90.0</ele><time>2026-04-11T07:49:04.544Z</time></trkpt><trkpt lat="43.7905553" lon="13.055673"><ele>90.0</ele><time>2026-04-11T07:49:05.544Z</time></trkpt><trkpt lat="43.7904477" lon="13.0557078"><ele>90.0</ele><time>2026-04-11T07:49:06.544Z</time></trkpt><trkpt lat="43.7903437" lon="13.0557289"><ele>90.0</ele><time>2026-04-11T07:49:07.544Z</time></trkpt><trkpt lat="43.7902354" lon="13.0557694"><ele>90.0</ele><time>2026-04-11T07:49:08.544Z</time></trkpt><trkpt lat="43.7901314" lon="13.0558123"><ele>90.66666666666667</ele><time>2026-04-11T07:49:09.543Z</time></trkpt><trkpt lat="43.7900344" lon="13.0558428"><ele>91.33333333333333</ele><time>2026-04-11T07:49:10.542Z</time></trkpt><trkpt lat="43.7899478" lon="13.0558547"><ele>92.0</ele><time>2026-04-11T07:49:11.543Z</time></trkpt><trkpt lat="43.7898722" lon="13.0558406"><ele>92.66666666666666</ele><time>2026-04-11T07:49:12.543Z</time></trkpt><trkpt lat="43.7898065" lon="13.0557906"><ele>93.33333333333333</ele><time>2026-04-11T07:49:13.544Z</time></trkpt><trkpt lat="43.7897521" lon="13.0557008"><ele>94.0</ele><time>2026-04-11T07:49:14.544Z</time></trkpt><trkpt lat="43.7896976" lon="13.0555981"><ele>94.0</ele><time>2026-04-11T07:49:15.542Z</time></trkpt><trkpt lat="43.7896304" lon="13.0555039"><ele>94.0</ele><time>2026-04-11T07:49:16.543Z</time></trkpt><trkpt lat="43.7895614" lon="13.0554252"><ele>94.0</ele><time>2026-04-11T07:49:17.544Z</time></trkpt><trkpt lat="43.7894801" lon="13.0553766"><ele>94.0</ele><time>2026-04-11T07:49:18.544Z</time></trkpt><trkpt lat="43.7893949" lon="13.0553421"><ele>94.0</ele><time>2026-04-11T07:49:19.543Z</time></trkpt><trkpt lat="43.7893035" lon="13.0553239"><ele>96.0</ele><time>2026-04-11T07:49:20.543Z</time></trkpt><trkpt lat="43.7892075" lon="13.0553177"><ele>98.0</ele><time>2026-04-11T07:49:21.542Z</time></trkpt><trkpt lat="43.7891215" lon="13.055315"><ele>100.0</ele><time>2026-04-11T07:49:22.544Z</time></trkpt><trkpt lat="43.7890424" lon="13.0553126"><ele>102.0</ele><time>2026-04-11T07:49:23.543Z</time></trkpt><trkpt lat="43.7889664" lon="13.0553085"><ele>104.00000000000001</ele><time>2026-04-11T07:49:24.544Z</time></trkpt><trkpt lat="43.7888938" lon="13.0553144"><ele>106.0</ele><time>2026-04-11T07:49:25.544Z</time></trkpt><trkpt lat="43.7888234" lon="13.0553371"><ele>106.00000000000001</ele><time>2026-04-11T07:49:26.544Z</time></trkpt><trkpt lat="43.7887493" lon="13.0553635"><ele>106.0</ele><time>2026-04-11T07:49:27.543Z</time></trkpt><trkpt lat="43.7886724" lon="13.0554027"><ele>106.0</ele><time>2026-04-11T07:49:28.543Z</time></trkpt><trkpt lat="43.788598" lon="13.0554625"><ele>106.0</ele><time>2026-04-11T07:49:29.543Z</time></trkpt><trkpt lat="43.7885173" lon="13.0555266"><ele>106.00000000000001</ele><time>2026-04-11T07:49:30.544Z</time></trkpt><trkpt lat="43.7884277" lon="13.0555838"><ele>106.0</ele><time>2026-04-11T07:49:31.543Z</time></trkpt><trkpt lat="43.7883254" lon="13.055633"><ele>108.19999999999999</ele><time>2026-04-11T07:49:32.544Z</time></trkpt><trkpt lat="43.7882227" lon="13.0556698"><ele>110.39999999999999</ele><time>2026-04-11T07:49:33.543Z</time></trkpt><trkpt lat="43.7881185" lon="13.0556921"><ele>112.6</ele><time>2026-04-11T07:49:34.543Z</time></trkpt><trkpt lat="43.7880184" lon="13.0557063"><ele>114.8</ele><time>2026-04-11T07:49:35.542Z</time></trkpt><trkpt lat="43.7879199" lon="13.0557104"><ele>117.0</ele><time>2026-04-11T07:49:36.544Z</time></trkpt><trkpt lat="43.7878212" lon="13.0557099"><ele>117.0</ele><time>2026-04-11T07:49:37.544Z</time></trkpt><trkpt lat="43.7877273" lon="13.0557101"><ele>116.99999999999999</ele><time>2026-04-11T07:49:38.544Z</time></trkpt><trkpt lat="43.7876354" lon="13.0557093"><ele>116.99999999999999</ele><time>2026-04-11T07:49:39.544Z</time></trkpt><trkpt lat="43.7875438" lon="13.0557075"><ele>117.0</ele><time>2026-04-11T07:49:40.544Z</time></trkpt><trkpt lat="43.7874536" lon="13.0557046"><ele>117.0</ele><time>2026-04-11T07:49:41.543Z</time></trkpt><trkpt lat="43.7873527" lon="13.0557042"><ele>117.39999999999999</ele><time>2026-04-11T07:49:42.543Z</time></trkpt><trkpt lat="43.7872471" lon="13.0557106"><ele>117.79999999999998</ele><time>2026-04-11T07:49:43.543Z</time></trkpt><trkpt lat="43.787139" lon="13.0557265"><ele>118.2</ele><time>2026-04-11T07:49:44.544Z</time></trkpt><trkpt lat="43.7870383" lon="13.0557401"><ele>118.6</ele><time>2026-04-11T07:49:45.544Z</time></trkpt><trkpt lat="43.7869343" lon="13.0557593"><ele>119.0</ele><time>2026-04-11T07:49:46.544Z</time></trkpt><trkpt lat="43.786824" lon="13.0557758"><ele>117.4</ele><time>2026-04-11T07:49:47.544Z</time></trkpt><trkpt lat="43.7867198" lon="13.0558016"><ele>115.80000000000001</ele><time>2026-04-11T07:49:48.542Z</time></trkpt><trkpt lat="43.786614" lon="13.0558172"><ele>114.19999999999999</ele><time>2026-04-11T07:49:49.543Z</time></trkpt><trkpt lat="43.7865047" lon="13.0558426"><ele>112.6</ele><time>2026-04-11T07:49:50.544Z</time></trkpt><trkpt lat="43.7863897" lon="13.0558715"><ele>111.0</ele><time>2026-04-11T07:49:51.544Z</time></trkpt><trkpt lat="43.7862744" lon="13.0558999"><ele>111.0</ele><time>2026-04-11T07:49:52.544Z</time></trkpt><trkpt lat="43.7861616" lon="13.0559171"><ele>111.0</ele><time>2026-04-11T07:49:53.544Z</time></trkpt><trkpt lat="43.7860517" lon="13.0559384"><ele>111.0</ele><time>2026-04-11T07:49:54.543Z</time></trkpt><trkpt lat="43.7859435" lon="13.0559636"><ele>111.0</ele><time>2026-04-11T07:49:55.543Z</time></trkpt><trkpt lat="43.7858308" lon="13.0559785"><ele>111.0</ele><time>2026-04-11T07:49:56.542Z</time></trkpt><trkpt lat="43.7857136" lon="13.0559845"><ele>109.75</ele><time>2026-04-11T07:49:57.543Z</time></trkpt><trkpt lat="43.785592" lon="13.0559854"><ele>108.5</ele><time>2026-04-11T07:49:58.544Z</time></trkpt><trkpt lat="43.7854642" lon="13.0559862"><ele>107.25</ele><time>2026-04-11T07:49:59.543Z</time></trkpt><trkpt lat="43.7853329" lon="13.0559765"><ele>106.0</ele><time>2026-04-11T07:50:00.544Z</time></trkpt><trkpt lat="43.7851969" lon="13.0559643"><ele>105.75</ele><time>2026-04-11T07:50:01.543Z</time></trkpt><trkpt lat="43.7850613" lon="13.055951"><ele>105.5</ele><time>2026-04-11T07:50:02.543Z</time></trkpt><trkpt lat="43.7849328" lon="13.0559402"><ele>105.25</ele><time>2026-04-11T07:50:03.543Z</time></trkpt><trkpt lat="43.7848104" lon="13.0559341"><ele>105.0</ele><time>2026-04-11T07:50:04.543Z</time></trkpt><trkpt lat="43.7846853" lon="13.0559257"><ele>105.0</ele><time>2026-04-11T07:50:05.543Z</time></trkpt><trkpt lat="43.7845661" lon="13.0559266"><ele>105.0</ele><time>2026-04-11T07:50:06.543Z</time></trkpt><trkpt lat="43.7844427" lon="13.0559234"><ele>105.0</ele><time>2026-04-11T07:50:07.543Z</time></trkpt><trkpt lat="43.7843235" lon="13.055922"><ele>105.0</ele><time>2026-04-11T07:50:08.544Z</time></trkpt><trkpt lat="43.7842065" lon="13.0559114"><ele>104.0</ele><time>2026-04-11T07:50:09.543Z</time></trkpt><trkpt lat="43.784093" lon="13.0558953"><ele>103.0</ele><time>2026-04-11T07:50:10.543Z</time></trkpt><trkpt lat="43.7839866" lon="13.055879"><ele>102.0</ele><time>2026-04-11T07:50:11.543Z</time></trkpt><trkpt lat="43.7838855" lon="13.0558786"><ele>101.0</ele><time>2026-04-11T07:50:12.542Z</time></trkpt><trkpt lat="43.7837809" lon="13.0558889"><ele>100.0</ele><time>2026-04-11T07:50:13.543Z</time></trkpt><trkpt lat="43.7836879" lon="13.055904"><ele>100.00000000000001</ele><time>2026-04-11T07:50:14.542Z</time></trkpt><trkpt lat="43.7836026" lon="13.0559202"><ele>100.0</ele><time>2026-04-11T07:50:15.543Z</time></trkpt><trkpt lat="43.7835289" lon="13.0559481"><ele>100.0</ele><time>2026-04-11T07:50:16.543Z</time></trkpt><trkpt lat="43.783459" lon="13.0559775"><ele>100.0</ele><time>2026-04-11T07:50:17.542Z</time></trkpt><trkpt lat="43.7833976" lon="13.0559994"><ele>100.00000000000001</ele><time>2026-04-11T07:50:18.544Z</time></trkpt><trkpt lat="43.7833102" lon="13.0559639"><ele>100.0</ele><time>2026-04-11T07:50:20.543Z</time></trkpt><trkpt lat="43.7832232" lon="13.0559176"><ele>99.00000000000001</ele><time>2026-04-11T07:50:22.543Z</time></trkpt><trkpt lat="43.783124" lon="13.0559143"><ele>98.0</ele><time>2026-04-11T07:50:24.543Z</time></trkpt><trkpt lat="43.7830595" lon="13.0559103"><ele>97.0</ele><time>2026-04-11T07:50:25.543Z</time></trkpt><trkpt lat="43.7829864" lon="13.0558981"><ele>96.0</ele><time>2026-04-11T07:50:26.544Z</time></trkpt><trkpt lat="43.7829115" lon="13.0558916"><ele>95.0</ele><time>2026-04-11T07:50:27.542Z</time></trkpt><trkpt lat="43.7828286" lon="13.0558708"><ele>94.0</ele><time>2026-04-11T07:50:28.544Z</time></trkpt><trkpt lat="43.7827436" lon="13.0558566"><ele>92.5</ele><time>2026-04-11T07:50:29.543Z</time></trkpt><trkpt lat="43.7826595" lon="13.0558389"><ele>91.0</ele><time>2026-04-11T07:50:30.543Z</time></trkpt><trkpt lat="43.782574" lon="13.0558272"><ele>89.5</ele><time>2026-04-11T07:50:31.544Z</time></trkpt><trkpt lat="43.7824938" lon="13.0558197"><ele>88.0</ele><time>2026-04-11T07:50:32.543Z</time></trkpt><trkpt lat="43.7824125" lon="13.0558193"><ele>86.5</ele><time>2026-04-11T07:50:33.543Z</time></trkpt><trkpt lat="43.7823367" lon="13.0558235"><ele>85.0</ele><time>2026-04-11T07:50:34.542Z</time></trkpt><trkpt lat="43.782261" lon="13.0558351"><ele>85.0</ele><time>2026-04-11T07:50:35.543Z</time></trkpt><trkpt lat="43.7821704" lon="13.0558375"><ele>85.0</ele><time>2026-04-11T07:50:36.543Z</time></trkpt><trkpt lat="43.7820676" lon="13.0558396"><ele>85.0</ele><time>2026-04-11T07:50:37.544Z</time></trkpt><trkpt lat="43.7819617" lon="13.0558386"><ele>85.0</ele><time>2026-04-11T07:50:38.543Z</time></trkpt><trkpt lat="43.7818564" lon="13.055833"><ele>85.0</ele><time>2026-04-11T07:50:39.544Z</time></trkpt><trkpt lat="43.7817575" lon="13.0558221"><ele>83.83333333333333</ele><time>2026-04-11T07:50:40.544Z</time></trkpt><trkpt lat="43.7816637" lon="13.0558123"><ele>82.66666666666666</ele><time>2026-04-11T07:50:41.542Z</time></trkpt><trkpt lat="43.7815845" lon="13.0558031"><ele>81.5</ele><time>2026-04-11T07:50:42.544Z</time></trkpt><trkpt lat="43.7815169" lon="13.0557994"><ele>80.33333333333333</ele><time>2026-04-11T07:50:43.542Z</time></trkpt><trkpt lat="43.7814033" lon="13.055853"><ele>79.16666666666667</ele><time>2026-04-11T07:50:45.543Z</time></trkpt><trkpt lat="43.7813495" lon="13.0559139"><ele>78.0</ele><time>2026-04-11T07:50:46.544Z</time></trkpt><trkpt lat="43.7813077" lon="13.055983"><ele>78.0</ele><time>2026-04-11T07:50:47.543Z</time></trkpt><trkpt lat="43.7812613" lon="13.0560569"><ele>78.0</ele><time>2026-04-11T07:50:48.544Z</time></trkpt><trkpt lat="43.7812107" lon="13.0561316"><ele>78.0</ele><time>2026-04-11T07:50:49.543Z</time></trkpt><trkpt lat="43.7811538" lon="13.0562074"><ele>78.0</ele><time>2026-04-11T07:50:50.544Z</time></trkpt><trkpt lat="43.7810932" lon="13.0562683"><ele>78.0</ele><time>2026-04-11T07:50:51.542Z</time></trkpt><trkpt lat="43.7810268" lon="13.0562989"><ele>78.0</ele><time>2026-04-11T07:50:52.543Z</time></trkpt><trkpt lat="43.7809599" lon="13.0563099"><ele>78.0</ele><time>2026-04-11T07:50:53.544Z</time></trkpt><trkpt lat="43.7808864" lon="13.0563051"><ele>75.66666666666667</ele><time>2026-04-11T07:50:54.544Z</time></trkpt><trkpt lat="43.7808124" lon="13.0562825"><ele>73.33333333333333</ele><time>2026-04-11T07:50:55.544Z</time></trkpt><trkpt lat="43.7807343" lon="13.0562533"><ele>71.0</ele><time>2026-04-11T07:50:56.544Z</time></trkpt><trkpt lat="43.7806604" lon="13.0562205"><ele>68.66666666666666</ele><time>2026-04-11T07:50:57.543Z</time></trkpt><trkpt lat="43.7805862" lon="13.0561866"><ele>66.33333333333333</ele><time>2026-04-11T07:50:58.544Z</time></trkpt><trkpt lat="43.7805138" lon="13.0561432"><ele>64.0</ele><time>2026-04-11T07:50:59.543Z</time></trkpt><trkpt lat="43.7804454" lon="13.0561017"><ele>63.99999999999999</ele><time>2026-04-11T07:51:00.544Z</time></trkpt><trkpt lat="43.7803681" lon="13.0560531"><ele>64.0</ele><time>2026-04-11T07:51:01.544Z</time></trkpt><trkpt lat="43.7802919" lon="13.056009"><ele>64.0</ele><time>2026-04-11T07:51:02.542Z</time></trkpt><trkpt lat="43.7802141" lon="13.0559677"><ele>64.0</ele><time>2026-04-11T07:51:03.543Z</time></trkpt><trkpt lat="43.7801469" lon="13.0559433"><ele>63.99999999999999</ele><time>2026-04-11T07:51:04.543Z</time></trkpt><trkpt lat="43.7800407" lon="13.0558929"><ele>64.0</ele><time>2026-04-11T07:51:06.544Z</time></trkpt><trkpt lat="43.7799934" lon="13.0557522"><ele>60.800000000000004</ele><time>2026-04-11T07:51:08.543Z</time></trkpt><trkpt lat="43.7799827" lon="13.0556415"><ele>57.60000000000001</ele><time>2026-04-11T07:51:09.544Z</time></trkpt><trkpt lat="43.7799815" lon="13.0555029"><ele>54.4</ele><time>2026-04-11T07:51:10.542Z</time></trkpt><trkpt lat="43.7799772" lon="13.0553518"><ele>51.2</ele><time>2026-04-11T07:51:11.543Z</time></trkpt><trkpt lat="43.7799857" lon="13.0552059"><ele>48.0</ele><time>2026-04-11T07:51:12.544Z</time></trkpt><trkpt lat="43.7800022" lon="13.0550538"><ele>47.25</ele><time>2026-04-11T07:51:13.543Z</time></trkpt><trkpt lat="43.7800204" lon="13.054894"><ele>46.5</ele><time>2026-04-11T07:51:14.543Z</time></trkpt><trkpt lat="43.7800425" lon="13.0547314"><ele>45.75</ele><time>2026-04-11T07:51:15.542Z</time></trkpt><trkpt lat="43.7800814" lon="13.0545623"><ele>45.0</ele><time>2026-04-11T07:51:16.544Z</time></trkpt><trkpt lat="43.7801281" lon="13.0544063"><ele>45.0</ele><time>2026-04-11T07:51:17.543Z</time></trkpt><trkpt lat="43.7801781" lon="13.0542549"><ele>45.0</ele><time>2026-04-11T07:51:18.543Z</time></trkpt><trkpt lat="43.7802364" lon="13.0541088"><ele>45.0</ele><time>2026-04-11T07:51:19.544Z</time></trkpt><trkpt lat="43.780299" lon="13.0539765"><ele>45.0</ele><time>2026-04-11T07:51:20.544Z</time></trkpt><trkpt lat="43.7803652" lon="13.0538601"><ele>46.5</ele><time>2026-04-11T07:51:21.543Z</time></trkpt><trkpt lat="43.7804239" lon="13.0537382"><ele>48.0</ele><time>2026-04-11T07:51:22.543Z</time></trkpt><trkpt lat="43.7804744" lon="13.0536031"><ele>49.5</ele><time>2026-04-11T07:51:23.543Z</time></trkpt><trkpt lat="43.7805121" lon="13.0534554"><ele>51.0</ele><time>2026-04-11T07:51:24.542Z</time></trkpt><trkpt lat="43.7805306" lon="13.0532883"><ele>52.5</ele><time>2026-04-11T07:51:25.544Z</time></trkpt><trkpt lat="43.7805374" lon="13.0531196"><ele>54.0</ele><time>2026-04-11T07:51:26.544Z</time></trkpt><trkpt lat="43.7805326" lon="13.0529494"><ele>55.5</ele><time>2026-04-11T07:51:27.544Z</time></trkpt><trkpt lat="43.780525" lon="13.0527749"><ele>57.0</ele><time>2026-04-11T07:51:28.544Z</time></trkpt><trkpt lat="43.7805187" lon="13.0525933"><ele>58.6</ele><time>2026-04-11T07:51:29.543Z</time></trkpt><trkpt lat="43.7805113" lon="13.0524183"><ele>60.2</ele><time>2026-04-11T07:51:30.543Z</time></trkpt><trkpt lat="43.7805081" lon="13.05225"><ele>61.8</ele><time>2026-04-11T07:51:31.544Z</time></trkpt><trkpt lat="43.780508" lon="13.0521095"><ele>63.4</ele><time>2026-04-11T07:51:32.543Z</time></trkpt><trkpt lat="43.7805074" lon="13.0519961"><ele>65.0</ele><time>2026-04-11T07:51:33.544Z</time></trkpt><trkpt lat="43.7805199" lon="13.0518994"><ele>65.0</ele><time>2026-04-11T07:51:34.543Z</time></trkpt><trkpt lat="43.7805491" lon="13.051819"><ele>65.0</ele><time>2026-04-11T07:51:35.544Z</time></trkpt><trkpt lat="43.7806643" lon="13.0517335"><ele>65.0</ele><time>2026-04-11T07:51:37.545Z</time></trkpt><trkpt lat="43.7807469" lon="13.0517108"><ele>65.0</ele><time>2026-04-11T07:51:38.543Z</time></trkpt><trkpt lat="43.7808229" lon="13.0516843"><ele>65.0</ele><time>2026-04-11T07:51:39.544Z</time></trkpt><trkpt lat="43.7808981" lon="13.0516558"><ele>65.0</ele><time>2026-04-11T07:51:40.543Z</time></trkpt><trkpt lat="43.7809943" lon="13.0515757"><ele>64.8</ele><time>2026-04-11T07:51:42.543Z</time></trkpt><trkpt lat="43.7810068" lon="13.0514128"><ele>64.6</ele><time>2026-04-11T07:51:44.544Z</time></trkpt><trkpt lat="43.7809936" lon="13.0513091"><ele>64.4</ele><time>2026-04-11T07:51:45.542Z</time></trkpt><trkpt lat="43.7809865" lon="13.0512162"><ele>64.2</ele><time>2026-04-11T07:51:46.544Z</time></trkpt><trkpt lat="43.7810312" lon="13.0510869"><ele>64.0</ele><time>2026-04-11T07:51:48.543Z</time></trkpt><trkpt lat="43.7811566" lon="13.0510505"><ele>65.0</ele><time>2026-04-11T07:51:50.543Z</time></trkpt><trkpt lat="43.7812344" lon="13.0510689"><ele>66.0</ele><time>2026-04-11T07:51:51.543Z</time></trkpt><trkpt lat="43.7813514" lon="13.0510652"><ele>67.0</ele><time>2026-04-11T07:51:53.543Z</time></trkpt><trkpt lat="43.781402" lon="13.0509506"><ele>68.0</ele><time>2026-04-11T07:51:55.542Z</time></trkpt><trkpt lat="43.78136" lon="13.0508002"><ele>69.0</ele><time>2026-04-11T07:51:57.544Z</time></trkpt><trkpt lat="43.7813137" lon="13.0507273"><ele>69.0</ele><time>2026-04-11T07:51:58.544Z</time></trkpt><trkpt lat="43.7812619" lon="13.0506619"><ele>69.0</ele><time>2026-04-11T07:51:59.544Z</time></trkpt><trkpt lat="43.7812062" lon="13.0506052"><ele>69.0</ele><time>2026-04-11T07:52:00.543Z</time></trkpt><trkpt lat="43.7811487" lon="13.0505442"><ele>69.0</ele><time>2026-04-11T07:52:01.544Z</time></trkpt><trkpt lat="43.7810936" lon="13.0504827"><ele>69.0</ele><time>2026-04-11T07:52:02.544Z</time></trkpt><trkpt lat="43.7810354" lon="13.0504199"><ele>69.0</ele><time>2026-04-11T07:52:03.542Z</time></trkpt><trkpt lat="43.7809826" lon="13.0503609"><ele>69.0</ele><time>2026-04-11T07:52:04.543Z</time></trkpt><trkpt lat="43.7809268" lon="13.0503066"><ele>67.0</ele><time>2026-04-11T07:52:05.544Z</time></trkpt><trkpt lat="43.7808617" lon="13.0502379"><ele>65.0</ele><time>2026-04-11T07:52:06.543Z</time></trkpt><trkpt lat="43.7807906" lon="13.0501517"><ele>63.00000000000001</ele><time>2026-04-11T07:52:07.544Z</time></trkpt><trkpt lat="43.7807157" lon="13.0500574"><ele>61.0</ele><time>2026-04-11T07:52:08.543Z</time></trkpt><trkpt lat="43.7806386" lon="13.049959"><ele>59.0</ele><time>2026-04-11T07:52:09.545Z</time></trkpt><trkpt lat="43.780563" lon="13.0498592"><ele>59.0</ele><time>2026-04-11T07:52:10.544Z</time></trkpt><trkpt lat="43.780486" lon="13.0497721"><ele>59.00000000000001</ele><time>2026-04-11T07:52:11.544Z</time></trkpt><trkpt lat="43.7804045" lon="13.0496791"><ele>59.00000000000001</ele><time>2026-04-11T07:52:12.543Z</time></trkpt><trkpt lat="43.7803175" lon="13.0495822"><ele>59.0</ele><time>2026-04-11T07:52:13.545Z</time></trkpt><trkpt lat="43.780227" lon="13.0494918"><ele>59.0</ele><time>2026-04-11T07:52:14.544Z</time></trkpt><trkpt lat="43.7801372" lon="13.0493937"><ele>57.2</ele><time>2026-04-11T07:52:15.543Z</time></trkpt><trkpt lat="43.7800502" lon="13.0492994"><ele>55.400000000000006</ele><time>2026-04-11T07:52:16.543Z</time></trkpt><trkpt lat="43.7799776" lon="13.0492155"><ele>53.6</ele><time>2026-04-11T07:52:17.545Z</time></trkpt><trkpt lat="43.779918" lon="13.0491461"><ele>51.8</ele><time>2026-04-11T07:52:18.544Z</time></trkpt><trkpt lat="43.7798553" lon="13.0490707"><ele>50.0</ele><time>2026-04-11T07:52:19.545Z</time></trkpt><trkpt lat="43.7797879" lon="13.0489929"><ele>50.0</ele><time>2026-04-11T07:52:20.544Z</time></trkpt><trkpt lat="43.7797062" lon="13.0488949"><ele>50.0</ele><time>2026-04-11T07:52:21.543Z</time></trkpt><trkpt lat="43.7796142" lon="13.0487916"><ele>50.0</ele><time>2026-04-11T07:52:22.544Z</time></trkpt><trkpt lat="43.7795224" lon="13.0486913"><ele>50.0</ele><time>2026-04-11T07:52:23.543Z</time></trkpt><trkpt lat="43.7794263" lon="13.0485949"><ele>47.25</ele><time>2026-04-11T07:52:24.544Z</time></trkpt><trkpt lat="43.7793271" lon="13.0484937"><ele>44.5</ele><time>2026-04-11T07:52:25.543Z</time></trkpt><trkpt lat="43.779227" lon="13.0483957"><ele>41.75</ele><time>2026-04-11T07:52:26.543Z</time></trkpt><trkpt lat="43.7791278" lon="13.0483029"><ele>39.0</ele><time>2026-04-11T07:52:27.543Z</time></trkpt><trkpt lat="43.7790276" lon="13.0482115"><ele>38.4</ele><time>2026-04-11T07:52:28.544Z</time></trkpt><trkpt lat="43.7789308" lon="13.0481126"><ele>37.8</ele><time>2026-04-11T07:52:29.543Z</time></trkpt><trkpt lat="43.7788426" lon="13.0480199"><ele>37.2</ele><time>2026-04-11T07:52:30.543Z</time></trkpt><trkpt lat="43.7787649" lon="13.0479346"><ele>36.6</ele><time>2026-04-11T07:52:31.543Z</time></trkpt><trkpt lat="43.7786844" lon="13.047821"><ele>36.0</ele><time>2026-04-11T07:52:32.543Z</time></trkpt><trkpt lat="43.7786074" lon="13.0476964"><ele>36.0</ele><time>2026-04-11T07:52:33.544Z</time></trkpt><trkpt lat="43.7785394" lon="13.0475626"><ele>36.0</ele><time>2026-04-11T07:52:34.542Z</time></trkpt><trkpt lat="43.7784674" lon="13.0474347"><ele>36.0</ele><time>2026-04-11T07:52:35.543Z</time></trkpt><trkpt lat="43.7783945" lon="13.0473279"><ele>36.0</ele><time>2026-04-11T07:52:36.543Z</time></trkpt><trkpt lat="43.7783032" lon="13.0472363"><ele>35.833333333333336</ele><time>2026-04-11T07:52:37.543Z</time></trkpt><trkpt lat="43.7782132" lon="13.0471513"><ele>35.666666666666664</ele><time>2026-04-11T07:52:38.544Z</time></trkpt><trkpt lat="43.7781392" lon="13.0470794"><ele>35.5</ele><time>2026-04-11T07:52:39.543Z</time></trkpt><trkpt lat="43.7780743" lon="13.0470324"><ele>35.33333333333333</ele><time>2026-04-11T07:52:40.543Z</time></trkpt><trkpt lat="43.7779913" lon="13.0469866"><ele>35.166666666666664</ele><time>2026-04-11T07:52:42.543Z</time></trkpt><trkpt lat="43.7779467" lon="13.0469096"><ele>35.0</ele><time>2026-04-11T07:53:25.544Z</time></trkpt><trkpt lat="43.7779669" lon="13.0468032"><ele>35.0</ele><time>2026-04-11T07:53:28.543Z</time></trkpt><trkpt lat="43.7779977" lon="13.0466783"><ele>35.0</ele><time>2026-04-11T07:53:30.544Z</time></trkpt><trkpt lat="43.7780328" lon="13.0465358"><ele>35.0</ele><time>2026-04-11T07:53:32.544Z</time></trkpt><trkpt lat="43.7780624" lon="13.0464496"><ele>35.0</ele><time>2026-04-11T07:53:33.543Z</time></trkpt><trkpt lat="43.778094" lon="13.0463514"><ele>35.0</ele><time>2026-04-11T07:53:34.545Z</time></trkpt><trkpt lat="43.7781311" lon="13.0462469"><ele>35.0</ele><time>2026-04-11T07:53:35.545Z</time></trkpt><trkpt lat="43.7781635" lon="13.0461499"><ele>35.33333333333333</ele><time>2026-04-11T07:53:36.543Z</time></trkpt><trkpt lat="43.7781942" lon="13.046049"><ele>35.666666666666664</ele><time>2026-04-11T07:53:37.545Z</time></trkpt><trkpt lat="43.7782203" lon="13.0459594"><ele>36.0</ele><time>2026-04-11T07:53:38.544Z</time></trkpt><trkpt lat="43.7782471" lon="13.0458713"><ele>36.333333333333336</ele><time>2026-04-11T07:53:39.544Z</time></trkpt><trkpt lat="43.7782786" lon="13.0457913"><ele>36.66666666666667</ele><time>2026-04-11T07:53:40.544Z</time></trkpt><trkpt lat="43.7783123" lon="13.0456421"><ele>37.0</ele><time>2026-04-11T07:53:42.544Z</time></trkpt><trkpt lat="43.7783043" lon="13.045555"><ele>37.0</ele><time>2026-04-11T07:53:43.544Z</time></trkpt><trkpt lat="43.7782797" lon="13.0454695"><ele>37.0</ele><time>2026-04-11T07:53:44.544Z</time></trkpt><trkpt lat="43.7782466" lon="13.045385"><ele>37.0</ele><time>2026-04-11T07:53:45.543Z</time></trkpt><trkpt lat="43.7781782" lon="13.0453149"><ele>37.0</ele><time>2026-04-11T07:53:46.544Z</time></trkpt><trkpt lat="43.7780947" lon="13.0452602"><ele>37.0</ele><time>2026-04-11T07:53:47.544Z</time></trkpt><trkpt lat="43.7780055" lon="13.0452131"><ele>37.0</ele><time>2026-04-11T07:53:48.545Z</time></trkpt><trkpt lat="43.777906" lon="13.045203"><ele>37.0</ele><time>2026-04-11T07:53:49.543Z</time></trkpt><trkpt lat="43.7777947" lon="13.0451993"><ele>37.0</ele><time>2026-04-11T07:53:50.542Z</time></trkpt><trkpt lat="43.7776781" lon="13.0452006"><ele>37.0</ele><time>2026-04-11T07:53:51.543Z</time></trkpt><trkpt lat="43.7775486" lon="13.0452045"><ele>37.0</ele><time>2026-04-11T07:53:52.544Z</time></trkpt><trkpt lat="43.7774176" lon="13.0452111"><ele>37.0</ele><time>2026-04-11T07:53:53.544Z</time></trkpt><trkpt lat="43.7772797" lon="13.0452175"><ele>37.0</ele><time>2026-04-11T07:53:54.544Z</time></trkpt><trkpt lat="43.7771467" lon="13.0452288"><ele>37.0</ele><time>2026-04-11T07:53:55.545Z</time></trkpt><trkpt lat="43.7770169" lon="13.0452347"><ele>37.0</ele><time>2026-04-11T07:53:56.544Z</time></trkpt><trkpt lat="43.7768792" lon="13.0452479"><ele>37.5</ele><time>2026-04-11T07:53:57.544Z</time></trkpt><trkpt lat="43.7767422" lon="13.0452569"><ele>38.0</ele><time>2026-04-11T07:53:58.545Z</time></trkpt><trkpt lat="43.7765987" lon="13.0452691"><ele>38.5</ele><time>2026-04-11T07:53:59.543Z</time></trkpt><trkpt lat="43.7764531" lon="13.0452767"><ele>39.0</ele><time>2026-04-11T07:54:00.543Z</time></trkpt><trkpt lat="43.7763242" lon="13.0452744"><ele>39.0</ele><time>2026-04-11T07:54:01.545Z</time></trkpt><trkpt lat="43.776199" lon="13.0452713"><ele>39.0</ele><time>2026-04-11T07:54:02.544Z</time></trkpt><trkpt lat="43.7760782" lon="13.0452702"><ele>39.0</ele><time>2026-04-11T07:54:03.545Z</time></trkpt><trkpt lat="43.7759538" lon="13.0452648"><ele>39.0</ele><time>2026-04-11T07:54:04.544Z</time></trkpt><trkpt lat="43.775831" lon="13.0452618"><ele>40.5</ele><time>2026-04-11T07:54:05.544Z</time></trkpt><trkpt lat="43.7757075" lon="13.0452548"><ele>42.0</ele><time>2026-04-11T07:54:06.544Z</time></trkpt><trkpt lat="43.7755884" lon="13.0452523"><ele>43.5</ele><time>2026-04-11T07:54:07.542Z</time></trkpt><trkpt lat="43.7754761" lon="13.045254"><ele>45.0</ele><time>2026-04-11T07:54:08.544Z</time></trkpt><trkpt lat="43.775374" lon="13.0452671"><ele>45.0</ele><time>2026-04-11T07:54:09.543Z</time></trkpt><trkpt lat="43.7752864" lon="13.045292"><ele>45.0</ele><time>2026-04-11T07:54:10.545Z</time></trkpt><trkpt lat="43.7752081" lon="13.0453221"><ele>45.0</ele><time>2026-04-11T07:54:11.543Z</time></trkpt><trkpt lat="43.7751288" lon="13.0453431"><ele>45.0</ele><time>2026-04-11T07:54:12.543Z</time></trkpt><trkpt lat="43.7750604" lon="13.0453475"><ele>45.0</ele><time>2026-04-11T07:54:13.544Z</time></trkpt><trkpt lat="43.7749889" lon="13.0453227"><ele>45.0</ele><time>2026-04-11T07:54:14.544Z</time></trkpt><trkpt lat="43.7749087" lon="13.0452606"><ele>46.4</ele><time>2026-04-11T07:54:15.542Z</time></trkpt><trkpt lat="43.7748224" lon="13.0451784"><ele>47.8</ele><time>2026-04-11T07:54:16.544Z</time></trkpt><trkpt lat="43.7747351" lon="13.0450928"><ele>49.2</ele><time>2026-04-11T07:54:17.544Z</time></trkpt><trkpt lat="43.7746424" lon="13.0449964"><ele>50.6</ele><time>2026-04-11T07:54:18.545Z</time></trkpt><trkpt lat="43.7745499" lon="13.0449009"><ele>52.0</ele><time>2026-04-11T07:54:19.544Z</time></trkpt><trkpt lat="43.7744639" lon="13.0448019"><ele>52.0</ele><time>2026-04-11T07:54:20.545Z</time></trkpt><trkpt lat="43.7743687" lon="13.0447152"><ele>52.0</ele><time>2026-04-11T07:54:21.544Z</time></trkpt><trkpt lat="43.7742695" lon="13.0446444"><ele>52.0</ele><time>2026-04-11T07:54:22.543Z</time></trkpt><trkpt lat="43.7741644" lon="13.0445834"><ele>52.0</ele><time>2026-04-11T07:54:23.543Z</time></trkpt><trkpt lat="43.7740582" lon="13.0445186"><ele>55.0</ele><time>2026-04-11T07:54:24.544Z</time></trkpt><trkpt lat="43.7739577" lon="13.044455"><ele>58.0</ele><time>2026-04-11T07:54:25.544Z</time></trkpt><trkpt lat="43.7738617" lon="13.0443885"><ele>61.0</ele><time>2026-04-11T07:54:26.543Z</time></trkpt><trkpt lat="43.7737732" lon="13.0443478"><ele>64.0</ele><time>2026-04-11T07:54:27.544Z</time></trkpt><trkpt lat="43.7736924" lon="13.0443301"><ele>67.0</ele><time>2026-04-11T07:54:28.545Z</time></trkpt><trkpt lat="43.7736174" lon="13.044354"><ele>67.0</ele><time>2026-04-11T07:54:29.544Z</time></trkpt><trkpt lat="43.773538" lon="13.0444176"><ele>67.0</ele><time>2026-04-11T07:54:30.544Z</time></trkpt><trkpt lat="43.7734465" lon="13.0444994"><ele>67.0</ele><time>2026-04-11T07:54:31.544Z</time></trkpt><trkpt lat="43.7733604" lon="13.044582"><ele>67.0</ele><time>2026-04-11T07:54:32.543Z</time></trkpt><trkpt lat="43.773262" lon="13.0446503"><ele>67.0</ele><time>2026-04-11T07:54:33.544Z</time></trkpt><trkpt lat="43.7731548" lon="13.0446947"><ele>69.8</ele><time>2026-04-11T07:54:34.542Z</time></trkpt><trkpt lat="43.7730372" lon="13.0447291"><ele>72.6</ele><time>2026-04-11T07:54:35.544Z</time></trkpt><trkpt lat="43.7729314" lon="13.0447591"><ele>75.39999999999999</ele><time>2026-04-11T07:54:36.543Z</time></trkpt><trkpt lat="43.7728292" lon="13.0447838"><ele>78.2</ele><time>2026-04-11T07:54:37.544Z</time></trkpt><trkpt lat="43.7727194" lon="13.0448023"><ele>81.0</ele><time>2026-04-11T07:54:38.545Z</time></trkpt><trkpt lat="43.7726063" lon="13.0448129"><ele>82.0</ele><time>2026-04-11T07:54:39.545Z</time></trkpt><trkpt lat="43.7725031" lon="13.0448178"><ele>83.0</ele><time>2026-04-11T07:54:40.545Z</time></trkpt><trkpt lat="43.7724086" lon="13.044814"><ele>84.0</ele><time>2026-04-11T07:54:41.545Z</time></trkpt><trkpt lat="43.7723192" lon="13.0448125"><ele>85.0</ele><time>2026-04-11T07:54:42.543Z</time></trkpt><trkpt lat="43.7722242" lon="13.0448168"><ele>86.0</ele><time>2026-04-11T07:54:43.544Z</time></trkpt><trkpt lat="43.7721204" lon="13.0448551"><ele>86.0</ele><time>2026-04-11T07:54:44.544Z</time></trkpt><trkpt lat="43.7720238" lon="13.0449146"><ele>86.0</ele><time>2026-04-11T07:54:45.543Z</time></trkpt><trkpt lat="43.7719202" lon="13.044972"><ele>86.0</ele><time>2026-04-11T07:54:46.543Z</time></trkpt><trkpt lat="43.7718287" lon="13.0450201"><ele>86.0</ele><time>2026-04-11T07:54:47.544Z</time></trkpt><trkpt lat="43.7717425" lon="13.0450717"><ele>86.0</ele><time>2026-04-11T07:54:48.543Z</time></trkpt><trkpt lat="43.7716795" lon="13.0451342"><ele>87.16666666666667</ele><time>2026-04-11T07:54:49.543Z</time></trkpt><trkpt lat="43.7716291" lon="13.0452063"><ele>88.33333333333334</ele><time>2026-04-11T07:54:50.543Z</time></trkpt><trkpt lat="43.7716138" lon="13.0453061"><ele>89.5</ele><time>2026-04-11T07:54:51.543Z</time></trkpt><trkpt lat="43.7716195" lon="13.0454181"><ele>90.66666666666667</ele><time>2026-04-11T07:54:52.545Z</time></trkpt><trkpt lat="43.7716439" lon="13.0455421"><ele>91.83333333333333</ele><time>2026-04-11T07:54:53.545Z</time></trkpt><trkpt lat="43.7716752" lon="13.0456717"><ele>93.0</ele><time>2026-04-11T07:54:54.543Z</time></trkpt><trkpt lat="43.7717084" lon="13.0457984"><ele>94.2</ele><time>2026-04-11T07:54:55.543Z</time></trkpt><trkpt lat="43.7717372" lon="13.0459061"><ele>95.4</ele><time>2026-04-11T07:54:56.544Z</time></trkpt><trkpt lat="43.7717592" lon="13.0459914"><ele>96.60000000000001</ele><time>2026-04-11T07:54:57.543Z</time></trkpt><trkpt lat="43.771732" lon="13.0461336"><ele>97.80000000000001</ele><time>2026-04-11T07:54:59.544Z</time></trkpt><trkpt lat="43.7716191" lon="13.0462494"><ele>99.0</ele><time>2026-04-11T07:55:01.544Z</time></trkpt><trkpt lat="43.7715266" lon="13.0462998"><ele>99.0</ele><time>2026-04-11T07:55:02.544Z</time></trkpt><trkpt lat="43.7714306" lon="13.0463477"><ele>99.0</ele><time>2026-04-11T07:55:03.543Z</time></trkpt><trkpt lat="43.7713283" lon="13.0463951"><ele>99.0</ele><time>2026-04-11T07:55:04.544Z</time></trkpt><trkpt lat="43.7712241" lon="13.0464416"><ele>99.0</ele><time>2026-04-11T07:55:05.543Z</time></trkpt><trkpt lat="43.771118" lon="13.0464941"><ele>99.0</ele><time>2026-04-11T07:55:06.545Z</time></trkpt><trkpt lat="43.7710212" lon="13.0465424"><ele>98.5</ele><time>2026-04-11T07:55:07.544Z</time></trkpt><trkpt lat="43.7709147" lon="13.0465977"><ele>98.0</ele><time>2026-04-11T07:55:08.544Z</time></trkpt><trkpt lat="43.7708061" lon="13.04666"><ele>97.5</ele><time>2026-04-11T07:55:09.543Z</time></trkpt><trkpt lat="43.7706982" lon="13.0467242"><ele>97.0</ele><time>2026-04-11T07:55:10.544Z</time></trkpt><trkpt lat="43.7705864" lon="13.0467812"><ele>98.0</ele><time>2026-04-11T07:55:11.543Z</time></trkpt><trkpt lat="43.7704804" lon="13.046831"><ele>99.0</ele><time>2026-04-11T07:55:12.544Z</time></trkpt><trkpt lat="43.7703602" lon="13.0468672"><ele>100.0</ele><time>2026-04-11T07:55:13.543Z</time></trkpt><trkpt lat="43.7702387" lon="13.0468865"><ele>101.0</ele><time>2026-04-11T07:55:14.544Z</time></trkpt><trkpt lat="43.7701182" lon="13.0468875"><ele>101.25</ele><time>2026-04-11T07:55:15.543Z</time></trkpt><trkpt lat="43.7700047" lon="13.0468794"><ele>101.5</ele><time>2026-04-11T07:55:16.544Z</time></trkpt><trkpt lat="43.7699011" lon="13.0468371"><ele>101.75</ele><time>2026-04-11T07:55:17.544Z</time></trkpt><trkpt lat="43.7697981" lon="13.046766"><ele>102.0</ele><time>2026-04-11T07:55:18.544Z</time></trkpt><trkpt lat="43.7697021" lon="13.0466676"><ele>102.25</ele><time>2026-04-11T07:55:19.543Z</time></trkpt><trkpt lat="43.7696029" lon="13.0465704"><ele>102.5</ele><time>2026-04-11T07:55:20.544Z</time></trkpt><trkpt lat="43.7695012" lon="13.0464906"><ele>102.75</ele><time>2026-04-11T07:55:21.544Z</time></trkpt><trkpt lat="43.7693833" lon="13.0464293"><ele>103.0</ele><time>2026-04-11T07:55:22.544Z</time></trkpt><trkpt lat="43.7692515" lon="13.046381"><ele>103.0</ele><time>2026-04-11T07:55:23.544Z</time></trkpt><trkpt lat="43.7691099" lon="13.0463487"><ele>103.0</ele><time>2026-04-11T07:55:24.542Z</time></trkpt><trkpt lat="43.7689535" lon="13.0463318"><ele>103.0</ele><time>2026-04-11T07:55:25.544Z</time></trkpt><trkpt lat="43.7688067" lon="13.0463272"><ele>103.0</ele><time>2026-04-11T07:55:26.544Z</time></trkpt><trkpt lat="43.7686665" lon="13.0463234"><ele>104.5</ele><time>2026-04-11T07:55:27.543Z</time></trkpt><trkpt lat="43.7685166" lon="13.0463246"><ele>106.0</ele><time>2026-04-11T07:55:28.543Z</time></trkpt><trkpt lat="43.7683732" lon="13.0463315"><ele>107.5</ele><time>2026-04-11T07:55:29.543Z</time></trkpt><trkpt lat="43.7682314" lon="13.0463377"><ele>109.0</ele><time>2026-04-11T07:55:30.544Z</time></trkpt><trkpt lat="43.7680914" lon="13.0463532"><ele>109.0</ele><time>2026-04-11T07:55:31.543Z</time></trkpt><trkpt lat="43.7679642" lon="13.0463569"><ele>109.0</ele><time>2026-04-11T07:55:32.543Z</time></trkpt><trkpt lat="43.76784" lon="13.0463633"><ele>109.0</ele><time>2026-04-11T07:55:33.544Z</time></trkpt><trkpt lat="43.7677196" lon="13.0463794"><ele>109.0</ele><time>2026-04-11T07:55:34.544Z</time></trkpt><trkpt lat="43.7675985" lon="13.0464219"><ele>109.25</ele><time>2026-04-11T07:55:35.543Z</time></trkpt><trkpt lat="43.7674817" lon="13.0464834"><ele>109.5</ele><time>2026-04-11T07:55:36.544Z</time></trkpt><trkpt lat="43.7673645" lon="13.0465647"><ele>109.75</ele><time>2026-04-11T07:55:37.544Z</time></trkpt><trkpt lat="43.7672482" lon="13.0466587"><ele>110.0</ele><time>2026-04-11T07:55:38.545Z</time></trkpt><trkpt lat="43.7671522" lon="13.0467381"><ele>111.0</ele><time>2026-04-11T07:55:39.542Z</time></trkpt><trkpt lat="43.7670737" lon="13.0468216"><ele>112.0</ele><time>2026-04-11T07:55:40.545Z</time></trkpt><trkpt lat="43.7669959" lon="13.0469245"><ele>113.0</ele><time>2026-04-11T07:55:41.545Z</time></trkpt><trkpt lat="43.7669333" lon="13.0470545"><ele>114.0</ele><time>2026-04-11T07:55:42.545Z</time></trkpt><trkpt lat="43.7668779" lon="13.0472012"><ele>115.0</ele><time>2026-04-11T07:55:43.544Z</time></trkpt><trkpt lat="43.7668358" lon="13.0473527"><ele>116.0</ele><time>2026-04-11T07:55:44.544Z</time></trkpt><trkpt lat="43.7668029" lon="13.047495"><ele>117.0</ele><time>2026-04-11T07:55:45.544Z</time></trkpt><trkpt lat="43.7667822" lon="13.0476331"><ele>118.0</ele><time>2026-04-11T07:55:46.543Z</time></trkpt><trkpt lat="43.7667682" lon="13.0477873"><ele>119.0</ele><time>2026-04-11T07:55:47.544Z</time></trkpt><trkpt lat="43.7667577" lon="13.0479539"><ele>120.0</ele><time>2026-04-11T07:55:48.544Z</time></trkpt><trkpt lat="43.7667517" lon="13.0481307"><ele>119.5</ele><time>2026-04-11T07:55:49.544Z</time></trkpt><trkpt lat="43.7667481" lon="13.0483235"><ele>119.0</ele><time>2026-04-11T07:55:50.543Z</time></trkpt><trkpt lat="43.7667398" lon="13.0485212"><ele>118.5</ele><time>2026-04-11T07:55:51.543Z</time></trkpt><trkpt lat="43.7667247" lon="13.0487223"><ele>118.0</ele><time>2026-04-11T07:55:52.544Z</time></trkpt><trkpt lat="43.7666992" lon="13.0489098"><ele>118.0</ele><time>2026-04-11T07:55:53.543Z</time></trkpt><trkpt lat="43.7666652" lon="13.0490898"><ele>118.0</ele><time>2026-04-11T07:55:54.543Z</time></trkpt><trkpt lat="43.7666144" lon="13.0492597"><ele>118.0</ele><time>2026-04-11T07:55:55.545Z</time></trkpt><trkpt lat="43.7665569" lon="13.0494232"><ele>118.0</ele><time>2026-04-11T07:55:56.544Z</time></trkpt><trkpt lat="43.7664831" lon="13.0495817"><ele>117.75</ele><time>2026-04-11T07:55:57.543Z</time></trkpt><trkpt lat="43.7664033" lon="13.0497342"><ele>117.5</ele><time>2026-04-11T07:55:58.543Z</time></trkpt><trkpt lat="43.7663075" lon="13.0498816"><ele>117.25</ele><time>2026-04-11T07:55:59.544Z</time></trkpt><trkpt lat="43.7662167" lon="13.0500295"><ele>117.0</ele><time>2026-04-11T07:56:00.543Z</time></trkpt><trkpt lat="43.7661353" lon="13.0501881"><ele>117.25</ele><time>2026-04-11T07:56:01.543Z</time></trkpt><trkpt lat="43.7660628" lon="13.0503588"><ele>117.5</ele><time>2026-04-11T07:56:02.545Z</time></trkpt><trkpt lat="43.7659907" lon="13.0505367"><ele>117.75</ele><time>2026-04-11T07:56:03.543Z</time></trkpt><trkpt lat="43.765925" lon="13.0507218"><ele>118.0</ele><time>2026-04-11T07:56:04.543Z</time></trkpt><trkpt lat="43.7658383" lon="13.050904"><ele>118.33333333333334</ele><time>2026-04-11T07:56:05.545Z</time></trkpt><trkpt lat="43.7657435" lon="13.0510765"><ele>118.66666666666666</ele><time>2026-04-11T07:56:06.544Z</time></trkpt><trkpt lat="43.7656412" lon="13.0512476"><ele>119.0</ele><time>2026-04-11T07:56:07.544Z</time></trkpt><trkpt lat="43.7655348" lon="13.0514184"><ele>119.0</ele><time>2026-04-11T07:56:08.544Z</time></trkpt><trkpt lat="43.7654343" lon="13.051582"><ele>119.0</ele><time>2026-04-11T07:56:09.544Z</time></trkpt><trkpt lat="43.7653359" lon="13.0517205"><ele>119.0</ele><time>2026-04-11T07:56:10.544Z</time></trkpt><trkpt lat="43.7652274" lon="13.0518325"><ele>119.0</ele><time>2026-04-11T07:56:11.544Z</time></trkpt><trkpt lat="43.7651122" lon="13.0519403"><ele>121.33333333333333</ele><time>2026-04-11T07:56:12.543Z</time></trkpt><trkpt lat="43.7649869" lon="13.052053"><ele>123.66666666666666</ele><time>2026-04-11T07:56:13.543Z</time></trkpt><trkpt lat="43.7648576" lon="13.0521748"><ele>126.0</ele><time>2026-04-11T07:56:14.543Z</time></trkpt><trkpt lat="43.7647317" lon="13.0522968"><ele>126.0</ele><time>2026-04-11T07:56:15.542Z</time></trkpt><trkpt lat="43.7646035" lon="13.0524014"><ele>126.0</ele><time>2026-04-11T07:56:16.543Z</time></trkpt><trkpt lat="43.7644665" lon="13.0524817"><ele>126.0</ele><time>2026-04-11T07:56:17.544Z</time></trkpt><trkpt lat="43.7643219" lon="13.0525477"><ele>128.33333333333334</ele><time>2026-04-11T07:56:18.544Z</time></trkpt><trkpt lat="43.7641711" lon="13.052597"><ele>130.66666666666669</ele><time>2026-04-11T07:56:19.545Z</time></trkpt><trkpt lat="43.7640144" lon="13.0526506"><ele>133.0</ele><time>2026-04-11T07:56:20.544Z</time></trkpt><trkpt lat="43.7638574" lon="13.0527109"><ele>133.0</ele><time>2026-04-11T07:56:21.543Z</time></trkpt><trkpt lat="43.7636982" lon="13.0527638"><ele>133.0</ele><time>2026-04-11T07:56:22.545Z</time></trkpt><trkpt lat="43.7635349" lon="13.0528144"><ele>133.0</ele><time>2026-04-11T07:56:23.543Z</time></trkpt><trkpt lat="43.76337" lon="13.0528578"><ele>134.0</ele><time>2026-04-11T07:56:24.544Z</time></trkpt><trkpt lat="43.7632145" lon="13.0528937"><ele>135.0</ele><time>2026-04-11T07:56:25.544Z</time></trkpt><trkpt lat="43.7630765" lon="13.0529141"><ele>136.0</ele><time>2026-04-11T07:56:26.545Z</time></trkpt><trkpt lat="43.7629515" lon="13.0529039"><ele>137.0</ele><time>2026-04-11T07:56:27.543Z</time></trkpt><trkpt lat="43.7628241" lon="13.0528652"><ele>139.66666666666666</ele><time>2026-04-11T07:56:28.545Z</time></trkpt><trkpt lat="43.7626868" lon="13.0528005"><ele>142.33333333333334</ele><time>2026-04-11T07:56:29.544Z</time></trkpt><trkpt lat="43.7625468" lon="13.0527123"><ele>145.0</ele><time>2026-04-11T07:56:30.542Z</time></trkpt><trkpt lat="43.7624006" lon="13.0526081"><ele>145.0</ele><time>2026-04-11T07:56:31.545Z</time></trkpt><trkpt lat="43.7622536" lon="13.0524794"><ele>145.0</ele><time>2026-04-11T07:56:32.545Z</time></trkpt><trkpt lat="43.762107" lon="13.0523401"><ele>145.0</ele><time>2026-04-11T07:56:33.544Z</time></trkpt><trkpt lat="43.7619721" lon="13.0522045"><ele>147.33333333333334</ele><time>2026-04-11T07:56:34.544Z</time></trkpt><trkpt lat="43.7618433" lon="13.0520941"><ele>149.66666666666666</ele><time>2026-04-11T07:56:35.544Z</time></trkpt><trkpt lat="43.7617093" lon="13.0519978"><ele>152.0</ele><time>2026-04-11T07:56:36.545Z</time></trkpt><trkpt lat="43.7615632" lon="13.0519227"><ele>152.0</ele><time>2026-04-11T07:56:37.544Z</time></trkpt><trkpt lat="43.7614119" lon="13.0518658"><ele>152.0</ele><time>2026-04-11T07:56:38.544Z</time></trkpt><trkpt lat="43.7612667" lon="13.0518241"><ele>152.0</ele><time>2026-04-11T07:56:39.544Z</time></trkpt><trkpt lat="43.7611255" lon="13.0517979"><ele>152.0</ele><time>2026-04-11T07:56:40.544Z</time></trkpt><trkpt lat="43.7609886" lon="13.0517951"><ele>151.75</ele><time>2026-04-11T07:56:41.544Z</time></trkpt><trkpt lat="43.7608513" lon="13.0518364"><ele>151.5</ele><time>2026-04-11T07:56:42.544Z</time></trkpt><trkpt lat="43.760715" lon="13.0519061"><ele>151.25</ele><time>2026-04-11T07:56:43.544Z</time></trkpt><trkpt lat="43.7605835" lon="13.052013"><ele>151.0</ele><time>2026-04-11T07:56:44.543Z</time></trkpt><trkpt lat="43.76045" lon="13.052141"><ele>151.0</ele><time>2026-04-11T07:56:45.545Z</time></trkpt><trkpt lat="43.7603042" lon="13.0522711"><ele>151.0</ele><time>2026-04-11T07:56:46.545Z</time></trkpt><trkpt lat="43.7601583" lon="13.0524057"><ele>151.0</ele><time>2026-04-11T07:56:47.544Z</time></trkpt><trkpt lat="43.7600113" lon="13.0525224"><ele>152.66666666666669</ele><time>2026-04-11T07:56:48.544Z</time></trkpt><trkpt lat="43.759859" lon="13.0526178"><ele>154.33333333333334</ele><time>2026-04-11T07:56:49.544Z</time></trkpt><trkpt lat="43.7596897" lon="13.0526978"><ele>156.0</ele><time>2026-04-11T07:56:50.543Z</time></trkpt><trkpt lat="43.7595414" lon="13.0527597"><ele>156.0</ele><time>2026-04-11T07:56:51.545Z</time></trkpt><trkpt lat="43.7593994" lon="13.0528316"><ele>156.0</ele><time>2026-04-11T07:56:52.545Z</time></trkpt><trkpt lat="43.7592723" lon="13.0529123"><ele>156.0</ele><time>2026-04-11T07:56:53.543Z</time></trkpt><trkpt lat="43.7591434" lon="13.0530108"><ele>156.0</ele><time>2026-04-11T07:56:54.544Z</time></trkpt><trkpt lat="43.7590173" lon="13.0531076"><ele>156.25</ele><time>2026-04-11T07:56:55.544Z</time></trkpt><trkpt lat="43.7588885" lon="13.0532014"><ele>156.5</ele><time>2026-04-11T07:56:56.545Z</time></trkpt><trkpt lat="43.7587615" lon="13.0533048"><ele>156.75</ele><time>2026-04-11T07:56:57.543Z</time></trkpt><trkpt lat="43.7586311" lon="13.0534051"><ele>157.0</ele><time>2026-04-11T07:56:58.544Z</time></trkpt><trkpt lat="43.7584987" lon="13.0535147"><ele>158.5</ele><time>2026-04-11T07:56:59.543Z</time></trkpt><trkpt lat="43.7583692" lon="13.053624"><ele>160.0</ele><time>2026-04-11T07:57:00.544Z</time></trkpt><trkpt lat="43.7582377" lon="13.0537195"><ele>161.5</ele><time>2026-04-11T07:57:01.544Z</time></trkpt><trkpt lat="43.7581041" lon="13.0538103"><ele>163.0</ele><time>2026-04-11T07:57:02.545Z</time></trkpt><trkpt lat="43.7579707" lon="13.0538901"><ele>163.0</ele><time>2026-04-11T07:57:03.543Z</time></trkpt><trkpt lat="43.7578344" lon="13.0539759"><ele>163.0</ele><time>2026-04-11T07:57:04.544Z</time></trkpt><trkpt lat="43.7576916" lon="13.0540799"><ele>163.0</ele><time>2026-04-11T07:57:05.543Z</time></trkpt><trkpt lat="43.7575536" lon="13.0542021"><ele>165.33333333333334</ele><time>2026-04-11T07:57:06.544Z</time></trkpt><trkpt lat="43.7574175" lon="13.0543341"><ele>167.66666666666666</ele><time>2026-04-11T07:57:07.545Z</time></trkpt><trkpt lat="43.7572855" lon="13.0544695"><ele>170.0</ele><time>2026-04-11T07:57:08.544Z</time></trkpt><trkpt lat="43.757154" lon="13.0545989"><ele>170.0</ele><time>2026-04-11T07:57:09.543Z</time></trkpt><trkpt lat="43.7570271" lon="13.0547371"><ele>170.0</ele><time>2026-04-11T07:57:10.544Z</time></trkpt><trkpt lat="43.7569063" lon="13.054869"><ele>170.0</ele><time>2026-04-11T07:57:11.543Z</time></trkpt><trkpt lat="43.7567905" lon="13.0549937"><ele>171.5</ele><time>2026-04-11T07:57:12.545Z</time></trkpt><trkpt lat="43.7566821" lon="13.0551297"><ele>173.0</ele><time>2026-04-11T07:57:13.544Z</time></trkpt><trkpt lat="43.7565821" lon="13.0552708"><ele>174.5</ele><time>2026-04-11T07:57:14.544Z</time></trkpt><trkpt lat="43.7565011" lon="13.0554273"><ele>176.0</ele><time>2026-04-11T07:57:15.543Z</time></trkpt><trkpt lat="43.7564462" lon="13.0555945"><ele>176.0</ele><time>2026-04-11T07:57:16.543Z</time></trkpt><trkpt lat="43.7564021" lon="13.0557845"><ele>176.0</ele><time>2026-04-11T07:57:17.543Z</time></trkpt><trkpt lat="43.7563684" lon="13.0559824"><ele>176.0</ele><time>2026-04-11T07:57:18.544Z</time></trkpt><trkpt lat="43.7563462" lon="13.0561779"><ele>176.0</ele><time>2026-04-11T07:57:19.543Z</time></trkpt><trkpt lat="43.7563253" lon="13.05637"><ele>176.0</ele><time>2026-04-11T07:57:20.544Z</time></trkpt><trkpt lat="43.7563102" lon="13.0565569"><ele>176.0</ele><time>2026-04-11T07:57:21.544Z</time></trkpt><trkpt lat="43.7563" lon="13.0567396"><ele>176.0</ele><time>2026-04-11T07:57:22.544Z</time></trkpt><trkpt lat="43.7562931" lon="13.0569144"><ele>176.0</ele><time>2026-04-11T07:57:23.544Z</time></trkpt><trkpt lat="43.756281" lon="13.0570821"><ele>176.0</ele><time>2026-04-11T07:57:24.545Z</time></trkpt><trkpt lat="43.7562676" lon="13.0572397"><ele>176.0</ele><time>2026-04-11T07:57:25.543Z</time></trkpt><trkpt lat="43.7562377" lon="13.0573944"><ele>176.0</ele><time>2026-04-11T07:57:26.545Z</time></trkpt><trkpt lat="43.7561997" lon="13.0575284"><ele>176.0</ele><time>2026-04-11T07:57:27.545Z</time></trkpt><trkpt lat="43.7561545" lon="13.0576506"><ele>176.0</ele><time>2026-04-11T07:57:28.544Z</time></trkpt><trkpt lat="43.7561068" lon="13.0577643"><ele>176.0</ele><time>2026-04-11T07:57:29.543Z</time></trkpt><trkpt lat="43.7560642" lon="13.0578751"><ele>176.0</ele><time>2026-04-11T07:57:30.545Z</time></trkpt><trkpt lat="43.7560311" lon="13.0579736"><ele>176.0</ele><time>2026-04-11T07:57:31.545Z</time></trkpt><trkpt lat="43.7559996" lon="13.0580789"><ele>176.0</ele><time>2026-04-11T07:57:32.544Z</time></trkpt><trkpt lat="43.7559693" lon="13.0581801"><ele>176.0</ele><time>2026-04-11T07:57:33.544Z</time></trkpt><trkpt lat="43.7559409" lon="13.0582677"><ele>176.0</ele><time>2026-04-11T07:57:34.544Z</time></trkpt><trkpt lat="43.7558956" lon="13.0583576"><ele>177.0</ele><time>2026-04-11T07:57:36.544Z</time></trkpt><trkpt lat="43.7558502" lon="13.0584251"><ele>178.0</ele><time>2026-04-11T07:57:40.544Z</time></trkpt><trkpt lat="43.7558261" lon="13.0585295"><ele>179.0</ele><time>2026-04-11T07:57:42.542Z</time></trkpt><trkpt lat="43.7558236" lon="13.0586172"><ele>180.0</ele><time>2026-04-11T07:57:43.544Z</time></trkpt><trkpt lat="43.7558311" lon="13.0587159"><ele>181.0</ele><time>2026-04-11T07:57:44.543Z</time></trkpt><trkpt lat="43.7558434" lon="13.0588308"><ele>182.0</ele><time>2026-04-11T07:57:45.545Z</time></trkpt><trkpt lat="43.7558612" lon="13.0589549"><ele>182.0</ele><time>2026-04-11T07:57:46.544Z</time></trkpt><trkpt lat="43.7558764" lon="13.059087"><ele>182.0</ele><time>2026-04-11T07:57:47.545Z</time></trkpt><trkpt lat="43.7558918" lon="13.0592276"><ele>182.0</ele><time>2026-04-11T07:57:48.545Z</time></trkpt><trkpt lat="43.7559078" lon="13.0593703"><ele>182.0</ele><time>2026-04-11T07:57:49.544Z</time></trkpt><trkpt lat="43.7559204" lon="13.0595122"><ele>182.0</ele><time>2026-04-11T07:57:50.544Z</time></trkpt><trkpt lat="43.7559376" lon="13.0596465"><ele>180.8</ele><time>2026-04-11T07:57:51.544Z</time></trkpt><trkpt lat="43.7559546" lon="13.0597859"><ele>179.6</ele><time>2026-04-11T07:57:52.544Z</time></trkpt><trkpt lat="43.7559701" lon="13.0599319"><ele>178.4</ele><time>2026-04-11T07:57:53.545Z</time></trkpt><trkpt lat="43.7559883" lon="13.0600805"><ele>177.20000000000002</ele><time>2026-04-11T07:57:54.545Z</time></trkpt><trkpt lat="43.7560098" lon="13.0602271"><ele>176.0</ele><time>2026-04-11T07:57:55.544Z</time></trkpt><trkpt lat="43.7560376" lon="13.060374"><ele>174.75</ele><time>2026-04-11T07:57:56.544Z</time></trkpt><trkpt lat="43.75608" lon="13.06052"><ele>173.5</ele><time>2026-04-11T07:57:57.544Z</time></trkpt><trkpt lat="43.7561281" lon="13.0606631"><ele>172.25</ele><time>2026-04-11T07:57:58.544Z</time></trkpt><trkpt lat="43.7561835" lon="13.0608122"><ele>171.0</ele><time>2026-04-11T07:57:59.543Z</time></trkpt><trkpt lat="43.7562478" lon="13.0609685"><ele>169.75</ele><time>2026-04-11T07:58:00.543Z</time></trkpt><trkpt lat="43.7563133" lon="13.061131"><ele>168.5</ele><time>2026-04-11T07:58:01.545Z</time></trkpt><trkpt lat="43.7563799" lon="13.0612958"><ele>167.25</ele><time>2026-04-11T07:58:02.544Z</time></trkpt><trkpt lat="43.7564477" lon="13.0614474"><ele>166.0</ele><time>2026-04-11T07:58:03.543Z</time></trkpt><trkpt lat="43.7565083" lon="13.0615991"><ele>164.75</ele><time>2026-04-11T07:58:04.543Z</time></trkpt><trkpt lat="43.7565737" lon="13.0617515"><ele>163.5</ele><time>2026-04-11T07:58:05.545Z</time></trkpt><trkpt lat="43.7566383" lon="13.0619027"><ele>162.25</ele><time>2026-04-11T07:58:06.544Z</time></trkpt><trkpt lat="43.7567091" lon="13.0620627"><ele>161.0</ele><time>2026-04-11T07:58:07.543Z</time></trkpt><trkpt lat="43.7567732" lon="13.0622232"><ele>161.0</ele><time>2026-04-11T07:58:08.543Z</time></trkpt><trkpt lat="43.756836" lon="13.0623813"><ele>161.0</ele><time>2026-04-11T07:58:09.542Z</time></trkpt><trkpt lat="43.7568979" lon="13.0625376"><ele>161.0</ele><time>2026-04-11T07:58:10.543Z</time></trkpt><trkpt lat="43.7569628" lon="13.062689"><ele>161.0</ele><time>2026-04-11T07:58:11.545Z</time></trkpt><trkpt lat="43.7570321" lon="13.0628411"><ele>160.25</ele><time>2026-04-11T07:58:12.543Z</time></trkpt><trkpt lat="43.7571035" lon="13.0629944"><ele>159.5</ele><time>2026-04-11T07:58:13.543Z</time></trkpt><trkpt lat="43.75718" lon="13.0631447"><ele>158.75</ele><time>2026-04-11T07:58:14.545Z</time></trkpt><trkpt lat="43.757264" lon="13.0632915"><ele>158.0</ele><time>2026-04-11T07:58:15.545Z</time></trkpt><trkpt lat="43.7573552" lon="13.0634327"><ele>158.0</ele><time>2026-04-11T07:58:16.544Z</time></trkpt><trkpt lat="43.7574482" lon="13.0635763"><ele>158.0</ele><time>2026-04-11T07:58:17.543Z</time></trkpt><trkpt lat="43.7575485" lon="13.0637143"><ele>158.0</ele><time>2026-04-11T07:58:18.544Z</time></trkpt><trkpt lat="43.7576551" lon="13.0638513"><ele>158.0</ele><time>2026-04-11T07:58:19.543Z</time></trkpt><trkpt lat="43.7577652" lon="13.0639857"><ele>157.75</ele><time>2026-04-11T07:58:20.545Z</time></trkpt><trkpt lat="43.7578777" lon="13.0641078"><ele>157.5</ele><time>2026-04-11T07:58:21.544Z</time></trkpt><trkpt lat="43.7579997" lon="13.0642168"><ele>157.25</ele><time>2026-04-11T07:58:22.542Z</time></trkpt><trkpt lat="43.7581263" lon="13.0643153"><ele>157.0</ele><time>2026-04-11T07:58:23.543Z</time></trkpt><trkpt lat="43.7582485" lon="13.0644099"><ele>157.0</ele><time>2026-04-11T07:58:24.543Z</time></trkpt><trkpt lat="43.7583752" lon="13.0645011"><ele>157.0</ele><time>2026-04-11T07:58:25.545Z</time></trkpt><trkpt lat="43.7584976" lon="13.0645964"><ele>157.0</ele><time>2026-04-11T07:58:26.544Z</time></trkpt><trkpt lat="43.7586276" lon="13.0647093"><ele>157.0</ele><time>2026-04-11T07:58:27.544Z</time></trkpt><trkpt lat="43.7587527" lon="13.0648229"><ele>156.0</ele><time>2026-04-11T07:58:28.544Z</time></trkpt><trkpt lat="43.7588702" lon="13.064949"><ele>155.0</ele><time>2026-04-11T07:58:29.544Z</time></trkpt><trkpt lat="43.7589892" lon="13.065076"><ele>154.0</ele><time>2026-04-11T07:58:30.543Z</time></trkpt><trkpt lat="43.7591088" lon="13.0652045"><ele>154.0</ele><time>2026-04-11T07:58:31.544Z</time></trkpt><trkpt lat="43.7592238" lon="13.065329"><ele>154.0</ele><time>2026-04-11T07:58:32.544Z</time></trkpt><trkpt lat="43.7593326" lon="13.0654515"><ele>154.0</ele><time>2026-04-11T07:58:33.545Z</time></trkpt><trkpt lat="43.7594428" lon="13.0655716"><ele>154.0</ele><time>2026-04-11T07:58:34.544Z</time></trkpt><trkpt lat="43.7595528" lon="13.065687"><ele>153.75</ele><time>2026-04-11T07:58:35.543Z</time></trkpt><trkpt lat="43.7596587" lon="13.0658034"><ele>153.5</ele><time>2026-04-11T07:58:36.543Z</time></trkpt><trkpt lat="43.7597632" lon="13.0659182"><ele>153.25</ele><time>2026-04-11T07:58:37.543Z</time></trkpt><trkpt lat="43.7598664" lon="13.0660266"><ele>153.0</ele><time>2026-04-11T07:58:38.544Z</time></trkpt><trkpt lat="43.7599712" lon="13.0661408"><ele>153.0</ele><time>2026-04-11T07:58:39.545Z</time></trkpt><trkpt lat="43.7600757" lon="13.0662522"><ele>153.0</ele><time>2026-04-11T07:58:40.544Z</time></trkpt><trkpt lat="43.7601819" lon="13.06637"><ele>153.0</ele><time>2026-04-11T07:58:41.543Z</time></trkpt><trkpt lat="43.7602814" lon="13.0664931"><ele>153.0</ele><time>2026-04-11T07:58:42.545Z</time></trkpt><trkpt lat="43.7603798" lon="13.0666176"><ele>154.75</ele><time>2026-04-11T07:58:43.544Z</time></trkpt><trkpt lat="43.7604671" lon="13.066746"><ele>156.5</ele><time>2026-04-11T07:58:44.544Z</time></trkpt><trkpt lat="43.7605519" lon="13.0668819"><ele>158.25</ele><time>2026-04-11T07:58:45.543Z</time></trkpt><trkpt lat="43.7606362" lon="13.0670127"><ele>160.0</ele><time>2026-04-11T07:58:46.545Z</time></trkpt><trkpt lat="43.7607275" lon="13.0671383"><ele>160.0</ele><time>2026-04-11T07:58:47.544Z</time></trkpt><trkpt lat="43.7608213" lon="13.0672504"><ele>160.0</ele><time>2026-04-11T07:58:48.544Z</time></trkpt><trkpt lat="43.7609216" lon="13.0673558"><ele>160.0</ele><time>2026-04-11T07:58:49.545Z</time></trkpt><trkpt lat="43.7610305" lon="13.0674439"><ele>160.0</ele><time>2026-04-11T07:58:50.545Z</time></trkpt><trkpt lat="43.761141" lon="13.0675247"><ele>160.4</ele><time>2026-04-11T07:58:51.544Z</time></trkpt><trkpt lat="43.7612548" lon="13.0675948"><ele>160.8</ele><time>2026-04-11T07:58:52.543Z</time></trkpt><trkpt lat="43.7613667" lon="13.0676588"><ele>161.2</ele><time>2026-04-11T07:58:53.543Z</time></trkpt><trkpt lat="43.7614634" lon="13.06771"><ele>161.6</ele><time>2026-04-11T07:58:54.544Z</time></trkpt><trkpt lat="43.7615506" lon="13.0677547"><ele>162.0</ele><time>2026-04-11T07:58:55.545Z</time></trkpt><trkpt lat="43.7616341" lon="13.0677926"><ele>162.0</ele><time>2026-04-11T07:58:56.542Z</time></trkpt><trkpt lat="43.7617107" lon="13.0678484"><ele>162.0</ele><time>2026-04-11T07:58:57.544Z</time></trkpt><trkpt lat="43.7617832" lon="13.0679089"><ele>162.0</ele><time>2026-04-11T07:58:58.544Z</time></trkpt><trkpt lat="43.7618519" lon="13.0679743"><ele>162.0</ele><time>2026-04-11T07:58:59.545Z</time></trkpt><trkpt lat="43.761949" lon="13.0680165"><ele>162.0</ele><time>2026-04-11T07:59:00.544Z</time></trkpt><trkpt lat="43.7620112" lon="13.0680837"><ele>162.0</ele><time>2026-04-11T07:59:01.543Z</time></trkpt><trkpt lat="43.7621181" lon="13.068156"><ele>161.0</ele><time>2026-04-11T07:59:03.545Z</time></trkpt><trkpt lat="43.762219" lon="13.0682074"><ele>160.0</ele><time>2026-04-11T07:59:05.543Z</time></trkpt><trkpt lat="43.7622878" lon="13.0682668"><ele>159.0</ele><time>2026-04-11T07:59:07.543Z</time></trkpt><trkpt lat="43.7623762" lon="13.0683438"><ele>158.0</ele><time>2026-04-11T07:59:09.544Z</time></trkpt><trkpt lat="43.7624088" lon="13.0684388"><ele>157.0</ele><time>2026-04-11T07:59:10.545Z</time></trkpt><trkpt lat="43.7625168" lon="13.0685963"><ele>157.0</ele><time>2026-04-11T07:59:12.544Z</time></trkpt><trkpt lat="43.7625497" lon="13.0686995"><ele>157.0</ele><time>2026-04-11T07:59:13.543Z</time></trkpt><trkpt lat="43.7625916" lon="13.0687837"><ele>157.0</ele><time>2026-04-11T07:59:14.545Z</time></trkpt><trkpt lat="43.7626807" lon="13.0688799"><ele>157.0</ele><time>2026-04-11T07:59:16.542Z</time></trkpt><trkpt lat="43.7627533" lon="13.068954"><ele>157.0</ele><time>2026-04-11T07:59:18.545Z</time></trkpt><trkpt lat="43.7627601" lon="13.069089"><ele>156.6</ele><time>2026-04-11T07:59:20.544Z</time></trkpt><trkpt lat="43.7627011" lon="13.0691748"><ele>156.2</ele><time>2026-04-11T07:59:22.543Z</time></trkpt><trkpt lat="43.7626309" lon="13.0691925"><ele>155.8</ele><time>2026-04-11T07:59:23.544Z</time></trkpt><trkpt lat="43.762534" lon="13.0692053"><ele>155.4</ele><time>2026-04-11T07:59:24.544Z</time></trkpt><trkpt lat="43.7624382" lon="13.0692522"><ele>155.0</ele><time>2026-04-11T07:59:25.543Z</time></trkpt><trkpt lat="43.7623525" lon="13.0693072"><ele>155.0</ele><time>2026-04-11T07:59:26.543Z</time></trkpt><trkpt lat="43.7622644" lon="13.0693501"><ele>155.0</ele><time>2026-04-11T07:59:27.545Z</time></trkpt><trkpt lat="43.7621853" lon="13.0693885"><ele>155.0</ele><time>2026-04-11T07:59:28.545Z</time></trkpt><trkpt lat="43.7621097" lon="13.0694199"><ele>155.0</ele><time>2026-04-11T07:59:29.545Z</time></trkpt><trkpt lat="43.7620389" lon="13.0694461"><ele>155.0</ele><time>2026-04-11T07:59:30.545Z</time></trkpt><trkpt lat="43.7619775" lon="13.0694758"><ele>155.0</ele><time>2026-04-11T07:59:31.545Z</time></trkpt><trkpt lat="43.7618558" lon="13.0695058"><ele>154.2</ele><time>2026-04-11T07:59:33.544Z</time></trkpt><trkpt lat="43.7617167" lon="13.0695276"><ele>153.4</ele><time>2026-04-11T07:59:35.544Z</time></trkpt><trkpt lat="43.7616269" lon="13.0695122"><ele>152.6</ele><time>2026-04-11T07:59:36.545Z</time></trkpt><trkpt lat="43.7615353" lon="13.0694854"><ele>151.8</ele><time>2026-04-11T07:59:37.543Z</time></trkpt><trkpt lat="43.7614483" lon="13.0694401"><ele>151.0</ele><time>2026-04-11T07:59:38.545Z</time></trkpt><trkpt lat="43.7613675" lon="13.0693916"><ele>151.0</ele><time>2026-04-11T07:59:39.544Z</time></trkpt><trkpt lat="43.7612929" lon="13.0693459"><ele>151.0</ele><time>2026-04-11T07:59:40.543Z</time></trkpt><trkpt lat="43.7612207" lon="13.0693042"><ele>151.0</ele><time>2026-04-11T07:59:41.543Z</time></trkpt><trkpt lat="43.7611552" lon="13.0692581"><ele>151.0</ele><time>2026-04-11T07:59:42.545Z</time></trkpt><trkpt lat="43.7610921" lon="13.0692133"><ele>151.0</ele><time>2026-04-11T07:59:43.545Z</time></trkpt><trkpt lat="43.7610351" lon="13.069167"><ele>151.0</ele><time>2026-04-11T07:59:44.544Z</time></trkpt><trkpt lat="43.7609445" lon="13.0691202"><ele>149.33333333333334</ele><time>2026-04-11T07:59:46.543Z</time></trkpt><trkpt lat="43.7608696" lon="13.0691103"><ele>147.66666666666669</ele><time>2026-04-11T07:59:48.543Z</time></trkpt><trkpt lat="43.7607815" lon="13.069163"><ele>146.0</ele><time>2026-04-11T07:59:51.545Z</time></trkpt><trkpt lat="43.7607271" lon="13.0692121"><ele>144.33333333333334</ele><time>2026-04-11T07:59:52.545Z</time></trkpt><trkpt lat="43.7606738" lon="13.0692856"><ele>142.66666666666666</ele><time>2026-04-11T07:59:53.545Z</time></trkpt><trkpt lat="43.760616" lon="13.0693742"><ele>141.0</ele><time>2026-04-11T07:59:54.543Z</time></trkpt><trkpt lat="43.7605527" lon="13.0694762"><ele>141.0</ele><time>2026-04-11T07:59:55.544Z</time></trkpt><trkpt lat="43.7604906" lon="13.0695926"><ele>141.0</ele><time>2026-04-11T07:59:56.543Z</time></trkpt><trkpt lat="43.7604318" lon="13.0697135"><ele>141.0</ele><time>2026-04-11T07:59:57.543Z</time></trkpt><trkpt lat="43.7603796" lon="13.0698207"><ele>141.0</ele><time>2026-04-11T07:59:58.544Z</time></trkpt><trkpt lat="43.7603214" lon="13.0699293"><ele>141.0</ele><time>2026-04-11T07:59:59.544Z</time></trkpt><trkpt lat="43.7602631" lon="13.0700232"><ele>140.2</ele><time>2026-04-11T08:00:00.545Z</time></trkpt><trkpt lat="43.7602111" lon="13.0701099"><ele>139.39999999999998</ele><time>2026-04-11T08:00:01.544Z</time></trkpt><trkpt lat="43.7601617" lon="13.0701968"><ele>138.6</ele><time>2026-04-11T08:00:02.544Z</time></trkpt><trkpt lat="43.7600915" lon="13.0702756"><ele>137.79999999999998</ele><time>2026-04-11T08:00:03.543Z</time></trkpt><trkpt lat="43.7600158" lon="13.0703616"><ele>137.0</ele><time>2026-04-11T08:00:04.544Z</time></trkpt><trkpt lat="43.7599314" lon="13.07046"><ele>134.5</ele><time>2026-04-11T08:00:05.545Z</time></trkpt><trkpt lat="43.7598393" lon="13.0705758"><ele>132.0</ele><time>2026-04-11T08:00:06.543Z</time></trkpt><trkpt lat="43.7597505" lon="13.0706787"><ele>129.5</ele><time>2026-04-11T08:00:07.543Z</time></trkpt><trkpt lat="43.7596645" lon="13.0707824"><ele>127.0</ele><time>2026-04-11T08:00:08.544Z</time></trkpt><trkpt lat="43.7595739" lon="13.070882"><ele>127.0</ele><time>2026-04-11T08:00:09.542Z</time></trkpt><trkpt lat="43.7594825" lon="13.070991"><ele>127.0</ele><time>2026-04-11T08:00:10.544Z</time></trkpt><trkpt lat="43.7594016" lon="13.0711034"><ele>127.0</ele><time>2026-04-11T08:00:11.543Z</time></trkpt><trkpt lat="43.7593134" lon="13.0712173"><ele>127.0</ele><time>2026-04-11T08:00:12.544Z</time></trkpt><trkpt lat="43.7592415" lon="13.0713309"><ele>125.39999999999999</ele><time>2026-04-11T08:00:13.543Z</time></trkpt><trkpt lat="43.7591792" lon="13.0714412"><ele>123.79999999999998</ele><time>2026-04-11T08:00:14.544Z</time></trkpt><trkpt lat="43.7591208" lon="13.0715588"><ele>122.2</ele><time>2026-04-11T08:00:15.545Z</time></trkpt><trkpt lat="43.7590627" lon="13.0716765"><ele>120.6</ele><time>2026-04-11T08:00:16.544Z</time></trkpt><trkpt lat="43.759005" lon="13.071803"><ele>119.0</ele><time>2026-04-11T08:00:17.543Z</time></trkpt><trkpt lat="43.7589464" lon="13.0719208"><ele>119.0</ele><time>2026-04-11T08:00:18.544Z</time></trkpt><trkpt lat="43.7588896" lon="13.0720451"><ele>119.0</ele><time>2026-04-11T08:00:19.545Z</time></trkpt><trkpt lat="43.7588354" lon="13.0721587"><ele>119.0</ele><time>2026-04-11T08:00:20.544Z</time></trkpt><trkpt lat="43.7587864" lon="13.0722619"><ele>119.0</ele><time>2026-04-11T08:00:21.543Z</time></trkpt><trkpt lat="43.758739" lon="13.0723553"><ele>119.0</ele><time>2026-04-11T08:00:22.545Z</time></trkpt><trkpt lat="43.7586911" lon="13.0724348"><ele>118.83333333333333</ele><time>2026-04-11T08:00:23.543Z</time></trkpt><trkpt lat="43.7586331" lon="13.0725116"><ele>118.66666666666666</ele><time>2026-04-11T08:00:24.545Z</time></trkpt><trkpt lat="43.7585626" lon="13.072575"><ele>118.5</ele><time>2026-04-11T08:00:25.543Z</time></trkpt><trkpt lat="43.7584908" lon="13.0726326"><ele>118.33333333333334</ele><time>2026-04-11T08:00:26.545Z</time></trkpt><trkpt lat="43.7584142" lon="13.0726823"><ele>118.16666666666667</ele><time>2026-04-11T08:00:27.544Z</time></trkpt><trkpt lat="43.7583366" lon="13.0727169"><ele>118.0</ele><time>2026-04-11T08:00:28.545Z</time></trkpt><trkpt lat="43.7582544" lon="13.072769"><ele>116.83333333333334</ele><time>2026-04-11T08:00:29.543Z</time></trkpt><trkpt lat="43.7581789" lon="13.0728179"><ele>115.66666666666667</ele><time>2026-04-11T08:00:30.545Z</time></trkpt><trkpt lat="43.7581074" lon="13.0728759"><ele>114.5</ele><time>2026-04-11T08:00:31.543Z</time></trkpt><trkpt lat="43.7580354" lon="13.0729305"><ele>113.33333333333334</ele><time>2026-04-11T08:00:32.544Z</time></trkpt><trkpt lat="43.7579719" lon="13.0729916"><ele>112.16666666666667</ele><time>2026-04-11T08:00:33.544Z</time></trkpt><trkpt lat="43.7579105" lon="13.0730497"><ele>111.0</ele><time>2026-04-11T08:00:34.545Z</time></trkpt><trkpt lat="43.7578503" lon="13.0731254"><ele>111.0</ele><time>2026-04-11T08:00:35.544Z</time></trkpt><trkpt lat="43.7577939" lon="13.073194"><ele>111.0</ele><time>2026-04-11T08:00:36.543Z</time></trkpt><trkpt lat="43.7577496" lon="13.0732595"><ele>111.0</ele><time>2026-04-11T08:00:37.543Z</time></trkpt><trkpt lat="43.7576584" lon="13.0733904"><ele>111.0</ele><time>2026-04-11T08:00:39.543Z</time></trkpt><trkpt lat="43.7576185" lon="13.0734613"><ele>111.0</ele><time>2026-04-11T08:00:40.544Z</time></trkpt><trkpt lat="43.7575522" lon="13.0735885"><ele>111.0</ele><time>2026-04-11T08:00:42.545Z</time></trkpt><trkpt lat="43.7575244" lon="13.0736717"><ele>110.28571428571428</ele><time>2026-04-11T08:00:43.544Z</time></trkpt><trkpt lat="43.7574876" lon="13.0737472"><ele>109.57142857142858</ele><time>2026-04-11T08:00:44.545Z</time></trkpt><trkpt lat="43.7574511" lon="13.0738184"><ele>108.85714285714286</ele><time>2026-04-11T08:00:45.545Z</time></trkpt><trkpt lat="43.7574122" lon="13.0738904"><ele>108.14285714285714</ele><time>2026-04-11T08:00:46.544Z</time></trkpt><trkpt lat="43.7573729" lon="13.0739658"><ele>107.42857142857142</ele><time>2026-04-11T08:00:47.543Z</time></trkpt><trkpt lat="43.7573211" lon="13.074032"><ele>106.71428571428572</ele><time>2026-04-11T08:00:48.543Z</time></trkpt><trkpt lat="43.7572627" lon="13.0740868"><ele>106.0</ele><time>2026-04-11T08:00:49.544Z</time></trkpt><trkpt lat="43.7571632" lon="13.0741793"><ele>106.0</ele><time>2026-04-11T08:00:51.545Z</time></trkpt><trkpt lat="43.7570621" lon="13.0742708"><ele>106.0</ele><time>2026-04-11T08:00:53.544Z</time></trkpt><trkpt lat="43.7569499" lon="13.0743625"><ele>106.0</ele><time>2026-04-11T08:00:55.544Z</time></trkpt><trkpt lat="43.7568895" lon="13.0744152"><ele>106.0</ele><time>2026-04-11T08:00:56.545Z</time></trkpt><trkpt lat="43.7568285" lon="13.0744657"><ele>106.0</ele><time>2026-04-11T08:00:57.543Z</time></trkpt><trkpt lat="43.7567602" lon="13.0745059"><ele>105.85714285714286</ele><time>2026-04-11T08:00:58.545Z</time></trkpt><trkpt lat="43.7566899" lon="13.0745476"><ele>105.71428571428571</ele><time>2026-04-11T08:00:59.545Z</time></trkpt><trkpt lat="43.7566291" lon="13.0745867"><ele>105.57142857142857</ele><time>2026-04-11T08:01:00.544Z</time></trkpt><trkpt lat="43.7565652" lon="13.0746204"><ele>105.42857142857143</ele><time>2026-04-11T08:01:01.543Z</time></trkpt><trkpt lat="43.7565022" lon="13.0746435"><ele>105.28571428571428</ele><time>2026-04-11T08:01:02.543Z</time></trkpt><trkpt lat="43.75644" lon="13.0746745"><ele>105.14285714285714</ele><time>2026-04-11T08:01:03.543Z</time></trkpt><trkpt lat="43.7563787" lon="13.0747053"><ele>105.0</ele><time>2026-04-11T08:01:04.543Z</time></trkpt><trkpt lat="43.7562626" lon="13.0747778"><ele>105.0</ele><time>2026-04-11T08:01:06.543Z</time></trkpt><trkpt lat="43.7561988" lon="13.0748252"><ele>105.0</ele><time>2026-04-11T08:01:07.544Z</time></trkpt><trkpt lat="43.7561368" lon="13.0748925"><ele>105.0</ele><time>2026-04-11T08:01:08.544Z</time></trkpt><trkpt lat="43.7560725" lon="13.0749655"><ele>105.0</ele><time>2026-04-11T08:01:09.545Z</time></trkpt><trkpt lat="43.7560067" lon="13.0750452"><ele>105.0</ele><time>2026-04-11T08:01:10.543Z</time></trkpt><trkpt lat="43.7559434" lon="13.075127"><ele>105.0</ele><time>2026-04-11T08:01:11.544Z</time></trkpt><trkpt lat="43.7558822" lon="13.0752061"><ele>105.33333333333333</ele><time>2026-04-11T08:01:12.543Z</time></trkpt><trkpt lat="43.7558191" lon="13.0752896"><ele>105.66666666666666</ele><time>2026-04-11T08:01:13.544Z</time></trkpt><trkpt lat="43.7557574" lon="13.0753813"><ele>106.0</ele><time>2026-04-11T08:01:14.544Z</time></trkpt><trkpt lat="43.7556942" lon="13.0754711"><ele>106.33333333333333</ele><time>2026-04-11T08:01:15.545Z</time></trkpt><trkpt lat="43.7556273" lon="13.0755588"><ele>106.66666666666666</ele><time>2026-04-11T08:01:16.545Z</time></trkpt><trkpt lat="43.7555666" lon="13.0756211"><ele>107.0</ele><time>2026-04-11T08:01:17.545Z</time></trkpt><trkpt lat="43.755502" lon="13.0756685"><ele>106.99999999999999</ele><time>2026-04-11T08:01:18.545Z</time></trkpt><trkpt lat="43.7553884" lon="13.0757093"><ele>107.0</ele><time>2026-04-11T08:01:20.542Z</time></trkpt><trkpt lat="43.7553051" lon="13.0757349"><ele>107.0</ele><time>2026-04-11T08:01:22.545Z</time></trkpt><trkpt lat="43.755207" lon="13.0757824"><ele>107.0</ele><time>2026-04-11T08:01:24.544Z</time></trkpt><trkpt lat="43.7551464" lon="13.0758181"><ele>106.99999999999999</ele><time>2026-04-11T08:01:25.544Z</time></trkpt><trkpt lat="43.7550777" lon="13.0758546"><ele>107.0</ele><time>2026-04-11T08:01:26.545Z</time></trkpt><trkpt lat="43.7550096" lon="13.0758953"><ele>106.83333333333333</ele><time>2026-04-11T08:01:27.544Z</time></trkpt><trkpt lat="43.7549455" lon="13.0759368"><ele>106.66666666666666</ele><time>2026-04-11T08:01:28.544Z</time></trkpt><trkpt lat="43.7548806" lon="13.0759764"><ele>106.5</ele><time>2026-04-11T08:01:29.545Z</time></trkpt><trkpt lat="43.7548167" lon="13.0760168"><ele>106.33333333333334</ele><time>2026-04-11T08:01:30.543Z</time></trkpt><trkpt lat="43.7547562" lon="13.0760526"><ele>106.16666666666667</ele><time>2026-04-11T08:01:31.543Z</time></trkpt><trkpt lat="43.7546532" lon="13.0761517"><ele>106.0</ele><time>2026-04-11T08:01:33.545Z</time></trkpt><trkpt lat="43.754602" lon="13.0762098"><ele>106.00000000000001</ele><time>2026-04-11T08:01:34.544Z</time></trkpt><trkpt lat="43.7545544" lon="13.0762814"><ele>106.0</ele><time>2026-04-11T08:01:35.544Z</time></trkpt><trkpt lat="43.7545091" lon="13.0763483"><ele>106.0</ele><time>2026-04-11T08:01:36.543Z</time></trkpt><trkpt lat="43.7544655" lon="13.0764145"><ele>106.0</ele><time>2026-04-11T08:01:37.543Z</time></trkpt><trkpt lat="43.754421" lon="13.0764805"><ele>106.00000000000001</ele><time>2026-04-11T08:01:38.543Z</time></trkpt><trkpt lat="43.7543407" lon="13.07662"><ele>106.0</ele><time>2026-04-11T08:01:40.543Z</time></trkpt><trkpt lat="43.7542808" lon="13.076682"><ele>102.16666666666667</ele><time>2026-04-11T08:01:41.542Z</time></trkpt><trkpt lat="43.7542289" lon="13.0767349"><ele>98.33333333333334</ele><time>2026-04-11T08:01:42.544Z</time></trkpt><trkpt lat="43.7541576" lon="13.076778"><ele>94.5</ele><time>2026-04-11T08:01:43.544Z</time></trkpt><trkpt lat="43.7540829" lon="13.0768176"><ele>90.66666666666667</ele><time>2026-04-11T08:01:44.545Z</time></trkpt><trkpt lat="43.7540044" lon="13.0768539"><ele>86.83333333333334</ele><time>2026-04-11T08:01:45.545Z</time></trkpt><trkpt lat="43.7539238" lon="13.0769001"><ele>83.0</ele><time>2026-04-11T08:01:46.544Z</time></trkpt><trkpt lat="43.753845" lon="13.076965"><ele>83.0</ele><time>2026-04-11T08:01:47.545Z</time></trkpt><trkpt lat="43.7537699" lon="13.0770488"><ele>83.0</ele><time>2026-04-11T08:01:48.545Z</time></trkpt><trkpt lat="43.7537122" lon="13.0771243"><ele>83.0</ele><time>2026-04-11T08:01:49.545Z</time></trkpt><trkpt lat="43.7536517" lon="13.077197"><ele>83.0</ele><time>2026-04-11T08:01:50.544Z</time></trkpt><trkpt lat="43.7535924" lon="13.0772516"><ele>83.0</ele><time>2026-04-11T08:01:51.545Z</time></trkpt><trkpt lat="43.7535351" lon="13.0772996"><ele>83.0</ele><time>2026-04-11T08:01:52.545Z</time></trkpt><trkpt lat="43.7534698" lon="13.0773341"><ele>81.33333333333334</ele><time>2026-04-11T08:01:53.544Z</time></trkpt><trkpt lat="43.7533469" lon="13.0773728"><ele>79.66666666666667</ele><time>2026-04-11T08:01:55.544Z</time></trkpt><trkpt lat="43.7532781" lon="13.0773934"><ele>78.0</ele><time>2026-04-11T08:01:56.544Z</time></trkpt><trkpt lat="43.7532052" lon="13.0774027"><ele>76.33333333333333</ele><time>2026-04-11T08:01:57.545Z</time></trkpt><trkpt lat="43.7531236" lon="13.0773891"><ele>74.66666666666666</ele><time>2026-04-11T08:01:58.544Z</time></trkpt><trkpt lat="43.7530366" lon="13.0773635"><ele>73.0</ele><time>2026-04-11T08:01:59.544Z</time></trkpt><trkpt lat="43.7529447" lon="13.0773274"><ele>73.0</ele><time>2026-04-11T08:02:00.545Z</time></trkpt><trkpt lat="43.752852" lon="13.0772921"><ele>73.0</ele><time>2026-04-11T08:02:01.545Z</time></trkpt><trkpt lat="43.7527591" lon="13.0772525"><ele>73.0</ele><time>2026-04-11T08:02:02.545Z</time></trkpt><trkpt lat="43.7526693" lon="13.0772225"><ele>73.0</ele><time>2026-04-11T08:02:03.542Z</time></trkpt><trkpt lat="43.7525849" lon="13.0772002"><ele>73.0</ele><time>2026-04-11T08:02:04.543Z</time></trkpt><trkpt lat="43.7525003" lon="13.0771844"><ele>72.16666666666666</ele><time>2026-04-11T08:02:05.545Z</time></trkpt><trkpt lat="43.752422" lon="13.0771728"><ele>71.33333333333333</ele><time>2026-04-11T08:02:06.543Z</time></trkpt><trkpt lat="43.7523422" lon="13.0771768"><ele>70.5</ele><time>2026-04-11T08:02:07.545Z</time></trkpt><trkpt lat="43.7522578" lon="13.0771896"><ele>69.66666666666667</ele><time>2026-04-11T08:02:08.544Z</time></trkpt><trkpt lat="43.7521684" lon="13.0772133"><ele>68.83333333333334</ele><time>2026-04-11T08:02:09.545Z</time></trkpt><trkpt lat="43.7520803" lon="13.0772449"><ele>68.0</ele><time>2026-04-11T08:02:10.543Z</time></trkpt><trkpt lat="43.7519882" lon="13.0772824"><ele>68.0</ele><time>2026-04-11T08:02:11.545Z</time></trkpt><trkpt lat="43.751888" lon="13.0773264"><ele>68.0</ele><time>2026-04-11T08:02:12.544Z</time></trkpt><trkpt lat="43.7517987" lon="13.0773651"><ele>68.0</ele><time>2026-04-11T08:02:13.543Z</time></trkpt><trkpt lat="43.7517073" lon="13.0774106"><ele>68.0</ele><time>2026-04-11T08:02:14.544Z</time></trkpt><trkpt lat="43.7516109" lon="13.0774572"><ele>68.0</ele><time>2026-04-11T08:02:15.544Z</time></trkpt><trkpt lat="43.7515126" lon="13.0775101"><ele>71.2</ele><time>2026-04-11T08:02:16.545Z</time></trkpt><trkpt lat="43.7514207" lon="13.0775679"><ele>74.4</ele><time>2026-04-11T08:02:17.544Z</time></trkpt><trkpt lat="43.751336" lon="13.0776279"><ele>77.60000000000001</ele><time>2026-04-11T08:02:18.544Z</time></trkpt><trkpt lat="43.7512513" lon="13.0776975"><ele>80.8</ele><time>2026-04-11T08:02:19.544Z</time></trkpt><trkpt lat="43.7511742" lon="13.0777587"><ele>84.0</ele><time>2026-04-11T08:02:20.544Z</time></trkpt><trkpt lat="43.7511048" lon="13.0778154"><ele>84.0</ele><time>2026-04-11T08:02:21.544Z</time></trkpt><trkpt lat="43.751043" lon="13.077875"><ele>84.0</ele><time>2026-04-11T08:02:22.544Z</time></trkpt><trkpt lat="43.7509841" lon="13.0779417"><ele>84.0</ele><time>2026-04-11T08:02:23.544Z</time></trkpt><trkpt lat="43.7509809" lon="13.0780386"><ele>84.0</ele><time>2026-04-11T08:02:24.544Z</time></trkpt><trkpt lat="43.7509662" lon="13.0781468"><ele>84.0</ele><time>2026-04-11T08:02:25.545Z</time></trkpt><trkpt lat="43.7509618" lon="13.0782641"><ele>84.0</ele><time>2026-04-11T08:02:26.545Z</time></trkpt><trkpt lat="43.7509456" lon="13.0783595"><ele>87.33333333333333</ele><time>2026-04-11T08:02:27.545Z</time></trkpt><trkpt lat="43.7509235" lon="13.0784682"><ele>90.66666666666666</ele><time>2026-04-11T08:02:28.543Z</time></trkpt><trkpt lat="43.7509079" lon="13.0785884"><ele>94.0</ele><time>2026-04-11T08:02:29.544Z</time></trkpt><trkpt lat="43.750901" lon="13.0787022"><ele>97.33333333333333</ele><time>2026-04-11T08:02:30.545Z</time></trkpt><trkpt lat="43.7508736" lon="13.0788141"><ele>100.66666666666666</ele><time>2026-04-11T08:02:31.545Z</time></trkpt><trkpt lat="43.7508658" lon="13.0789263"><ele>104.0</ele><time>2026-04-11T08:02:32.544Z</time></trkpt><trkpt lat="43.7508651" lon="13.0790239"><ele>105.49999999999999</ele><time>2026-04-11T08:02:33.544Z</time></trkpt><trkpt lat="43.7508537" lon="13.0791238"><ele>107.0</ele><time>2026-04-11T08:02:34.545Z</time></trkpt><trkpt lat="43.7508357" lon="13.0792097"><ele>108.5</ele><time>2026-04-11T08:02:35.543Z</time></trkpt><trkpt lat="43.7507926" lon="13.0793228"><ele>110.0</ele><time>2026-04-11T08:02:37.545Z</time></trkpt><trkpt lat="43.7507338" lon="13.0794101"><ele>111.49999999999999</ele><time>2026-04-11T08:02:39.544Z</time></trkpt><trkpt lat="43.7506729" lon="13.0794849"><ele>113.0</ele><time>2026-04-11T08:02:41.544Z</time></trkpt><trkpt lat="43.7505874" lon="13.0795364"><ele>112.99999999999999</ele><time>2026-04-11T08:02:43.545Z</time></trkpt><trkpt lat="43.7504928" lon="13.0795083"><ele>113.0</ele><time>2026-04-11T08:02:45.544Z</time></trkpt><trkpt lat="43.7504339" lon="13.0794629"><ele>113.0</ele><time>2026-04-11T08:02:46.544Z</time></trkpt><trkpt lat="43.7503702" lon="13.0794113"><ele>113.0</ele><time>2026-04-11T08:02:47.545Z</time></trkpt><trkpt lat="43.7502946" lon="13.0793508"><ele>112.99999999999999</ele><time>2026-04-11T08:02:48.544Z</time></trkpt><trkpt lat="43.750204" lon="13.0792893"><ele>113.0</ele><time>2026-04-11T08:02:49.543Z</time></trkpt><trkpt lat="43.7501208" lon="13.0792248"><ele>114.0</ele><time>2026-04-11T08:02:50.544Z</time></trkpt><trkpt lat="43.7500353" lon="13.0791545"><ele>115.00000000000001</ele><time>2026-04-11T08:02:51.545Z</time></trkpt><trkpt lat="43.7499486" lon="13.0790801"><ele>116.00000000000001</ele><time>2026-04-11T08:02:52.545Z</time></trkpt><trkpt lat="43.7498563" lon="13.0789975"><ele>117.0</ele><time>2026-04-11T08:02:53.544Z</time></trkpt><trkpt lat="43.7497702" lon="13.0789275"><ele>118.0</ele><time>2026-04-11T08:02:54.544Z</time></trkpt><trkpt lat="43.7496869" lon="13.0788605"><ele>118.0</ele><time>2026-04-11T08:02:55.544Z</time></trkpt><trkpt lat="43.7496059" lon="13.0787937"><ele>118.00000000000001</ele><time>2026-04-11T08:02:56.543Z</time></trkpt><trkpt lat="43.7495219" lon="13.0787187"><ele>118.00000000000001</ele><time>2026-04-11T08:02:57.543Z</time></trkpt><trkpt lat="43.7494388" lon="13.0786368"><ele>118.0</ele><time>2026-04-11T08:02:58.545Z</time></trkpt><trkpt lat="43.7493637" lon="13.0785406"><ele>118.0</ele><time>2026-04-11T08:02:59.544Z</time></trkpt><trkpt lat="43.7492856" lon="13.0784387"><ele>121.75</ele><time>2026-04-11T08:03:00.545Z</time></trkpt><trkpt lat="43.7492006" lon="13.0783272"><ele>125.5</ele><time>2026-04-11T08:03:01.544Z</time></trkpt><trkpt lat="43.74911" lon="13.078209"><ele>129.25</ele><time>2026-04-11T08:03:02.545Z</time></trkpt><trkpt lat="43.7490234" lon="13.0780961"><ele>133.0</ele><time>2026-04-11T08:03:03.545Z</time></trkpt><trkpt lat="43.7489266" lon="13.0779961"><ele>133.75</ele><time>2026-04-11T08:03:04.544Z</time></trkpt><trkpt lat="43.7488252" lon="13.077915"><ele>134.5</ele><time>2026-04-11T08:03:05.544Z</time></trkpt><trkpt lat="43.7487107" lon="13.0778587"><ele>135.25</ele><time>2026-04-11T08:03:06.544Z</time></trkpt><trkpt lat="43.7485871" lon="13.0778198"><ele>136.0</ele><time>2026-04-11T08:03:07.545Z</time></trkpt><trkpt lat="43.7484543" lon="13.0777984"><ele>139.75</ele><time>2026-04-11T08:03:08.543Z</time></trkpt><trkpt lat="43.7483187" lon="13.077798"><ele>143.5</ele><time>2026-04-11T08:03:09.545Z</time></trkpt><trkpt lat="43.7481893" lon="13.0778063"><ele>147.25</ele><time>2026-04-11T08:03:10.545Z</time></trkpt><trkpt lat="43.7480643" lon="13.0778226"><ele>151.0</ele><time>2026-04-11T08:03:11.545Z</time></trkpt><trkpt lat="43.7479518" lon="13.0778385"><ele>151.0</ele><time>2026-04-11T08:03:12.545Z</time></trkpt><trkpt lat="43.7478573" lon="13.0778594"><ele>151.0</ele><time>2026-04-11T08:03:13.544Z</time></trkpt><trkpt lat="43.7477721" lon="13.0778847"><ele>151.0</ele><time>2026-04-11T08:03:14.544Z</time></trkpt><trkpt lat="43.7476967" lon="13.0779131"><ele>151.0</ele><time>2026-04-11T08:03:15.545Z</time></trkpt><trkpt lat="43.7475941" lon="13.0779572"><ele>151.0</ele><time>2026-04-11T08:03:17.543Z</time></trkpt><trkpt lat="43.7475184" lon="13.0779909"><ele>151.0</ele><time>2026-04-11T08:03:20.544Z</time></trkpt><trkpt lat="43.7474403" lon="13.0780317"><ele>151.5</ele><time>2026-04-11T08:03:37.544Z</time></trkpt><trkpt lat="43.7474511" lon="13.0779239"><ele>152.0</ele><time>2026-04-11T08:03:41.544Z</time></trkpt><trkpt lat="43.7475263" lon="13.0778225"><ele>152.5</ele><time>2026-04-11T08:03:43.545Z</time></trkpt><trkpt lat="43.7475421" lon="13.0777353"><ele>153.0</ele><time>2026-04-11T08:03:44.545Z</time></trkpt><trkpt lat="43.7475383" lon="13.0776261"><ele>153.5</ele><time>2026-04-11T08:03:45.544Z</time></trkpt><trkpt lat="43.7475356" lon="13.0775124"><ele>154.0</ele><time>2026-04-11T08:03:46.544Z</time></trkpt><trkpt lat="43.7475301" lon="13.0773818"><ele>154.8</ele><time>2026-04-11T08:03:47.544Z</time></trkpt><trkpt lat="43.747529" lon="13.0772346"><ele>155.60000000000002</ele><time>2026-04-11T08:03:48.545Z</time></trkpt><trkpt lat="43.7475287" lon="13.0770891"><ele>156.4</ele><time>2026-04-11T08:03:49.544Z</time></trkpt><trkpt lat="43.7475205" lon="13.0769498"><ele>157.20000000000002</ele><time>2026-04-11T08:03:50.544Z</time></trkpt><trkpt lat="43.7474915" lon="13.07681"><ele>158.0</ele><time>2026-04-11T08:03:51.543Z</time></trkpt><trkpt lat="43.7474417" lon="13.0766803"><ele>158.60000000000002</ele><time>2026-04-11T08:03:52.544Z</time></trkpt><trkpt lat="43.7473821" lon="13.0765572"><ele>159.20000000000002</ele><time>2026-04-11T08:03:53.544Z</time></trkpt><trkpt lat="43.7473051" lon="13.0764465"><ele>159.8</ele><time>2026-04-11T08:03:54.545Z</time></trkpt><trkpt lat="43.7472262" lon="13.0763457"><ele>160.4</ele><time>2026-04-11T08:03:55.544Z</time></trkpt><trkpt lat="43.7471596" lon="13.0762393"><ele>161.0</ele><time>2026-04-11T08:03:56.544Z</time></trkpt><trkpt lat="43.7471024" lon="13.0761387"><ele>161.0</ele><time>2026-04-11T08:03:57.545Z</time></trkpt><trkpt lat="43.7470558" lon="13.0760604"><ele>161.0</ele><time>2026-04-11T08:03:58.545Z</time></trkpt><trkpt lat="43.7470055" lon="13.0759998"><ele>161.0</ele><time>2026-04-11T08:03:59.544Z</time></trkpt><trkpt lat="43.746919" lon="13.0759295"><ele>161.0</ele><time>2026-04-11T08:04:01.545Z</time></trkpt><trkpt lat="43.7468606" lon="13.0758904"><ele>161.0</ele><time>2026-04-11T08:04:02.544Z</time></trkpt><trkpt lat="43.7467934" lon="13.0758443"><ele>161.0</ele><time>2026-04-11T08:04:03.544Z</time></trkpt><trkpt lat="43.74673" lon="13.0757976"><ele>159.20000000000002</ele><time>2026-04-11T08:04:04.545Z</time></trkpt><trkpt lat="43.7466577" lon="13.0757576"><ele>157.4</ele><time>2026-04-11T08:04:05.544Z</time></trkpt><trkpt lat="43.7465701" lon="13.0757185"><ele>155.6</ele><time>2026-04-11T08:04:06.544Z</time></trkpt><trkpt lat="43.74648" lon="13.075683"><ele>153.8</ele><time>2026-04-11T08:04:07.545Z</time></trkpt><trkpt lat="43.7463884" lon="13.0756568"><ele>152.0</ele><time>2026-04-11T08:04:08.545Z</time></trkpt><trkpt lat="43.7462977" lon="13.0756282"><ele>152.0</ele><time>2026-04-11T08:04:09.544Z</time></trkpt><trkpt lat="43.7462154" lon="13.0755835"><ele>152.0</ele><time>2026-04-11T08:04:10.544Z</time></trkpt><trkpt lat="43.7461339" lon="13.075529"><ele>152.0</ele><time>2026-04-11T08:04:11.544Z</time></trkpt><trkpt lat="43.7460577" lon="13.0754478"><ele>152.0</ele><time>2026-04-11T08:04:12.545Z</time></trkpt><trkpt lat="43.7459827" lon="13.0753481"><ele>152.0</ele><time>2026-04-11T08:04:13.544Z</time></trkpt><trkpt lat="43.7459111" lon="13.0752495"><ele>150.6</ele><time>2026-04-11T08:04:14.545Z</time></trkpt><trkpt lat="43.7458406" lon="13.0751524"><ele>149.2</ele><time>2026-04-11T08:04:15.545Z</time></trkpt><trkpt lat="43.745762" lon="13.0750505"><ele>147.8</ele><time>2026-04-11T08:04:16.543Z</time></trkpt><trkpt lat="43.7456789" lon="13.074955"><ele>146.4</ele><time>2026-04-11T08:04:17.545Z</time></trkpt><trkpt lat="43.7456013" lon="13.0748699"><ele>145.0</ele><time>2026-04-11T08:04:18.545Z</time></trkpt><trkpt lat="43.7455175" lon="13.0747896"><ele>144.5</ele><time>2026-04-11T08:04:19.545Z</time></trkpt><trkpt lat="43.7454367" lon="13.0747195"><ele>144.0</ele><time>2026-04-11T08:04:20.543Z</time></trkpt><trkpt lat="43.7453585" lon="13.0746614"><ele>143.5</ele><time>2026-04-11T08:04:21.544Z</time></trkpt><trkpt lat="43.7452818" lon="13.0746027"><ele>143.0</ele><time>2026-04-11T08:04:22.545Z</time></trkpt><trkpt lat="43.7452095" lon="13.0745415"><ele>142.5</ele><time>2026-04-11T08:04:23.545Z</time></trkpt><trkpt lat="43.7451384" lon="13.0744839"><ele>142.0</ele><time>2026-04-11T08:04:24.545Z</time></trkpt><trkpt lat="43.7450607" lon="13.0744145"><ele>140.79999999999998</ele><time>2026-04-11T08:04:25.545Z</time></trkpt><trkpt lat="43.7449817" lon="13.0743394"><ele>139.6</ele><time>2026-04-11T08:04:26.543Z</time></trkpt><trkpt lat="43.7449035" lon="13.074267"><ele>138.39999999999998</ele><time>2026-04-11T08:04:27.545Z</time></trkpt><trkpt lat="43.7448223" lon="13.0742048"><ele>137.2</ele><time>2026-04-11T08:04:28.544Z</time></trkpt><trkpt lat="43.7447239" lon="13.0741487"><ele>136.0</ele><time>2026-04-11T08:04:29.543Z</time></trkpt><trkpt lat="43.744619" lon="13.0741028"><ele>134.2</ele><time>2026-04-11T08:04:30.544Z</time></trkpt><trkpt lat="43.7445084" lon="13.0740684"><ele>132.39999999999998</ele><time>2026-04-11T08:04:31.544Z</time></trkpt><trkpt lat="43.7443994" lon="13.0740385"><ele>130.6</ele><time>2026-04-11T08:04:32.544Z</time></trkpt><trkpt lat="43.7442848" lon="13.0740127"><ele>128.79999999999998</ele><time>2026-04-11T08:04:33.544Z</time></trkpt><trkpt lat="43.7441809" lon="13.0739955"><ele>127.0</ele><time>2026-04-11T08:04:34.544Z</time></trkpt><trkpt lat="43.7440798" lon="13.0739899"><ele>125.25</ele><time>2026-04-11T08:04:35.545Z</time></trkpt><trkpt lat="43.743974" lon="13.073994"><ele>123.5</ele><time>2026-04-11T08:04:36.543Z</time></trkpt><trkpt lat="43.7438623" lon="13.0740016"><ele>121.75</ele><time>2026-04-11T08:04:37.544Z</time></trkpt><trkpt lat="43.7437457" lon="13.0740153"><ele>120.0</ele><time>2026-04-11T08:04:38.545Z</time></trkpt><trkpt lat="43.7436259" lon="13.0740229"><ele>119.0</ele><time>2026-04-11T08:04:39.543Z</time></trkpt><trkpt lat="43.7435029" lon="13.0740309"><ele>118.0</ele><time>2026-04-11T08:04:40.545Z</time></trkpt><trkpt lat="43.7433776" lon="13.0740356"><ele>117.0</ele><time>2026-04-11T08:04:41.544Z</time></trkpt><trkpt lat="43.7432499" lon="13.0740385"><ele>116.0</ele><time>2026-04-11T08:04:42.543Z</time></trkpt><trkpt lat="43.7431215" lon="13.0740402"><ele>116.0</ele><time>2026-04-11T08:04:43.544Z</time></trkpt><trkpt lat="43.742987" lon="13.0740467"><ele>116.0</ele><time>2026-04-11T08:04:44.545Z</time></trkpt><trkpt lat="43.7428467" lon="13.0740582"><ele>116.0</ele><time>2026-04-11T08:04:45.544Z</time></trkpt><trkpt lat="43.7427072" lon="13.0740639"><ele>116.0</ele><time>2026-04-11T08:04:46.544Z</time></trkpt><trkpt lat="43.7425738" lon="13.0740764"><ele>114.5</ele><time>2026-04-11T08:04:47.545Z</time></trkpt><trkpt lat="43.7424449" lon="13.0740966"><ele>113.0</ele><time>2026-04-11T08:04:48.544Z</time></trkpt><trkpt lat="43.7423255" lon="13.0741158"><ele>111.5</ele><time>2026-04-11T08:04:49.545Z</time></trkpt><trkpt lat="43.742214" lon="13.0741468"><ele>110.0</ele><time>2026-04-11T08:04:50.544Z</time></trkpt><trkpt lat="43.7421063" lon="13.0741719"><ele>110.0</ele><time>2026-04-11T08:04:51.545Z</time></trkpt><trkpt lat="43.7420059" lon="13.0741888"><ele>110.0</ele><time>2026-04-11T08:04:52.544Z</time></trkpt><trkpt lat="43.7419124" lon="13.0741977"><ele>110.0</ele><time>2026-04-11T08:04:53.544Z</time></trkpt><trkpt lat="43.7418136" lon="13.0741877"><ele>110.0</ele><time>2026-04-11T08:04:54.545Z</time></trkpt><trkpt lat="43.7417045" lon="13.074154"><ele>110.0</ele><time>2026-04-11T08:04:55.544Z</time></trkpt><trkpt lat="43.7415882" lon="13.0740981"><ele>109.0</ele><time>2026-04-11T08:04:56.545Z</time></trkpt><trkpt lat="43.7414693" lon="13.0740458"><ele>108.0</ele><time>2026-04-11T08:04:57.545Z</time></trkpt><trkpt lat="43.7413527" lon="13.074006"><ele>107.0</ele><time>2026-04-11T08:04:58.544Z</time></trkpt><trkpt lat="43.7412291" lon="13.0739616"><ele>106.0</ele><time>2026-04-11T08:04:59.543Z</time></trkpt><trkpt lat="43.7411045" lon="13.0739209"><ele>105.5</ele><time>2026-04-11T08:05:00.545Z</time></trkpt><trkpt lat="43.74097" lon="13.0738794"><ele>105.0</ele><time>2026-04-11T08:05:01.544Z</time></trkpt><trkpt lat="43.7408278" lon="13.0738547"><ele>104.5</ele><time>2026-04-11T08:05:02.544Z</time></trkpt><trkpt lat="43.7406829" lon="13.0738279"><ele>104.0</ele><time>2026-04-11T08:05:03.544Z</time></trkpt><trkpt lat="43.7405366" lon="13.0738032"><ele>104.0</ele><time>2026-04-11T08:05:04.543Z</time></trkpt><trkpt lat="43.7404007" lon="13.0737762"><ele>104.0</ele><time>2026-04-11T08:05:05.545Z</time></trkpt><trkpt lat="43.740263" lon="13.0737427"><ele>104.0</ele><time>2026-04-11T08:05:06.543Z</time></trkpt><trkpt lat="43.7401234" lon="13.0737006"><ele>104.0</ele><time>2026-04-11T08:05:07.545Z</time></trkpt><trkpt lat="43.7399901" lon="13.0736487"><ele>103.0</ele><time>2026-04-11T08:05:08.543Z</time></trkpt><trkpt lat="43.7398531" lon="13.0735924"><ele>102.0</ele><time>2026-04-11T08:05:09.544Z</time></trkpt><trkpt lat="43.7397332" lon="13.0735375"><ele>101.0</ele><time>2026-04-11T08:05:10.545Z</time></trkpt><trkpt lat="43.7396158" lon="13.0734753"><ele>100.0</ele><time>2026-04-11T08:05:11.544Z</time></trkpt><trkpt lat="43.7395086" lon="13.073426"><ele>100.0</ele><time>2026-04-11T08:05:12.544Z</time></trkpt><trkpt lat="43.7394148" lon="13.0733742"><ele>100.0</ele><time>2026-04-11T08:05:13.543Z</time></trkpt><trkpt lat="43.7393237" lon="13.0733388"><ele>100.0</ele><time>2026-04-11T08:05:14.545Z</time></trkpt><trkpt lat="43.7392243" lon="13.0733184"><ele>100.0</ele><time>2026-04-11T08:05:15.544Z</time></trkpt><trkpt lat="43.739109" lon="13.073303"><ele>100.0</ele><time>2026-04-11T08:05:16.544Z</time></trkpt><trkpt lat="43.7389851" lon="13.0732976"><ele>98.75</ele><time>2026-04-11T08:05:17.544Z</time></trkpt><trkpt lat="43.7388561" lon="13.0732914"><ele>97.5</ele><time>2026-04-11T08:05:18.545Z</time></trkpt><trkpt lat="43.7387224" lon="13.0732861"><ele>96.25</ele><time>2026-04-11T08:05:19.545Z</time></trkpt><trkpt lat="43.738583" lon="13.073281"><ele>95.0</ele><time>2026-04-11T08:05:20.543Z</time></trkpt><trkpt lat="43.7384432" lon="13.0732721"><ele>92.25</ele><time>2026-04-11T08:05:21.544Z</time></trkpt><trkpt lat="43.738301" lon="13.0732687"><ele>89.5</ele><time>2026-04-11T08:05:22.545Z</time></trkpt><trkpt lat="43.7381573" lon="13.0732662"><ele>86.75</ele><time>2026-04-11T08:05:23.545Z</time></trkpt><trkpt lat="43.7380158" lon="13.0732598"><ele>84.0</ele><time>2026-04-11T08:05:24.543Z</time></trkpt><trkpt lat="43.7378704" lon="13.0732619"><ele>84.0</ele><time>2026-04-11T08:05:25.543Z</time></trkpt><trkpt lat="43.7377241" lon="13.0732521"><ele>84.0</ele><time>2026-04-11T08:05:26.544Z</time></trkpt><trkpt lat="43.737578" lon="13.073242"><ele>84.0</ele><time>2026-04-11T08:05:27.543Z</time></trkpt><trkpt lat="43.7374266" lon="13.0732362"><ele>84.0</ele><time>2026-04-11T08:05:28.544Z</time></trkpt><trkpt lat="43.7372691" lon="13.073236"><ele>84.0</ele><time>2026-04-11T08:05:29.544Z</time></trkpt><trkpt lat="43.7371045" lon="13.0732326"><ele>84.0</ele><time>2026-04-11T08:05:30.544Z</time></trkpt><trkpt lat="43.7369368" lon="13.0732317"><ele>84.0</ele><time>2026-04-11T08:05:31.545Z</time></trkpt><trkpt lat="43.7367717" lon="13.0732452"><ele>84.0</ele><time>2026-04-11T08:05:32.543Z</time></trkpt><trkpt lat="43.7366172" lon="13.0732559"><ele>84.0</ele><time>2026-04-11T08:05:33.544Z</time></trkpt><trkpt lat="43.7364837" lon="13.0732741"><ele>84.0</ele><time>2026-04-11T08:05:34.543Z</time></trkpt><trkpt lat="43.73636" lon="13.0732859"><ele>84.0</ele><time>2026-04-11T08:05:35.544Z</time></trkpt><trkpt lat="43.7362382" lon="13.0733057"><ele>84.75</ele><time>2026-04-11T08:05:36.545Z</time></trkpt><trkpt lat="43.7360988" lon="13.0733442"><ele>85.5</ele><time>2026-04-11T08:05:37.543Z</time></trkpt><trkpt lat="43.7359537" lon="13.07339"><ele>86.25</ele><time>2026-04-11T08:05:38.545Z</time></trkpt><trkpt lat="43.7358089" lon="13.0734433"><ele>87.0</ele><time>2026-04-11T08:05:39.543Z</time></trkpt><trkpt lat="43.735664" lon="13.0734881"><ele>87.66666666666667</ele><time>2026-04-11T08:05:40.545Z</time></trkpt><trkpt lat="43.7355198" lon="13.0735233"><ele>88.33333333333334</ele><time>2026-04-11T08:05:41.543Z</time></trkpt><trkpt lat="43.735369" lon="13.0735519"><ele>89.0</ele><time>2026-04-11T08:05:42.544Z</time></trkpt><trkpt lat="43.7352119" lon="13.0735602"><ele>87.33333333333334</ele><time>2026-04-11T08:05:43.545Z</time></trkpt><trkpt lat="43.7350417" lon="13.0735578"><ele>85.66666666666667</ele><time>2026-04-11T08:05:44.545Z</time></trkpt><trkpt lat="43.734881" lon="13.0735542"><ele>84.0</ele><time>2026-04-11T08:05:45.543Z</time></trkpt><trkpt lat="43.7347333" lon="13.0735468"><ele>84.0</ele><time>2026-04-11T08:05:46.544Z</time></trkpt><trkpt lat="43.734596" lon="13.0735401"><ele>84.0</ele><time>2026-04-11T08:05:47.545Z</time></trkpt><trkpt lat="43.7344839" lon="13.0735656"><ele>84.0</ele><time>2026-04-11T08:05:48.544Z</time></trkpt><trkpt lat="43.7343837" lon="13.0735818"><ele>84.0</ele><time>2026-04-11T08:05:49.545Z</time></trkpt><trkpt lat="43.734294" lon="13.0736262"><ele>84.0</ele><time>2026-04-11T08:05:50.543Z</time></trkpt><trkpt lat="43.7341947" lon="13.0736934"><ele>83.25</ele><time>2026-04-11T08:05:51.545Z</time></trkpt><trkpt lat="43.7340896" lon="13.0737861"><ele>82.5</ele><time>2026-04-11T08:05:52.544Z</time></trkpt><trkpt lat="43.7339771" lon="13.0738897"><ele>81.75</ele><time>2026-04-11T08:05:53.545Z</time></trkpt><trkpt lat="43.7338762" lon="13.0739842"><ele>81.0</ele><time>2026-04-11T08:05:54.545Z</time></trkpt><trkpt lat="43.7337834" lon="13.0740672"><ele>80.0</ele><time>2026-04-11T08:05:55.544Z</time></trkpt><trkpt lat="43.7336938" lon="13.0741388"><ele>79.0</ele><time>2026-04-11T08:05:56.545Z</time></trkpt><trkpt lat="43.7336207" lon="13.0742039"><ele>78.0</ele><time>2026-04-11T08:05:57.544Z</time></trkpt><trkpt lat="43.7335442" lon="13.0742481"><ele>77.0</ele><time>2026-04-11T08:05:58.544Z</time></trkpt><trkpt lat="43.7334698" lon="13.0742791"><ele>76.0</ele><time>2026-04-11T08:05:59.544Z</time></trkpt><trkpt lat="43.7333907" lon="13.0742987"><ele>75.0</ele><time>2026-04-11T08:06:00.545Z</time></trkpt><trkpt lat="43.7333013" lon="13.0743178"><ele>75.0</ele><time>2026-04-11T08:06:01.544Z</time></trkpt><trkpt lat="43.7332128" lon="13.0743328"><ele>75.0</ele><time>2026-04-11T08:06:02.544Z</time></trkpt><trkpt lat="43.7331299" lon="13.0743466"><ele>75.0</ele><time>2026-04-11T08:06:03.544Z</time></trkpt><trkpt lat="43.7330523" lon="13.0743557"><ele>75.0</ele><time>2026-04-11T08:06:04.544Z</time></trkpt><trkpt lat="43.7329815" lon="13.0743605"><ele>75.0</ele><time>2026-04-11T08:06:05.545Z</time></trkpt><trkpt lat="43.7329173" lon="13.074371"><ele>75.0</ele><time>2026-04-11T08:06:06.544Z</time></trkpt><trkpt lat="43.7328487" lon="13.0743842"><ele>74.99999999999999</ele><time>2026-04-11T08:06:07.546Z</time></trkpt><trkpt lat="43.7327835" lon="13.0743895"><ele>75.0</ele><time>2026-04-11T08:06:08.544Z</time></trkpt><trkpt lat="43.7327148" lon="13.0743934"><ele>75.0</ele><time>2026-04-11T08:06:09.543Z</time></trkpt><trkpt lat="43.7326485" lon="13.0744026"><ele>75.0</ele><time>2026-04-11T08:06:10.544Z</time></trkpt><trkpt lat="43.7325822" lon="13.0744006"><ele>75.0</ele><time>2026-04-11T08:06:11.545Z</time></trkpt><trkpt lat="43.7325085" lon="13.0744084"><ele>74.99999999999999</ele><time>2026-04-11T08:06:12.545Z</time></trkpt><trkpt lat="43.7324379" lon="13.074419"><ele>75.0</ele><time>2026-04-11T08:06:13.544Z</time></trkpt><trkpt lat="43.7323638" lon="13.0744281"><ele>73.16666666666667</ele><time>2026-04-11T08:06:14.544Z</time></trkpt><trkpt lat="43.7322898" lon="13.0744405"><ele>71.33333333333333</ele><time>2026-04-11T08:06:15.545Z</time></trkpt><trkpt lat="43.7322117" lon="13.0744527"><ele>69.5</ele><time>2026-04-11T08:06:16.545Z</time></trkpt><trkpt lat="43.7321327" lon="13.0744707"><ele>67.66666666666666</ele><time>2026-04-11T08:06:17.545Z</time></trkpt><trkpt lat="43.7320418" lon="13.0744791"><ele>65.83333333333333</ele><time>2026-04-11T08:06:18.544Z</time></trkpt><trkpt lat="43.7319524" lon="13.0744934"><ele>64.0</ele><time>2026-04-11T08:06:19.544Z</time></trkpt><trkpt lat="43.7318619" lon="13.0745062"><ele>62.166666666666664</ele><time>2026-04-11T08:06:20.544Z</time></trkpt><trkpt lat="43.7317736" lon="13.0745238"><ele>60.33333333333333</ele><time>2026-04-11T08:06:21.544Z</time></trkpt><trkpt lat="43.7316854" lon="13.0745356"><ele>58.5</ele><time>2026-04-11T08:06:22.545Z</time></trkpt><trkpt lat="43.7315953" lon="13.0745466"><ele>56.66666666666667</ele><time>2026-04-11T08:06:23.545Z</time></trkpt><trkpt lat="43.7315042" lon="13.0745575"><ele>54.833333333333336</ele><time>2026-04-11T08:06:24.545Z</time></trkpt><trkpt lat="43.7314158" lon="13.0745635"><ele>53.0</ele><time>2026-04-11T08:06:25.545Z</time></trkpt><trkpt lat="43.7313244" lon="13.0745734"><ele>53.0</ele><time>2026-04-11T08:06:26.545Z</time></trkpt><trkpt lat="43.7312286" lon="13.0745852"><ele>53.0</ele><time>2026-04-11T08:06:27.545Z</time></trkpt><trkpt lat="43.7311331" lon="13.0745939"><ele>53.0</ele><time>2026-04-11T08:06:28.544Z</time></trkpt><trkpt lat="43.7310342" lon="13.0746087"><ele>53.0</ele><time>2026-04-11T08:06:29.544Z</time></trkpt><trkpt lat="43.7309354" lon="13.0746242"><ele>53.0</ele><time>2026-04-11T08:06:30.545Z</time></trkpt><trkpt lat="43.7308321" lon="13.0746445"><ele>51.0</ele><time>2026-04-11T08:06:31.544Z</time></trkpt><trkpt lat="43.730725" lon="13.0746606"><ele>49.0</ele><time>2026-04-11T08:06:32.545Z</time></trkpt><trkpt lat="43.7305985" lon="13.0746715"><ele>47.0</ele><time>2026-04-11T08:06:33.544Z</time></trkpt><trkpt lat="43.7304651" lon="13.0746727"><ele>45.0</ele><time>2026-04-11T08:06:34.544Z</time></trkpt><trkpt lat="43.7303375" lon="13.074666"><ele>45.0</ele><time>2026-04-11T08:06:35.545Z</time></trkpt><trkpt lat="43.7302252" lon="13.0746491"><ele>45.0</ele><time>2026-04-11T08:06:36.545Z</time></trkpt><trkpt lat="43.7301163" lon="13.0746085"><ele>45.0</ele><time>2026-04-11T08:06:37.545Z</time></trkpt><trkpt lat="43.7299949" lon="13.0745494"><ele>45.0</ele><time>2026-04-11T08:06:38.544Z</time></trkpt><trkpt lat="43.7298631" lon="13.0744795"><ele>45.5</ele><time>2026-04-11T08:06:39.545Z</time></trkpt><trkpt lat="43.7297361" lon="13.0744185"><ele>46.0</ele><time>2026-04-11T08:06:40.545Z</time></trkpt><trkpt lat="43.7296164" lon="13.0743553"><ele>46.5</ele><time>2026-04-11T08:06:41.545Z</time></trkpt><trkpt lat="43.7295133" lon="13.0742932"><ele>47.0</ele><time>2026-04-11T08:06:42.543Z</time></trkpt><trkpt lat="43.7294103" lon="13.0742201"><ele>47.0</ele><time>2026-04-11T08:06:43.544Z</time></trkpt><trkpt lat="43.7293146" lon="13.0741383"><ele>47.0</ele><time>2026-04-11T08:06:44.546Z</time></trkpt><trkpt lat="43.7292292" lon="13.0740741"><ele>47.0</ele><time>2026-04-11T08:06:45.544Z</time></trkpt><trkpt lat="43.7291599" lon="13.0740241"><ele>47.0</ele><time>2026-04-11T08:06:46.544Z</time></trkpt><trkpt lat="43.7290491" lon="13.0739993"><ele>47.0</ele><time>2026-04-11T08:06:48.544Z</time></trkpt><trkpt lat="43.7289817" lon="13.0740808"><ele>46.83333333333333</ele><time>2026-04-11T08:06:50.544Z</time></trkpt><trkpt lat="43.7289417" lon="13.074159"><ele>46.666666666666664</ele><time>2026-04-11T08:06:51.546Z</time></trkpt><trkpt lat="43.7288922" lon="13.0742581"><ele>46.5</ele><time>2026-04-11T08:06:52.545Z</time></trkpt><trkpt lat="43.7288365" lon="13.0743574"><ele>46.333333333333336</ele><time>2026-04-11T08:06:53.544Z</time></trkpt><trkpt lat="43.7287684" lon="13.0744451"><ele>46.16666666666667</ele><time>2026-04-11T08:06:54.544Z</time></trkpt><trkpt lat="43.7286858" lon="13.0745154"><ele>46.0</ele><time>2026-04-11T08:06:55.545Z</time></trkpt><trkpt lat="43.7285636" lon="13.0745855"><ele>46.75</ele><time>2026-04-11T08:06:56.544Z</time></trkpt><trkpt lat="43.7284417" lon="13.074673"><ele>47.5</ele><time>2026-04-11T08:06:57.544Z</time></trkpt><trkpt lat="43.7283222" lon="13.0747597"><ele>48.25</ele><time>2026-04-11T08:06:58.544Z</time></trkpt><trkpt lat="43.7282047" lon="13.0748589"><ele>49.0</ele><time>2026-04-11T08:06:59.543Z</time></trkpt><trkpt lat="43.7280821" lon="13.0749728"><ele>49.0</ele><time>2026-04-11T08:07:00.544Z</time></trkpt><trkpt lat="43.7279475" lon="13.0750957"><ele>49.0</ele><time>2026-04-11T08:07:01.545Z</time></trkpt><trkpt lat="43.7278253" lon="13.0752308"><ele>49.0</ele><time>2026-04-11T08:07:02.544Z</time></trkpt><trkpt lat="43.7277081" lon="13.0753402"><ele>51.0</ele><time>2026-04-11T08:07:03.544Z</time></trkpt><trkpt lat="43.727612" lon="13.0754398"><ele>53.0</ele><time>2026-04-11T08:07:04.545Z</time></trkpt><trkpt lat="43.7274983" lon="13.0755215"><ele>55.0</ele><time>2026-04-11T08:07:05.545Z</time></trkpt><trkpt lat="43.7273929" lon="13.0755828"><ele>57.0</ele><time>2026-04-11T08:07:06.544Z</time></trkpt><trkpt lat="43.7273027" lon="13.0756233"><ele>57.0</ele><time>2026-04-11T08:07:07.544Z</time></trkpt><trkpt lat="43.7272221" lon="13.075661"><ele>57.0</ele><time>2026-04-11T08:07:08.543Z</time></trkpt><trkpt lat="43.7271534" lon="13.0756845"><ele>57.0</ele><time>2026-04-11T08:07:09.544Z</time></trkpt><trkpt lat="43.7270319" lon="13.0757267"><ele>57.0</ele><time>2026-04-11T08:07:11.545Z</time></trkpt><trkpt lat="43.7269599" lon="13.0757405"><ele>57.0</ele><time>2026-04-11T08:07:12.544Z</time></trkpt><trkpt lat="43.7268819" lon="13.0757537"><ele>57.0</ele><time>2026-04-11T08:07:13.543Z</time></trkpt><trkpt lat="43.7267987" lon="13.0757752"><ele>57.8</ele><time>2026-04-11T08:07:14.545Z</time></trkpt><trkpt lat="43.7267053" lon="13.0758001"><ele>58.6</ele><time>2026-04-11T08:07:15.545Z</time></trkpt><trkpt lat="43.7266044" lon="13.0758318"><ele>59.39999999999999</ele><time>2026-04-11T08:07:16.544Z</time></trkpt><trkpt lat="43.7264978" lon="13.075866"><ele>60.199999999999996</ele><time>2026-04-11T08:07:17.544Z</time></trkpt><trkpt lat="43.7263956" lon="13.0758911"><ele>61.0</ele><time>2026-04-11T08:07:18.544Z</time></trkpt><trkpt lat="43.7262958" lon="13.0759161"><ele>61.0</ele><time>2026-04-11T08:07:19.545Z</time></trkpt><trkpt lat="43.7261967" lon="13.0759264"><ele>61.0</ele><time>2026-04-11T08:07:20.545Z</time></trkpt><trkpt lat="43.7260933" lon="13.0759264"><ele>61.0</ele><time>2026-04-11T08:07:21.545Z</time></trkpt><trkpt lat="43.7259709" lon="13.0759317"><ele>61.0</ele><time>2026-04-11T08:07:22.543Z</time></trkpt><trkpt lat="43.7258409" lon="13.0759409"><ele>62.25</ele><time>2026-04-11T08:07:23.545Z</time></trkpt><trkpt lat="43.7257049" lon="13.0759617"><ele>63.5</ele><time>2026-04-11T08:07:24.545Z</time></trkpt><trkpt lat="43.725573" lon="13.0759844"><ele>64.75</ele><time>2026-04-11T08:07:25.544Z</time></trkpt><trkpt lat="43.7254415" lon="13.0760139"><ele>66.0</ele><time>2026-04-11T08:07:26.545Z</time></trkpt><trkpt lat="43.7253005" lon="13.0760385"><ele>66.0</ele><time>2026-04-11T08:07:27.543Z</time></trkpt><trkpt lat="43.7251576" lon="13.0760688"><ele>66.0</ele><time>2026-04-11T08:07:28.545Z</time></trkpt><trkpt lat="43.7250146" lon="13.0760967"><ele>66.0</ele><time>2026-04-11T08:07:29.545Z</time></trkpt><trkpt lat="43.7248731" lon="13.0761245"><ele>66.0</ele><time>2026-04-11T08:07:30.545Z</time></trkpt><trkpt lat="43.7247269" lon="13.076145"><ele>66.0</ele><time>2026-04-11T08:07:31.545Z</time></trkpt><trkpt lat="43.7245819" lon="13.0761657"><ele>66.0</ele><time>2026-04-11T08:07:32.544Z</time></trkpt><trkpt lat="43.724441" lon="13.0761766"><ele>66.0</ele><time>2026-04-11T08:07:33.544Z</time></trkpt><trkpt lat="43.7243068" lon="13.0761658"><ele>66.0</ele><time>2026-04-11T08:07:34.545Z</time></trkpt><trkpt lat="43.7241836" lon="13.0761414"><ele>66.0</ele><time>2026-04-11T08:07:35.544Z</time></trkpt><trkpt lat="43.7240611" lon="13.0761045"><ele>66.0</ele><time>2026-04-11T08:07:36.546Z</time></trkpt><trkpt lat="43.7239398" lon="13.0760497"><ele>66.0</ele><time>2026-04-11T08:07:37.545Z</time></trkpt><trkpt lat="43.7238173" lon="13.0759811"><ele>66.0</ele><time>2026-04-11T08:07:38.545Z</time></trkpt><trkpt lat="43.7236968" lon="13.0759095"><ele>66.0</ele><time>2026-04-11T08:07:39.544Z</time></trkpt><trkpt lat="43.7235802" lon="13.075829"><ele>66.0</ele><time>2026-04-11T08:07:40.544Z</time></trkpt><trkpt lat="43.72346" lon="13.075738"><ele>66.0</ele><time>2026-04-11T08:07:41.544Z</time></trkpt><trkpt lat="43.7233448" lon="13.0756508"><ele>66.0</ele><time>2026-04-11T08:07:42.545Z</time></trkpt><trkpt lat="43.7232458" lon="13.0755496"><ele>68.8</ele><time>2026-04-11T08:07:43.544Z</time></trkpt><trkpt lat="43.7231533" lon="13.0754632"><ele>71.6</ele><time>2026-04-11T08:07:44.544Z</time></trkpt><trkpt lat="43.7230635" lon="13.0753776"><ele>74.4</ele><time>2026-04-11T08:07:45.545Z</time></trkpt><trkpt lat="43.7229707" lon="13.0753232"><ele>77.2</ele><time>2026-04-11T08:07:46.545Z</time></trkpt><trkpt lat="43.7228647" lon="13.0752903"><ele>80.0</ele><time>2026-04-11T08:07:47.545Z</time></trkpt><trkpt lat="43.7227494" lon="13.0752892"><ele>81.0</ele><time>2026-04-11T08:07:48.545Z</time></trkpt><trkpt lat="43.7226226" lon="13.0753039"><ele>82.0</ele><time>2026-04-11T08:07:49.543Z</time></trkpt><trkpt lat="43.7224867" lon="13.0753185"><ele>83.0</ele><time>2026-04-11T08:07:50.545Z</time></trkpt><trkpt lat="43.7223511" lon="13.0753322"><ele>84.0</ele><time>2026-04-11T08:07:51.545Z</time></trkpt><trkpt lat="43.7222248" lon="13.0753479"><ele>84.0</ele><time>2026-04-11T08:07:52.544Z</time></trkpt><trkpt lat="43.7220972" lon="13.0753581"><ele>84.0</ele><time>2026-04-11T08:07:53.544Z</time></trkpt><trkpt lat="43.7219619" lon="13.0753787"><ele>84.0</ele><time>2026-04-11T08:07:54.545Z</time></trkpt><trkpt lat="43.7218479" lon="13.0754016"><ele>84.0</ele><time>2026-04-11T08:07:55.545Z</time></trkpt><trkpt lat="43.7217514" lon="13.0754222"><ele>84.16666666666667</ele><time>2026-04-11T08:07:56.544Z</time></trkpt><trkpt lat="43.7216829" lon="13.0754451"><ele>84.33333333333333</ele><time>2026-04-11T08:07:57.545Z</time></trkpt><trkpt lat="43.721594" lon="13.0754669"><ele>84.5</ele><time>2026-04-11T08:07:59.545Z</time></trkpt><trkpt lat="43.7216255" lon="13.0753628"><ele>84.66666666666666</ele><time>2026-04-11T08:08:03.545Z</time></trkpt><trkpt lat="43.7216891" lon="13.0753156"><ele>84.83333333333333</ele><time>2026-04-11T08:08:04.543Z</time></trkpt><trkpt lat="43.7217514" lon="13.0752512"><ele>85.0</ele><time>2026-04-11T08:08:05.545Z</time></trkpt><trkpt lat="43.7218092" lon="13.0751505"><ele>85.0</ele><time>2026-04-11T08:08:06.544Z</time></trkpt><trkpt lat="43.7218504" lon="13.0750391"><ele>85.0</ele><time>2026-04-11T08:08:07.545Z</time></trkpt><trkpt lat="43.7218758" lon="13.074901"><ele>85.0</ele><time>2026-04-11T08:08:08.546Z</time></trkpt><trkpt lat="43.7218879" lon="13.0747535"><ele>85.0</ele><time>2026-04-11T08:08:09.545Z</time></trkpt><trkpt lat="43.7218847" lon="13.0745922"><ele>85.0</ele><time>2026-04-11T08:08:10.545Z</time></trkpt><trkpt lat="43.7218684" lon="13.0744235"><ele>86.0</ele><time>2026-04-11T08:08:11.546Z</time></trkpt><trkpt lat="43.7218462" lon="13.074253"><ele>87.0</ele><time>2026-04-11T08:08:12.545Z</time></trkpt><trkpt lat="43.7218212" lon="13.0740791"><ele>88.0</ele><time>2026-04-11T08:08:13.544Z</time></trkpt><trkpt lat="43.7217983" lon="13.073906"><ele>89.0</ele><time>2026-04-11T08:08:14.545Z</time></trkpt><trkpt lat="43.7217752" lon="13.0737394"><ele>90.5</ele><time>2026-04-11T08:08:15.546Z</time></trkpt><trkpt lat="43.7217399" lon="13.0735802"><ele>92.0</ele><time>2026-04-11T08:08:16.545Z</time></trkpt><trkpt lat="43.72169" lon="13.073432"><ele>93.5</ele><time>2026-04-11T08:08:17.543Z</time></trkpt><trkpt lat="43.7216254" lon="13.0732956"><ele>95.0</ele><time>2026-04-11T08:08:18.545Z</time></trkpt><trkpt lat="43.7215385" lon="13.0731656"><ele>96.25</ele><time>2026-04-11T08:08:19.544Z</time></trkpt><trkpt lat="43.721435" lon="13.0730339"><ele>97.5</ele><time>2026-04-11T08:08:20.544Z</time></trkpt><trkpt lat="43.7213318" lon="13.0729054"><ele>98.75</ele><time>2026-04-11T08:08:21.546Z</time></trkpt><trkpt lat="43.7212255" lon="13.0727731"><ele>100.0</ele><time>2026-04-11T08:08:22.544Z</time></trkpt><trkpt lat="43.7211177" lon="13.0726279"><ele>100.0</ele><time>2026-04-11T08:08:23.544Z</time></trkpt><trkpt lat="43.7210074" lon="13.0724798"><ele>100.0</ele><time>2026-04-11T08:08:24.545Z</time></trkpt><trkpt lat="43.7208993" lon="13.0723238"><ele>100.0</ele><time>2026-04-11T08:08:25.546Z</time></trkpt><trkpt lat="43.7207919" lon="13.0721713"><ele>100.0</ele><time>2026-04-11T08:08:26.545Z</time></trkpt><trkpt lat="43.7206841" lon="13.0720175"><ele>100.0</ele><time>2026-04-11T08:08:27.544Z</time></trkpt><trkpt lat="43.7205849" lon="13.0718668"><ele>100.0</ele><time>2026-04-11T08:08:28.544Z</time></trkpt><trkpt lat="43.7204978" lon="13.0717188"><ele>100.0</ele><time>2026-04-11T08:08:29.544Z</time></trkpt><trkpt lat="43.7204248" lon="13.0715864"><ele>101.2</ele><time>2026-04-11T08:08:30.544Z</time></trkpt><trkpt lat="43.7203587" lon="13.071462"><ele>102.4</ele><time>2026-04-11T08:08:31.545Z</time></trkpt><trkpt lat="43.7203204" lon="13.0713309"><ele>103.6</ele><time>2026-04-11T08:08:32.545Z</time></trkpt><trkpt lat="43.7202981" lon="13.0711917"><ele>104.8</ele><time>2026-04-11T08:08:33.544Z</time></trkpt><trkpt lat="43.7203102" lon="13.0710503"><ele>106.0</ele><time>2026-04-11T08:08:34.545Z</time></trkpt><trkpt lat="43.7203606" lon="13.0709111"><ele>109.0</ele><time>2026-04-11T08:08:35.544Z</time></trkpt><trkpt lat="43.7204334" lon="13.0707724"><ele>112.0</ele><time>2026-04-11T08:08:36.544Z</time></trkpt><trkpt lat="43.7205196" lon="13.0706306"><ele>115.0</ele><time>2026-04-11T08:08:37.545Z</time></trkpt><trkpt lat="43.7206" lon="13.0704858"><ele>118.0</ele><time>2026-04-11T08:08:38.544Z</time></trkpt><trkpt lat="43.7206791" lon="13.0703557"><ele>118.0</ele><time>2026-04-11T08:08:39.544Z</time></trkpt><trkpt lat="43.7207547" lon="13.0702249"><ele>118.0</ele><time>2026-04-11T08:08:40.545Z</time></trkpt><trkpt lat="43.72083" lon="13.0700955"><ele>118.0</ele><time>2026-04-11T08:08:41.544Z</time></trkpt><trkpt lat="43.7209074" lon="13.0699559"><ele>118.0</ele><time>2026-04-11T08:08:42.544Z</time></trkpt><trkpt lat="43.7209851" lon="13.0698202"><ele>121.75</ele><time>2026-04-11T08:08:43.544Z</time></trkpt><trkpt lat="43.7210673" lon="13.0696782"><ele>125.5</ele><time>2026-04-11T08:08:44.544Z</time></trkpt><trkpt lat="43.7211565" lon="13.0695324"><ele>129.25</ele><time>2026-04-11T08:08:45.544Z</time></trkpt><trkpt lat="43.7212537" lon="13.0693657"><ele>133.0</ele><time>2026-04-11T08:08:46.544Z</time></trkpt><trkpt lat="43.7213466" lon="13.0692119"><ele>134.0</ele><time>2026-04-11T08:08:47.544Z</time></trkpt><trkpt lat="43.721437" lon="13.069057"><ele>135.0</ele><time>2026-04-11T08:08:48.545Z</time></trkpt><trkpt lat="43.7215359" lon="13.068906"><ele>136.0</ele><time>2026-04-11T08:08:49.545Z</time></trkpt><trkpt lat="43.7216392" lon="13.0687622"><ele>137.0</ele><time>2026-04-11T08:08:50.544Z</time></trkpt><trkpt lat="43.7217507" lon="13.0686353"><ele>137.0</ele><time>2026-04-11T08:08:51.546Z</time></trkpt><trkpt lat="43.7218779" lon="13.0685244"><ele>137.0</ele><time>2026-04-11T08:08:52.545Z</time></trkpt><trkpt lat="43.7220077" lon="13.0684242"><ele>137.0</ele><time>2026-04-11T08:08:53.545Z</time></trkpt><trkpt lat="43.7221328" lon="13.0683401"><ele>137.0</ele><time>2026-04-11T08:08:54.545Z</time></trkpt><trkpt lat="43.7222422" lon="13.0682653"><ele>139.6</ele><time>2026-04-11T08:08:55.545Z</time></trkpt><trkpt lat="43.7223319" lon="13.0682025"><ele>142.2</ele><time>2026-04-11T08:08:56.545Z</time></trkpt><trkpt lat="43.7224025" lon="13.0681139"><ele>144.8</ele><time>2026-04-11T08:08:57.545Z</time></trkpt><trkpt lat="43.7224556" lon="13.0680053"><ele>147.4</ele><time>2026-04-11T08:08:58.544Z</time></trkpt><trkpt lat="43.7224931" lon="13.0678978"><ele>150.0</ele><time>2026-04-11T08:08:59.544Z</time></trkpt><trkpt lat="43.7225322" lon="13.0678121"><ele>150.0</ele><time>2026-04-11T08:09:00.544Z</time></trkpt><trkpt lat="43.7225954" lon="13.0677525"><ele>150.0</ele><time>2026-04-11T08:09:01.544Z</time></trkpt><trkpt lat="43.722685" lon="13.0677244"><ele>150.0</ele><time>2026-04-11T08:09:02.544Z</time></trkpt><trkpt lat="43.7227981" lon="13.0677062"><ele>150.0</ele><time>2026-04-11T08:09:03.545Z</time></trkpt><trkpt lat="43.7229419" lon="13.0676911"><ele>150.0</ele><time>2026-04-11T08:09:04.544Z</time></trkpt><trkpt lat="43.7230967" lon="13.0676779"><ele>151.0</ele><time>2026-04-11T08:09:05.545Z</time></trkpt><trkpt lat="43.7232651" lon="13.0676554"><ele>152.0</ele><time>2026-04-11T08:09:06.545Z</time></trkpt><trkpt lat="43.7234349" lon="13.0676271"><ele>153.0</ele><time>2026-04-11T08:09:07.544Z</time></trkpt><trkpt lat="43.7235866" lon="13.0676029"><ele>153.0</ele><time>2026-04-11T08:09:08.544Z</time></trkpt><trkpt lat="43.7237117" lon="13.0675805"><ele>153.0</ele><time>2026-04-11T08:09:09.546Z</time></trkpt><trkpt lat="43.7238174" lon="13.0675629"><ele>153.0</ele><time>2026-04-11T08:09:10.544Z</time></trkpt><trkpt lat="43.7239052" lon="13.0675483"><ele>153.0</ele><time>2026-04-11T08:09:11.545Z</time></trkpt><trkpt lat="43.7239692" lon="13.0675198"><ele>153.0</ele><time>2026-04-11T08:09:12.544Z</time></trkpt><trkpt lat="43.7240541" lon="13.0673966"><ele>153.0</ele><time>2026-04-11T08:09:14.546Z</time></trkpt><trkpt lat="43.7240706" lon="13.0672863"><ele>153.0</ele><time>2026-04-11T08:09:15.545Z</time></trkpt><trkpt lat="43.7240731" lon="13.0671429"><ele>153.0</ele><time>2026-04-11T08:09:16.543Z</time></trkpt><trkpt lat="43.7240673" lon="13.0669874"><ele>153.0</ele><time>2026-04-11T08:09:17.545Z</time></trkpt><trkpt lat="43.7240584" lon="13.0668368"><ele>153.0</ele><time>2026-04-11T08:09:18.544Z</time></trkpt><trkpt lat="43.7240481" lon="13.0666802"><ele>153.0</ele><time>2026-04-11T08:09:19.543Z</time></trkpt><trkpt lat="43.7240385" lon="13.066519"><ele>153.0</ele><time>2026-04-11T08:09:20.545Z</time></trkpt><trkpt lat="43.7240302" lon="13.0663587"><ele>153.0</ele><time>2026-04-11T08:09:21.544Z</time></trkpt><trkpt lat="43.7240139" lon="13.0661946"><ele>153.0</ele><time>2026-04-11T08:09:22.545Z</time></trkpt><trkpt lat="43.7240007" lon="13.0660303"><ele>153.0</ele><time>2026-04-11T08:09:23.545Z</time></trkpt><trkpt lat="43.7239787" lon="13.0658587"><ele>153.0</ele><time>2026-04-11T08:09:24.545Z</time></trkpt><trkpt lat="43.7239608" lon="13.0656878"><ele>153.0</ele><time>2026-04-11T08:09:25.545Z</time></trkpt><trkpt lat="43.72394" lon="13.0655119"><ele>153.0</ele><time>2026-04-11T08:09:26.544Z</time></trkpt><trkpt lat="43.7239192" lon="13.065339"><ele>153.0</ele><time>2026-04-11T08:09:27.543Z</time></trkpt><trkpt lat="43.723897" lon="13.0651516"><ele>153.0</ele><time>2026-04-11T08:09:28.545Z</time></trkpt><trkpt lat="43.7238718" lon="13.0649636"><ele>153.0</ele><time>2026-04-11T08:09:29.545Z</time></trkpt><trkpt lat="43.7238417" lon="13.0647718"><ele>153.0</ele><time>2026-04-11T08:09:30.546Z</time></trkpt><trkpt lat="43.7238136" lon="13.0645895"><ele>152.5</ele><time>2026-04-11T08:09:31.545Z</time></trkpt><trkpt lat="43.7237811" lon="13.0643975"><ele>152.0</ele><time>2026-04-11T08:09:32.544Z</time></trkpt><trkpt lat="43.7237475" lon="13.0642093"><ele>151.5</ele><time>2026-04-11T08:09:33.544Z</time></trkpt><trkpt lat="43.7237216" lon="13.0640317"><ele>151.0</ele><time>2026-04-11T08:09:34.544Z</time></trkpt><trkpt lat="43.7236991" lon="13.0638472"><ele>150.25</ele><time>2026-04-11T08:09:35.544Z</time></trkpt><trkpt lat="43.7236792" lon="13.06366"><ele>149.5</ele><time>2026-04-11T08:09:36.545Z</time></trkpt><trkpt lat="43.7236621" lon="13.0634668"><ele>148.75</ele><time>2026-04-11T08:09:37.543Z</time></trkpt><trkpt lat="43.7236537" lon="13.0632775"><ele>148.0</ele><time>2026-04-11T08:09:38.545Z</time></trkpt><trkpt lat="43.7236535" lon="13.0630844"><ele>147.25</ele><time>2026-04-11T08:09:39.545Z</time></trkpt><trkpt lat="43.7236535" lon="13.0628937"><ele>146.5</ele><time>2026-04-11T08:09:40.545Z</time></trkpt><trkpt lat="43.7236561" lon="13.0626957"><ele>145.75</ele><time>2026-04-11T08:09:41.544Z</time></trkpt><trkpt lat="43.7236449" lon="13.0624947"><ele>145.0</ele><time>2026-04-11T08:09:42.544Z</time></trkpt><trkpt lat="43.7236323" lon="13.062298"><ele>144.66666666666669</ele><time>2026-04-11T08:09:43.545Z</time></trkpt><trkpt lat="43.7236111" lon="13.0620942"><ele>144.33333333333334</ele><time>2026-04-11T08:09:44.545Z</time></trkpt><trkpt lat="43.7235876" lon="13.0618853"><ele>144.0</ele><time>2026-04-11T08:09:45.546Z</time></trkpt><trkpt lat="43.7235609" lon="13.0616778"><ele>147.0</ele><time>2026-04-11T08:09:46.545Z</time></trkpt><trkpt lat="43.7235294" lon="13.0614764"><ele>150.0</ele><time>2026-04-11T08:09:47.544Z</time></trkpt><trkpt lat="43.7235031" lon="13.061271"><ele>153.0</ele><time>2026-04-11T08:09:48.546Z</time></trkpt><trkpt lat="43.7234601" lon="13.0610769"><ele>156.0</ele><time>2026-04-11T08:09:49.544Z</time></trkpt><trkpt lat="43.7234089" lon="13.0608859"><ele>155.66666666666666</ele><time>2026-04-11T08:09:50.545Z</time></trkpt><trkpt lat="43.7233462" lon="13.0606924"><ele>155.33333333333331</ele><time>2026-04-11T08:09:51.545Z</time></trkpt><trkpt lat="43.7232791" lon="13.0605013"><ele>155.0</ele><time>2026-04-11T08:09:52.545Z</time></trkpt><trkpt lat="43.7232107" lon="13.060316"><ele>155.0</ele><time>2026-04-11T08:09:53.544Z</time></trkpt><trkpt lat="43.7231457" lon="13.0601337"><ele>155.0</ele><time>2026-04-11T08:09:54.544Z</time></trkpt><trkpt lat="43.7230806" lon="13.0599759"><ele>155.0</ele><time>2026-04-11T08:09:55.544Z</time></trkpt><trkpt lat="43.7230135" lon="13.0598235"><ele>155.0</ele><time>2026-04-11T08:09:56.545Z</time></trkpt><trkpt lat="43.7229361" lon="13.0596698"><ele>153.75</ele><time>2026-04-11T08:09:57.545Z</time></trkpt><trkpt lat="43.7228489" lon="13.0595181"><ele>152.5</ele><time>2026-04-11T08:09:58.544Z</time></trkpt><trkpt lat="43.722754" lon="13.0593713"><ele>151.25</ele><time>2026-04-11T08:09:59.546Z</time></trkpt><trkpt lat="43.72266" lon="13.059225"><ele>150.0</ele><time>2026-04-11T08:10:00.545Z</time></trkpt><trkpt lat="43.722569" lon="13.0590801"><ele>153.25</ele><time>2026-04-11T08:10:01.545Z</time></trkpt><trkpt lat="43.7224881" lon="13.0589441"><ele>156.5</ele><time>2026-04-11T08:10:02.544Z</time></trkpt><trkpt lat="43.7224232" lon="13.058809"><ele>159.75</ele><time>2026-04-11T08:10:03.545Z</time></trkpt><trkpt lat="43.722372" lon="13.0586442"><ele>163.0</ele><time>2026-04-11T08:10:04.544Z</time></trkpt><trkpt lat="43.7223339" lon="13.0584809"><ele>163.0</ele><time>2026-04-11T08:10:05.545Z</time></trkpt><trkpt lat="43.7223084" lon="13.0583142"><ele>163.0</ele><time>2026-04-11T08:10:06.546Z</time></trkpt><trkpt lat="43.7222764" lon="13.0581421"><ele>163.0</ele><time>2026-04-11T08:10:07.545Z</time></trkpt><trkpt lat="43.72225" lon="13.057959"><ele>163.0</ele><time>2026-04-11T08:10:08.545Z</time></trkpt><trkpt lat="43.7222223" lon="13.0577612"><ele>162.66666666666669</ele><time>2026-04-11T08:10:09.544Z</time></trkpt><trkpt lat="43.7221908" lon="13.0575462"><ele>162.33333333333334</ele><time>2026-04-11T08:10:10.545Z</time></trkpt><trkpt lat="43.7221552" lon="13.0573393"><ele>162.0</ele><time>2026-04-11T08:10:11.545Z</time></trkpt><trkpt lat="43.7221217" lon="13.0571238"><ele>162.0</ele><time>2026-04-11T08:10:12.546Z</time></trkpt><trkpt lat="43.722079" lon="13.0569155"><ele>162.0</ele><time>2026-04-11T08:10:13.544Z</time></trkpt><trkpt lat="43.7220448" lon="13.0567199"><ele>162.0</ele><time>2026-04-11T08:10:14.544Z</time></trkpt><trkpt lat="43.7220138" lon="13.0565515"><ele>162.0</ele><time>2026-04-11T08:10:15.544Z</time></trkpt><trkpt lat="43.7219948" lon="13.0563985"><ele>162.0</ele><time>2026-04-11T08:10:16.546Z</time></trkpt><trkpt lat="43.7219764" lon="13.0562751"><ele>162.0</ele><time>2026-04-11T08:10:17.545Z</time></trkpt><trkpt lat="43.7219646" lon="13.0561636"><ele>162.0</ele><time>2026-04-11T08:10:18.545Z</time></trkpt><trkpt lat="43.7219543" lon="13.0560564"><ele>162.0</ele><time>2026-04-11T08:10:19.544Z</time></trkpt><trkpt lat="43.7219477" lon="13.0559538"><ele>162.0</ele><time>2026-04-11T08:10:20.545Z</time></trkpt><trkpt lat="43.7219387" lon="13.0558521"><ele>162.0</ele><time>2026-04-11T08:10:21.545Z</time></trkpt><trkpt lat="43.7219248" lon="13.055745"><ele>161.66666666666666</ele><time>2026-04-11T08:10:22.545Z</time></trkpt><trkpt lat="43.7219095" lon="13.055634"><ele>161.33333333333334</ele><time>2026-04-11T08:10:23.545Z</time></trkpt><trkpt lat="43.7218883" lon="13.0555162"><ele>161.0</ele><time>2026-04-11T08:10:24.546Z</time></trkpt><trkpt lat="43.7218646" lon="13.0553976"><ele>160.66666666666669</ele><time>2026-04-11T08:10:25.545Z</time></trkpt><trkpt lat="43.7218419" lon="13.0552847"><ele>160.33333333333334</ele><time>2026-04-11T08:10:26.545Z</time></trkpt><trkpt lat="43.7218205" lon="13.0551746"><ele>160.0</ele><time>2026-04-11T08:10:27.544Z</time></trkpt><trkpt lat="43.7217997" lon="13.0550467"><ele>162.6</ele><time>2026-04-11T08:10:28.544Z</time></trkpt><trkpt lat="43.7217749" lon="13.0549086"><ele>165.2</ele><time>2026-04-11T08:10:29.545Z</time></trkpt><trkpt lat="43.7217563" lon="13.0547706"><ele>167.8</ele><time>2026-04-11T08:10:30.545Z</time></trkpt><trkpt lat="43.7217532" lon="13.0546337"><ele>170.4</ele><time>2026-04-11T08:10:31.545Z</time></trkpt><trkpt lat="43.7217495" lon="13.0544868"><ele>173.0</ele><time>2026-04-11T08:10:32.545Z</time></trkpt><trkpt lat="43.7217511" lon="13.0543401"><ele>173.0</ele><time>2026-04-11T08:10:33.545Z</time></trkpt><trkpt lat="43.7217557" lon="13.054197"><ele>173.0</ele><time>2026-04-11T08:10:34.544Z</time></trkpt><trkpt lat="43.7217636" lon="13.0540617"><ele>173.0</ele><time>2026-04-11T08:10:35.544Z</time></trkpt><trkpt lat="43.7217765" lon="13.0539395"><ele>173.0</ele><time>2026-04-11T08:10:36.545Z</time></trkpt><trkpt lat="43.7217861" lon="13.053817"><ele>173.0</ele><time>2026-04-11T08:10:37.546Z</time></trkpt><trkpt lat="43.7217949" lon="13.0536997"><ele>172.66666666666666</ele><time>2026-04-11T08:10:38.546Z</time></trkpt><trkpt lat="43.7218035" lon="13.0535776"><ele>172.33333333333331</ele><time>2026-04-11T08:10:39.546Z</time></trkpt><trkpt lat="43.7218115" lon="13.0534597"><ele>172.0</ele><time>2026-04-11T08:10:40.545Z</time></trkpt><trkpt lat="43.7218254" lon="13.0533412"><ele>171.66666666666666</ele><time>2026-04-11T08:10:41.544Z</time></trkpt><trkpt lat="43.721837" lon="13.0532194"><ele>171.33333333333334</ele><time>2026-04-11T08:10:42.545Z</time></trkpt><trkpt lat="43.7218481" lon="13.0530897"><ele>171.0</ele><time>2026-04-11T08:10:43.545Z</time></trkpt><trkpt lat="43.7218661" lon="13.0529837"><ele>170.0</ele><time>2026-04-11T08:10:44.544Z</time></trkpt><trkpt lat="43.7218805" lon="13.0528775"><ele>169.0</ele><time>2026-04-11T08:10:45.544Z</time></trkpt><trkpt lat="43.721896" lon="13.0527838"><ele>168.0</ele><time>2026-04-11T08:10:46.545Z</time></trkpt><trkpt lat="43.7219119" lon="13.052697"><ele>167.0</ele><time>2026-04-11T08:10:47.545Z</time></trkpt><trkpt lat="43.7219368" lon="13.0525195"><ele>166.0</ele><time>2026-04-11T08:10:49.544Z</time></trkpt><trkpt lat="43.7219578" lon="13.0524182"><ele>165.0</ele><time>2026-04-11T08:10:50.545Z</time></trkpt><trkpt lat="43.7219782" lon="13.0523154"><ele>164.83333333333334</ele><time>2026-04-11T08:10:51.544Z</time></trkpt><trkpt lat="43.7219963" lon="13.0522175"><ele>164.66666666666666</ele><time>2026-04-11T08:10:52.544Z</time></trkpt><trkpt lat="43.7220066" lon="13.0521189"><ele>164.5</ele><time>2026-04-11T08:10:53.545Z</time></trkpt><trkpt lat="43.7220101" lon="13.0520079"><ele>164.33333333333331</ele><time>2026-04-11T08:10:54.544Z</time></trkpt><trkpt lat="43.7220029" lon="13.0518856"><ele>164.16666666666666</ele><time>2026-04-11T08:10:55.544Z</time></trkpt><trkpt lat="43.7219892" lon="13.0517502"><ele>164.0</ele><time>2026-04-11T08:10:56.545Z</time></trkpt><trkpt lat="43.7219713" lon="13.0516064"><ele>165.25</ele><time>2026-04-11T08:10:57.545Z</time></trkpt><trkpt lat="43.7219545" lon="13.0514502"><ele>166.5</ele><time>2026-04-11T08:10:58.545Z</time></trkpt><trkpt lat="43.7219371" lon="13.0512849"><ele>167.75</ele><time>2026-04-11T08:10:59.545Z</time></trkpt><trkpt lat="43.7219119" lon="13.0511142"><ele>169.0</ele><time>2026-04-11T08:11:00.545Z</time></trkpt><trkpt lat="43.721888" lon="13.050935"><ele>170.25</ele><time>2026-04-11T08:11:01.545Z</time></trkpt><trkpt lat="43.7218598" lon="13.0507579"><ele>171.5</ele><time>2026-04-11T08:11:02.544Z</time></trkpt><trkpt lat="43.7218316" lon="13.0505756"><ele>172.75</ele><time>2026-04-11T08:11:03.545Z</time></trkpt><trkpt lat="43.7218023" lon="13.0503997"><ele>174.0</ele><time>2026-04-11T08:11:04.545Z</time></trkpt><trkpt lat="43.7217667" lon="13.0502287"><ele>174.0</ele><time>2026-04-11T08:11:05.545Z</time></trkpt><trkpt lat="43.7217254" lon="13.050057"><ele>174.0</ele><time>2026-04-11T08:11:06.544Z</time></trkpt><trkpt lat="43.7216818" lon="13.0498828"><ele>174.0</ele><time>2026-04-11T08:11:07.545Z</time></trkpt><trkpt lat="43.721646" lon="13.0497082"><ele>174.0</ele><time>2026-04-11T08:11:08.544Z</time></trkpt><trkpt lat="43.7216143" lon="13.0495323"><ele>173.75</ele><time>2026-04-11T08:11:09.546Z</time></trkpt><trkpt lat="43.7215893" lon="13.0493772"><ele>173.5</ele><time>2026-04-11T08:11:10.545Z</time></trkpt><trkpt lat="43.7215622" lon="13.0492276"><ele>173.25</ele><time>2026-04-11T08:11:11.546Z</time></trkpt><trkpt lat="43.7215331" lon="13.049073"><ele>173.0</ele><time>2026-04-11T08:11:12.545Z</time></trkpt><trkpt lat="43.7214958" lon="13.0489105"><ele>173.0</ele><time>2026-04-11T08:11:13.545Z</time></trkpt><trkpt lat="43.7214488" lon="13.0487423"><ele>173.0</ele><time>2026-04-11T08:11:14.545Z</time></trkpt><trkpt lat="43.7213918" lon="13.0485822"><ele>173.0</ele><time>2026-04-11T08:11:15.545Z</time></trkpt><trkpt lat="43.7213308" lon="13.0484178"><ele>173.0</ele><time>2026-04-11T08:11:16.545Z</time></trkpt><trkpt lat="43.7212672" lon="13.0482553"><ele>172.75</ele><time>2026-04-11T08:11:17.545Z</time></trkpt><trkpt lat="43.7212039" lon="13.0480974"><ele>172.5</ele><time>2026-04-11T08:11:18.545Z</time></trkpt><trkpt lat="43.7211446" lon="13.0479358"><ele>172.25</ele><time>2026-04-11T08:11:19.545Z</time></trkpt><trkpt lat="43.7210955" lon="13.0477631"><ele>172.0</ele><time>2026-04-11T08:11:20.544Z</time></trkpt><trkpt lat="43.7210528" lon="13.0475802"><ele>171.5</ele><time>2026-04-11T08:11:21.544Z</time></trkpt><trkpt lat="43.7210242" lon="13.0473892"><ele>171.0</ele><time>2026-04-11T08:11:22.545Z</time></trkpt><trkpt lat="43.7209979" lon="13.0472025"><ele>170.5</ele><time>2026-04-11T08:11:23.544Z</time></trkpt><trkpt lat="43.7209777" lon="13.0470108"><ele>170.0</ele><time>2026-04-11T08:11:24.545Z</time></trkpt><trkpt lat="43.7209565" lon="13.0468152"><ele>169.66666666666666</ele><time>2026-04-11T08:11:25.545Z</time></trkpt><trkpt lat="43.7209305" lon="13.0466054"><ele>169.33333333333334</ele><time>2026-04-11T08:11:26.546Z</time></trkpt><trkpt lat="43.7209042" lon="13.0463998"><ele>169.0</ele><time>2026-04-11T08:11:27.544Z</time></trkpt><trkpt lat="43.7208748" lon="13.0461975"><ele>169.0</ele><time>2026-04-11T08:11:28.545Z</time></trkpt><trkpt lat="43.7208446" lon="13.0459882"><ele>169.0</ele><time>2026-04-11T08:11:29.545Z</time></trkpt><trkpt lat="43.7208163" lon="13.0457789"><ele>169.0</ele><time>2026-04-11T08:11:30.546Z</time></trkpt><trkpt lat="43.7207916" lon="13.0455746"><ele>169.25</ele><time>2026-04-11T08:11:31.543Z</time></trkpt><trkpt lat="43.7207777" lon="13.0453725"><ele>169.5</ele><time>2026-04-11T08:11:32.544Z</time></trkpt><trkpt lat="43.7207727" lon="13.0451845"><ele>169.75</ele><time>2026-04-11T08:11:33.545Z</time></trkpt><trkpt lat="43.7207741" lon="13.0450119"><ele>170.0</ele><time>2026-04-11T08:11:34.545Z</time></trkpt><trkpt lat="43.7207819" lon="13.0448445"><ele>170.0</ele><time>2026-04-11T08:11:35.545Z</time></trkpt><trkpt lat="43.7207929" lon="13.0446739"><ele>170.0</ele><time>2026-04-11T08:11:36.545Z</time></trkpt><trkpt lat="43.7208007" lon="13.044497"><ele>170.0</ele><time>2026-04-11T08:11:37.544Z</time></trkpt><trkpt lat="43.7208005" lon="13.0443131"><ele>170.0</ele><time>2026-04-11T08:11:38.545Z</time></trkpt><trkpt lat="43.720794" lon="13.0441194"><ele>169.75</ele><time>2026-04-11T08:11:39.544Z</time></trkpt><trkpt lat="43.7207899" lon="13.043921"><ele>169.5</ele><time>2026-04-11T08:11:40.545Z</time></trkpt><trkpt lat="43.7207849" lon="13.0437217"><ele>169.25</ele><time>2026-04-11T08:11:41.544Z</time></trkpt><trkpt lat="43.7207747" lon="13.0435163"><ele>169.0</ele><time>2026-04-11T08:11:42.544Z</time></trkpt><trkpt lat="43.7207697" lon="13.043316"><ele>169.0</ele><time>2026-04-11T08:11:43.543Z</time></trkpt><trkpt lat="43.7207658" lon="13.0431174"><ele>169.0</ele><time>2026-04-11T08:11:44.544Z</time></trkpt><trkpt lat="43.7207708" lon="13.0429213"><ele>169.0</ele><time>2026-04-11T08:11:45.543Z</time></trkpt><trkpt lat="43.720778" lon="13.0427363"><ele>169.0</ele><time>2026-04-11T08:11:46.545Z</time></trkpt><trkpt lat="43.7207893" lon="13.0425498"><ele>169.25</ele><time>2026-04-11T08:11:47.545Z</time></trkpt><trkpt lat="43.7208031" lon="13.0423596"><ele>169.5</ele><time>2026-04-11T08:11:48.545Z</time></trkpt><trkpt lat="43.7208249" lon="13.042175"><ele>169.75</ele><time>2026-04-11T08:11:49.545Z</time></trkpt><trkpt lat="43.7208404" lon="13.0419951"><ele>170.0</ele><time>2026-04-11T08:11:50.544Z</time></trkpt><trkpt lat="43.7208463" lon="13.0418255"><ele>170.0</ele><time>2026-04-11T08:11:51.546Z</time></trkpt><trkpt lat="43.7208399" lon="13.0416632"><ele>170.0</ele><time>2026-04-11T08:11:52.545Z</time></trkpt><trkpt lat="43.7208242" lon="13.0415029"><ele>170.0</ele><time>2026-04-11T08:11:53.545Z</time></trkpt><trkpt lat="43.7207905" lon="13.0413461"><ele>170.0</ele><time>2026-04-11T08:11:54.545Z</time></trkpt><trkpt lat="43.720746" lon="13.041188"><ele>171.5</ele><time>2026-04-11T08:11:55.544Z</time></trkpt><trkpt lat="43.7206888" lon="13.0410339"><ele>173.0</ele><time>2026-04-11T08:11:56.545Z</time></trkpt><trkpt lat="43.7206238" lon="13.0408725"><ele>174.5</ele><time>2026-04-11T08:11:57.544Z</time></trkpt><trkpt lat="43.7205608" lon="13.0407007"><ele>176.0</ele><time>2026-04-11T08:11:58.545Z</time></trkpt><trkpt lat="43.7204914" lon="13.0404967"><ele>178.0</ele><time>2026-04-11T08:11:59.544Z</time></trkpt><trkpt lat="43.72043" lon="13.0402878"><ele>180.0</ele><time>2026-04-11T08:12:00.546Z</time></trkpt><trkpt lat="43.7203784" lon="13.0400707"><ele>182.0</ele><time>2026-04-11T08:12:01.543Z</time></trkpt><trkpt lat="43.7203386" lon="13.0398487"><ele>184.0</ele><time>2026-04-11T08:12:02.544Z</time></trkpt><trkpt lat="43.7203057" lon="13.03963"><ele>186.0</ele><time>2026-04-11T08:12:03.545Z</time></trkpt><trkpt lat="43.7202729" lon="13.0394195"><ele>188.0</ele><time>2026-04-11T08:12:04.545Z</time></trkpt><trkpt lat="43.7202419" lon="13.0392088"><ele>190.0</ele><time>2026-04-11T08:12:05.545Z</time></trkpt><trkpt lat="43.7202131" lon="13.0390122"><ele>192.0</ele><time>2026-04-11T08:12:06.545Z</time></trkpt><trkpt lat="43.7201969" lon="13.0388151"><ele>194.0</ele><time>2026-04-11T08:12:07.545Z</time></trkpt><trkpt lat="43.7201901" lon="13.0386183"><ele>196.0</ele><time>2026-04-11T08:12:08.545Z</time></trkpt><trkpt lat="43.7201926" lon="13.0384205"><ele>196.75</ele><time>2026-04-11T08:12:09.543Z</time></trkpt><trkpt lat="43.720208" lon="13.0382273"><ele>197.5</ele><time>2026-04-11T08:12:10.546Z</time></trkpt><trkpt lat="43.7202318" lon="13.038053"><ele>198.25</ele><time>2026-04-11T08:12:11.545Z</time></trkpt><trkpt lat="43.7202598" lon="13.0378966"><ele>199.0</ele><time>2026-04-11T08:12:12.545Z</time></trkpt><trkpt lat="43.7202865" lon="13.037739"><ele>199.0</ele><time>2026-04-11T08:12:13.543Z</time></trkpt><trkpt lat="43.720304" lon="13.0375627"><ele>199.0</ele><time>2026-04-11T08:12:14.544Z</time></trkpt><trkpt lat="43.7203093" lon="13.0373729"><ele>199.0</ele><time>2026-04-11T08:12:15.545Z</time></trkpt><trkpt lat="43.7203138" lon="13.0371783"><ele>199.0</ele><time>2026-04-11T08:12:16.545Z</time></trkpt><trkpt lat="43.7203045" lon="13.0369818"><ele>199.5</ele><time>2026-04-11T08:12:17.544Z</time></trkpt><trkpt lat="43.7202883" lon="13.0368025"><ele>200.0</ele><time>2026-04-11T08:12:18.545Z</time></trkpt><trkpt lat="43.7202609" lon="13.0366324"><ele>200.5</ele><time>2026-04-11T08:12:19.543Z</time></trkpt><trkpt lat="43.7202328" lon="13.0364662"><ele>201.0</ele><time>2026-04-11T08:12:20.545Z</time></trkpt><trkpt lat="43.7202071" lon="13.0363046"><ele>201.0</ele><time>2026-04-11T08:12:21.543Z</time></trkpt><trkpt lat="43.7201777" lon="13.0361522"><ele>201.0</ele><time>2026-04-11T08:12:22.545Z</time></trkpt><trkpt lat="43.7201426" lon="13.036"><ele>201.0</ele><time>2026-04-11T08:12:23.544Z</time></trkpt><trkpt lat="43.7201056" lon="13.0358469"><ele>201.0</ele><time>2026-04-11T08:12:24.545Z</time></trkpt><trkpt lat="43.720067" lon="13.0357075"><ele>200.0</ele><time>2026-04-11T08:12:25.545Z</time></trkpt><trkpt lat="43.7200286" lon="13.0355735"><ele>199.0</ele><time>2026-04-11T08:12:26.545Z</time></trkpt><trkpt lat="43.7199803" lon="13.0354413"><ele>198.0</ele><time>2026-04-11T08:12:27.546Z</time></trkpt><trkpt lat="43.7199289" lon="13.035308"><ele>197.0</ele><time>2026-04-11T08:12:28.545Z</time></trkpt><trkpt lat="43.7198657" lon="13.0351882"><ele>196.0</ele><time>2026-04-11T08:12:29.545Z</time></trkpt><trkpt lat="43.7197929" lon="13.0350606"><ele>195.0</ele><time>2026-04-11T08:12:30.546Z</time></trkpt><trkpt lat="43.7197082" lon="13.0349258"><ele>194.0</ele><time>2026-04-11T08:12:31.545Z</time></trkpt><trkpt lat="43.7196237" lon="13.0347907"><ele>193.0</ele><time>2026-04-11T08:12:32.544Z</time></trkpt><trkpt lat="43.7195388" lon="13.0346475"><ele>192.0</ele><time>2026-04-11T08:12:33.545Z</time></trkpt><trkpt lat="43.7194442" lon="13.0344905"><ele>194.5</ele><time>2026-04-11T08:12:34.544Z</time></trkpt><trkpt lat="43.7193575" lon="13.0343336"><ele>197.0</ele><time>2026-04-11T08:12:35.545Z</time></trkpt><trkpt lat="43.7192672" lon="13.0341688"><ele>199.5</ele><time>2026-04-11T08:12:36.544Z</time></trkpt><trkpt lat="43.7191764" lon="13.0340053"><ele>202.0</ele><time>2026-04-11T08:12:37.545Z</time></trkpt><trkpt lat="43.7190796" lon="13.0338416"><ele>202.33333333333331</ele><time>2026-04-11T08:12:38.544Z</time></trkpt><trkpt lat="43.7189783" lon="13.0336791"><ele>202.66666666666669</ele><time>2026-04-11T08:12:39.545Z</time></trkpt><trkpt lat="43.7188675" lon="13.0335332"><ele>203.0</ele><time>2026-04-11T08:12:40.545Z</time></trkpt><trkpt lat="43.7187522" lon="13.0334008"><ele>203.5</ele><time>2026-04-11T08:12:41.545Z</time></trkpt><trkpt lat="43.7186307" lon="13.0332813"><ele>204.0</ele><time>2026-04-11T08:12:42.544Z</time></trkpt><trkpt lat="43.7185181" lon="13.0331669"><ele>204.5</ele><time>2026-04-11T08:12:43.545Z</time></trkpt><trkpt lat="43.7184143" lon="13.0330615"><ele>205.0</ele><time>2026-04-11T08:12:44.546Z</time></trkpt><trkpt lat="43.7183271" lon="13.032974"><ele>204.99999999999997</ele><time>2026-04-11T08:12:45.545Z</time></trkpt><trkpt lat="43.7182556" lon="13.0329033"><ele>205.0</ele><time>2026-04-11T08:12:46.545Z</time></trkpt><trkpt lat="43.7182068" lon="13.0328469"><ele>205.0</ele><time>2026-04-11T08:12:47.545Z</time></trkpt><trkpt lat="43.7181421" lon="13.0327748"><ele>205.0</ele><time>2026-04-11T08:12:57.546Z</time></trkpt><trkpt lat="43.7180437" lon="13.0327111"><ele>204.99999999999997</ele><time>2026-04-11T08:12:59.546Z</time></trkpt><trkpt lat="43.717979" lon="13.0326685"><ele>205.0</ele><time>2026-04-11T08:13:00.544Z</time></trkpt><trkpt lat="43.7179113" lon="13.0326191"><ele>205.0</ele><time>2026-04-11T08:13:01.545Z</time></trkpt><trkpt lat="43.7178337" lon="13.0325724"><ele>205.0</ele><time>2026-04-11T08:13:02.544Z</time></trkpt><trkpt lat="43.7177488" lon="13.0325217"><ele>205.0</ele><time>2026-04-11T08:13:03.545Z</time></trkpt><trkpt lat="43.7176574" lon="13.032464"><ele>205.0</ele><time>2026-04-11T08:13:04.545Z</time></trkpt><trkpt lat="43.7175629" lon="13.0324148"><ele>205.0</ele><time>2026-04-11T08:13:05.544Z</time></trkpt><trkpt lat="43.7174529" lon="13.0323566"><ele>206.0</ele><time>2026-04-11T08:13:06.545Z</time></trkpt><trkpt lat="43.7173337" lon="13.0323105"><ele>207.0</ele><time>2026-04-11T08:13:07.545Z</time></trkpt><trkpt lat="43.7172003" lon="13.0322741"><ele>208.0</ele><time>2026-04-11T08:13:08.544Z</time></trkpt><trkpt lat="43.717068" lon="13.0322572"><ele>209.0</ele><time>2026-04-11T08:13:09.544Z</time></trkpt><trkpt lat="43.7169348" lon="13.0322362"><ele>211.0</ele><time>2026-04-11T08:13:10.545Z</time></trkpt><trkpt lat="43.7168079" lon="13.0322074"><ele>213.0</ele><time>2026-04-11T08:13:11.545Z</time></trkpt><trkpt lat="43.7166882" lon="13.0321738"><ele>215.0</ele><time>2026-04-11T08:13:12.546Z</time></trkpt><trkpt lat="43.7165725" lon="13.0321291"><ele>217.0</ele><time>2026-04-11T08:13:13.543Z</time></trkpt><trkpt lat="43.716454" lon="13.0320813"><ele>217.0</ele><time>2026-04-11T08:13:14.543Z</time></trkpt><trkpt lat="43.716332" lon="13.0320288"><ele>217.0</ele><time>2026-04-11T08:13:15.543Z</time></trkpt><trkpt lat="43.7162045" lon="13.0319745"><ele>217.0</ele><time>2026-04-11T08:13:16.546Z</time></trkpt><trkpt lat="43.7160772" lon="13.0319188"><ele>217.0</ele><time>2026-04-11T08:13:17.544Z</time></trkpt><trkpt lat="43.7159504" lon="13.0318542"><ele>218.0</ele><time>2026-04-11T08:13:18.545Z</time></trkpt><trkpt lat="43.7158288" lon="13.0317615"><ele>219.0</ele><time>2026-04-11T08:13:19.545Z</time></trkpt><trkpt lat="43.7157101" lon="13.0316466"><ele>220.0</ele><time>2026-04-11T08:13:20.544Z</time></trkpt><trkpt lat="43.7155893" lon="13.0315226"><ele>221.0</ele><time>2026-04-11T08:13:21.544Z</time></trkpt><trkpt lat="43.7154806" lon="13.0314051"><ele>221.5</ele><time>2026-04-11T08:13:22.545Z</time></trkpt><trkpt lat="43.7153832" lon="13.0313006"><ele>222.0</ele><time>2026-04-11T08:13:23.545Z</time></trkpt><trkpt lat="43.715294" lon="13.0311954"><ele>222.5</ele><time>2026-04-11T08:13:24.545Z</time></trkpt><trkpt lat="43.7152103" lon="13.0310907"><ele>223.0</ele><time>2026-04-11T08:13:25.546Z</time></trkpt><trkpt lat="43.7151233" lon="13.030989"><ele>223.75</ele><time>2026-04-11T08:13:26.546Z</time></trkpt><trkpt lat="43.7150437" lon="13.0308845"><ele>224.5</ele><time>2026-04-11T08:13:27.544Z</time></trkpt><trkpt lat="43.7149582" lon="13.0307817"><ele>225.25</ele><time>2026-04-11T08:13:28.544Z</time></trkpt><trkpt lat="43.7148708" lon="13.0306725"><ele>226.0</ele><time>2026-04-11T08:13:29.546Z</time></trkpt><trkpt lat="43.7147851" lon="13.0305526"><ele>226.0</ele><time>2026-04-11T08:13:30.545Z</time></trkpt><trkpt lat="43.7146987" lon="13.0304289"><ele>226.0</ele><time>2026-04-11T08:13:31.543Z</time></trkpt><trkpt lat="43.7146093" lon="13.0303013"><ele>226.0</ele><time>2026-04-11T08:13:32.545Z</time></trkpt><trkpt lat="43.7145193" lon="13.0301751"><ele>226.0</ele><time>2026-04-11T08:13:33.543Z</time></trkpt><trkpt lat="43.7144328" lon="13.0300486"><ele>225.0</ele><time>2026-04-11T08:13:34.544Z</time></trkpt><trkpt lat="43.7143492" lon="13.0299309"><ele>224.0</ele><time>2026-04-11T08:13:35.545Z</time></trkpt><trkpt lat="43.7142681" lon="13.0298186"><ele>223.0</ele><time>2026-04-11T08:13:36.544Z</time></trkpt><trkpt lat="43.7141859" lon="13.0297033"><ele>222.0</ele><time>2026-04-11T08:13:37.544Z</time></trkpt><trkpt lat="43.714101" lon="13.029589"><ele>222.0</ele><time>2026-04-11T08:13:38.545Z</time></trkpt><trkpt lat="43.7140137" lon="13.0294684"><ele>222.0</ele><time>2026-04-11T08:13:39.545Z</time></trkpt><trkpt lat="43.7139214" lon="13.0293609"><ele>222.0</ele><time>2026-04-11T08:13:40.545Z</time></trkpt><trkpt lat="43.713827" lon="13.0292456"><ele>222.0</ele><time>2026-04-11T08:13:41.545Z</time></trkpt><trkpt lat="43.7137317" lon="13.0291309"><ele>221.25</ele><time>2026-04-11T08:13:42.546Z</time></trkpt><trkpt lat="43.7136424" lon="13.0290256"><ele>220.5</ele><time>2026-04-11T08:13:43.545Z</time></trkpt><trkpt lat="43.7135637" lon="13.0289117"><ele>219.75</ele><time>2026-04-11T08:13:44.545Z</time></trkpt><trkpt lat="43.7134903" lon="13.0287863"><ele>219.0</ele><time>2026-04-11T08:13:45.545Z</time></trkpt><trkpt lat="43.7134197" lon="13.0286428"><ele>218.75</ele><time>2026-04-11T08:13:46.544Z</time></trkpt><trkpt lat="43.7133498" lon="13.0284842"><ele>218.5</ele><time>2026-04-11T08:13:47.545Z</time></trkpt><trkpt lat="43.7132724" lon="13.0283116"><ele>218.25</ele><time>2026-04-11T08:13:48.545Z</time></trkpt><trkpt lat="43.713185" lon="13.0281257"><ele>218.0</ele><time>2026-04-11T08:13:49.544Z</time></trkpt><trkpt lat="43.7130914" lon="13.0279302"><ele>217.66666666666669</ele><time>2026-04-11T08:13:50.544Z</time></trkpt><trkpt lat="43.7129878" lon="13.0277319"><ele>217.33333333333331</ele><time>2026-04-11T08:13:51.544Z</time></trkpt><trkpt lat="43.7128794" lon="13.0275394"><ele>217.0</ele><time>2026-04-11T08:13:52.546Z</time></trkpt><trkpt lat="43.7127618" lon="13.0273444"><ele>215.33333333333331</ele><time>2026-04-11T08:13:53.544Z</time></trkpt><trkpt lat="43.7126431" lon="13.0271496"><ele>213.66666666666669</ele><time>2026-04-11T08:13:54.545Z</time></trkpt><trkpt lat="43.7125269" lon="13.0269621"><ele>212.0</ele><time>2026-04-11T08:13:55.544Z</time></trkpt><trkpt lat="43.7124151" lon="13.0267758"><ele>210.66666666666669</ele><time>2026-04-11T08:13:56.545Z</time></trkpt><trkpt lat="43.7123023" lon="13.0265756"><ele>209.33333333333331</ele><time>2026-04-11T08:13:57.546Z</time></trkpt><trkpt lat="43.7121903" lon="13.0263818"><ele>208.0</ele><time>2026-04-11T08:13:58.545Z</time></trkpt><trkpt lat="43.7120747" lon="13.0261777"><ele>208.0</ele><time>2026-04-11T08:13:59.545Z</time></trkpt><trkpt lat="43.7119587" lon="13.025972"><ele>208.0</ele><time>2026-04-11T08:14:00.545Z</time></trkpt><trkpt lat="43.711839" lon="13.0257747"><ele>208.0</ele><time>2026-04-11T08:14:01.545Z</time></trkpt><trkpt lat="43.7117165" lon="13.0255781"><ele>207.0</ele><time>2026-04-11T08:14:02.544Z</time></trkpt><trkpt lat="43.7115935" lon="13.0253949"><ele>206.0</ele><time>2026-04-11T08:14:03.544Z</time></trkpt><trkpt lat="43.7114702" lon="13.0252163"><ele>205.0</ele><time>2026-04-11T08:14:04.545Z</time></trkpt><trkpt lat="43.7113543" lon="13.0250432"><ele>203.66666666666666</ele><time>2026-04-11T08:14:05.545Z</time></trkpt><trkpt lat="43.7112387" lon="13.0248646"><ele>202.33333333333331</ele><time>2026-04-11T08:14:06.545Z</time></trkpt><trkpt lat="43.7111266" lon="13.0246975"><ele>201.0</ele><time>2026-04-11T08:14:07.545Z</time></trkpt><trkpt lat="43.7110159" lon="13.0245235"><ele>202.0</ele><time>2026-04-11T08:14:08.545Z</time></trkpt><trkpt lat="43.7109076" lon="13.024356"><ele>203.0</ele><time>2026-04-11T08:14:09.545Z</time></trkpt><trkpt lat="43.7107972" lon="13.0241785"><ele>204.0</ele><time>2026-04-11T08:14:10.545Z</time></trkpt><trkpt lat="43.7106896" lon="13.0240052"><ele>204.0</ele><time>2026-04-11T08:14:11.544Z</time></trkpt><trkpt lat="43.7105919" lon="13.0238215"><ele>204.0</ele><time>2026-04-11T08:14:12.545Z</time></trkpt><trkpt lat="43.7104966" lon="13.0236396"><ele>204.0</ele><time>2026-04-11T08:14:13.545Z</time></trkpt><trkpt lat="43.7104006" lon="13.0234444"><ele>202.0</ele><time>2026-04-11T08:14:14.544Z</time></trkpt><trkpt lat="43.7103048" lon="13.0232433"><ele>200.0</ele><time>2026-04-11T08:14:15.545Z</time></trkpt><trkpt lat="43.7102095" lon="13.0230395"><ele>198.0</ele><time>2026-04-11T08:14:16.545Z</time></trkpt><trkpt lat="43.7101183" lon="13.0228243"><ele>200.66666666666669</ele><time>2026-04-11T08:14:17.545Z</time></trkpt><trkpt lat="43.7100228" lon="13.0226086"><ele>203.33333333333334</ele><time>2026-04-11T08:14:18.545Z</time></trkpt><trkpt lat="43.7099187" lon="13.0223898"><ele>206.0</ele><time>2026-04-11T08:14:19.546Z</time></trkpt><trkpt lat="43.7098058" lon="13.0221657"><ele>206.0</ele><time>2026-04-11T08:14:20.545Z</time></trkpt><trkpt lat="43.7096859" lon="13.0219391"><ele>206.0</ele><time>2026-04-11T08:14:21.544Z</time></trkpt><trkpt lat="43.7095658" lon="13.0217042"><ele>206.0</ele><time>2026-04-11T08:14:22.546Z</time></trkpt><trkpt lat="43.7094421" lon="13.0214613"><ele>208.66666666666669</ele><time>2026-04-11T08:14:23.544Z</time></trkpt><trkpt lat="43.7093218" lon="13.0212189"><ele>211.33333333333331</ele><time>2026-04-11T08:14:24.544Z</time></trkpt><trkpt lat="43.7092008" lon="13.0209763"><ele>214.0</ele><time>2026-04-11T08:14:25.546Z</time></trkpt><trkpt lat="43.7090747" lon="13.0207346"><ele>215.0</ele><time>2026-04-11T08:14:26.544Z</time></trkpt><trkpt lat="43.7089501" lon="13.020492"><ele>216.0</ele><time>2026-04-11T08:14:27.544Z</time></trkpt><trkpt lat="43.7088251" lon="13.0202526"><ele>217.0</ele><time>2026-04-11T08:14:28.544Z</time></trkpt><trkpt lat="43.7087034" lon="13.0200166"><ele>217.33333333333331</ele><time>2026-04-11T08:14:29.545Z</time></trkpt><trkpt lat="43.7085796" lon="13.0197786"><ele>217.66666666666669</ele><time>2026-04-11T08:14:30.545Z</time></trkpt><trkpt lat="43.708461" lon="13.0195435"><ele>218.0</ele><time>2026-04-11T08:14:31.546Z</time></trkpt><trkpt lat="43.7083431" lon="13.0193066"><ele>222.66666666666669</ele><time>2026-04-11T08:14:32.545Z</time></trkpt><trkpt lat="43.7082292" lon="13.0190719"><ele>227.33333333333331</ele><time>2026-04-11T08:14:33.544Z</time></trkpt><trkpt lat="43.7081092" lon="13.0188336"><ele>232.0</ele><time>2026-04-11T08:14:34.544Z</time></trkpt><trkpt lat="43.7079876" lon="13.0186027"><ele>232.0</ele><time>2026-04-11T08:14:35.545Z</time></trkpt><trkpt lat="43.7078689" lon="13.0183832"><ele>232.0</ele><time>2026-04-11T08:14:36.546Z</time></trkpt><trkpt lat="43.7077549" lon="13.0181785"><ele>232.0</ele><time>2026-04-11T08:14:37.544Z</time></trkpt><trkpt lat="43.7076407" lon="13.0179834"><ele>234.66666666666666</ele><time>2026-04-11T08:14:38.544Z</time></trkpt><trkpt lat="43.7075272" lon="13.0177917"><ele>237.33333333333331</ele><time>2026-04-11T08:14:39.545Z</time></trkpt><trkpt lat="43.7074161" lon="13.0176163"><ele>240.0</ele><time>2026-04-11T08:14:40.546Z</time></trkpt><trkpt lat="43.7072987" lon="13.017452"><ele>240.75</ele><time>2026-04-11T08:14:41.544Z</time></trkpt><trkpt lat="43.7071847" lon="13.0173063"><ele>241.5</ele><time>2026-04-11T08:14:42.543Z</time></trkpt><trkpt lat="43.7070724" lon="13.0171682"><ele>242.25</ele><time>2026-04-11T08:14:43.544Z</time></trkpt><trkpt lat="43.7069611" lon="13.0170448"><ele>243.0</ele><time>2026-04-11T08:14:44.545Z</time></trkpt><trkpt lat="43.7068563" lon="13.0169222"><ele>243.5</ele><time>2026-04-11T08:14:45.545Z</time></trkpt><trkpt lat="43.7067478" lon="13.0168042"><ele>244.0</ele><time>2026-04-11T08:14:46.545Z</time></trkpt><trkpt lat="43.7066415" lon="13.0166774"><ele>244.5</ele><time>2026-04-11T08:14:47.544Z</time></trkpt><trkpt lat="43.7065311" lon="13.0165577"><ele>245.0</ele><time>2026-04-11T08:14:48.545Z</time></trkpt><trkpt lat="43.7064236" lon="13.0164383"><ele>246.25</ele><time>2026-04-11T08:14:49.543Z</time></trkpt><trkpt lat="43.7063148" lon="13.016317"><ele>247.5</ele><time>2026-04-11T08:14:50.545Z</time></trkpt><trkpt lat="43.7062118" lon="13.0161967"><ele>248.75</ele><time>2026-04-11T08:14:51.545Z</time></trkpt><trkpt lat="43.706109" lon="13.0160722"><ele>250.0</ele><time>2026-04-11T08:14:52.545Z</time></trkpt><trkpt lat="43.7060101" lon="13.01594"><ele>250.75</ele><time>2026-04-11T08:14:53.545Z</time></trkpt><trkpt lat="43.7059145" lon="13.0158075"><ele>251.5</ele><time>2026-04-11T08:14:54.544Z</time></trkpt><trkpt lat="43.7058272" lon="13.0156808"><ele>252.25</ele><time>2026-04-11T08:14:55.546Z</time></trkpt><trkpt lat="43.7057553" lon="13.0155461"><ele>253.0</ele><time>2026-04-11T08:14:56.543Z</time></trkpt><trkpt lat="43.7056939" lon="13.015411"><ele>252.99999999999997</ele><time>2026-04-11T08:14:57.544Z</time></trkpt><trkpt lat="43.7056452" lon="13.0152808"><ele>253.0</ele><time>2026-04-11T08:14:58.544Z</time></trkpt><trkpt lat="43.7056021" lon="13.0151631"><ele>253.0</ele><time>2026-04-11T08:14:59.544Z</time></trkpt><trkpt lat="43.7055636" lon="13.0150548"><ele>253.0</ele><time>2026-04-11T08:15:00.544Z</time></trkpt><trkpt lat="43.7055312" lon="13.0149535"><ele>252.99999999999997</ele><time>2026-04-11T08:15:01.544Z</time></trkpt><trkpt lat="43.7055033" lon="13.0148697"><ele>253.0</ele><time>2026-04-11T08:15:02.545Z</time></trkpt><trkpt lat="43.705475" lon="13.014791"><ele>252.83333333333331</ele><time>2026-04-11T08:15:03.546Z</time></trkpt><trkpt lat="43.7054323" lon="13.0146778"><ele>252.66666666666666</ele><time>2026-04-11T08:15:05.545Z</time></trkpt><trkpt lat="43.7053883" lon="13.0145542"><ele>252.5</ele><time>2026-04-11T08:15:08.545Z</time></trkpt><trkpt lat="43.7053591" lon="13.0144603"><ele>252.33333333333331</ele><time>2026-04-11T08:15:09.546Z</time></trkpt><trkpt lat="43.7053195" lon="13.014368"><ele>252.16666666666666</ele><time>2026-04-11T08:15:10.544Z</time></trkpt><trkpt lat="43.7052805" lon="13.0142526"><ele>252.0</ele><time>2026-04-11T08:15:11.545Z</time></trkpt><trkpt lat="43.7052425" lon="13.014125"><ele>249.39999999999998</ele><time>2026-04-11T08:15:12.546Z</time></trkpt><trkpt lat="43.705196" lon="13.0139908"><ele>246.79999999999998</ele><time>2026-04-11T08:15:13.544Z</time></trkpt><trkpt lat="43.7051426" lon="13.0138496"><ele>244.2</ele><time>2026-04-11T08:15:14.545Z</time></trkpt><trkpt lat="43.7050872" lon="13.0137168"><ele>241.6</ele><time>2026-04-11T08:15:15.545Z</time></trkpt><trkpt lat="43.7050359" lon="13.0135839"><ele>239.0</ele><time>2026-04-11T08:15:16.545Z</time></trkpt><trkpt lat="43.7049932" lon="13.0134507"><ele>238.0</ele><time>2026-04-11T08:15:17.545Z</time></trkpt><trkpt lat="43.7049594" lon="13.013308"><ele>236.99999999999997</ele><time>2026-04-11T08:15:18.545Z</time></trkpt><trkpt lat="43.7049222" lon="13.0131648"><ele>235.99999999999997</ele><time>2026-04-11T08:15:19.546Z</time></trkpt><trkpt lat="43.7048936" lon="13.0130115"><ele>235.0</ele><time>2026-04-11T08:15:20.545Z</time></trkpt><trkpt lat="43.7048687" lon="13.0128667"><ele>234.0</ele><time>2026-04-11T08:15:21.544Z</time></trkpt><trkpt lat="43.704844" lon="13.0127201"><ele>234.0</ele><time>2026-04-11T08:15:22.545Z</time></trkpt><trkpt lat="43.7048146" lon="13.0125682"><ele>234.0</ele><time>2026-04-11T08:15:23.546Z</time></trkpt><trkpt lat="43.7047761" lon="13.0124197"><ele>234.0</ele><time>2026-04-11T08:15:24.544Z</time></trkpt><trkpt lat="43.7047279" lon="13.0122725"><ele>234.0</ele><time>2026-04-11T08:15:25.545Z</time></trkpt><trkpt lat="43.7046638" lon="13.0121306"><ele>232.79999999999998</ele><time>2026-04-11T08:15:26.544Z</time></trkpt><trkpt lat="43.7046024" lon="13.0120042"><ele>231.59999999999997</ele><time>2026-04-11T08:15:27.544Z</time></trkpt><trkpt lat="43.7045297" lon="13.0118878"><ele>230.4</ele><time>2026-04-11T08:15:28.545Z</time></trkpt><trkpt lat="43.7044538" lon="13.0117756"><ele>229.2</ele><time>2026-04-11T08:15:29.544Z</time></trkpt><trkpt lat="43.7043778" lon="13.0116686"><ele>228.0</ele><time>2026-04-11T08:15:30.544Z</time></trkpt><trkpt lat="43.7043047" lon="13.0115671"><ele>228.0</ele><time>2026-04-11T08:15:31.545Z</time></trkpt><trkpt lat="43.7042336" lon="13.0114681"><ele>228.0</ele><time>2026-04-11T08:15:32.544Z</time></trkpt><trkpt lat="43.7041629" lon="13.0113743"><ele>228.0</ele><time>2026-04-11T08:15:33.546Z</time></trkpt><trkpt lat="43.7040894" lon="13.0112703"><ele>228.0</ele><time>2026-04-11T08:15:34.545Z</time></trkpt><trkpt lat="43.7040125" lon="13.011154"><ele>228.0</ele><time>2026-04-11T08:15:35.545Z</time></trkpt><trkpt lat="43.7039341" lon="13.0110259"><ele>228.0</ele><time>2026-04-11T08:15:36.544Z</time></trkpt><trkpt lat="43.7038551" lon="13.0108842"><ele>228.0</ele><time>2026-04-11T08:15:37.545Z</time></trkpt><trkpt lat="43.7037819" lon="13.0107425"><ele>228.0</ele><time>2026-04-11T08:15:38.545Z</time></trkpt><trkpt lat="43.7037074" lon="13.0106028"><ele>228.0</ele><time>2026-04-11T08:15:39.545Z</time></trkpt><trkpt lat="43.703636" lon="13.0104616"><ele>226.75</ele><time>2026-04-11T08:15:40.545Z</time></trkpt><trkpt lat="43.7035658" lon="13.0103254"><ele>225.5</ele><time>2026-04-11T08:15:41.545Z</time></trkpt><trkpt lat="43.7034994" lon="13.0101858"><ele>224.25</ele><time>2026-04-11T08:15:42.544Z</time></trkpt><trkpt lat="43.7034268" lon="13.010038"><ele>223.0</ele><time>2026-04-11T08:15:43.544Z</time></trkpt><trkpt lat="43.7033502" lon="13.0098935"><ele>222.0</ele><time>2026-04-11T08:15:44.544Z</time></trkpt><trkpt lat="43.7032726" lon="13.0097369"><ele>221.0</ele><time>2026-04-11T08:15:45.545Z</time></trkpt><trkpt lat="43.7031957" lon="13.0095735"><ele>220.0</ele><time>2026-04-11T08:15:46.546Z</time></trkpt><trkpt lat="43.7031227" lon="13.009411"><ele>219.0</ele><time>2026-04-11T08:15:47.545Z</time></trkpt><trkpt lat="43.7030482" lon="13.0092516"><ele>217.0</ele><time>2026-04-11T08:15:48.545Z</time></trkpt><trkpt lat="43.7029813" lon="13.0090973"><ele>215.0</ele><time>2026-04-11T08:15:49.546Z</time></trkpt><trkpt lat="43.702924" lon="13.008953"><ele>213.0</ele><time>2026-04-11T08:15:50.544Z</time></trkpt><trkpt lat="43.7028779" lon="13.0088112"><ele>211.0</ele><time>2026-04-11T08:15:51.544Z</time></trkpt><trkpt lat="43.7028376" lon="13.0086612"><ele>211.0</ele><time>2026-04-11T08:15:52.545Z</time></trkpt><trkpt lat="43.7028017" lon="13.0085142"><ele>211.0</ele><time>2026-04-11T08:15:53.544Z</time></trkpt><trkpt lat="43.7027721" lon="13.0083668"><ele>211.0</ele><time>2026-04-11T08:15:54.546Z</time></trkpt><trkpt lat="43.7027443" lon="13.0082242"><ele>211.0</ele><time>2026-04-11T08:15:55.546Z</time></trkpt><trkpt lat="43.7027303" lon="13.0080901"><ele>211.0</ele><time>2026-04-11T08:15:56.546Z</time></trkpt><trkpt lat="43.7027181" lon="13.0079621"><ele>209.8</ele><time>2026-04-11T08:15:57.545Z</time></trkpt><trkpt lat="43.7026982" lon="13.0078416"><ele>208.60000000000002</ele><time>2026-04-11T08:15:58.546Z</time></trkpt><trkpt lat="43.7026756" lon="13.0077206"><ele>207.4</ele><time>2026-04-11T08:15:59.544Z</time></trkpt><trkpt lat="43.7026502" lon="13.0076029"><ele>206.2</ele><time>2026-04-11T08:16:00.543Z</time></trkpt><trkpt lat="43.7026177" lon="13.0074753"><ele>205.0</ele><time>2026-04-11T08:16:01.546Z</time></trkpt><trkpt lat="43.7025638" lon="13.0073497"><ele>203.25</ele><time>2026-04-11T08:16:02.544Z</time></trkpt><trkpt lat="43.7024903" lon="13.0072228"><ele>201.5</ele><time>2026-04-11T08:16:03.545Z</time></trkpt><trkpt lat="43.7024058" lon="13.0070962"><ele>199.75</ele><time>2026-04-11T08:16:04.544Z</time></trkpt><trkpt lat="43.702307" lon="13.0069696"><ele>198.0</ele><time>2026-04-11T08:16:05.545Z</time></trkpt><trkpt lat="43.7022096" lon="13.0068453"><ele>198.0</ele><time>2026-04-11T08:16:06.544Z</time></trkpt><trkpt lat="43.7021184" lon="13.0067247"><ele>198.0</ele><time>2026-04-11T08:16:07.544Z</time></trkpt><trkpt lat="43.7020304" lon="13.0066111"><ele>198.0</ele><time>2026-04-11T08:16:08.545Z</time></trkpt><trkpt lat="43.7019392" lon="13.0065003"><ele>198.0</ele><time>2026-04-11T08:16:09.546Z</time></trkpt><trkpt lat="43.7018448" lon="13.0063862"><ele>196.25</ele><time>2026-04-11T08:16:10.545Z</time></trkpt><trkpt lat="43.7017503" lon="13.0062732"><ele>194.5</ele><time>2026-04-11T08:16:11.545Z</time></trkpt><trkpt lat="43.701652" lon="13.0061559"><ele>192.75</ele><time>2026-04-11T08:16:12.545Z</time></trkpt><trkpt lat="43.7015485" lon="13.0060348"><ele>191.0</ele><time>2026-04-11T08:16:13.545Z</time></trkpt><trkpt lat="43.7014439" lon="13.0059175"><ele>188.75</ele><time>2026-04-11T08:16:14.546Z</time></trkpt><trkpt lat="43.7013313" lon="13.005794"><ele>186.5</ele><time>2026-04-11T08:16:15.545Z</time></trkpt><trkpt lat="43.7012213" lon="13.0056738"><ele>184.25</ele><time>2026-04-11T08:16:16.545Z</time></trkpt><trkpt lat="43.7011193" lon="13.0055478"><ele>182.0</ele><time>2026-04-11T08:16:17.546Z</time></trkpt><trkpt lat="43.7010159" lon="13.0054182"><ele>182.0</ele><time>2026-04-11T08:16:18.546Z</time></trkpt><trkpt lat="43.7009228" lon="13.0052924"><ele>182.0</ele><time>2026-04-11T08:16:19.545Z</time></trkpt><trkpt lat="43.700825" lon="13.005168"><ele>182.0</ele><time>2026-04-11T08:16:20.544Z</time></trkpt><trkpt lat="43.7007194" lon="13.0050573"><ele>182.0</ele><time>2026-04-11T08:16:21.545Z</time></trkpt><trkpt lat="43.7006068" lon="13.0049552"><ele>181.0</ele><time>2026-04-11T08:16:22.544Z</time></trkpt><trkpt lat="43.7004867" lon="13.0048623"><ele>180.0</ele><time>2026-04-11T08:16:23.545Z</time></trkpt><trkpt lat="43.7003528" lon="13.004768"><ele>179.0</ele><time>2026-04-11T08:16:24.545Z</time></trkpt><trkpt lat="43.700214" lon="13.0046678"><ele>178.0</ele><time>2026-04-11T08:16:25.544Z</time></trkpt><trkpt lat="43.7000819" lon="13.0045619"><ele>178.0</ele><time>2026-04-11T08:16:26.545Z</time></trkpt><trkpt lat="43.6999657" lon="13.0044557"><ele>178.0</ele><time>2026-04-11T08:16:27.544Z</time></trkpt><trkpt lat="43.6998533" lon="13.0043448"><ele>178.0</ele><time>2026-04-11T08:16:28.544Z</time></trkpt><trkpt lat="43.699741" lon="13.0042313"><ele>178.0</ele><time>2026-04-11T08:16:29.545Z</time></trkpt><trkpt lat="43.6996263" lon="13.0041192"><ele>176.25</ele><time>2026-04-11T08:16:30.545Z</time></trkpt><trkpt lat="43.6995164" lon="13.0040032"><ele>174.5</ele><time>2026-04-11T08:16:31.545Z</time></trkpt><trkpt lat="43.6994025" lon="13.0038905"><ele>172.75</ele><time>2026-04-11T08:16:32.546Z</time></trkpt><trkpt lat="43.6992864" lon="13.0037755"><ele>171.0</ele><time>2026-04-11T08:16:33.545Z</time></trkpt><trkpt lat="43.6991708" lon="13.0036717"><ele>171.0</ele><time>2026-04-11T08:16:34.544Z</time></trkpt><trkpt lat="43.6990615" lon="13.0035705"><ele>171.0</ele><time>2026-04-11T08:16:35.544Z</time></trkpt><trkpt lat="43.6989555" lon="13.0034566"><ele>171.0</ele><time>2026-04-11T08:16:36.544Z</time></trkpt><trkpt lat="43.6988567" lon="13.003333"><ele>171.0</ele><time>2026-04-11T08:16:37.543Z</time></trkpt><trkpt lat="43.6987594" lon="13.0032128"><ele>169.5</ele><time>2026-04-11T08:16:38.545Z</time></trkpt><trkpt lat="43.6986487" lon="13.0030957"><ele>168.0</ele><time>2026-04-11T08:16:39.545Z</time></trkpt><trkpt lat="43.6985342" lon="13.0029787"><ele>166.5</ele><time>2026-04-11T08:16:40.545Z</time></trkpt><trkpt lat="43.698428" lon="13.0028699"><ele>165.0</ele><time>2026-04-11T08:16:41.545Z</time></trkpt><trkpt lat="43.6983309" lon="13.0027713"><ele>165.0</ele><time>2026-04-11T08:16:42.544Z</time></trkpt><trkpt lat="43.6982397" lon="13.0026874"><ele>165.0</ele><time>2026-04-11T08:16:43.544Z</time></trkpt><trkpt lat="43.6981497" lon="13.0026093"><ele>165.0</ele><time>2026-04-11T08:16:44.545Z</time></trkpt><trkpt lat="43.6980502" lon="13.0025542"><ele>165.0</ele><time>2026-04-11T08:16:45.543Z</time></trkpt><trkpt lat="43.6979404" lon="13.0025099"><ele>165.0</ele><time>2026-04-11T08:16:46.545Z</time></trkpt><trkpt lat="43.6978254" lon="13.0024804"><ele>164.0</ele><time>2026-04-11T08:16:47.545Z</time></trkpt><trkpt lat="43.6977084" lon="13.0024693"><ele>163.0</ele><time>2026-04-11T08:16:48.546Z</time></trkpt><trkpt lat="43.6975996" lon="13.0024714"><ele>162.0</ele><time>2026-04-11T08:16:49.545Z</time></trkpt><trkpt lat="43.6974948" lon="13.0024897"><ele>161.0</ele><time>2026-04-11T08:16:50.545Z</time></trkpt><trkpt lat="43.6973878" lon="13.0025305"><ele>160.0</ele><time>2026-04-11T08:16:51.545Z</time></trkpt><trkpt lat="43.6972823" lon="13.002588"><ele>160.0</ele><time>2026-04-11T08:16:52.545Z</time></trkpt><trkpt lat="43.6971754" lon="13.0026471"><ele>160.0</ele><time>2026-04-11T08:16:53.545Z</time></trkpt><trkpt lat="43.6970579" lon="13.0026952"><ele>160.0</ele><time>2026-04-11T08:16:54.545Z</time></trkpt><trkpt lat="43.6969314" lon="13.002732"><ele>160.0</ele><time>2026-04-11T08:16:55.546Z</time></trkpt><trkpt lat="43.6967969" lon="13.0027501"><ele>158.0</ele><time>2026-04-11T08:16:56.546Z</time></trkpt><trkpt lat="43.6966631" lon="13.0027505"><ele>156.0</ele><time>2026-04-11T08:16:57.545Z</time></trkpt><trkpt lat="43.6965292" lon="13.0027415"><ele>154.0</ele><time>2026-04-11T08:16:58.545Z</time></trkpt><trkpt lat="43.6964088" lon="13.0027246"><ele>152.0</ele><time>2026-04-11T08:16:59.546Z</time></trkpt><trkpt lat="43.6962936" lon="13.0026951"><ele>152.0</ele><time>2026-04-11T08:17:00.544Z</time></trkpt><trkpt lat="43.6961774" lon="13.0026472"><ele>152.0</ele><time>2026-04-11T08:17:01.545Z</time></trkpt><trkpt lat="43.6960645" lon="13.0025709"><ele>152.0</ele><time>2026-04-11T08:17:02.543Z</time></trkpt><trkpt lat="43.6959621" lon="13.0024873"><ele>152.0</ele><time>2026-04-11T08:17:03.545Z</time></trkpt><trkpt lat="43.6958693" lon="13.002399"><ele>149.2</ele><time>2026-04-11T08:17:04.544Z</time></trkpt><trkpt lat="43.6957814" lon="13.0023158"><ele>146.39999999999998</ele><time>2026-04-11T08:17:05.543Z</time></trkpt><trkpt lat="43.6957031" lon="13.0022454"><ele>143.60000000000002</ele><time>2026-04-11T08:17:06.545Z</time></trkpt><trkpt lat="43.6956293" lon="13.0021822"><ele>140.8</ele><time>2026-04-11T08:17:07.546Z</time></trkpt><trkpt lat="43.6955544" lon="13.0021353"><ele>138.0</ele><time>2026-04-11T08:17:08.545Z</time></trkpt><trkpt lat="43.6954702" lon="13.0021015"><ele>138.0</ele><time>2026-04-11T08:17:09.545Z</time></trkpt><trkpt lat="43.6953782" lon="13.0020802"><ele>138.0</ele><time>2026-04-11T08:17:10.544Z</time></trkpt><trkpt lat="43.6952759" lon="13.0020708"><ele>138.0</ele><time>2026-04-11T08:17:11.544Z</time></trkpt><trkpt lat="43.6951632" lon="13.0020641"><ele>138.0</ele><time>2026-04-11T08:17:12.543Z</time></trkpt><trkpt lat="43.6950487" lon="13.0020558"><ele>138.0</ele><time>2026-04-11T08:17:13.545Z</time></trkpt><trkpt lat="43.6949381" lon="13.0020455"><ele>135.8</ele><time>2026-04-11T08:17:14.544Z</time></trkpt><trkpt lat="43.6948355" lon="13.0020312"><ele>133.60000000000002</ele><time>2026-04-11T08:17:15.543Z</time></trkpt><trkpt lat="43.6947452" lon="13.0020125"><ele>131.39999999999998</ele><time>2026-04-11T08:17:16.546Z</time></trkpt><trkpt lat="43.6946626" lon="13.0019845"><ele>129.2</ele><time>2026-04-11T08:17:17.544Z</time></trkpt><trkpt lat="43.6945766" lon="13.0019352"><ele>127.0</ele><time>2026-04-11T08:17:18.545Z</time></trkpt><trkpt lat="43.6944901" lon="13.0018592"><ele>124.25</ele><time>2026-04-11T08:17:19.546Z</time></trkpt><trkpt lat="43.6944036" lon="13.0017706"><ele>121.5</ele><time>2026-04-11T08:17:20.545Z</time></trkpt><trkpt lat="43.6943145" lon="13.0016677"><ele>118.75</ele><time>2026-04-11T08:17:21.545Z</time></trkpt><trkpt lat="43.694218" lon="13.0015535"><ele>116.0</ele><time>2026-04-11T08:17:22.546Z</time></trkpt><trkpt lat="43.6941228" lon="13.0014428"><ele>115.0</ele><time>2026-04-11T08:17:23.544Z</time></trkpt><trkpt lat="43.6940295" lon="13.0013319"><ele>114.0</ele><time>2026-04-11T08:17:24.545Z</time></trkpt><trkpt lat="43.6939349" lon="13.0012202"><ele>113.0</ele><time>2026-04-11T08:17:25.545Z</time></trkpt><trkpt lat="43.6938395" lon="13.0010997"><ele>112.0</ele><time>2026-04-11T08:17:26.545Z</time></trkpt><trkpt lat="43.6937455" lon="13.0009701"><ele>112.0</ele><time>2026-04-11T08:17:27.546Z</time></trkpt><trkpt lat="43.6936608" lon="13.0008373"><ele>112.0</ele><time>2026-04-11T08:17:28.545Z</time></trkpt><trkpt lat="43.6935939" lon="13.0006975"><ele>112.0</ele><time>2026-04-11T08:17:29.545Z</time></trkpt><trkpt lat="43.6935297" lon="13.0005547"><ele>112.0</ele><time>2026-04-11T08:17:30.544Z</time></trkpt><trkpt lat="43.6934702" lon="13.0004113"><ele>110.6</ele><time>2026-04-11T08:17:31.545Z</time></trkpt><trkpt lat="43.6934166" lon="13.0002713"><ele>109.19999999999999</ele><time>2026-04-11T08:17:32.546Z</time></trkpt><trkpt lat="43.6933684" lon="13.0001392"><ele>107.8</ele><time>2026-04-11T08:17:33.545Z</time></trkpt><trkpt lat="43.6933306" lon="13.0000058"><ele>106.4</ele><time>2026-04-11T08:17:34.545Z</time></trkpt><trkpt lat="43.6932995" lon="12.9998699"><ele>105.0</ele><time>2026-04-11T08:17:35.545Z</time></trkpt><trkpt lat="43.6932796" lon="12.9997212"><ele>105.0</ele><time>2026-04-11T08:17:36.546Z</time></trkpt><trkpt lat="43.6932615" lon="12.9995491"><ele>105.0</ele><time>2026-04-11T08:17:37.545Z</time></trkpt><trkpt lat="43.6932387" lon="12.9993616"><ele>105.0</ele><time>2026-04-11T08:17:38.545Z</time></trkpt><trkpt lat="43.6932153" lon="12.9991669"><ele>105.0</ele><time>2026-04-11T08:17:39.545Z</time></trkpt><trkpt lat="43.6931955" lon="12.998974"><ele>105.75</ele><time>2026-04-11T08:17:40.545Z</time></trkpt><trkpt lat="43.6931732" lon="12.998776"><ele>106.5</ele><time>2026-04-11T08:17:41.544Z</time></trkpt><trkpt lat="43.6931534" lon="12.9985834"><ele>107.25</ele><time>2026-04-11T08:17:42.545Z</time></trkpt><trkpt lat="43.6931378" lon="12.9983849"><ele>108.0</ele><time>2026-04-11T08:17:43.544Z</time></trkpt><trkpt lat="43.6931186" lon="12.9981869"><ele>109.5</ele><time>2026-04-11T08:17:44.543Z</time></trkpt><trkpt lat="43.6931046" lon="12.9979882"><ele>111.0</ele><time>2026-04-11T08:17:45.545Z</time></trkpt><trkpt lat="43.6930976" lon="12.9977941"><ele>112.5</ele><time>2026-04-11T08:17:46.544Z</time></trkpt><trkpt lat="43.6930955" lon="12.9976004"><ele>114.0</ele><time>2026-04-11T08:17:47.545Z</time></trkpt><trkpt lat="43.6930941" lon="12.9974044"><ele>116.25</ele><time>2026-04-11T08:17:48.544Z</time></trkpt><trkpt lat="43.6930932" lon="12.9972099"><ele>118.5</ele><time>2026-04-11T08:17:49.545Z</time></trkpt><trkpt lat="43.6931007" lon="12.9970252"><ele>120.75</ele><time>2026-04-11T08:17:50.545Z</time></trkpt><trkpt lat="43.6931116" lon="12.9968405"><ele>123.0</ele><time>2026-04-11T08:17:51.544Z</time></trkpt><trkpt lat="43.6931265" lon="12.996671"><ele>124.5</ele><time>2026-04-11T08:17:52.545Z</time></trkpt><trkpt lat="43.6931403" lon="12.9965019"><ele>126.0</ele><time>2026-04-11T08:17:53.545Z</time></trkpt><trkpt lat="43.6931524" lon="12.9963273"><ele>127.5</ele><time>2026-04-11T08:17:54.546Z</time></trkpt><trkpt lat="43.6931667" lon="12.9961505"><ele>129.0</ele><time>2026-04-11T08:17:55.546Z</time></trkpt><trkpt lat="43.6931779" lon="12.9959742"><ele>130.75</ele><time>2026-04-11T08:17:56.545Z</time></trkpt><trkpt lat="43.6931957" lon="12.9957948"><ele>132.5</ele><time>2026-04-11T08:17:57.545Z</time></trkpt><trkpt lat="43.6932062" lon="12.9956202"><ele>134.25</ele><time>2026-04-11T08:17:58.545Z</time></trkpt><trkpt lat="43.6932147" lon="12.9954379"><ele>136.0</ele><time>2026-04-11T08:17:59.545Z</time></trkpt><trkpt lat="43.6932236" lon="12.9952629"><ele>136.0</ele><time>2026-04-11T08:18:00.545Z</time></trkpt><trkpt lat="43.693231" lon="12.9950862"><ele>136.0</ele><time>2026-04-11T08:18:01.545Z</time></trkpt><trkpt lat="43.693241" lon="12.9949067"><ele>136.0</ele><time>2026-04-11T08:18:02.545Z</time></trkpt><trkpt lat="43.6932476" lon="12.99473"><ele>136.0</ele><time>2026-04-11T08:18:03.545Z</time></trkpt><trkpt lat="43.6932474" lon="12.9945448"><ele>137.5</ele><time>2026-04-11T08:18:04.545Z</time></trkpt><trkpt lat="43.693239" lon="12.9943606"><ele>139.0</ele><time>2026-04-11T08:18:05.545Z</time></trkpt><trkpt lat="43.6932178" lon="12.9941667"><ele>140.5</ele><time>2026-04-11T08:18:06.544Z</time></trkpt><trkpt lat="43.6931956" lon="12.993973"><ele>142.0</ele><time>2026-04-11T08:18:07.546Z</time></trkpt><trkpt lat="43.6931688" lon="12.9937878"><ele>143.75</ele><time>2026-04-11T08:18:08.545Z</time></trkpt><trkpt lat="43.693146" lon="12.9936019"><ele>145.5</ele><time>2026-04-11T08:18:09.545Z</time></trkpt><trkpt lat="43.6931256" lon="12.9934155"><ele>147.25</ele><time>2026-04-11T08:18:10.546Z</time></trkpt><trkpt lat="43.693117" lon="12.9932408"><ele>149.0</ele><time>2026-04-11T08:18:11.545Z</time></trkpt><trkpt lat="43.6931194" lon="12.9930739"><ele>150.2</ele><time>2026-04-11T08:18:12.545Z</time></trkpt><trkpt lat="43.693133" lon="12.9929321"><ele>151.4</ele><time>2026-04-11T08:18:13.545Z</time></trkpt><trkpt lat="43.6931449" lon="12.9927857"><ele>152.6</ele><time>2026-04-11T08:18:14.544Z</time></trkpt><trkpt lat="43.6931522" lon="12.9926518"><ele>153.8</ele><time>2026-04-11T08:18:15.546Z</time></trkpt><trkpt lat="43.6931395" lon="12.9925216"><ele>155.0</ele><time>2026-04-11T08:18:16.545Z</time></trkpt><trkpt lat="43.6931097" lon="12.9924022"><ele>155.6</ele><time>2026-04-11T08:18:17.545Z</time></trkpt><trkpt lat="43.6930568" lon="12.9922879"><ele>156.2</ele><time>2026-04-11T08:18:18.545Z</time></trkpt><trkpt lat="43.6929896" lon="12.9921758"><ele>156.8</ele><time>2026-04-11T08:18:19.546Z</time></trkpt><trkpt lat="43.6929112" lon="12.9920648"><ele>157.4</ele><time>2026-04-11T08:18:20.546Z</time></trkpt><trkpt lat="43.6928225" lon="12.9919517"><ele>158.0</ele><time>2026-04-11T08:18:21.546Z</time></trkpt><trkpt lat="43.6927464" lon="12.9918155"><ele>158.0</ele><time>2026-04-11T08:18:22.546Z</time></trkpt><trkpt lat="43.692676" lon="12.9916768"><ele>158.0</ele><time>2026-04-11T08:18:23.545Z</time></trkpt><trkpt lat="43.6926037" lon="12.9915389"><ele>158.0</ele><time>2026-04-11T08:18:24.545Z</time></trkpt><trkpt lat="43.6925296" lon="12.9913773"><ele>158.0</ele><time>2026-04-11T08:18:25.546Z</time></trkpt><trkpt lat="43.6924635" lon="12.9912194"><ele>161.0</ele><time>2026-04-11T08:18:26.545Z</time></trkpt><trkpt lat="43.6924118" lon="12.9910594"><ele>164.0</ele><time>2026-04-11T08:18:27.544Z</time></trkpt><trkpt lat="43.6923751" lon="12.9909"><ele>167.0</ele><time>2026-04-11T08:18:28.546Z</time></trkpt><trkpt lat="43.6923516" lon="12.9907408"><ele>170.0</ele><time>2026-04-11T08:18:29.545Z</time></trkpt><trkpt lat="43.6923302" lon="12.9905804"><ele>172.25</ele><time>2026-04-11T08:18:30.546Z</time></trkpt><trkpt lat="43.6923071" lon="12.9904224"><ele>174.5</ele><time>2026-04-11T08:18:31.544Z</time></trkpt><trkpt lat="43.6922798" lon="12.9902615"><ele>176.75</ele><time>2026-04-11T08:18:32.545Z</time></trkpt><trkpt lat="43.6922416" lon="12.9901011"><ele>179.0</ele><time>2026-04-11T08:18:33.544Z</time></trkpt><trkpt lat="43.6921941" lon="12.9899426"><ele>180.75</ele><time>2026-04-11T08:18:34.544Z</time></trkpt><trkpt lat="43.6921438" lon="12.9897907"><ele>182.5</ele><time>2026-04-11T08:18:35.544Z</time></trkpt><trkpt lat="43.692088" lon="12.9896306"><ele>184.25</ele><time>2026-04-11T08:18:36.546Z</time></trkpt><trkpt lat="43.6920254" lon="12.9894716"><ele>186.0</ele><time>2026-04-11T08:18:37.545Z</time></trkpt><trkpt lat="43.6919685" lon="12.9893016"><ele>188.75</ele><time>2026-04-11T08:18:38.545Z</time></trkpt><trkpt lat="43.6919153" lon="12.9891511"><ele>191.5</ele><time>2026-04-11T08:18:39.545Z</time></trkpt><trkpt lat="43.6918633" lon="12.9890024"><ele>194.25</ele><time>2026-04-11T08:18:40.545Z</time></trkpt><trkpt lat="43.6918198" lon="12.9888578"><ele>197.0</ele><time>2026-04-11T08:18:41.545Z</time></trkpt><trkpt lat="43.6917799" lon="12.988714"><ele>197.0</ele><time>2026-04-11T08:18:42.544Z</time></trkpt><trkpt lat="43.6917433" lon="12.9885828"><ele>197.0</ele><time>2026-04-11T08:18:43.545Z</time></trkpt><trkpt lat="43.6917049" lon="12.9884551"><ele>197.0</ele><time>2026-04-11T08:18:44.544Z</time></trkpt><trkpt lat="43.6916674" lon="12.9883227"><ele>197.0</ele><time>2026-04-11T08:18:45.546Z</time></trkpt><trkpt lat="43.6916333" lon="12.9881794"><ele>197.0</ele><time>2026-04-11T08:18:46.545Z</time></trkpt><trkpt lat="43.6916005" lon="12.9880413"><ele>198.6</ele><time>2026-04-11T08:18:47.543Z</time></trkpt><trkpt lat="43.6915613" lon="12.9879038"><ele>200.2</ele><time>2026-04-11T08:18:48.545Z</time></trkpt><trkpt lat="43.6915202" lon="12.9877639"><ele>201.8</ele><time>2026-04-11T08:18:49.546Z</time></trkpt><trkpt lat="43.6914788" lon="12.9876209"><ele>203.4</ele><time>2026-04-11T08:18:50.545Z</time></trkpt><trkpt lat="43.6914291" lon="12.987474"><ele>205.0</ele><time>2026-04-11T08:18:51.544Z</time></trkpt><trkpt lat="43.6913784" lon="12.9873219"><ele>206.4</ele><time>2026-04-11T08:18:52.545Z</time></trkpt><trkpt lat="43.6913362" lon="12.9871713"><ele>207.8</ele><time>2026-04-11T08:18:53.545Z</time></trkpt><trkpt lat="43.691294" lon="12.9870308"><ele>209.2</ele><time>2026-04-11T08:18:54.545Z</time></trkpt><trkpt lat="43.6912562" lon="12.9868998"><ele>210.6</ele><time>2026-04-11T08:18:55.545Z</time></trkpt><trkpt lat="43.691219" lon="12.9867634"><ele>212.0</ele><time>2026-04-11T08:18:56.545Z</time></trkpt><trkpt lat="43.6911794" lon="12.9866186"><ele>212.50000000000003</ele><time>2026-04-11T08:18:57.544Z</time></trkpt><trkpt lat="43.6911466" lon="12.9864821"><ele>213.0</ele><time>2026-04-11T08:18:58.546Z</time></trkpt><trkpt lat="43.6911172" lon="12.9863576"><ele>213.5</ele><time>2026-04-11T08:18:59.545Z</time></trkpt><trkpt lat="43.6910924" lon="12.9862359"><ele>214.0</ele><time>2026-04-11T08:19:00.545Z</time></trkpt><trkpt lat="43.6910716" lon="12.9861275"><ele>214.50000000000003</ele><time>2026-04-11T08:19:01.545Z</time></trkpt><trkpt lat="43.6910559" lon="12.986026"><ele>215.0</ele><time>2026-04-11T08:19:02.543Z</time></trkpt><trkpt lat="43.6910387" lon="12.9859331"><ele>216.0</ele><time>2026-04-11T08:19:03.544Z</time></trkpt><trkpt lat="43.6909903" lon="12.9857958"><ele>217.0</ele><time>2026-04-11T08:19:05.545Z</time></trkpt><trkpt lat="43.6909205" lon="12.9857627"><ele>218.0</ele><time>2026-04-11T08:19:08.545Z</time></trkpt><trkpt lat="43.6908315" lon="12.9858628"><ele>219.0</ele><time>2026-04-11T08:19:10.545Z</time></trkpt><trkpt lat="43.690756" lon="12.986014"><ele>220.0</ele><time>2026-04-11T08:19:12.545Z</time></trkpt><trkpt lat="43.6907111" lon="12.9861107"><ele>220.0</ele><time>2026-04-11T08:19:13.544Z</time></trkpt><trkpt lat="43.6906602" lon="12.9862098"><ele>220.0</ele><time>2026-04-11T08:19:14.545Z</time></trkpt><trkpt lat="43.6906057" lon="12.9863136"><ele>220.0</ele><time>2026-04-11T08:19:15.544Z</time></trkpt><trkpt lat="43.6905382" lon="12.9864266"><ele>220.0</ele><time>2026-04-11T08:19:16.545Z</time></trkpt><trkpt lat="43.69046" lon="12.9865406"><ele>220.0</ele><time>2026-04-11T08:19:17.544Z</time></trkpt><trkpt lat="43.6903748" lon="12.9866481"><ele>218.25</ele><time>2026-04-11T08:19:18.545Z</time></trkpt><trkpt lat="43.6902787" lon="12.9867492"><ele>216.5</ele><time>2026-04-11T08:19:19.545Z</time></trkpt><trkpt lat="43.6901771" lon="12.9868258"><ele>214.75</ele><time>2026-04-11T08:19:20.546Z</time></trkpt><trkpt lat="43.6900703" lon="12.9868961"><ele>213.0</ele><time>2026-04-11T08:19:21.545Z</time></trkpt><trkpt lat="43.6899493" lon="12.9869719"><ele>212.8</ele><time>2026-04-11T08:19:22.546Z</time></trkpt><trkpt lat="43.6898369" lon="12.9870412"><ele>212.60000000000002</ele><time>2026-04-11T08:19:23.543Z</time></trkpt><trkpt lat="43.689738" lon="12.9871038"><ele>212.39999999999998</ele><time>2026-04-11T08:19:24.546Z</time></trkpt><trkpt lat="43.6896417" lon="12.9871632"><ele>212.2</ele><time>2026-04-11T08:19:25.546Z</time></trkpt><trkpt lat="43.6895585" lon="12.9872118"><ele>212.0</ele><time>2026-04-11T08:19:26.544Z</time></trkpt><trkpt lat="43.6894795" lon="12.9872502"><ele>212.50000000000003</ele><time>2026-04-11T08:19:27.545Z</time></trkpt><trkpt lat="43.6894028" lon="12.9872728"><ele>213.0</ele><time>2026-04-11T08:19:28.545Z</time></trkpt><trkpt lat="43.6893223" lon="12.9872705"><ele>213.5</ele><time>2026-04-11T08:19:29.545Z</time></trkpt><trkpt lat="43.6892446" lon="12.9872357"><ele>214.0</ele><time>2026-04-11T08:19:30.545Z</time></trkpt><trkpt lat="43.6891597" lon="12.9871872"><ele>214.50000000000003</ele><time>2026-04-11T08:19:31.544Z</time></trkpt><trkpt lat="43.689067" lon="12.9871415"><ele>215.0</ele><time>2026-04-11T08:19:32.545Z</time></trkpt><trkpt lat="43.6889678" lon="12.9871115"><ele>215.0</ele><time>2026-04-11T08:19:33.546Z</time></trkpt><trkpt lat="43.6888606" lon="12.9870924"><ele>215.0</ele><time>2026-04-11T08:19:34.545Z</time></trkpt><trkpt lat="43.6887484" lon="12.9870822"><ele>215.0</ele><time>2026-04-11T08:19:35.546Z</time></trkpt><trkpt lat="43.6886387" lon="12.9870735"><ele>215.0</ele><time>2026-04-11T08:19:36.545Z</time></trkpt><trkpt lat="43.6885271" lon="12.9870754"><ele>215.0</ele><time>2026-04-11T08:19:37.546Z</time></trkpt><trkpt lat="43.6884153" lon="12.9870759"><ele>215.25</ele><time>2026-04-11T08:19:38.545Z</time></trkpt><trkpt lat="43.688293" lon="12.9870769"><ele>215.5</ele><time>2026-04-11T08:19:39.544Z</time></trkpt><trkpt lat="43.6881674" lon="12.9870615"><ele>215.75</ele><time>2026-04-11T08:19:40.544Z</time></trkpt><trkpt lat="43.6880341" lon="12.9870458"><ele>216.0</ele><time>2026-04-11T08:19:41.544Z</time></trkpt><trkpt lat="43.6878929" lon="12.9870305"><ele>216.75</ele><time>2026-04-11T08:19:42.544Z</time></trkpt><trkpt lat="43.687755" lon="12.9870123"><ele>217.5</ele><time>2026-04-11T08:19:43.545Z</time></trkpt><trkpt lat="43.6876257" lon="12.9870075"><ele>218.25</ele><time>2026-04-11T08:19:44.544Z</time></trkpt><trkpt lat="43.6874984" lon="12.9870017"><ele>219.0</ele><time>2026-04-11T08:19:45.545Z</time></trkpt><trkpt lat="43.6873752" lon="12.9870061"><ele>219.0</ele><time>2026-04-11T08:19:46.545Z</time></trkpt><trkpt lat="43.6872534" lon="12.9870201"><ele>219.0</ele><time>2026-04-11T08:19:47.545Z</time></trkpt><trkpt lat="43.687133" lon="12.9870179"><ele>219.0</ele><time>2026-04-11T08:19:48.546Z</time></trkpt><trkpt lat="43.6870171" lon="12.9870221"><ele>219.0</ele><time>2026-04-11T08:19:49.546Z</time></trkpt><trkpt lat="43.6869045" lon="12.9870222"><ele>219.6</ele><time>2026-04-11T08:19:50.546Z</time></trkpt><trkpt lat="43.6867953" lon="12.9870258"><ele>220.2</ele><time>2026-04-11T08:19:51.546Z</time></trkpt><trkpt lat="43.6866868" lon="12.9870332"><ele>220.79999999999998</ele><time>2026-04-11T08:19:52.545Z</time></trkpt><trkpt lat="43.6865716" lon="12.9870351"><ele>221.39999999999998</ele><time>2026-04-11T08:19:53.544Z</time></trkpt><trkpt lat="43.6864577" lon="12.9870344"><ele>222.0</ele><time>2026-04-11T08:19:54.545Z</time></trkpt><trkpt lat="43.6863371" lon="12.9870287"><ele>222.0</ele><time>2026-04-11T08:19:55.545Z</time></trkpt><trkpt lat="43.6862117" lon="12.9870166"><ele>222.0</ele><time>2026-04-11T08:19:56.544Z</time></trkpt><trkpt lat="43.6860845" lon="12.9869998"><ele>222.0</ele><time>2026-04-11T08:19:57.546Z</time></trkpt><trkpt lat="43.6859558" lon="12.9869854"><ele>222.0</ele><time>2026-04-11T08:19:58.545Z</time></trkpt><trkpt lat="43.6858269" lon="12.986979"><ele>221.5</ele><time>2026-04-11T08:19:59.545Z</time></trkpt><trkpt lat="43.6856947" lon="12.9869641"><ele>221.0</ele><time>2026-04-11T08:20:00.544Z</time></trkpt><trkpt lat="43.6855656" lon="12.9869625"><ele>220.5</ele><time>2026-04-11T08:20:01.544Z</time></trkpt><trkpt lat="43.6854357" lon="12.9869532"><ele>220.0</ele><time>2026-04-11T08:20:02.545Z</time></trkpt><trkpt lat="43.6853049" lon="12.9869544"><ele>220.5</ele><time>2026-04-11T08:20:03.545Z</time></trkpt><trkpt lat="43.6851724" lon="12.9869719"><ele>221.0</ele><time>2026-04-11T08:20:04.543Z</time></trkpt><trkpt lat="43.6850423" lon="12.9869966"><ele>221.5</ele><time>2026-04-11T08:20:05.546Z</time></trkpt><trkpt lat="43.6849229" lon="12.9870245"><ele>222.0</ele><time>2026-04-11T08:20:06.545Z</time></trkpt><trkpt lat="43.684812" lon="12.9870586"><ele>222.0</ele><time>2026-04-11T08:20:07.545Z</time></trkpt><trkpt lat="43.6847114" lon="12.9871009"><ele>222.0</ele><time>2026-04-11T08:20:08.545Z</time></trkpt><trkpt lat="43.6846235" lon="12.9871565"><ele>222.0</ele><time>2026-04-11T08:20:09.545Z</time></trkpt><trkpt lat="43.6845389" lon="12.987237"><ele>222.0</ele><time>2026-04-11T08:20:10.545Z</time></trkpt><trkpt lat="43.6844545" lon="12.9873374"><ele>222.0</ele><time>2026-04-11T08:20:11.543Z</time></trkpt><trkpt lat="43.6843723" lon="12.9874428"><ele>222.5</ele><time>2026-04-11T08:20:12.546Z</time></trkpt><trkpt lat="43.6842917" lon="12.987538"><ele>223.0</ele><time>2026-04-11T08:20:13.544Z</time></trkpt><trkpt lat="43.6842138" lon="12.9876305"><ele>223.5</ele><time>2026-04-11T08:20:14.546Z</time></trkpt><trkpt lat="43.6841472" lon="12.9877173"><ele>224.0</ele><time>2026-04-11T08:20:15.545Z</time></trkpt><trkpt lat="43.684088" lon="12.9877927"><ele>224.5</ele><time>2026-04-11T08:20:16.546Z</time></trkpt><trkpt lat="43.6840446" lon="12.9878566"><ele>225.0</ele><time>2026-04-11T08:20:17.544Z</time></trkpt><trkpt lat="43.6839688" lon="12.9879603"><ele>225.0</ele><time>2026-04-11T08:20:19.545Z</time></trkpt><trkpt lat="43.6839041" lon="12.9880541"><ele>225.0</ele><time>2026-04-11T08:20:21.545Z</time></trkpt><trkpt lat="43.6838456" lon="12.988126"><ele>225.0</ele><time>2026-04-11T08:20:23.546Z</time></trkpt><trkpt lat="43.6837956" lon="12.9881982"><ele>225.0</ele><time>2026-04-11T08:20:25.543Z</time></trkpt><trkpt lat="43.6837405" lon="12.9882904"><ele>225.0</ele><time>2026-04-11T08:20:27.546Z</time></trkpt><trkpt lat="43.683688" lon="12.9883699"><ele>225.0</ele><time>2026-04-11T08:20:29.544Z</time></trkpt><trkpt lat="43.6836248" lon="12.9884729"><ele>223.0</ele><time>2026-04-11T08:20:31.545Z</time></trkpt><trkpt lat="43.6835579" lon="12.9885837"><ele>221.0</ele><time>2026-04-11T08:20:33.545Z</time></trkpt><trkpt lat="43.6834827" lon="12.9887024"><ele>219.0</ele><time>2026-04-11T08:20:35.546Z</time></trkpt><trkpt lat="43.6834358" lon="12.9887664"><ele>217.0</ele><time>2026-04-11T08:20:36.545Z</time></trkpt><trkpt lat="43.683393" lon="12.9888327"><ele>215.0</ele><time>2026-04-11T08:20:37.545Z</time></trkpt><trkpt lat="43.6833496" lon="12.9888971"><ele>213.0</ele><time>2026-04-11T08:20:38.544Z</time></trkpt><trkpt lat="43.6833073" lon="12.9889621"><ele>213.0</ele><time>2026-04-11T08:20:39.545Z</time></trkpt><trkpt lat="43.6832618" lon="12.9890291"><ele>213.0</ele><time>2026-04-11T08:20:40.545Z</time></trkpt><trkpt lat="43.6831685" lon="12.9891618"><ele>213.0</ele><time>2026-04-11T08:20:42.545Z</time></trkpt><trkpt lat="43.6831164" lon="12.98924"><ele>213.0</ele><time>2026-04-11T08:20:43.544Z</time></trkpt><trkpt lat="43.6830668" lon="12.9893117"><ele>213.0</ele><time>2026-04-11T08:20:44.546Z</time></trkpt><trkpt lat="43.6830182" lon="12.9893917"><ele>213.0</ele><time>2026-04-11T08:20:45.546Z</time></trkpt><trkpt lat="43.6829729" lon="12.9894608"><ele>212.0</ele><time>2026-04-11T08:20:46.545Z</time></trkpt><trkpt lat="43.6828984" lon="12.9895956"><ele>211.0</ele><time>2026-04-11T08:20:48.544Z</time></trkpt><trkpt lat="43.6828312" lon="12.9897098"><ele>210.0</ele><time>2026-04-11T08:20:50.545Z</time></trkpt><trkpt lat="43.6827556" lon="12.9897815"><ele>209.0</ele><time>2026-04-11T08:20:52.545Z</time></trkpt><trkpt lat="43.6826965" lon="12.9898571"><ele>208.0</ele><time>2026-04-11T08:20:54.545Z</time></trkpt><trkpt lat="43.6826553" lon="12.9899284"><ele>207.2</ele><time>2026-04-11T08:20:55.545Z</time></trkpt><trkpt lat="43.682613" lon="12.9900079"><ele>206.4</ele><time>2026-04-11T08:20:56.545Z</time></trkpt><trkpt lat="43.6825497" lon="12.9901122"><ele>205.6</ele><time>2026-04-11T08:20:57.546Z</time></trkpt><trkpt lat="43.6824861" lon="12.9902268"><ele>204.79999999999998</ele><time>2026-04-11T08:20:58.545Z</time></trkpt><trkpt lat="43.6824206" lon="12.9903511"><ele>204.0</ele><time>2026-04-11T08:20:59.546Z</time></trkpt><trkpt lat="43.6823527" lon="12.9904741"><ele>203.2</ele><time>2026-04-11T08:21:00.544Z</time></trkpt><trkpt lat="43.682284" lon="12.990601"><ele>202.39999999999998</ele><time>2026-04-11T08:21:01.545Z</time></trkpt><trkpt lat="43.6822113" lon="12.990723"><ele>201.6</ele><time>2026-04-11T08:21:02.546Z</time></trkpt><trkpt lat="43.6821425" lon="12.990828"><ele>200.8</ele><time>2026-04-11T08:21:03.546Z</time></trkpt><trkpt lat="43.6820804" lon="12.9909262"><ele>200.0</ele><time>2026-04-11T08:21:04.546Z</time></trkpt><trkpt lat="43.6820238" lon="12.9910171"><ele>199.66666666666669</ele><time>2026-04-11T08:21:05.544Z</time></trkpt><trkpt lat="43.681982" lon="12.9910927"><ele>199.33333333333334</ele><time>2026-04-11T08:21:06.544Z</time></trkpt><trkpt lat="43.6819225" lon="12.9912068"><ele>199.0</ele><time>2026-04-11T08:21:08.544Z</time></trkpt><trkpt lat="43.6818769" lon="12.9912788"><ele>198.66666666666669</ele><time>2026-04-11T08:21:11.544Z</time></trkpt><trkpt lat="43.6817981" lon="12.991354"><ele>198.33333333333334</ele><time>2026-04-11T08:23:21.545Z</time></trkpt><trkpt lat="43.6817358" lon="12.9913986"><ele>198.0</ele><time>2026-04-11T08:23:22.544Z</time></trkpt><trkpt lat="43.681672" lon="12.9914446"><ele>198.0</ele><time>2026-04-11T08:23:23.545Z</time></trkpt><trkpt lat="43.6815989" lon="12.9914885"><ele>198.0</ele><time>2026-04-11T08:23:24.545Z</time></trkpt><trkpt lat="43.6815182" lon="12.9915381"><ele>198.0</ele><time>2026-04-11T08:23:25.544Z</time></trkpt><trkpt lat="43.6814274" lon="12.9915938"><ele>198.0</ele><time>2026-04-11T08:23:26.545Z</time></trkpt><trkpt lat="43.6813288" lon="12.9916625"><ele>198.0</ele><time>2026-04-11T08:23:27.546Z</time></trkpt><trkpt lat="43.6812187" lon="12.991736"><ele>197.5</ele><time>2026-04-11T08:23:28.546Z</time></trkpt><trkpt lat="43.6811051" lon="12.9918143"><ele>197.0</ele><time>2026-04-11T08:23:29.546Z</time></trkpt><trkpt lat="43.6809942" lon="12.9918954"><ele>196.5</ele><time>2026-04-11T08:23:30.545Z</time></trkpt><trkpt lat="43.6808876" lon="12.9919915"><ele>196.0</ele><time>2026-04-11T08:23:31.546Z</time></trkpt><trkpt lat="43.6807856" lon="12.992116"><ele>197.0</ele><time>2026-04-11T08:23:32.544Z</time></trkpt><trkpt lat="43.6806925" lon="12.992259"><ele>198.0</ele><time>2026-04-11T08:23:33.544Z</time></trkpt><trkpt lat="43.6806099" lon="12.9924221"><ele>199.0</ele><time>2026-04-11T08:23:34.544Z</time></trkpt><trkpt lat="43.680532" lon="12.9925846"><ele>200.0</ele><time>2026-04-11T08:23:35.545Z</time></trkpt><trkpt lat="43.6804609" lon="12.992744"><ele>200.0</ele><time>2026-04-11T08:23:36.545Z</time></trkpt><trkpt lat="43.6803842" lon="12.9929034"><ele>200.0</ele><time>2026-04-11T08:23:37.545Z</time></trkpt><trkpt lat="43.6803132" lon="12.9930519"><ele>200.0</ele><time>2026-04-11T08:23:38.545Z</time></trkpt><trkpt lat="43.6802353" lon="12.9932026"><ele>200.0</ele><time>2026-04-11T08:23:39.545Z</time></trkpt><trkpt lat="43.6801689" lon="12.993357"><ele>202.4</ele><time>2026-04-11T08:23:40.545Z</time></trkpt><trkpt lat="43.6801085" lon="12.9934871"><ele>204.8</ele><time>2026-04-11T08:23:41.546Z</time></trkpt><trkpt lat="43.6800411" lon="12.993609"><ele>207.2</ele><time>2026-04-11T08:23:42.545Z</time></trkpt><trkpt lat="43.6799799" lon="12.9937135"><ele>209.6</ele><time>2026-04-11T08:23:43.545Z</time></trkpt><trkpt lat="43.6799077" lon="12.9937836"><ele>212.0</ele><time>2026-04-11T08:23:44.545Z</time></trkpt><trkpt lat="43.6798269" lon="12.9938214"><ele>212.00000000000003</ele><time>2026-04-11T08:23:45.546Z</time></trkpt><trkpt lat="43.6797502" lon="12.9938257"><ele>212.0</ele><time>2026-04-11T08:23:46.544Z</time></trkpt><trkpt lat="43.6796802" lon="12.9937843"><ele>212.0</ele><time>2026-04-11T08:23:47.546Z</time></trkpt><trkpt lat="43.6796186" lon="12.9937138"><ele>212.0</ele><time>2026-04-11T08:23:48.545Z</time></trkpt><trkpt lat="43.6795661" lon="12.9936183"><ele>212.00000000000003</ele><time>2026-04-11T08:23:49.546Z</time></trkpt><trkpt lat="43.6795188" lon="12.9934981"><ele>212.0</ele><time>2026-04-11T08:23:50.545Z</time></trkpt><trkpt lat="43.6794688" lon="12.9933678"><ele>213.0</ele><time>2026-04-11T08:23:51.545Z</time></trkpt><trkpt lat="43.679413" lon="12.9932394"><ele>214.0</ele><time>2026-04-11T08:23:52.546Z</time></trkpt><trkpt lat="43.6793539" lon="12.9931166"><ele>215.0</ele><time>2026-04-11T08:23:53.545Z</time></trkpt><trkpt lat="43.6792958" lon="12.9929956"><ele>216.0</ele><time>2026-04-11T08:23:54.545Z</time></trkpt><trkpt lat="43.6792365" lon="12.9928723"><ele>217.0</ele><time>2026-04-11T08:23:55.545Z</time></trkpt><trkpt lat="43.6791773" lon="12.9927636"><ele>217.0</ele><time>2026-04-11T08:23:56.546Z</time></trkpt><trkpt lat="43.6791127" lon="12.9926649"><ele>217.0</ele><time>2026-04-11T08:23:57.545Z</time></trkpt><trkpt lat="43.6790406" lon="12.9925773"><ele>217.0</ele><time>2026-04-11T08:23:58.545Z</time></trkpt><trkpt lat="43.6789633" lon="12.9925004"><ele>217.0</ele><time>2026-04-11T08:23:59.545Z</time></trkpt><trkpt lat="43.6788808" lon="12.9924298"><ele>217.0</ele><time>2026-04-11T08:24:00.545Z</time></trkpt><trkpt lat="43.6787943" lon="12.9923757"><ele>217.0</ele><time>2026-04-11T08:24:01.544Z</time></trkpt><trkpt lat="43.678698" lon="12.9923512"><ele>217.0</ele><time>2026-04-11T08:24:02.545Z</time></trkpt><trkpt lat="43.6785954" lon="12.9923305"><ele>217.0</ele><time>2026-04-11T08:24:03.545Z</time></trkpt><trkpt lat="43.6784819" lon="12.992313"><ele>217.0</ele><time>2026-04-11T08:24:04.546Z</time></trkpt><trkpt lat="43.678356" lon="12.9922969"><ele>217.0</ele><time>2026-04-11T08:24:05.544Z</time></trkpt><trkpt lat="43.6782249" lon="12.9922753"><ele>217.0</ele><time>2026-04-11T08:24:06.546Z</time></trkpt><trkpt lat="43.678092" lon="12.9922606"><ele>217.0</ele><time>2026-04-11T08:24:07.546Z</time></trkpt><trkpt lat="43.6779572" lon="12.992245"><ele>217.0</ele><time>2026-04-11T08:24:08.546Z</time></trkpt><trkpt lat="43.677832" lon="12.9922279"><ele>217.0</ele><time>2026-04-11T08:24:09.545Z</time></trkpt><trkpt lat="43.6777266" lon="12.9922175"><ele>216.99999999999997</ele><time>2026-04-11T08:24:10.545Z</time></trkpt><trkpt lat="43.6776366" lon="12.9922"><ele>217.0</ele><time>2026-04-11T08:24:11.546Z</time></trkpt><trkpt lat="43.6775679" lon="12.9921675"><ele>217.0</ele><time>2026-04-11T08:24:12.545Z</time></trkpt><trkpt lat="43.6775126" lon="12.9921202"><ele>217.0</ele><time>2026-04-11T08:24:13.545Z</time></trkpt><trkpt lat="43.6774636" lon="12.9920377"><ele>216.99999999999997</ele><time>2026-04-11T08:24:14.544Z</time></trkpt><trkpt lat="43.6774201" lon="12.9919394"><ele>217.0</ele><time>2026-04-11T08:24:15.544Z</time></trkpt><trkpt lat="43.6773799" lon="12.9918399"><ele>216.99999999999997</ele><time>2026-04-11T08:24:16.545Z</time></trkpt><trkpt lat="43.6773342" lon="12.9917329"><ele>217.0</ele><time>2026-04-11T08:24:17.544Z</time></trkpt><trkpt lat="43.677286" lon="12.9916365"><ele>217.0</ele><time>2026-04-11T08:24:18.544Z</time></trkpt><trkpt lat="43.6772368" lon="12.9915562"><ele>217.0</ele><time>2026-04-11T08:24:19.545Z</time></trkpt><trkpt lat="43.6771774" lon="12.9914907"><ele>216.99999999999997</ele><time>2026-04-11T08:24:20.546Z</time></trkpt><trkpt lat="43.6771107" lon="12.9914399"><ele>217.0</ele><time>2026-04-11T08:24:21.545Z</time></trkpt><trkpt lat="43.6770415" lon="12.9914104"><ele>216.8</ele><time>2026-04-11T08:24:22.545Z</time></trkpt><trkpt lat="43.6769661" lon="12.991387"><ele>216.6</ele><time>2026-04-11T08:24:23.545Z</time></trkpt><trkpt lat="43.6768819" lon="12.9913686"><ele>216.40000000000003</ele><time>2026-04-11T08:24:24.546Z</time></trkpt><trkpt lat="43.6767867" lon="12.9913487"><ele>216.20000000000002</ele><time>2026-04-11T08:24:25.545Z</time></trkpt><trkpt lat="43.6766906" lon="12.991326"><ele>216.0</ele><time>2026-04-11T08:24:26.545Z</time></trkpt><trkpt lat="43.6765932" lon="12.9913028"><ele>216.0</ele><time>2026-04-11T08:24:27.546Z</time></trkpt><trkpt lat="43.6764991" lon="12.9912789"><ele>216.0</ele><time>2026-04-11T08:24:28.544Z</time></trkpt><trkpt lat="43.676406" lon="12.9912583"><ele>216.0</ele><time>2026-04-11T08:24:29.546Z</time></trkpt><trkpt lat="43.6763221" lon="12.9912419"><ele>216.0</ele><time>2026-04-11T08:24:30.545Z</time></trkpt><trkpt lat="43.6762436" lon="12.9912177"><ele>216.0</ele><time>2026-04-11T08:24:31.546Z</time></trkpt><trkpt lat="43.6761681" lon="12.991191"><ele>216.0</ele><time>2026-04-11T08:24:32.546Z</time></trkpt><trkpt lat="43.6760965" lon="12.9911544"><ele>214.66666666666666</ele><time>2026-04-11T08:24:33.545Z</time></trkpt><trkpt lat="43.6760422" lon="12.9910934"><ele>213.33333333333331</ele><time>2026-04-11T08:24:34.544Z</time></trkpt><trkpt lat="43.6759982" lon="12.9909958"><ele>212.0</ele><time>2026-04-11T08:24:35.546Z</time></trkpt><trkpt lat="43.6759601" lon="12.9908768"><ele>210.66666666666666</ele><time>2026-04-11T08:24:36.546Z</time></trkpt><trkpt lat="43.6759235" lon="12.9907585"><ele>209.33333333333331</ele><time>2026-04-11T08:24:37.544Z</time></trkpt><trkpt lat="43.6758899" lon="12.9906403"><ele>208.0</ele><time>2026-04-11T08:24:38.546Z</time></trkpt><trkpt lat="43.6758616" lon="12.9905228"><ele>206.99999999999997</ele><time>2026-04-11T08:24:39.546Z</time></trkpt><trkpt lat="43.6758367" lon="12.9904085"><ele>206.0</ele><time>2026-04-11T08:24:40.545Z</time></trkpt><trkpt lat="43.6758055" lon="12.9902916"><ele>205.0</ele><time>2026-04-11T08:24:41.545Z</time></trkpt><trkpt lat="43.6757752" lon="12.9901792"><ele>204.0</ele><time>2026-04-11T08:24:42.546Z</time></trkpt><trkpt lat="43.6757423" lon="12.9900623"><ele>202.99999999999997</ele><time>2026-04-11T08:24:43.546Z</time></trkpt><trkpt lat="43.6757087" lon="12.9899413"><ele>202.0</ele><time>2026-04-11T08:24:44.544Z</time></trkpt><trkpt lat="43.6756789" lon="12.9898227"><ele>200.2</ele><time>2026-04-11T08:24:45.545Z</time></trkpt><trkpt lat="43.6756474" lon="12.9897007"><ele>198.39999999999998</ele><time>2026-04-11T08:24:46.546Z</time></trkpt><trkpt lat="43.6756073" lon="12.989575"><ele>196.60000000000002</ele><time>2026-04-11T08:24:47.545Z</time></trkpt><trkpt lat="43.6755552" lon="12.9894426"><ele>194.8</ele><time>2026-04-11T08:24:48.546Z</time></trkpt><trkpt lat="43.6754912" lon="12.9893105"><ele>193.0</ele><time>2026-04-11T08:24:49.546Z</time></trkpt><trkpt lat="43.6754269" lon="12.9891831"><ele>190.75</ele><time>2026-04-11T08:24:50.545Z</time></trkpt><trkpt lat="43.6753616" lon="12.9890578"><ele>188.5</ele><time>2026-04-11T08:24:51.545Z</time></trkpt><trkpt lat="43.6752987" lon="12.9889258"><ele>186.25</ele><time>2026-04-11T08:24:52.544Z</time></trkpt><trkpt lat="43.6752468" lon="12.9887805"><ele>184.0</ele><time>2026-04-11T08:24:53.546Z</time></trkpt><trkpt lat="43.6752058" lon="12.9886222"><ele>184.0</ele><time>2026-04-11T08:24:54.545Z</time></trkpt><trkpt lat="43.6751739" lon="12.9884722"><ele>184.0</ele><time>2026-04-11T08:24:55.543Z</time></trkpt><trkpt lat="43.6751537" lon="12.9882991"><ele>184.0</ele><time>2026-04-11T08:24:56.546Z</time></trkpt><trkpt lat="43.6751432" lon="12.9881288"><ele>184.0</ele><time>2026-04-11T08:24:57.543Z</time></trkpt><trkpt lat="43.6751331" lon="12.9879479"><ele>182.25</ele><time>2026-04-11T08:24:58.546Z</time></trkpt><trkpt lat="43.6751278" lon="12.9877801"><ele>180.5</ele><time>2026-04-11T08:24:59.545Z</time></trkpt><trkpt lat="43.675124" lon="12.9876221"><ele>178.75</ele><time>2026-04-11T08:25:00.545Z</time></trkpt><trkpt lat="43.6751224" lon="12.9874552"><ele>177.0</ele><time>2026-04-11T08:25:01.545Z</time></trkpt><trkpt lat="43.675116" lon="12.9872969"><ele>176.0</ele><time>2026-04-11T08:25:02.545Z</time></trkpt><trkpt lat="43.6751098" lon="12.9871476"><ele>175.0</ele><time>2026-04-11T08:25:03.546Z</time></trkpt><trkpt lat="43.6751009" lon="12.9870055"><ele>174.0</ele><time>2026-04-11T08:25:04.544Z</time></trkpt><trkpt lat="43.6750891" lon="12.9868639"><ele>173.0</ele><time>2026-04-11T08:25:05.545Z</time></trkpt><trkpt lat="43.6750654" lon="12.9867387"><ele>172.0</ele><time>2026-04-11T08:25:06.546Z</time></trkpt><trkpt lat="43.6750344" lon="12.9866022"><ele>171.0</ele><time>2026-04-11T08:25:07.546Z</time></trkpt><trkpt lat="43.6749977" lon="12.9864672"><ele>170.0</ele><time>2026-04-11T08:25:08.545Z</time></trkpt><trkpt lat="43.6749526" lon="12.9863287"><ele>169.0</ele><time>2026-04-11T08:25:09.544Z</time></trkpt><trkpt lat="43.6749017" lon="12.9861922"><ele>168.0</ele><time>2026-04-11T08:25:10.545Z</time></trkpt><trkpt lat="43.6748497" lon="12.9860463"><ele>167.0</ele><time>2026-04-11T08:25:11.546Z</time></trkpt><trkpt lat="43.6748013" lon="12.9859061"><ele>165.2</ele><time>2026-04-11T08:25:12.544Z</time></trkpt><trkpt lat="43.6747555" lon="12.9857773"><ele>163.39999999999998</ele><time>2026-04-11T08:25:13.545Z</time></trkpt><trkpt lat="43.6747071" lon="12.9856498"><ele>161.60000000000002</ele><time>2026-04-11T08:25:14.545Z</time></trkpt><trkpt lat="43.6746477" lon="12.9855275"><ele>159.8</ele><time>2026-04-11T08:25:15.545Z</time></trkpt><trkpt lat="43.6745767" lon="12.9854113"><ele>158.0</ele><time>2026-04-11T08:25:16.546Z</time></trkpt><trkpt lat="43.6744934" lon="12.9853043"><ele>157.75</ele><time>2026-04-11T08:25:17.546Z</time></trkpt><trkpt lat="43.6744045" lon="12.9852076"><ele>157.5</ele><time>2026-04-11T08:25:18.545Z</time></trkpt><trkpt lat="43.6743126" lon="12.9851278"><ele>157.25</ele><time>2026-04-11T08:25:19.546Z</time></trkpt><trkpt lat="43.6742151" lon="12.9850488"><ele>157.0</ele><time>2026-04-11T08:25:20.545Z</time></trkpt><trkpt lat="43.6741122" lon="12.9849723"><ele>155.75</ele><time>2026-04-11T08:25:21.545Z</time></trkpt><trkpt lat="43.674007" lon="12.984902"><ele>154.5</ele><time>2026-04-11T08:25:22.546Z</time></trkpt><trkpt lat="43.6739016" lon="12.9848291"><ele>153.25</ele><time>2026-04-11T08:25:23.546Z</time></trkpt><trkpt lat="43.6737916" lon="12.9847574"><ele>152.0</ele><time>2026-04-11T08:25:24.544Z</time></trkpt><trkpt lat="43.6736906" lon="12.9846896"><ele>148.5</ele><time>2026-04-11T08:25:25.545Z</time></trkpt><trkpt lat="43.6735878" lon="12.9846169"><ele>145.0</ele><time>2026-04-11T08:25:26.544Z</time></trkpt><trkpt lat="43.6734822" lon="12.9845485"><ele>141.5</ele><time>2026-04-11T08:25:27.544Z</time></trkpt><trkpt lat="43.6733751" lon="12.9844774"><ele>138.0</ele><time>2026-04-11T08:25:28.544Z</time></trkpt><trkpt lat="43.6732733" lon="12.984409"><ele>138.0</ele><time>2026-04-11T08:25:29.546Z</time></trkpt><trkpt lat="43.6731687" lon="12.9843397"><ele>138.0</ele><time>2026-04-11T08:25:30.546Z</time></trkpt><trkpt lat="43.6730639" lon="12.9842749"><ele>138.0</ele><time>2026-04-11T08:25:31.546Z</time></trkpt><trkpt lat="43.6729573" lon="12.9842129"><ele>138.0</ele><time>2026-04-11T08:25:32.545Z</time></trkpt><trkpt lat="43.6728485" lon="12.9841436"><ele>134.75</ele><time>2026-04-11T08:25:33.546Z</time></trkpt><trkpt lat="43.6727404" lon="12.9840624"><ele>131.5</ele><time>2026-04-11T08:25:34.545Z</time></trkpt><trkpt lat="43.6726369" lon="12.9839676"><ele>128.25</ele><time>2026-04-11T08:25:35.545Z</time></trkpt><trkpt lat="43.6725268" lon="12.983841"><ele>125.0</ele><time>2026-04-11T08:25:36.545Z</time></trkpt><trkpt lat="43.6724082" lon="12.9836961"><ele>125.0</ele><time>2026-04-11T08:25:37.546Z</time></trkpt><trkpt lat="43.6722995" lon="12.9835572"><ele>125.0</ele><time>2026-04-11T08:25:38.545Z</time></trkpt><trkpt lat="43.6722003" lon="12.9834256"><ele>125.0</ele><time>2026-04-11T08:25:39.545Z</time></trkpt><trkpt lat="43.6721152" lon="12.9833002"><ele>125.0</ele><time>2026-04-11T08:25:40.546Z</time></trkpt><trkpt lat="43.6720401" lon="12.9831731"><ele>124.75</ele><time>2026-04-11T08:25:41.545Z</time></trkpt><trkpt lat="43.6719873" lon="12.9830302"><ele>124.5</ele><time>2026-04-11T08:25:42.545Z</time></trkpt><trkpt lat="43.6719512" lon="12.9828596"><ele>124.25</ele><time>2026-04-11T08:25:43.546Z</time></trkpt><trkpt lat="43.6719309" lon="12.9826723"><ele>124.0</ele><time>2026-04-11T08:25:44.546Z</time></trkpt><trkpt lat="43.6719311" lon="12.9824814"><ele>125.5</ele><time>2026-04-11T08:25:45.544Z</time></trkpt><trkpt lat="43.6719554" lon="12.9823043"><ele>127.0</ele><time>2026-04-11T08:25:46.545Z</time></trkpt><trkpt lat="43.6719953" lon="12.98215"><ele>128.5</ele><time>2026-04-11T08:25:47.544Z</time></trkpt><trkpt lat="43.6720581" lon="12.9819881"><ele>130.0</ele><time>2026-04-11T08:25:48.545Z</time></trkpt><trkpt lat="43.6721326" lon="12.9818238"><ele>133.5</ele><time>2026-04-11T08:25:49.545Z</time></trkpt><trkpt lat="43.6722138" lon="12.9816643"><ele>137.0</ele><time>2026-04-11T08:25:50.543Z</time></trkpt><trkpt lat="43.6722954" lon="12.9815143"><ele>140.5</ele><time>2026-04-11T08:25:51.544Z</time></trkpt><trkpt lat="43.6723649" lon="12.9813831"><ele>144.0</ele><time>2026-04-11T08:25:52.545Z</time></trkpt><trkpt lat="43.6724402" lon="12.9812675"><ele>144.0</ele><time>2026-04-11T08:25:53.546Z</time></trkpt><trkpt lat="43.672514" lon="12.9811546"><ele>144.0</ele><time>2026-04-11T08:25:54.546Z</time></trkpt><trkpt lat="43.6725884" lon="12.9810506"><ele>144.0</ele><time>2026-04-11T08:25:55.546Z</time></trkpt><trkpt lat="43.6726629" lon="12.9809848"><ele>144.0</ele><time>2026-04-11T08:25:56.546Z</time></trkpt><trkpt lat="43.672734" lon="12.9809551"><ele>144.0</ele><time>2026-04-11T08:25:57.544Z</time></trkpt><trkpt lat="43.6728152" lon="12.9809462"><ele>144.6</ele><time>2026-04-11T08:25:58.544Z</time></trkpt><trkpt lat="43.672926" lon="12.9809581"><ele>145.2</ele><time>2026-04-11T08:25:59.546Z</time></trkpt><trkpt lat="43.6730422" lon="12.9809776"><ele>145.79999999999998</ele><time>2026-04-11T08:26:00.545Z</time></trkpt><trkpt lat="43.6731577" lon="12.9809988"><ele>146.4</ele><time>2026-04-11T08:26:01.546Z</time></trkpt><trkpt lat="43.6732577" lon="12.9810127"><ele>147.0</ele><time>2026-04-11T08:26:02.546Z</time></trkpt><trkpt lat="43.6733535" lon="12.9810148"><ele>147.0</ele><time>2026-04-11T08:26:03.544Z</time></trkpt><trkpt lat="43.6734466" lon="12.9809991"><ele>147.0</ele><time>2026-04-11T08:26:04.546Z</time></trkpt><trkpt lat="43.6735364" lon="12.9809687"><ele>147.0</ele><time>2026-04-11T08:26:05.544Z</time></trkpt><trkpt lat="43.6736249" lon="12.9809257"><ele>147.0</ele><time>2026-04-11T08:26:06.545Z</time></trkpt><trkpt lat="43.6737095" lon="12.9808705"><ele>147.0</ele><time>2026-04-11T08:26:07.546Z</time></trkpt><trkpt lat="43.6737842" lon="12.9807915"><ele>150.2</ele><time>2026-04-11T08:26:08.545Z</time></trkpt><trkpt lat="43.6738535" lon="12.9806991"><ele>153.39999999999998</ele><time>2026-04-11T08:26:09.546Z</time></trkpt><trkpt lat="43.6739181" lon="12.9805885"><ele>156.60000000000002</ele><time>2026-04-11T08:26:10.545Z</time></trkpt><trkpt lat="43.6739839" lon="12.9804758"><ele>159.8</ele><time>2026-04-11T08:26:11.546Z</time></trkpt><trkpt lat="43.6740418" lon="12.9803414"><ele>163.0</ele><time>2026-04-11T08:26:12.545Z</time></trkpt><trkpt lat="43.674088" lon="12.980212"><ele>163.0</ele><time>2026-04-11T08:26:13.546Z</time></trkpt><trkpt lat="43.6741251" lon="12.9800856"><ele>163.0</ele><time>2026-04-11T08:26:14.546Z</time></trkpt><trkpt lat="43.6741512" lon="12.9799629"><ele>163.0</ele><time>2026-04-11T08:26:15.546Z</time></trkpt><trkpt lat="43.6741677" lon="12.9798277"><ele>163.0</ele><time>2026-04-11T08:26:16.545Z</time></trkpt><trkpt lat="43.674174" lon="12.979674"><ele>163.0</ele><time>2026-04-11T08:26:17.546Z</time></trkpt><trkpt lat="43.6741854" lon="12.9795537"><ele>165.0</ele><time>2026-04-11T08:26:18.546Z</time></trkpt><trkpt lat="43.6741864" lon="12.9794312"><ele>167.0</ele><time>2026-04-11T08:26:19.546Z</time></trkpt><trkpt lat="43.6741645" lon="12.9793208"><ele>169.0</ele><time>2026-04-11T08:26:20.546Z</time></trkpt><trkpt lat="43.6741344" lon="12.9792003"><ele>171.0</ele><time>2026-04-11T08:26:21.544Z</time></trkpt><trkpt lat="43.6740883" lon="12.9790624"><ele>173.0</ele><time>2026-04-11T08:26:22.546Z</time></trkpt><trkpt lat="43.6740283" lon="12.978936"><ele>173.8</ele><time>2026-04-11T08:26:23.545Z</time></trkpt><trkpt lat="43.6739582" lon="12.9788302"><ele>174.60000000000002</ele><time>2026-04-11T08:26:24.545Z</time></trkpt><trkpt lat="43.6738822" lon="12.9787452"><ele>175.39999999999998</ele><time>2026-04-11T08:26:25.545Z</time></trkpt><trkpt lat="43.6738156" lon="12.9786615"><ele>176.2</ele><time>2026-04-11T08:26:26.543Z</time></trkpt><trkpt lat="43.673758" lon="12.9785622"><ele>177.0</ele><time>2026-04-11T08:26:27.545Z</time></trkpt><trkpt lat="43.6737294" lon="12.9784443"><ele>176.6</ele><time>2026-04-11T08:26:28.545Z</time></trkpt><trkpt lat="43.6737229" lon="12.9783157"><ele>176.2</ele><time>2026-04-11T08:26:29.544Z</time></trkpt><trkpt lat="43.6737323" lon="12.9781574"><ele>175.8</ele><time>2026-04-11T08:26:30.545Z</time></trkpt><trkpt lat="43.6737442" lon="12.9780054"><ele>175.4</ele><time>2026-04-11T08:26:31.546Z</time></trkpt><trkpt lat="43.6737615" lon="12.9778761"><ele>175.0</ele><time>2026-04-11T08:26:32.546Z</time></trkpt><trkpt lat="43.6737754" lon="12.9777616"><ele>175.0</ele><time>2026-04-11T08:26:33.545Z</time></trkpt><trkpt lat="43.6737997" lon="12.9776617"><ele>175.0</ele><time>2026-04-11T08:26:34.546Z</time></trkpt><trkpt lat="43.673825" lon="12.9775726"><ele>175.0</ele><time>2026-04-11T08:26:35.546Z</time></trkpt><trkpt lat="43.6738733" lon="12.9774091"><ele>175.0</ele><time>2026-04-11T08:26:37.545Z</time></trkpt><trkpt lat="43.6739" lon="12.9773251"><ele>175.0</ele><time>2026-04-11T08:26:38.546Z</time></trkpt><trkpt lat="43.6739389" lon="12.9772192"><ele>175.0</ele><time>2026-04-11T08:26:39.545Z</time></trkpt><trkpt lat="43.6739785" lon="12.9770763"><ele>176.0</ele><time>2026-04-11T08:26:40.546Z</time></trkpt><trkpt lat="43.6740201" lon="12.9769285"><ele>177.0</ele><time>2026-04-11T08:26:41.545Z</time></trkpt><trkpt lat="43.6740536" lon="12.976781"><ele>178.0</ele><time>2026-04-11T08:26:42.546Z</time></trkpt><trkpt lat="43.6740906" lon="12.9766228"><ele>179.0</ele><time>2026-04-11T08:26:43.545Z</time></trkpt><trkpt lat="43.6741289" lon="12.9764596"><ele>180.75</ele><time>2026-04-11T08:26:44.546Z</time></trkpt><trkpt lat="43.6741659" lon="12.9763082"><ele>182.5</ele><time>2026-04-11T08:26:45.545Z</time></trkpt><trkpt lat="43.6742018" lon="12.9761492"><ele>184.25</ele><time>2026-04-11T08:26:46.545Z</time></trkpt><trkpt lat="43.6742301" lon="12.9759933"><ele>186.0</ele><time>2026-04-11T08:26:47.546Z</time></trkpt><trkpt lat="43.674264" lon="12.9758414"><ele>187.4</ele><time>2026-04-11T08:26:48.546Z</time></trkpt><trkpt lat="43.6742976" lon="12.9756975"><ele>188.8</ele><time>2026-04-11T08:26:49.543Z</time></trkpt><trkpt lat="43.6743224" lon="12.9755657"><ele>190.20000000000002</ele><time>2026-04-11T08:26:50.545Z</time></trkpt><trkpt lat="43.6743289" lon="12.9754252"><ele>191.60000000000002</ele><time>2026-04-11T08:26:51.546Z</time></trkpt><trkpt lat="43.674315" lon="12.9752673"><ele>193.0</ele><time>2026-04-11T08:26:52.545Z</time></trkpt><trkpt lat="43.6743005" lon="12.9751105"><ele>194.75</ele><time>2026-04-11T08:26:53.545Z</time></trkpt><trkpt lat="43.6742818" lon="12.9749482"><ele>196.5</ele><time>2026-04-11T08:26:54.545Z</time></trkpt><trkpt lat="43.6742618" lon="12.974787"><ele>198.25</ele><time>2026-04-11T08:26:55.543Z</time></trkpt><trkpt lat="43.6742515" lon="12.9746185"><ele>200.0</ele><time>2026-04-11T08:26:56.545Z</time></trkpt><trkpt lat="43.6742431" lon="12.9744508"><ele>200.0</ele><time>2026-04-11T08:26:57.546Z</time></trkpt><trkpt lat="43.6742331" lon="12.9742775"><ele>200.0</ele><time>2026-04-11T08:26:58.546Z</time></trkpt><trkpt lat="43.6742227" lon="12.97411"><ele>200.0</ele><time>2026-04-11T08:26:59.546Z</time></trkpt><trkpt lat="43.6741984" lon="12.9739444"><ele>200.0</ele><time>2026-04-11T08:27:00.545Z</time></trkpt><trkpt lat="43.6741572" lon="12.9737974"><ele>201.0</ele><time>2026-04-11T08:27:01.544Z</time></trkpt><trkpt lat="43.6741032" lon="12.9736494"><ele>202.0</ele><time>2026-04-11T08:27:02.544Z</time></trkpt><trkpt lat="43.6740444" lon="12.9735049"><ele>203.0</ele><time>2026-04-11T08:27:03.545Z</time></trkpt><trkpt lat="43.6739871" lon="12.973362"><ele>204.0</ele><time>2026-04-11T08:27:04.544Z</time></trkpt><trkpt lat="43.6739519" lon="12.973214"><ele>205.79999999999998</ele><time>2026-04-11T08:27:05.545Z</time></trkpt><trkpt lat="43.6739371" lon="12.9730624"><ele>207.6</ele><time>2026-04-11T08:27:06.545Z</time></trkpt><trkpt lat="43.6739545" lon="12.9729123"><ele>209.4</ele><time>2026-04-11T08:27:07.545Z</time></trkpt><trkpt lat="43.6739809" lon="12.9727728"><ele>211.2</ele><time>2026-04-11T08:27:08.545Z</time></trkpt><trkpt lat="43.6739917" lon="12.9726322"><ele>213.0</ele><time>2026-04-11T08:27:09.546Z</time></trkpt><trkpt lat="43.6739798" lon="12.9724915"><ele>214.4</ele><time>2026-04-11T08:27:10.546Z</time></trkpt><trkpt lat="43.6739369" lon="12.9723564"><ele>215.8</ele><time>2026-04-11T08:27:11.546Z</time></trkpt><trkpt lat="43.6738616" lon="12.9722421"><ele>217.2</ele><time>2026-04-11T08:27:12.546Z</time></trkpt><trkpt lat="43.6737651" lon="12.9721544"><ele>218.6</ele><time>2026-04-11T08:27:13.546Z</time></trkpt><trkpt lat="43.673676" lon="12.97209"><ele>220.0</ele><time>2026-04-11T08:27:14.545Z</time></trkpt><trkpt lat="43.6735981" lon="12.9720265"><ele>219.99999999999997</ele><time>2026-04-11T08:27:15.545Z</time></trkpt><trkpt lat="43.6735401" lon="12.9719806"><ele>220.0</ele><time>2026-04-11T08:27:16.546Z</time></trkpt><trkpt lat="43.6734688" lon="12.9719069"><ele>220.0</ele><time>2026-04-11T08:27:18.546Z</time></trkpt><trkpt lat="43.6734275" lon="12.9718243"><ele>220.0</ele><time>2026-04-11T08:28:03.544Z</time></trkpt><trkpt lat="43.6734544" lon="12.9716767"><ele>219.99999999999997</ele><time>2026-04-11T08:28:05.545Z</time></trkpt><trkpt lat="43.6734644" lon="12.9715726"><ele>220.0</ele><time>2026-04-11T08:28:06.546Z</time></trkpt><trkpt lat="43.6734495" lon="12.9714615"><ele>222.5</ele><time>2026-04-11T08:28:07.545Z</time></trkpt><trkpt lat="43.6733963" lon="12.9713542"><ele>225.0</ele><time>2026-04-11T08:28:08.544Z</time></trkpt><trkpt lat="43.67331" lon="12.9712579"><ele>227.5</ele><time>2026-04-11T08:28:09.545Z</time></trkpt><trkpt lat="43.6731914" lon="12.9711765"><ele>230.0</ele><time>2026-04-11T08:28:10.546Z</time></trkpt><trkpt lat="43.6730533" lon="12.9711101"><ele>230.0</ele><time>2026-04-11T08:28:11.545Z</time></trkpt><trkpt lat="43.6729162" lon="12.9710364"><ele>230.0</ele><time>2026-04-11T08:28:12.546Z</time></trkpt><trkpt lat="43.6728031" lon="12.9709526"><ele>230.0</ele><time>2026-04-11T08:28:13.545Z</time></trkpt><trkpt lat="43.6727053" lon="12.9708579"><ele>230.0</ele><time>2026-04-11T08:28:14.546Z</time></trkpt><trkpt lat="43.6726247" lon="12.9707369"><ele>231.8</ele><time>2026-04-11T08:28:15.546Z</time></trkpt><trkpt lat="43.6725701" lon="12.9705958"><ele>233.6</ele><time>2026-04-11T08:28:16.545Z</time></trkpt><trkpt lat="43.6725489" lon="12.9704495"><ele>235.39999999999998</ele><time>2026-04-11T08:28:17.545Z</time></trkpt><trkpt lat="43.6725538" lon="12.970313"><ele>237.2</ele><time>2026-04-11T08:28:18.546Z</time></trkpt><trkpt lat="43.6725791" lon="12.9701725"><ele>239.0</ele><time>2026-04-11T08:28:19.546Z</time></trkpt><trkpt lat="43.6726337" lon="12.9700385"><ele>240.5</ele><time>2026-04-11T08:28:20.545Z</time></trkpt><trkpt lat="43.6727138" lon="12.9699007"><ele>242.0</ele><time>2026-04-11T08:28:21.545Z</time></trkpt><trkpt lat="43.6728034" lon="12.9697628"><ele>243.5</ele><time>2026-04-11T08:28:22.546Z</time></trkpt><trkpt lat="43.6728977" lon="12.9696096"><ele>245.0</ele><time>2026-04-11T08:28:23.545Z</time></trkpt><trkpt lat="43.6729775" lon="12.9694464"><ele>248.0</ele><time>2026-04-11T08:28:24.545Z</time></trkpt><trkpt lat="43.6730452" lon="12.9692722"><ele>251.0</ele><time>2026-04-11T08:28:25.545Z</time></trkpt><trkpt lat="43.6731095" lon="12.9690808"><ele>254.0</ele><time>2026-04-11T08:28:26.546Z</time></trkpt><trkpt lat="43.6731639" lon="12.9688861"><ele>257.0</ele><time>2026-04-11T08:28:27.544Z</time></trkpt><trkpt lat="43.6732131" lon="12.9686894"><ele>258.0</ele><time>2026-04-11T08:28:28.546Z</time></trkpt><trkpt lat="43.6732619" lon="12.9685084"><ele>259.0</ele><time>2026-04-11T08:28:29.545Z</time></trkpt><trkpt lat="43.673311" lon="12.9683334"><ele>260.0</ele><time>2026-04-11T08:28:30.546Z</time></trkpt><trkpt lat="43.6733527" lon="12.968176"><ele>261.0</ele><time>2026-04-11T08:28:31.545Z</time></trkpt><trkpt lat="43.6733894" lon="12.9680456"><ele>261.0</ele><time>2026-04-11T08:28:32.545Z</time></trkpt><trkpt lat="43.6734215" lon="12.9679329"><ele>261.0</ele><time>2026-04-11T08:28:33.545Z</time></trkpt><trkpt lat="43.6734516" lon="12.9678374"><ele>261.0</ele><time>2026-04-11T08:28:34.546Z</time></trkpt><trkpt lat="43.6734854" lon="12.9677502"><ele>261.0</ele><time>2026-04-11T08:28:35.546Z</time></trkpt><trkpt lat="43.6735234" lon="12.9676552"><ele>261.0</ele><time>2026-04-11T08:28:36.544Z</time></trkpt><trkpt lat="43.6735654" lon="12.9675493"><ele>261.0</ele><time>2026-04-11T08:28:37.545Z</time></trkpt><trkpt lat="43.6736162" lon="12.9674309"><ele>262.2</ele><time>2026-04-11T08:28:38.545Z</time></trkpt><trkpt lat="43.6736737" lon="12.9673062"><ele>263.40000000000003</ele><time>2026-04-11T08:28:39.546Z</time></trkpt><trkpt lat="43.6737276" lon="12.9671762"><ele>264.6</ele><time>2026-04-11T08:28:40.545Z</time></trkpt><trkpt lat="43.6737897" lon="12.9670465"><ele>265.8</ele><time>2026-04-11T08:28:41.546Z</time></trkpt><trkpt lat="43.6738486" lon="12.9669181"><ele>267.0</ele><time>2026-04-11T08:28:42.546Z</time></trkpt><trkpt lat="43.6739216" lon="12.9667857"><ele>265.3333333333333</ele><time>2026-04-11T08:28:43.544Z</time></trkpt><trkpt lat="43.6739889" lon="12.9666831"><ele>263.6666666666667</ele><time>2026-04-11T08:28:44.546Z</time></trkpt><trkpt lat="43.6740485" lon="12.9665989"><ele>262.0</ele><time>2026-04-11T08:28:45.546Z</time></trkpt><trkpt lat="43.6741034" lon="12.9665296"><ele>260.33333333333337</ele><time>2026-04-11T08:28:46.545Z</time></trkpt><trkpt lat="43.6742012" lon="12.9664701"><ele>258.6666666666667</ele><time>2026-04-11T08:28:48.544Z</time></trkpt><trkpt lat="43.6742703" lon="12.9665055"><ele>257.0</ele><time>2026-04-11T08:28:50.545Z</time></trkpt><trkpt lat="43.6743175" lon="12.9666485"><ele>258.6666666666667</ele><time>2026-04-11T08:28:52.544Z</time></trkpt><trkpt lat="43.6743314" lon="12.9667485"><ele>260.33333333333337</ele><time>2026-04-11T08:28:53.545Z</time></trkpt><trkpt lat="43.6743544" lon="12.9668615"><ele>262.0</ele><time>2026-04-11T08:28:54.546Z</time></trkpt><trkpt lat="43.6743642" lon="12.9669792"><ele>263.6666666666667</ele><time>2026-04-11T08:28:55.545Z</time></trkpt><trkpt lat="43.6743544" lon="12.9670981"><ele>265.3333333333333</ele><time>2026-04-11T08:28:56.546Z</time></trkpt><trkpt lat="43.6743388" lon="12.9672184"><ele>267.0</ele><time>2026-04-11T08:28:57.545Z</time></trkpt><trkpt lat="43.6743307" lon="12.967333"><ele>267.0</ele><time>2026-04-11T08:28:58.545Z</time></trkpt><trkpt lat="43.6743131" lon="12.967427"><ele>267.0</ele><time>2026-04-11T08:28:59.545Z</time></trkpt><trkpt lat="43.6742675" lon="12.9675095"><ele>267.0</ele><time>2026-04-11T08:29:00.544Z</time></trkpt><trkpt lat="43.6742134" lon="12.9675753"><ele>267.0</ele><time>2026-04-11T08:29:01.546Z</time></trkpt><trkpt lat="43.6741484" lon="12.9676329"><ele>267.0</ele><time>2026-04-11T08:29:02.545Z</time></trkpt><trkpt lat="43.6740868" lon="12.967684"><ele>267.0</ele><time>2026-04-11T08:29:03.545Z</time></trkpt><trkpt lat="43.6740036" lon="12.9677413"><ele>268.3333333333333</ele><time>2026-04-11T08:29:05.546Z</time></trkpt><trkpt lat="43.6739423" lon="12.9677933"><ele>269.6666666666667</ele><time>2026-04-11T08:29:08.544Z</time></trkpt><trkpt lat="43.6740171" lon="12.9678197"><ele>271.0</ele><time>2026-04-11T08:29:15.544Z</time></trkpt><trkpt lat="43.6740826" lon="12.9678593"><ele>272.33333333333337</ele><time>2026-04-11T08:48:50.543Z</time></trkpt><trkpt lat="43.6740071" lon="12.9678866"><ele>273.6666666666667</ele><time>2026-04-11T08:49:11.544Z</time></trkpt><trkpt lat="43.6739101" lon="12.9678963"><ele>275.0</ele><time>2026-04-11T08:49:14.543Z</time></trkpt><trkpt lat="43.6738394" lon="12.967928"><ele>275.0</ele><time>2026-04-11T08:49:16.544Z</time></trkpt><trkpt lat="43.6737582" lon="12.9679463"><ele>275.0</ele><time>2026-04-11T08:49:18.544Z</time></trkpt><trkpt lat="43.6736882" lon="12.9679414"><ele>275.0</ele><time>2026-04-11T08:49:20.544Z</time></trkpt><trkpt lat="43.6736021" lon="12.9678964"><ele>275.0</ele><time>2026-04-11T08:49:23.544Z</time></trkpt><trkpt lat="43.6735389" lon="12.9678302"><ele>275.0</ele><time>2026-04-11T08:49:26.544Z</time></trkpt><trkpt lat="43.6734912" lon="12.9677698"><ele>275.0</ele><time>2026-04-11T08:49:29.544Z</time></trkpt><trkpt lat="43.6734212" lon="12.9677045"><ele>272.2</ele><time>2026-04-11T08:49:31.544Z</time></trkpt><trkpt lat="43.6733301" lon="12.9676409"><ele>269.4</ele><time>2026-04-11T08:49:33.542Z</time></trkpt><trkpt lat="43.6732369" lon="12.9675712"><ele>266.6</ele><time>2026-04-11T08:49:35.544Z</time></trkpt><trkpt lat="43.673143" lon="12.9675127"><ele>263.8</ele><time>2026-04-11T08:49:37.544Z</time></trkpt><trkpt lat="43.6730437" lon="12.9674319"><ele>261.0</ele><time>2026-04-11T08:49:39.544Z</time></trkpt><trkpt lat="43.6729462" lon="12.9673576"><ele>260.6</ele><time>2026-04-11T08:49:41.543Z</time></trkpt><trkpt lat="43.6728624" lon="12.9672783"><ele>260.20000000000005</ele><time>2026-04-11T08:49:43.544Z</time></trkpt><trkpt lat="43.6727931" lon="12.9671871"><ele>259.79999999999995</ele><time>2026-04-11T08:49:45.543Z</time></trkpt><trkpt lat="43.6726967" lon="12.9671176"><ele>259.4</ele><time>2026-04-11T08:49:47.543Z</time></trkpt><trkpt lat="43.6726276" lon="12.9670766"><ele>259.0</ele><time>2026-04-11T08:49:48.542Z</time></trkpt><trkpt lat="43.6725537" lon="12.9670397"><ele>257.0</ele><time>2026-04-11T08:49:49.544Z</time></trkpt><trkpt lat="43.6724737" lon="12.96699"><ele>254.99999999999997</ele><time>2026-04-11T08:49:50.544Z</time></trkpt><trkpt lat="43.6723874" lon="12.9669324"><ele>252.99999999999997</ele><time>2026-04-11T08:49:51.542Z</time></trkpt><trkpt lat="43.6722963" lon="12.9668697"><ele>251.0</ele><time>2026-04-11T08:49:52.543Z</time></trkpt><trkpt lat="43.6721994" lon="12.9668035"><ele>249.0</ele><time>2026-04-11T08:49:53.544Z</time></trkpt><trkpt lat="43.672103" lon="12.9667389"><ele>247.79999999999998</ele><time>2026-04-11T08:49:54.544Z</time></trkpt><trkpt lat="43.6720074" lon="12.9666777"><ele>246.59999999999997</ele><time>2026-04-11T08:49:55.542Z</time></trkpt><trkpt lat="43.6719135" lon="12.9666176"><ele>245.4</ele><time>2026-04-11T08:49:56.544Z</time></trkpt><trkpt lat="43.6718199" lon="12.9665527"><ele>244.2</ele><time>2026-04-11T08:49:57.543Z</time></trkpt><trkpt lat="43.6717261" lon="12.9665037"><ele>243.0</ele><time>2026-04-11T08:49:58.544Z</time></trkpt><trkpt lat="43.6716294" lon="12.9664463"><ele>242.0</ele><time>2026-04-11T08:49:59.543Z</time></trkpt><trkpt lat="43.6715309" lon="12.9663861"><ele>241.0</ele><time>2026-04-11T08:50:00.543Z</time></trkpt><trkpt lat="43.6714237" lon="12.9663222"><ele>240.0</ele><time>2026-04-11T08:50:01.543Z</time></trkpt><trkpt lat="43.6713005" lon="12.9662574"><ele>239.0</ele><time>2026-04-11T08:50:02.543Z</time></trkpt><trkpt lat="43.6711806" lon="12.9661927"><ele>238.6</ele><time>2026-04-11T08:50:03.544Z</time></trkpt><trkpt lat="43.6710726" lon="12.9661399"><ele>238.2</ele><time>2026-04-11T08:50:04.543Z</time></trkpt><trkpt lat="43.6709717" lon="12.9660836"><ele>237.79999999999998</ele><time>2026-04-11T08:50:05.542Z</time></trkpt><trkpt lat="43.670874" lon="12.9660238"><ele>237.39999999999998</ele><time>2026-04-11T08:50:06.543Z</time></trkpt><trkpt lat="43.6707801" lon="12.9659661"><ele>237.0</ele><time>2026-04-11T08:50:07.543Z</time></trkpt><trkpt lat="43.6706831" lon="12.965913"><ele>238.0</ele><time>2026-04-11T08:50:08.543Z</time></trkpt><trkpt lat="43.6705874" lon="12.9658565"><ele>239.0</ele><time>2026-04-11T08:50:09.544Z</time></trkpt><trkpt lat="43.6705005" lon="12.9658026"><ele>240.0</ele><time>2026-04-11T08:50:10.543Z</time></trkpt><trkpt lat="43.67042" lon="12.9657531"><ele>241.0</ele><time>2026-04-11T08:50:11.544Z</time></trkpt><trkpt lat="43.6703425" lon="12.9657037"><ele>242.0</ele><time>2026-04-11T08:50:12.543Z</time></trkpt><trkpt lat="43.6702653" lon="12.9656651"><ele>242.50000000000003</ele><time>2026-04-11T08:50:13.543Z</time></trkpt><trkpt lat="43.6701885" lon="12.9656224"><ele>243.0</ele><time>2026-04-11T08:50:14.543Z</time></trkpt><trkpt lat="43.6701121" lon="12.9655841"><ele>243.5</ele><time>2026-04-11T08:50:15.544Z</time></trkpt><trkpt lat="43.6700392" lon="12.9655397"><ele>244.0</ele><time>2026-04-11T08:50:16.544Z</time></trkpt><trkpt lat="43.6699664" lon="12.9654999"><ele>244.50000000000003</ele><time>2026-04-11T08:50:17.542Z</time></trkpt><trkpt lat="43.6698908" lon="12.965458"><ele>245.0</ele><time>2026-04-11T08:50:18.544Z</time></trkpt><trkpt lat="43.6698077" lon="12.9654161"><ele>245.00000000000003</ele><time>2026-04-11T08:50:19.543Z</time></trkpt><trkpt lat="43.6697281" lon="12.9653749"><ele>245.0</ele><time>2026-04-11T08:50:20.542Z</time></trkpt><trkpt lat="43.669665" lon="12.9653411"><ele>245.0</ele><time>2026-04-11T08:50:21.543Z</time></trkpt><trkpt lat="43.6695858" lon="12.9653035"><ele>245.0</ele><time>2026-04-11T08:50:23.543Z</time></trkpt><trkpt lat="43.6695408" lon="12.9652346"><ele>245.00000000000003</ele><time>2026-04-11T08:50:25.544Z</time></trkpt><trkpt lat="43.6695537" lon="12.9651148"><ele>245.0</ele><time>2026-04-11T08:50:27.543Z</time></trkpt><trkpt lat="43.6695958" lon="12.964975"><ele>244.00000000000003</ele><time>2026-04-11T08:50:29.543Z</time></trkpt><trkpt lat="43.6696297" lon="12.9648492"><ele>243.0</ele><time>2026-04-11T08:50:31.544Z</time></trkpt><trkpt lat="43.6696506" lon="12.9647126"><ele>242.0</ele><time>2026-04-11T08:50:33.542Z</time></trkpt><trkpt lat="43.6696557" lon="12.964624"><ele>241.0</ele><time>2026-04-11T08:50:34.543Z</time></trkpt><trkpt lat="43.6696623" lon="12.9645334"><ele>240.00000000000003</ele><time>2026-04-11T08:50:35.544Z</time></trkpt><trkpt lat="43.6696651" lon="12.9644348"><ele>239.0</ele><time>2026-04-11T08:50:36.544Z</time></trkpt><trkpt lat="43.6696694" lon="12.9643311"><ele>239.00000000000003</ele><time>2026-04-11T08:50:37.543Z</time></trkpt><trkpt lat="43.6696787" lon="12.9642224"><ele>239.0</ele><time>2026-04-11T08:50:38.542Z</time></trkpt><trkpt lat="43.6696885" lon="12.9640962"><ele>239.0</ele><time>2026-04-11T08:50:39.543Z</time></trkpt><trkpt lat="43.6697024" lon="12.9639777"><ele>239.0</ele><time>2026-04-11T08:50:40.544Z</time></trkpt><trkpt lat="43.6697217" lon="12.9638598"><ele>239.00000000000003</ele><time>2026-04-11T08:50:41.543Z</time></trkpt><trkpt lat="43.6697394" lon="12.9637365"><ele>239.0</ele><time>2026-04-11T08:50:42.544Z</time></trkpt><trkpt lat="43.6697551" lon="12.9636157"><ele>237.50000000000003</ele><time>2026-04-11T08:50:43.543Z</time></trkpt><trkpt lat="43.6697718" lon="12.9634904"><ele>236.0</ele><time>2026-04-11T08:50:44.544Z</time></trkpt><trkpt lat="43.6697916" lon="12.963368"><ele>234.5</ele><time>2026-04-11T08:50:45.542Z</time></trkpt><trkpt lat="43.6698111" lon="12.9632484"><ele>233.0</ele><time>2026-04-11T08:50:46.543Z</time></trkpt><trkpt lat="43.6698249" lon="12.9631263"><ele>231.50000000000003</ele><time>2026-04-11T08:50:47.542Z</time></trkpt><trkpt lat="43.6698324" lon="12.9630148"><ele>230.0</ele><time>2026-04-11T08:50:48.544Z</time></trkpt><trkpt lat="43.6698385" lon="12.9629141"><ele>229.00000000000003</ele><time>2026-04-11T08:50:49.544Z</time></trkpt><trkpt lat="43.6698331" lon="12.9628107"><ele>228.0</ele><time>2026-04-11T08:50:50.543Z</time></trkpt><trkpt lat="43.6698177" lon="12.9627035"><ele>227.0</ele><time>2026-04-11T08:50:51.544Z</time></trkpt><trkpt lat="43.669788" lon="12.9626078"><ele>226.0</ele><time>2026-04-11T08:50:52.542Z</time></trkpt><trkpt lat="43.6697551" lon="12.9625194"><ele>225.00000000000003</ele><time>2026-04-11T08:50:53.543Z</time></trkpt><trkpt lat="43.6697225" lon="12.9624354"><ele>224.0</ele><time>2026-04-11T08:50:54.543Z</time></trkpt><trkpt lat="43.669665" lon="12.9622836"><ele>223.0</ele><time>2026-04-11T08:50:56.543Z</time></trkpt><trkpt lat="43.6696194" lon="12.9621433"><ele>221.99999999999997</ele><time>2026-04-11T08:50:58.542Z</time></trkpt><trkpt lat="43.6695712" lon="12.9620084"><ele>220.99999999999997</ele><time>2026-04-11T08:51:00.543Z</time></trkpt><trkpt lat="43.6694978" lon="12.9619046"><ele>220.0</ele><time>2026-04-11T08:51:02.543Z</time></trkpt><trkpt lat="43.6694288" lon="12.9618343"><ele>219.0</ele><time>2026-04-11T08:51:04.543Z</time></trkpt><trkpt lat="43.6693702" lon="12.9617955"><ele>219.0</ele><time>2026-04-11T08:51:07.541Z</time></trkpt><trkpt lat="43.6693059" lon="12.9617752"><ele>219.0</ele><time>2026-04-11T08:51:37.543Z</time></trkpt><trkpt lat="43.6692442" lon="12.9617392"><ele>219.0</ele><time>2026-04-11T08:51:40.544Z</time></trkpt><trkpt lat="43.6691774" lon="12.9617298"><ele>219.0</ele><time>2026-04-11T08:51:44.543Z</time></trkpt><trkpt lat="43.6691176" lon="12.9617691"><ele>219.0</ele><time>2026-04-11T08:51:59.543Z</time></trkpt><trkpt lat="43.6690787" lon="12.9618392"><ele>219.0</ele><time>2026-04-11T08:52:09.543Z</time></trkpt><trkpt lat="43.66914" lon="12.9617635"><ele>219.0</ele><time>2026-04-11T08:52:14.543Z</time></trkpt><trkpt lat="43.6692137" lon="12.9617317"><ele>219.0</ele><time>2026-04-11T08:52:16.543Z</time></trkpt><trkpt lat="43.6692823" lon="12.9617101"><ele>219.0</ele><time>2026-04-11T08:52:19.542Z</time></trkpt><trkpt lat="43.6692672" lon="12.9615918"><ele>219.0</ele><time>2026-04-11T08:52:22.543Z</time></trkpt><trkpt lat="43.6692609" lon="12.9614838"><ele>219.0</ele><time>2026-04-11T08:52:24.543Z</time></trkpt><trkpt lat="43.6692593" lon="12.9613526"><ele>219.0</ele><time>2026-04-11T08:52:26.543Z</time></trkpt><trkpt lat="43.6692711" lon="12.9611962"><ele>219.0</ele><time>2026-04-11T08:52:28.544Z</time></trkpt><trkpt lat="43.6693" lon="12.9610546"><ele>217.5</ele><time>2026-04-11T08:52:30.544Z</time></trkpt><trkpt lat="43.6693346" lon="12.9609312"><ele>216.0</ele><time>2026-04-11T08:52:32.541Z</time></trkpt><trkpt lat="43.669364" lon="12.9608189"><ele>214.5</ele><time>2026-04-11T08:52:34.543Z</time></trkpt><trkpt lat="43.6693968" lon="12.9607026"><ele>213.0</ele><time>2026-04-11T08:52:36.543Z</time></trkpt><trkpt lat="43.6694009" lon="12.960551"><ele>211.5</ele><time>2026-04-11T08:52:38.543Z</time></trkpt><trkpt lat="43.6693968" lon="12.9604636"><ele>210.0</ele><time>2026-04-11T08:52:39.544Z</time></trkpt><trkpt lat="43.6693868" lon="12.9603144"><ele>206.25</ele><time>2026-04-11T08:52:41.544Z</time></trkpt><trkpt lat="43.6693785" lon="12.9601604"><ele>202.5</ele><time>2026-04-11T08:52:43.543Z</time></trkpt><trkpt lat="43.6693663" lon="12.9600034"><ele>198.75</ele><time>2026-04-11T08:52:45.543Z</time></trkpt><trkpt lat="43.6693506" lon="12.9598575"><ele>195.0</ele><time>2026-04-11T08:52:47.544Z</time></trkpt><trkpt lat="43.6693442" lon="12.9596911"><ele>192.66666666666666</ele><time>2026-04-11T08:52:49.542Z</time></trkpt><trkpt lat="43.6693462" lon="12.9595189"><ele>190.33333333333334</ele><time>2026-04-11T08:52:51.543Z</time></trkpt><trkpt lat="43.6693508" lon="12.9594271"><ele>188.0</ele><time>2026-04-11T08:52:52.542Z</time></trkpt><trkpt lat="43.6693546" lon="12.959327"><ele>185.66666666666669</ele><time>2026-04-11T08:52:53.543Z</time></trkpt><trkpt lat="43.6693534" lon="12.9592329"><ele>183.33333333333334</ele><time>2026-04-11T08:52:54.542Z</time></trkpt><trkpt lat="43.6693571" lon="12.9591416"><ele>181.0</ele><time>2026-04-11T08:52:55.543Z</time></trkpt><trkpt lat="43.6693797" lon="12.9589832"><ele>178.20000000000002</ele><time>2026-04-11T08:52:57.542Z</time></trkpt><trkpt lat="43.6694294" lon="12.9588547"><ele>175.4</ele><time>2026-04-11T08:52:59.542Z</time></trkpt><trkpt lat="43.6694763" lon="12.9586921"><ele>172.6</ele><time>2026-04-11T08:53:01.542Z</time></trkpt><trkpt lat="43.6695055" lon="12.9586087"><ele>169.8</ele><time>2026-04-11T08:53:02.542Z</time></trkpt><trkpt lat="43.6695367" lon="12.958528"><ele>167.0</ele><time>2026-04-11T08:53:03.543Z</time></trkpt><trkpt lat="43.6695922" lon="12.9583782"><ele>164.16666666666666</ele><time>2026-04-11T08:53:05.543Z</time></trkpt><trkpt lat="43.6696214" lon="12.9582949"><ele>161.33333333333331</ele><time>2026-04-11T08:53:06.543Z</time></trkpt><trkpt lat="43.6696576" lon="12.9581965"><ele>158.5</ele><time>2026-04-11T08:53:07.544Z</time></trkpt><trkpt lat="43.6696837" lon="12.9581036"><ele>155.66666666666666</ele><time>2026-04-11T08:53:08.542Z</time></trkpt><trkpt lat="43.6697039" lon="12.9580159"><ele>152.83333333333334</ele><time>2026-04-11T08:53:09.543Z</time></trkpt><trkpt lat="43.669712" lon="12.957854"><ele>150.0</ele><time>2026-04-11T08:53:11.543Z</time></trkpt><trkpt lat="43.6696671" lon="12.9577135"><ele>150.0</ele><time>2026-04-11T08:53:13.543Z</time></trkpt><trkpt lat="43.6696284" lon="12.9576416"><ele>150.0</ele><time>2026-04-11T08:53:14.544Z</time></trkpt><trkpt lat="43.6695441" lon="12.9574893"><ele>150.0</ele><time>2026-04-11T08:53:16.542Z</time></trkpt><trkpt lat="43.6694972" lon="12.9573995"><ele>150.0</ele><time>2026-04-11T08:53:17.542Z</time></trkpt><trkpt lat="43.6694498" lon="12.957314"><ele>150.0</ele><time>2026-04-11T08:53:18.544Z</time></trkpt><trkpt lat="43.6694027" lon="12.9572295"><ele>150.0</ele><time>2026-04-11T08:53:19.543Z</time></trkpt><trkpt lat="43.6693562" lon="12.9571508"><ele>149.0</ele><time>2026-04-11T08:53:20.542Z</time></trkpt><trkpt lat="43.6693046" lon="12.9570582"><ele>148.0</ele><time>2026-04-11T08:53:21.544Z</time></trkpt><trkpt lat="43.6692556" lon="12.9569685"><ele>147.0</ele><time>2026-04-11T08:53:22.544Z</time></trkpt><trkpt lat="43.6692054" lon="12.9568854"><ele>146.0</ele><time>2026-04-11T08:53:23.543Z</time></trkpt><trkpt lat="43.6691523" lon="12.9567903"><ele>145.0</ele><time>2026-04-11T08:53:24.544Z</time></trkpt><trkpt lat="43.6691003" lon="12.9567007"><ele>144.0</ele><time>2026-04-11T08:53:25.543Z</time></trkpt><trkpt lat="43.66905" lon="12.9566246"><ele>142.5</ele><time>2026-04-11T08:53:26.543Z</time></trkpt><trkpt lat="43.6689938" lon="12.9565644"><ele>141.0</ele><time>2026-04-11T08:53:27.541Z</time></trkpt><trkpt lat="43.6689169" lon="12.9564785"><ele>139.5</ele><time>2026-04-11T08:53:29.543Z</time></trkpt><trkpt lat="43.6689112" lon="12.9563779"><ele>138.0</ele><time>2026-04-11T08:53:31.543Z</time></trkpt><trkpt lat="43.6689266" lon="12.9562362"><ele>136.5</ele><time>2026-04-11T08:53:33.544Z</time></trkpt><trkpt lat="43.6689505" lon="12.9561143"><ele>135.0</ele><time>2026-04-11T08:53:35.544Z</time></trkpt><trkpt lat="43.6689853" lon="12.9559888"><ele>135.2</ele><time>2026-04-11T08:53:37.542Z</time></trkpt><trkpt lat="43.6690287" lon="12.9558698"><ele>135.4</ele><time>2026-04-11T08:53:39.544Z</time></trkpt><trkpt lat="43.669075" lon="12.9558005"><ele>135.6</ele><time>2026-04-11T08:53:42.543Z</time></trkpt><trkpt lat="43.669135" lon="12.9557045"><ele>135.8</ele><time>2026-04-11T08:53:45.544Z</time></trkpt><trkpt lat="43.6691884" lon="12.9555748"><ele>136.0</ele><time>2026-04-11T08:53:47.542Z</time></trkpt><trkpt lat="43.6692291" lon="12.9554267"><ele>136.0</ele><time>2026-04-11T08:53:49.543Z</time></trkpt><trkpt lat="43.6692565" lon="12.9552633"><ele>136.0</ele><time>2026-04-11T08:53:51.542Z</time></trkpt><trkpt lat="43.669258" lon="12.9551746"><ele>136.0</ele><time>2026-04-11T08:53:52.543Z</time></trkpt><trkpt lat="43.669257" lon="12.9550868"><ele>136.0</ele><time>2026-04-11T08:53:53.543Z</time></trkpt><trkpt lat="43.6692583" lon="12.9549903"><ele>136.0</ele><time>2026-04-11T08:53:54.543Z</time></trkpt><trkpt lat="43.6692613" lon="12.954894"><ele>136.0</ele><time>2026-04-11T08:53:55.543Z</time></trkpt><trkpt lat="43.6692644" lon="12.9548026"><ele>136.33333333333334</ele><time>2026-04-11T08:53:56.542Z</time></trkpt><trkpt lat="43.6692732" lon="12.9546819"><ele>136.66666666666669</ele><time>2026-04-11T08:53:58.543Z</time></trkpt><trkpt lat="43.6692378" lon="12.954607"><ele>137.0</ele><time>2026-04-11T08:54:00.542Z</time></trkpt><trkpt lat="43.6691496" lon="12.9545911"><ele>137.33333333333334</ele><time>2026-04-11T08:54:02.542Z</time></trkpt><trkpt lat="43.6690237" lon="12.9545615"><ele>137.66666666666666</ele><time>2026-04-11T08:54:04.543Z</time></trkpt><trkpt lat="43.6689499" lon="12.9545408"><ele>138.0</ele><time>2026-04-11T08:54:05.544Z</time></trkpt><trkpt lat="43.6688713" lon="12.9545215"><ele>138.0</ele><time>2026-04-11T08:54:06.542Z</time></trkpt><trkpt lat="43.6687793" lon="12.9544965"><ele>138.0</ele><time>2026-04-11T08:54:07.543Z</time></trkpt><trkpt lat="43.6686832" lon="12.9544704"><ele>138.0</ele><time>2026-04-11T08:54:08.543Z</time></trkpt><trkpt lat="43.6685859" lon="12.9544443"><ele>138.0</ele><time>2026-04-11T08:54:09.544Z</time></trkpt><trkpt lat="43.6684896" lon="12.954425"><ele>138.0</ele><time>2026-04-11T08:54:10.542Z</time></trkpt><trkpt lat="43.6683854" lon="12.9544066"><ele>138.6</ele><time>2026-04-11T08:54:11.544Z</time></trkpt><trkpt lat="43.6682856" lon="12.9543681"><ele>139.20000000000002</ele><time>2026-04-11T08:54:12.542Z</time></trkpt><trkpt lat="43.668178" lon="12.9543144"><ele>139.8</ele><time>2026-04-11T08:54:13.543Z</time></trkpt><trkpt lat="43.6680775" lon="12.9542576"><ele>140.4</ele><time>2026-04-11T08:54:14.543Z</time></trkpt><trkpt lat="43.6679803" lon="12.9542103"><ele>141.0</ele><time>2026-04-11T08:54:15.542Z</time></trkpt><trkpt lat="43.6678822" lon="12.9541617"><ele>141.0</ele><time>2026-04-11T08:54:16.542Z</time></trkpt><trkpt lat="43.6677871" lon="12.9541155"><ele>141.0</ele><time>2026-04-11T08:54:17.543Z</time></trkpt><trkpt lat="43.6677019" lon="12.9540755"><ele>141.0</ele><time>2026-04-11T08:54:18.542Z</time></trkpt><trkpt lat="43.667617" lon="12.9540362"><ele>141.0</ele><time>2026-04-11T08:54:19.543Z</time></trkpt><trkpt lat="43.6675346" lon="12.953997"><ele>141.0</ele><time>2026-04-11T08:54:20.543Z</time></trkpt><trkpt lat="43.6674537" lon="12.953959"><ele>141.0</ele><time>2026-04-11T08:54:21.543Z</time></trkpt><trkpt lat="43.6673751" lon="12.9539315"><ele>141.0</ele><time>2026-04-11T08:54:22.544Z</time></trkpt><trkpt lat="43.6672981" lon="12.953914"><ele>141.0</ele><time>2026-04-11T08:54:23.542Z</time></trkpt><trkpt lat="43.6672326" lon="12.9538971"><ele>141.0</ele><time>2026-04-11T08:54:24.543Z</time></trkpt><trkpt lat="43.6671636" lon="12.9538661"><ele>141.0</ele><time>2026-04-11T08:54:25.543Z</time></trkpt><trkpt lat="43.6670958" lon="12.9538179"><ele>141.0</ele><time>2026-04-11T08:54:26.543Z</time></trkpt><trkpt lat="43.6670259" lon="12.9537633"><ele>141.0</ele><time>2026-04-11T08:54:27.542Z</time></trkpt><trkpt lat="43.666953" lon="12.9537103"><ele>141.0</ele><time>2026-04-11T08:54:28.544Z</time></trkpt><trkpt lat="43.6668743" lon="12.9536561"><ele>141.0</ele><time>2026-04-11T08:54:29.544Z</time></trkpt><trkpt lat="43.666785" lon="12.9536057"><ele>141.0</ele><time>2026-04-11T08:54:30.543Z</time></trkpt><trkpt lat="43.6666785" lon="12.9535539"><ele>141.0</ele><time>2026-04-11T08:54:31.542Z</time></trkpt><trkpt lat="43.6665725" lon="12.9535026"><ele>140.8</ele><time>2026-04-11T08:54:32.543Z</time></trkpt><trkpt lat="43.6664706" lon="12.9534549"><ele>140.6</ele><time>2026-04-11T08:54:33.544Z</time></trkpt><trkpt lat="43.6663764" lon="12.9534077"><ele>140.4</ele><time>2026-04-11T08:54:34.542Z</time></trkpt><trkpt lat="43.6662864" lon="12.9533626"><ele>140.2</ele><time>2026-04-11T08:54:35.543Z</time></trkpt><trkpt lat="43.6661916" lon="12.9533152"><ele>140.0</ele><time>2026-04-11T08:54:36.543Z</time></trkpt><trkpt lat="43.6660964" lon="12.9532726"><ele>141.16666666666666</ele><time>2026-04-11T08:54:37.544Z</time></trkpt><trkpt lat="43.6659997" lon="12.9532351"><ele>142.33333333333331</ele><time>2026-04-11T08:54:38.543Z</time></trkpt><trkpt lat="43.6659092" lon="12.9531934"><ele>143.5</ele><time>2026-04-11T08:54:39.541Z</time></trkpt><trkpt lat="43.665828" lon="12.9531536"><ele>144.66666666666666</ele><time>2026-04-11T08:54:40.544Z</time></trkpt><trkpt lat="43.6657609" lon="12.9531224"><ele>145.83333333333334</ele><time>2026-04-11T08:54:41.543Z</time></trkpt><trkpt lat="43.6656793" lon="12.9530877"><ele>147.0</ele><time>2026-04-11T08:54:43.543Z</time></trkpt><trkpt lat="43.6656141" lon="12.9530302"><ele>147.0</ele><time>2026-04-11T08:54:46.543Z</time></trkpt><trkpt lat="43.6656387" lon="12.9529383"><ele>147.0</ele><time>2026-04-11T08:54:49.543Z</time></trkpt><trkpt lat="43.6657232" lon="12.9528758"><ele>147.0</ele><time>2026-04-11T08:54:51.543Z</time></trkpt><trkpt lat="43.6658164" lon="12.9527977"><ele>147.0</ele><time>2026-04-11T08:54:53.544Z</time></trkpt><trkpt lat="43.6658687" lon="12.9527445"><ele>147.0</ele><time>2026-04-11T08:54:54.544Z</time></trkpt><trkpt lat="43.6659519" lon="12.9526608"><ele>147.0</ele><time>2026-04-11T08:54:56.543Z</time></trkpt><trkpt lat="43.6660347" lon="12.9525845"><ele>149.0</ele><time>2026-04-11T08:54:58.544Z</time></trkpt><trkpt lat="43.6661486" lon="12.9524727"><ele>151.0</ele><time>2026-04-11T08:55:00.543Z</time></trkpt><trkpt lat="43.6662179" lon="12.9524013"><ele>153.0</ele><time>2026-04-11T08:55:01.544Z</time></trkpt><trkpt lat="43.6663" lon="12.9523172"><ele>155.0</ele><time>2026-04-11T08:55:02.543Z</time></trkpt><trkpt lat="43.6663857" lon="12.952232"><ele>157.0</ele><time>2026-04-11T08:55:03.542Z</time></trkpt><trkpt lat="43.6664765" lon="12.9521471"><ele>157.0</ele><time>2026-04-11T08:55:04.542Z</time></trkpt><trkpt lat="43.666571" lon="12.9520441"><ele>157.0</ele><time>2026-04-11T08:55:05.542Z</time></trkpt><trkpt lat="43.6666649" lon="12.951937"><ele>157.0</ele><time>2026-04-11T08:55:06.542Z</time></trkpt><trkpt lat="43.666746" lon="12.9518164"><ele>157.0</ele><time>2026-04-11T08:55:07.543Z</time></trkpt><trkpt lat="43.6668287" lon="12.951674"><ele>159.25</ele><time>2026-04-11T08:55:08.544Z</time></trkpt><trkpt lat="43.6669111" lon="12.9515207"><ele>161.5</ele><time>2026-04-11T08:55:09.543Z</time></trkpt><trkpt lat="43.6669862" lon="12.9513597"><ele>163.75</ele><time>2026-04-11T08:55:10.544Z</time></trkpt><trkpt lat="43.667064" lon="12.9512106"><ele>166.0</ele><time>2026-04-11T08:55:11.543Z</time></trkpt><trkpt lat="43.6671333" lon="12.9510602"><ele>166.25</ele><time>2026-04-11T08:55:12.542Z</time></trkpt><trkpt lat="43.6672014" lon="12.9509004"><ele>166.5</ele><time>2026-04-11T08:55:13.543Z</time></trkpt><trkpt lat="43.6672704" lon="12.9507339"><ele>166.75</ele><time>2026-04-11T08:55:14.542Z</time></trkpt><trkpt lat="43.6673407" lon="12.9505675"><ele>167.0</ele><time>2026-04-11T08:55:15.544Z</time></trkpt><trkpt lat="43.6674032" lon="12.9504011"><ele>168.25</ele><time>2026-04-11T08:55:16.543Z</time></trkpt><trkpt lat="43.6674695" lon="12.9502359"><ele>169.5</ele><time>2026-04-11T08:55:17.544Z</time></trkpt><trkpt lat="43.6675319" lon="12.9500723"><ele>170.75</ele><time>2026-04-11T08:55:18.543Z</time></trkpt><trkpt lat="43.6675906" lon="12.9499158"><ele>172.0</ele><time>2026-04-11T08:55:19.543Z</time></trkpt><trkpt lat="43.6676608" lon="12.9497635"><ele>173.0</ele><time>2026-04-11T08:55:20.542Z</time></trkpt><trkpt lat="43.6677383" lon="12.9496128"><ele>174.0</ele><time>2026-04-11T08:55:21.542Z</time></trkpt><trkpt lat="43.6678239" lon="12.9494625"><ele>175.0</ele><time>2026-04-11T08:55:22.544Z</time></trkpt><trkpt lat="43.6679041" lon="12.9493071"><ele>176.0</ele><time>2026-04-11T08:55:23.544Z</time></trkpt><trkpt lat="43.6679962" lon="12.9491479"><ele>177.75</ele><time>2026-04-11T08:55:24.543Z</time></trkpt><trkpt lat="43.6680903" lon="12.9489966"><ele>179.5</ele><time>2026-04-11T08:55:25.543Z</time></trkpt><trkpt lat="43.6681855" lon="12.948853"><ele>181.25</ele><time>2026-04-11T08:55:26.543Z</time></trkpt><trkpt lat="43.6682754" lon="12.9487129"><ele>183.0</ele><time>2026-04-11T08:55:27.543Z</time></trkpt><trkpt lat="43.6683643" lon="12.9485738"><ele>183.0</ele><time>2026-04-11T08:55:28.542Z</time></trkpt><trkpt lat="43.6684567" lon="12.9484386"><ele>183.0</ele><time>2026-04-11T08:55:29.543Z</time></trkpt><trkpt lat="43.6685475" lon="12.9482969"><ele>183.0</ele><time>2026-04-11T08:55:30.542Z</time></trkpt><trkpt lat="43.6686397" lon="12.9481542"><ele>183.0</ele><time>2026-04-11T08:55:31.542Z</time></trkpt><trkpt lat="43.6687287" lon="12.9480189"><ele>182.5</ele><time>2026-04-11T08:55:32.544Z</time></trkpt><trkpt lat="43.6688219" lon="12.9478856"><ele>182.0</ele><time>2026-04-11T08:55:33.543Z</time></trkpt><trkpt lat="43.6689073" lon="12.9477508"><ele>181.5</ele><time>2026-04-11T08:55:34.544Z</time></trkpt><trkpt lat="43.6689897" lon="12.9476195"><ele>181.0</ele><time>2026-04-11T08:55:35.543Z</time></trkpt><trkpt lat="43.6690661" lon="12.9474891"><ele>183.25</ele><time>2026-04-11T08:55:36.544Z</time></trkpt><trkpt lat="43.6691358" lon="12.9473691"><ele>185.5</ele><time>2026-04-11T08:55:37.543Z</time></trkpt><trkpt lat="43.6692016" lon="12.9472326"><ele>187.75</ele><time>2026-04-11T08:55:38.544Z</time></trkpt><trkpt lat="43.669258" lon="12.9470807"><ele>190.0</ele><time>2026-04-11T08:55:39.543Z</time></trkpt><trkpt lat="43.6693157" lon="12.9469269"><ele>190.0</ele><time>2026-04-11T08:55:40.543Z</time></trkpt><trkpt lat="43.6693742" lon="12.9467707"><ele>190.0</ele><time>2026-04-11T08:55:41.542Z</time></trkpt><trkpt lat="43.6694243" lon="12.9466174"><ele>190.0</ele><time>2026-04-11T08:55:42.542Z</time></trkpt><trkpt lat="43.6694667" lon="12.9464705"><ele>190.0</ele><time>2026-04-11T08:55:43.542Z</time></trkpt><trkpt lat="43.6694963" lon="12.9463291"><ele>189.75</ele><time>2026-04-11T08:55:44.543Z</time></trkpt><trkpt lat="43.6695123" lon="12.9461809"><ele>189.5</ele><time>2026-04-11T08:55:45.542Z</time></trkpt><trkpt lat="43.6695143" lon="12.9460279"><ele>189.25</ele><time>2026-04-11T08:55:46.544Z</time></trkpt><trkpt lat="43.6695106" lon="12.9458694"><ele>189.0</ele><time>2026-04-11T08:55:47.543Z</time></trkpt><trkpt lat="43.6694961" lon="12.9457066"><ele>192.25</ele><time>2026-04-11T08:55:48.543Z</time></trkpt><trkpt lat="43.6694808" lon="12.945537"><ele>195.5</ele><time>2026-04-11T08:55:49.544Z</time></trkpt><trkpt lat="43.6694656" lon="12.9453603"><ele>198.75</ele><time>2026-04-11T08:55:50.542Z</time></trkpt><trkpt lat="43.669451" lon="12.9451782"><ele>202.0</ele><time>2026-04-11T08:55:51.543Z</time></trkpt><trkpt lat="43.669435" lon="12.9450018"><ele>204.75</ele><time>2026-04-11T08:55:52.543Z</time></trkpt><trkpt lat="43.6694219" lon="12.9448243"><ele>207.5</ele><time>2026-04-11T08:55:53.542Z</time></trkpt><trkpt lat="43.6694093" lon="12.9446411"><ele>210.25</ele><time>2026-04-11T08:55:54.544Z</time></trkpt><trkpt lat="43.6693996" lon="12.9444529"><ele>213.0</ele><time>2026-04-11T08:55:55.544Z</time></trkpt><trkpt lat="43.6693952" lon="12.94427"><ele>213.5</ele><time>2026-04-11T08:55:56.544Z</time></trkpt><trkpt lat="43.6693964" lon="12.9440811"><ele>214.0</ele><time>2026-04-11T08:55:57.543Z</time></trkpt><trkpt lat="43.6694137" lon="12.9438963"><ele>214.5</ele><time>2026-04-11T08:55:58.542Z</time></trkpt><trkpt lat="43.6694394" lon="12.9437057"><ele>215.0</ele><time>2026-04-11T08:55:59.544Z</time></trkpt><trkpt lat="43.6694619" lon="12.9435065"><ele>217.33333333333334</ele><time>2026-04-11T08:56:00.543Z</time></trkpt><trkpt lat="43.6694893" lon="12.9432969"><ele>219.66666666666669</ele><time>2026-04-11T08:56:01.544Z</time></trkpt><trkpt lat="43.6695177" lon="12.9430845"><ele>222.0</ele><time>2026-04-11T08:56:02.543Z</time></trkpt><trkpt lat="43.6695496" lon="12.9428692"><ele>222.0</ele><time>2026-04-11T08:56:03.544Z</time></trkpt><trkpt lat="43.669586" lon="12.9426408"><ele>222.0</ele><time>2026-04-11T08:56:04.542Z</time></trkpt><trkpt lat="43.6696185" lon="12.9424168"><ele>222.0</ele><time>2026-04-11T08:56:05.541Z</time></trkpt><trkpt lat="43.6696507" lon="12.9422079"><ele>224.0</ele><time>2026-04-11T08:56:06.544Z</time></trkpt><trkpt lat="43.6696819" lon="12.9420235"><ele>226.0</ele><time>2026-04-11T08:56:07.542Z</time></trkpt><trkpt lat="43.6697033" lon="12.9418539"><ele>228.0</ele><time>2026-04-11T08:56:08.541Z</time></trkpt><trkpt lat="43.6697122" lon="12.9416803"><ele>230.0</ele><time>2026-04-11T08:56:09.544Z</time></trkpt><trkpt lat="43.6697054" lon="12.941504"><ele>232.25</ele><time>2026-04-11T08:56:10.543Z</time></trkpt><trkpt lat="43.6696858" lon="12.9413401"><ele>234.5</ele><time>2026-04-11T08:56:11.544Z</time></trkpt><trkpt lat="43.66965" lon="12.9411748"><ele>236.75</ele><time>2026-04-11T08:56:12.543Z</time></trkpt><trkpt lat="43.6696099" lon="12.9410033"><ele>239.0</ele><time>2026-04-11T08:56:13.543Z</time></trkpt><trkpt lat="43.6695603" lon="12.9408158"><ele>241.33333333333334</ele><time>2026-04-11T08:56:14.544Z</time></trkpt><trkpt lat="43.6695105" lon="12.9406098"><ele>243.66666666666669</ele><time>2026-04-11T08:56:15.543Z</time></trkpt><trkpt lat="43.6694536" lon="12.9403909"><ele>246.0</ele><time>2026-04-11T08:56:16.542Z</time></trkpt><trkpt lat="43.6693953" lon="12.9401589"><ele>249.33333333333331</ele><time>2026-04-11T08:56:17.544Z</time></trkpt><trkpt lat="43.669333" lon="12.9399414"><ele>252.66666666666666</ele><time>2026-04-11T08:56:18.543Z</time></trkpt><trkpt lat="43.6692716" lon="12.9397442"><ele>256.0</ele><time>2026-04-11T08:56:19.542Z</time></trkpt><trkpt lat="43.6692221" lon="12.9395674"><ele>256.0</ele><time>2026-04-11T08:56:20.543Z</time></trkpt><trkpt lat="43.669187" lon="12.9394092"><ele>256.0</ele><time>2026-04-11T08:56:21.542Z</time></trkpt><trkpt lat="43.6691665" lon="12.9392611"><ele>256.0</ele><time>2026-04-11T08:56:22.542Z</time></trkpt><trkpt lat="43.6691511" lon="12.9391264"><ele>256.0</ele><time>2026-04-11T08:56:23.543Z</time></trkpt><trkpt lat="43.6691438" lon="12.9390084"><ele>256.0</ele><time>2026-04-11T08:56:24.543Z</time></trkpt><trkpt lat="43.6691444" lon="12.9389073"><ele>258.40000000000003</ele><time>2026-04-11T08:56:25.543Z</time></trkpt><trkpt lat="43.6691827" lon="12.9387757"><ele>260.8</ele><time>2026-04-11T08:56:27.543Z</time></trkpt><trkpt lat="43.669275" lon="12.9387814"><ele>263.20000000000005</ele><time>2026-04-11T08:56:29.541Z</time></trkpt><trkpt lat="43.6693558" lon="12.9388412"><ele>265.6</ele><time>2026-04-11T08:56:30.542Z</time></trkpt><trkpt lat="43.6694656" lon="12.9389284"><ele>268.0</ele><time>2026-04-11T08:56:31.542Z</time></trkpt><trkpt lat="43.66958" lon="12.9390165"><ele>266.66666666666663</ele><time>2026-04-11T08:56:32.543Z</time></trkpt><trkpt lat="43.6697119" lon="12.9391073"><ele>265.3333333333333</ele><time>2026-04-11T08:56:33.543Z</time></trkpt><trkpt lat="43.6698687" lon="12.9391873"><ele>264.0</ele><time>2026-04-11T08:56:34.543Z</time></trkpt><trkpt lat="43.6700318" lon="12.9392498"><ele>264.0</ele><time>2026-04-11T08:56:35.543Z</time></trkpt><trkpt lat="43.6701993" lon="12.9393055"><ele>264.0</ele><time>2026-04-11T08:56:36.542Z</time></trkpt><trkpt lat="43.6703592" lon="12.9393549"><ele>264.0</ele><time>2026-04-11T08:56:37.544Z</time></trkpt><trkpt lat="43.6705007" lon="12.9393942"><ele>264.25</ele><time>2026-04-11T08:56:38.544Z</time></trkpt><trkpt lat="43.6706301" lon="12.939429"><ele>264.5</ele><time>2026-04-11T08:56:39.544Z</time></trkpt><trkpt lat="43.6707603" lon="12.9394622"><ele>264.75</ele><time>2026-04-11T08:56:40.542Z</time></trkpt><trkpt lat="43.6708974" lon="12.9394972"><ele>265.0</ele><time>2026-04-11T08:56:41.543Z</time></trkpt><trkpt lat="43.671034" lon="12.9395307"><ele>264.3333333333333</ele><time>2026-04-11T08:56:42.543Z</time></trkpt><trkpt lat="43.6711813" lon="12.9395648"><ele>263.6666666666667</ele><time>2026-04-11T08:56:43.543Z</time></trkpt><trkpt lat="43.6713338" lon="12.9396022"><ele>263.0</ele><time>2026-04-11T08:56:44.543Z</time></trkpt><trkpt lat="43.6714913" lon="12.9396381"><ele>263.0</ele><time>2026-04-11T08:56:45.542Z</time></trkpt><trkpt lat="43.6716475" lon="12.9396815"><ele>263.0</ele><time>2026-04-11T08:56:46.542Z</time></trkpt><trkpt lat="43.6717977" lon="12.9397196"><ele>263.0</ele><time>2026-04-11T08:56:47.543Z</time></trkpt><trkpt lat="43.671938" lon="12.9397558"><ele>261.75</ele><time>2026-04-11T08:56:48.542Z</time></trkpt><trkpt lat="43.6720746" lon="12.9397852"><ele>260.5</ele><time>2026-04-11T08:56:49.542Z</time></trkpt><trkpt lat="43.6722049" lon="12.9398217"><ele>259.25</ele><time>2026-04-11T08:56:50.543Z</time></trkpt><trkpt lat="43.6723283" lon="12.9398555"><ele>258.0</ele><time>2026-04-11T08:56:51.542Z</time></trkpt><trkpt lat="43.6724417" lon="12.9398977"><ele>258.0</ele><time>2026-04-11T08:56:52.542Z</time></trkpt><trkpt lat="43.6725489" lon="12.9399352"><ele>258.0</ele><time>2026-04-11T08:56:53.542Z</time></trkpt><trkpt lat="43.6726535" lon="12.9399748"><ele>258.0</ele><time>2026-04-11T08:56:54.543Z</time></trkpt><trkpt lat="43.6727472" lon="12.9400258"><ele>258.0</ele><time>2026-04-11T08:56:55.542Z</time></trkpt><trkpt lat="43.6728348" lon="12.9400924"><ele>258.0</ele><time>2026-04-11T08:56:56.542Z</time></trkpt><trkpt lat="43.6729125" lon="12.9401643"><ele>255.8</ele><time>2026-04-11T08:56:57.544Z</time></trkpt><trkpt lat="43.6729751" lon="12.9402338"><ele>253.60000000000002</ele><time>2026-04-11T08:56:58.544Z</time></trkpt><trkpt lat="43.6730323" lon="12.9402891"><ele>251.39999999999998</ele><time>2026-04-11T08:56:59.543Z</time></trkpt><trkpt lat="43.6731262" lon="12.9403969"><ele>249.2</ele><time>2026-04-11T08:57:01.543Z</time></trkpt><trkpt lat="43.6732088" lon="12.9404514"><ele>247.0</ele><time>2026-04-11T08:57:03.543Z</time></trkpt><trkpt lat="43.6732868" lon="12.9403951"><ele>246.99999999999997</ele><time>2026-04-11T08:57:06.543Z</time></trkpt><trkpt lat="43.6733028" lon="12.9402695"><ele>247.0</ele><time>2026-04-11T08:57:08.543Z</time></trkpt><trkpt lat="43.6732995" lon="12.940178"><ele>247.0</ele><time>2026-04-11T08:57:09.541Z</time></trkpt><trkpt lat="43.6732913" lon="12.9400673"><ele>247.0</ele><time>2026-04-11T08:57:10.543Z</time></trkpt><trkpt lat="43.6732848" lon="12.9399403"><ele>246.99999999999997</ele><time>2026-04-11T08:57:11.543Z</time></trkpt><trkpt lat="43.6732808" lon="12.9398108"><ele>247.0</ele><time>2026-04-11T08:57:12.544Z</time></trkpt><trkpt lat="43.6732728" lon="12.9396718"><ele>248.25</ele><time>2026-04-11T08:57:13.543Z</time></trkpt><trkpt lat="43.6732631" lon="12.9395148"><ele>249.5</ele><time>2026-04-11T08:57:14.544Z</time></trkpt><trkpt lat="43.6732545" lon="12.9393476"><ele>250.75</ele><time>2026-04-11T08:57:15.542Z</time></trkpt><trkpt lat="43.6732418" lon="12.9391696"><ele>252.0</ele><time>2026-04-11T08:57:16.543Z</time></trkpt><trkpt lat="43.6732169" lon="12.9389802"><ele>253.25</ele><time>2026-04-11T08:57:17.543Z</time></trkpt><trkpt lat="43.6731957" lon="12.9387967"><ele>254.5</ele><time>2026-04-11T08:57:18.543Z</time></trkpt><trkpt lat="43.673157" lon="12.9386274"><ele>255.75</ele><time>2026-04-11T08:57:19.543Z</time></trkpt><trkpt lat="43.6731011" lon="12.9384789"><ele>257.0</ele><time>2026-04-11T08:57:20.543Z</time></trkpt><trkpt lat="43.673026" lon="12.9383467"><ele>257.2</ele><time>2026-04-11T08:57:21.544Z</time></trkpt><trkpt lat="43.6729348" lon="12.9382349"><ele>257.4</ele><time>2026-04-11T08:57:22.542Z</time></trkpt><trkpt lat="43.6728476" lon="12.9381447"><ele>257.6</ele><time>2026-04-11T08:57:23.544Z</time></trkpt><trkpt lat="43.6727699" lon="12.9380688"><ele>257.8</ele><time>2026-04-11T08:57:24.544Z</time></trkpt><trkpt lat="43.6727068" lon="12.93801"><ele>258.0</ele><time>2026-04-11T08:57:25.544Z</time></trkpt><trkpt lat="43.6726543" lon="12.9379601"><ele>257.99999999999994</ele><time>2026-04-11T08:57:26.543Z</time></trkpt><trkpt lat="43.672583" lon="12.9378888"><ele>258.0</ele><time>2026-04-11T08:57:28.542Z</time></trkpt><trkpt lat="43.6725782" lon="12.9377957"><ele>258.0</ele><time>2026-04-11T08:57:33.543Z</time></trkpt><trkpt lat="43.6726586" lon="12.9378537"><ele>258.0</ele><time>2026-04-11T08:57:36.543Z</time></trkpt><trkpt lat="43.6727123" lon="12.9379007"><ele>258.0</ele><time>2026-04-11T08:57:37.543Z</time></trkpt><trkpt lat="43.6727703" lon="12.9379438"><ele>257.99999999999994</ele><time>2026-04-11T08:57:38.542Z</time></trkpt><trkpt lat="43.6728383" lon="12.9379819"><ele>258.0</ele><time>2026-04-11T08:57:39.543Z</time></trkpt><trkpt lat="43.6729108" lon="12.9380145"><ele>258.0</ele><time>2026-04-11T08:57:40.543Z</time></trkpt><trkpt lat="43.6729762" lon="12.9380444"><ele>258.0</ele><time>2026-04-11T08:57:41.543Z</time></trkpt><trkpt lat="43.6730807" lon="12.9380817"><ele>258.0</ele><time>2026-04-11T08:57:43.543Z</time></trkpt><trkpt lat="43.6731572" lon="12.9381083"><ele>258.0</ele><time>2026-04-11T08:57:45.542Z</time></trkpt><trkpt lat="43.6732209" lon="12.9381122"><ele>258.0</ele><time>2026-04-11T08:57:47.543Z</time></trkpt><trkpt lat="43.6732948" lon="12.9381008"><ele>258.0</ele><time>2026-04-11T08:58:14.542Z</time></trkpt><trkpt lat="43.673397" lon="12.9380964"><ele>258.0</ele><time>2026-04-11T08:58:16.541Z</time></trkpt><trkpt lat="43.6734709" lon="12.9380904"><ele>258.0</ele><time>2026-04-11T08:58:17.543Z</time></trkpt><trkpt lat="43.6735567" lon="12.9380807"><ele>258.0</ele><time>2026-04-11T08:58:18.541Z</time></trkpt><trkpt lat="43.673654" lon="12.9380709"><ele>258.0</ele><time>2026-04-11T08:58:19.543Z</time></trkpt><trkpt lat="43.673759" lon="12.9380579"><ele>258.0</ele><time>2026-04-11T08:58:20.543Z</time></trkpt><trkpt lat="43.6738778" lon="12.9380551"><ele>253.75</ele><time>2026-04-11T08:58:21.543Z</time></trkpt><trkpt lat="43.674001" lon="12.9380467"><ele>249.5</ele><time>2026-04-11T08:58:22.542Z</time></trkpt><trkpt lat="43.6741294" lon="12.9380406"><ele>245.25</ele><time>2026-04-11T08:58:23.543Z</time></trkpt><trkpt lat="43.6742624" lon="12.9380324"><ele>241.0</ele><time>2026-04-11T08:58:24.541Z</time></trkpt><trkpt lat="43.6743969" lon="12.938025"><ele>239.5</ele><time>2026-04-11T08:58:25.542Z</time></trkpt><trkpt lat="43.6745334" lon="12.9380097"><ele>238.0</ele><time>2026-04-11T08:58:26.543Z</time></trkpt><trkpt lat="43.6746655" lon="12.9380032"><ele>236.5</ele><time>2026-04-11T08:58:27.544Z</time></trkpt><trkpt lat="43.6747841" lon="12.9379952"><ele>235.0</ele><time>2026-04-11T08:58:28.543Z</time></trkpt><trkpt lat="43.6749137" lon="12.9379852"><ele>235.0</ele><time>2026-04-11T08:58:29.544Z</time></trkpt><trkpt lat="43.6750223" lon="12.9379671"><ele>235.0</ele><time>2026-04-11T08:58:30.542Z</time></trkpt><trkpt lat="43.6751273" lon="12.9379442"><ele>235.0</ele><time>2026-04-11T08:58:31.544Z</time></trkpt><trkpt lat="43.6752226" lon="12.9379174"><ele>235.0</ele><time>2026-04-11T08:58:32.542Z</time></trkpt><trkpt lat="43.6753185" lon="12.9378832"><ele>235.0</ele><time>2026-04-11T08:58:33.542Z</time></trkpt><trkpt lat="43.6754085" lon="12.9378394"><ele>231.8</ele><time>2026-04-11T08:58:34.542Z</time></trkpt><trkpt lat="43.675492" lon="12.9377933"><ele>228.6</ele><time>2026-04-11T08:58:35.543Z</time></trkpt><trkpt lat="43.6755733" lon="12.9377616"><ele>225.39999999999998</ele><time>2026-04-11T08:58:36.543Z</time></trkpt><trkpt lat="43.6756618" lon="12.9377499"><ele>222.2</ele><time>2026-04-11T08:58:37.542Z</time></trkpt><trkpt lat="43.6757611" lon="12.9377533"><ele>219.0</ele><time>2026-04-11T08:58:38.543Z</time></trkpt><trkpt lat="43.6758601" lon="12.9377799"><ele>219.0</ele><time>2026-04-11T08:58:39.543Z</time></trkpt><trkpt lat="43.675981" lon="12.9378184"><ele>219.0</ele><time>2026-04-11T08:58:40.542Z</time></trkpt><trkpt lat="43.6760972" lon="12.9378682"><ele>219.0</ele><time>2026-04-11T08:58:41.544Z</time></trkpt><trkpt lat="43.676224" lon="12.9379072"><ele>219.0</ele><time>2026-04-11T08:58:42.543Z</time></trkpt><trkpt lat="43.6763669" lon="12.9379275"><ele>215.0</ele><time>2026-04-11T08:58:43.543Z</time></trkpt><trkpt lat="43.6765112" lon="12.9379219"><ele>211.0</ele><time>2026-04-11T08:58:44.543Z</time></trkpt><trkpt lat="43.6766887" lon="12.9378983"><ele>207.0</ele><time>2026-04-11T08:58:45.544Z</time></trkpt><trkpt lat="43.6769004" lon="12.9378641"><ele>206.33333333333331</ele><time>2026-04-11T08:58:46.543Z</time></trkpt><trkpt lat="43.6770956" lon="12.9378341"><ele>205.66666666666666</ele><time>2026-04-11T08:58:47.544Z</time></trkpt><trkpt lat="43.6773103" lon="12.937816"><ele>205.0</ele><time>2026-04-11T08:58:48.543Z</time></trkpt><trkpt lat="43.6775542" lon="12.9378211"><ele>204.66666666666666</ele><time>2026-04-11T08:58:49.542Z</time></trkpt><trkpt lat="43.6777735" lon="12.937843"><ele>204.33333333333331</ele><time>2026-04-11T08:58:50.543Z</time></trkpt><trkpt lat="43.6779921" lon="12.9378684"><ele>204.0</ele><time>2026-04-11T08:58:51.543Z</time></trkpt><trkpt lat="43.6781928" lon="12.9378856"><ele>204.0</ele><time>2026-04-11T08:58:52.544Z</time></trkpt><trkpt lat="43.6783729" lon="12.9378966"><ele>204.0</ele><time>2026-04-11T08:58:53.543Z</time></trkpt><trkpt lat="43.6785443" lon="12.9378969"><ele>204.0</ele><time>2026-04-11T08:58:54.544Z</time></trkpt><trkpt lat="43.6786684" lon="12.9378974"><ele>202.2</ele><time>2026-04-11T08:58:55.542Z</time></trkpt><trkpt lat="43.6787776" lon="12.937895"><ele>200.39999999999998</ele><time>2026-04-11T08:58:56.544Z</time></trkpt><trkpt lat="43.6788725" lon="12.9378674"><ele>198.6</ele><time>2026-04-11T08:58:57.541Z</time></trkpt><trkpt lat="43.6789557" lon="12.9378257"><ele>196.8</ele><time>2026-04-11T08:58:58.543Z</time></trkpt><trkpt lat="43.6790334" lon="12.9377593"><ele>195.0</ele><time>2026-04-11T08:58:59.543Z</time></trkpt><trkpt lat="43.6790962" lon="12.9376787"><ele>195.0</ele><time>2026-04-11T08:59:00.543Z</time></trkpt><trkpt lat="43.6791931" lon="12.9375573"><ele>195.0</ele><time>2026-04-11T08:59:01.541Z</time></trkpt><trkpt lat="43.6792703" lon="12.9374256"><ele>195.0</ele><time>2026-04-11T08:59:02.542Z</time></trkpt><trkpt lat="43.6793351" lon="12.9373087"><ele>195.0</ele><time>2026-04-11T08:59:03.544Z</time></trkpt><trkpt lat="43.6794054" lon="12.9371863"><ele>193.0</ele><time>2026-04-11T08:59:04.543Z</time></trkpt><trkpt lat="43.6794396" lon="12.9370767"><ele>191.0</ele><time>2026-04-11T08:59:05.544Z</time></trkpt><trkpt lat="43.6795094" lon="12.9369605"><ele>189.0</ele><time>2026-04-11T08:59:06.543Z</time></trkpt><trkpt lat="43.6795822" lon="12.9368428"><ele>187.0</ele><time>2026-04-11T08:59:07.544Z</time></trkpt><trkpt lat="43.6796478" lon="12.9367204"><ele>185.0</ele><time>2026-04-11T08:59:08.544Z</time></trkpt><trkpt lat="43.6796974" lon="12.9366062"><ele>185.0</ele><time>2026-04-11T08:59:09.542Z</time></trkpt><trkpt lat="43.6797379" lon="12.9364855"><ele>185.0</ele><time>2026-04-11T08:59:10.543Z</time></trkpt><trkpt lat="43.6797706" lon="12.9363628"><ele>185.0</ele><time>2026-04-11T08:59:11.542Z</time></trkpt><trkpt lat="43.6797955" lon="12.9362388"><ele>185.0</ele><time>2026-04-11T08:59:12.544Z</time></trkpt><trkpt lat="43.6798194" lon="12.9361177"><ele>185.0</ele><time>2026-04-11T08:59:13.543Z</time></trkpt><trkpt lat="43.6798515" lon="12.9359973"><ele>185.0</ele><time>2026-04-11T08:59:14.542Z</time></trkpt><trkpt lat="43.6799012" lon="12.9358874"><ele>185.0</ele><time>2026-04-11T08:59:15.542Z</time></trkpt><trkpt lat="43.6799754" lon="12.9357818"><ele>185.0</ele><time>2026-04-11T08:59:16.541Z</time></trkpt><trkpt lat="43.6800767" lon="12.9356633"><ele>185.0</ele><time>2026-04-11T08:59:17.543Z</time></trkpt><trkpt lat="43.680197" lon="12.9355418"><ele>180.0</ele><time>2026-04-11T08:59:18.541Z</time></trkpt><trkpt lat="43.680332" lon="12.9354199"><ele>175.0</ele><time>2026-04-11T08:59:19.543Z</time></trkpt><trkpt lat="43.6804617" lon="12.9352997"><ele>170.0</ele><time>2026-04-11T08:59:20.543Z</time></trkpt><trkpt lat="43.6805799" lon="12.9351756"><ele>170.0</ele><time>2026-04-11T08:59:21.543Z</time></trkpt><trkpt lat="43.6806864" lon="12.9350578"><ele>170.0</ele><time>2026-04-11T08:59:22.543Z</time></trkpt><trkpt lat="43.6807929" lon="12.9349389"><ele>170.0</ele><time>2026-04-11T08:59:23.543Z</time></trkpt><trkpt lat="43.6808715" lon="12.9348413"><ele>170.0</ele><time>2026-04-11T08:59:24.544Z</time></trkpt><trkpt lat="43.6809531" lon="12.9347432"><ele>170.5</ele><time>2026-04-11T08:59:25.542Z</time></trkpt><trkpt lat="43.6810244" lon="12.9346646"><ele>171.0</ele><time>2026-04-11T08:59:26.543Z</time></trkpt><trkpt lat="43.6810936" lon="12.934607"><ele>171.5</ele><time>2026-04-11T08:59:27.542Z</time></trkpt><trkpt lat="43.6811607" lon="12.9345639"><ele>172.0</ele><time>2026-04-11T08:59:28.543Z</time></trkpt><trkpt lat="43.6812174" lon="12.9345205"><ele>172.5</ele><time>2026-04-11T08:59:29.543Z</time></trkpt><trkpt lat="43.6812793" lon="12.9344769"><ele>173.0</ele><time>2026-04-11T08:59:30.543Z</time></trkpt><trkpt lat="43.68134" lon="12.9344268"><ele>170.33333333333331</ele><time>2026-04-11T08:59:31.543Z</time></trkpt><trkpt lat="43.6814011" lon="12.9343671"><ele>167.66666666666666</ele><time>2026-04-11T08:59:32.543Z</time></trkpt><trkpt lat="43.6814511" lon="12.9342997"><ele>165.0</ele><time>2026-04-11T08:59:33.542Z</time></trkpt><trkpt lat="43.6814983" lon="12.9342239"><ele>162.33333333333334</ele><time>2026-04-11T08:59:34.542Z</time></trkpt><trkpt lat="43.6815242" lon="12.934126"><ele>159.66666666666669</ele><time>2026-04-11T08:59:35.544Z</time></trkpt><trkpt lat="43.6815487" lon="12.9340047"><ele>157.0</ele><time>2026-04-11T08:59:36.543Z</time></trkpt><trkpt lat="43.6815674" lon="12.933879"><ele>155.79999999999998</ele><time>2026-04-11T08:59:37.542Z</time></trkpt><trkpt lat="43.6815911" lon="12.9337543"><ele>154.6</ele><time>2026-04-11T08:59:38.543Z</time></trkpt><trkpt lat="43.6816108" lon="12.9336385"><ele>153.39999999999998</ele><time>2026-04-11T08:59:39.543Z</time></trkpt><trkpt lat="43.6816327" lon="12.9335363"><ele>152.2</ele><time>2026-04-11T08:59:40.542Z</time></trkpt><trkpt lat="43.6816959" lon="12.9334068"><ele>151.0</ele><time>2026-04-11T08:59:42.543Z</time></trkpt><trkpt lat="43.681809" lon="12.9333555"><ele>150.57142857142858</ele><time>2026-04-11T08:59:44.543Z</time></trkpt><trkpt lat="43.6818733" lon="12.9333219"><ele>150.14285714285714</ele><time>2026-04-11T08:59:45.543Z</time></trkpt><trkpt lat="43.6819401" lon="12.93329"><ele>149.71428571428572</ele><time>2026-04-11T08:59:46.541Z</time></trkpt><trkpt lat="43.682009" lon="12.9332515"><ele>149.28571428571428</ele><time>2026-04-11T08:59:47.543Z</time></trkpt><trkpt lat="43.6820853" lon="12.9332213"><ele>148.85714285714286</ele><time>2026-04-11T08:59:48.543Z</time></trkpt><trkpt lat="43.6821518" lon="12.933185"><ele>148.42857142857144</ele><time>2026-04-11T08:59:49.543Z</time></trkpt><trkpt lat="43.6822192" lon="12.9331605"><ele>148.0</ele><time>2026-04-11T08:59:50.542Z</time></trkpt><trkpt lat="43.6822999" lon="12.9331047"><ele>146.0</ele><time>2026-04-11T08:59:52.543Z</time></trkpt><trkpt lat="43.6823229" lon="12.9329839"><ele>144.0</ele><time>2026-04-11T08:59:54.543Z</time></trkpt><trkpt lat="43.6823045" lon="12.9328887"><ele>142.0</ele><time>2026-04-11T08:59:55.544Z</time></trkpt><trkpt lat="43.6822739" lon="12.9327749"><ele>140.0</ele><time>2026-04-11T08:59:56.542Z</time></trkpt><trkpt lat="43.6822459" lon="12.9326527"><ele>138.0</ele><time>2026-04-11T08:59:57.542Z</time></trkpt><trkpt lat="43.682223" lon="12.9325287"><ele>136.0</ele><time>2026-04-11T08:59:58.542Z</time></trkpt><trkpt lat="43.682196" lon="12.932407"><ele>135.2</ele><time>2026-04-11T08:59:59.542Z</time></trkpt><trkpt lat="43.6821744" lon="12.9323121"><ele>134.39999999999998</ele><time>2026-04-11T09:00:00.542Z</time></trkpt><trkpt lat="43.6821046" lon="12.9322056"><ele>133.6</ele><time>2026-04-11T09:00:02.543Z</time></trkpt><trkpt lat="43.6820337" lon="12.9321962"><ele>132.79999999999998</ele><time>2026-04-11T09:00:03.542Z</time></trkpt><trkpt lat="43.681938" lon="12.9322027"><ele>132.0</ele><time>2026-04-11T09:00:04.542Z</time></trkpt><trkpt lat="43.6818251" lon="12.9322272"><ele>134.0</ele><time>2026-04-11T09:00:05.543Z</time></trkpt><trkpt lat="43.6816958" lon="12.9322572"><ele>136.0</ele><time>2026-04-11T09:00:06.544Z</time></trkpt><trkpt lat="43.6815755" lon="12.932285"><ele>138.0</ele><time>2026-04-11T09:00:07.543Z</time></trkpt><trkpt lat="43.681468" lon="12.9323099"><ele>140.0</ele><time>2026-04-11T09:00:08.542Z</time></trkpt><trkpt lat="43.681365" lon="12.932336"><ele>140.0</ele><time>2026-04-11T09:00:09.544Z</time></trkpt><trkpt lat="43.6812681" lon="12.9323524"><ele>140.0</ele><time>2026-04-11T09:00:10.544Z</time></trkpt><trkpt lat="43.6811805" lon="12.9323562"><ele>140.0</ele><time>2026-04-11T09:00:11.543Z</time></trkpt><trkpt lat="43.6811058" lon="12.9323555"><ele>140.0</ele><time>2026-04-11T09:00:12.543Z</time></trkpt><trkpt lat="43.6810424" lon="12.9323497"><ele>140.0</ele><time>2026-04-11T09:00:13.543Z</time></trkpt><trkpt lat="43.6809591" lon="12.9323265"><ele>140.0</ele><time>2026-04-11T09:00:15.544Z</time></trkpt><trkpt lat="43.6809026" lon="12.9322663"><ele>140.0</ele><time>2026-04-11T09:00:26.544Z</time></trkpt><trkpt lat="43.6808852" lon="12.9321817"><ele>140.0</ele><time>2026-04-11T09:00:32.543Z</time></trkpt><trkpt lat="43.6808757" lon="12.9320807"><ele>140.0</ele><time>2026-04-11T09:00:36.544Z</time></trkpt><trkpt lat="43.6809085" lon="12.9319801"><ele>140.0</ele><time>2026-04-11T09:00:40.543Z</time></trkpt><trkpt lat="43.6809511" lon="12.9319151"><ele>140.0</ele><time>2026-04-11T09:00:42.542Z</time></trkpt><trkpt lat="43.6810067" lon="12.9318693"><ele>140.0</ele><time>2026-04-11T09:00:44.543Z</time></trkpt><trkpt lat="43.681074" lon="12.9318017"><ele>140.0</ele><time>2026-04-11T09:00:46.543Z</time></trkpt><trkpt lat="43.6811342" lon="12.9317169"><ele>139.0</ele><time>2026-04-11T09:00:48.543Z</time></trkpt><trkpt lat="43.6811709" lon="12.9316455"><ele>138.0</ele><time>2026-04-11T09:00:49.542Z</time></trkpt><trkpt lat="43.6812395" lon="12.9314986"><ele>137.0</ele><time>2026-04-11T09:00:51.542Z</time></trkpt><trkpt lat="43.6812832" lon="12.9314144"><ele>136.0</ele><time>2026-04-11T09:00:52.543Z</time></trkpt><trkpt lat="43.6813309" lon="12.931329"><ele>135.0</ele><time>2026-04-11T09:00:53.543Z</time></trkpt><trkpt lat="43.681377" lon="12.9312399"><ele>134.0</ele><time>2026-04-11T09:00:54.541Z</time></trkpt><trkpt lat="43.681425" lon="12.9311557"><ele>134.0</ele><time>2026-04-11T09:00:55.542Z</time></trkpt><trkpt lat="43.6814687" lon="12.9310731"><ele>134.0</ele><time>2026-04-11T09:00:56.542Z</time></trkpt><trkpt lat="43.6815186" lon="12.9309866"><ele>134.0</ele><time>2026-04-11T09:00:57.543Z</time></trkpt><trkpt lat="43.6815675" lon="12.9308953"><ele>134.0</ele><time>2026-04-11T09:00:58.541Z</time></trkpt><trkpt lat="43.6816176" lon="12.9308159"><ele>134.0</ele><time>2026-04-11T09:00:59.543Z</time></trkpt><trkpt lat="43.6816554" lon="12.9307422"><ele>134.0</ele><time>2026-04-11T09:01:00.543Z</time></trkpt><trkpt lat="43.6816998" lon="12.930664"><ele>133.83333333333331</ele><time>2026-04-11T09:01:01.544Z</time></trkpt><trkpt lat="43.6817541" lon="12.9305736"><ele>133.66666666666666</ele><time>2026-04-11T09:01:02.544Z</time></trkpt><trkpt lat="43.6818105" lon="12.9304843"><ele>133.5</ele><time>2026-04-11T09:01:03.542Z</time></trkpt><trkpt lat="43.6818597" lon="12.9304051"><ele>133.33333333333334</ele><time>2026-04-11T09:01:04.544Z</time></trkpt><trkpt lat="43.681904" lon="12.9303386"><ele>133.16666666666669</ele><time>2026-04-11T09:01:05.543Z</time></trkpt><trkpt lat="43.6819559" lon="12.9302821"><ele>133.0</ele><time>2026-04-11T09:01:06.542Z</time></trkpt><trkpt lat="43.6820288" lon="12.9302322"><ele>132.6</ele><time>2026-04-11T09:01:07.543Z</time></trkpt><trkpt lat="43.6821105" lon="12.9301852"><ele>132.20000000000002</ele><time>2026-04-11T09:01:08.543Z</time></trkpt><trkpt lat="43.6821859" lon="12.930151"><ele>131.8</ele><time>2026-04-11T09:01:09.542Z</time></trkpt><trkpt lat="43.6822924" lon="12.9300986"><ele>131.4</ele><time>2026-04-11T09:01:11.544Z</time></trkpt><trkpt lat="43.6824143" lon="12.9300572"><ele>131.0</ele><time>2026-04-11T09:01:13.544Z</time></trkpt><trkpt lat="43.68248" lon="12.9300426"><ele>131.0</ele><time>2026-04-11T09:01:14.542Z</time></trkpt><trkpt lat="43.6825413" lon="12.9300219"><ele>131.0</ele><time>2026-04-11T09:01:15.543Z</time></trkpt><trkpt lat="43.6826336" lon="12.9299564"><ele>131.0</ele><time>2026-04-11T09:01:17.543Z</time></trkpt><trkpt lat="43.6827086" lon="12.9298432"><ele>131.0</ele><time>2026-04-11T09:01:19.542Z</time></trkpt><trkpt lat="43.6827588" lon="12.9296956"><ele>131.0</ele><time>2026-04-11T09:01:21.543Z</time></trkpt><trkpt lat="43.6828193" lon="12.9295593"><ele>130.66666666666666</ele><time>2026-04-11T09:01:23.542Z</time></trkpt><trkpt lat="43.6829071" lon="12.9294817"><ele>130.33333333333331</ele><time>2026-04-11T09:01:25.542Z</time></trkpt><trkpt lat="43.6829827" lon="12.9294268"><ele>130.0</ele><time>2026-04-11T09:01:27.543Z</time></trkpt><trkpt lat="43.6830264" lon="12.9293607"><ele>129.66666666666666</ele><time>2026-04-11T09:01:40.543Z</time></trkpt><trkpt lat="43.6831017" lon="12.9293402"><ele>129.33333333333334</ele><time>2026-04-11T09:01:43.543Z</time></trkpt><trkpt lat="43.6832164" lon="12.9293074"><ele>129.0</ele><time>2026-04-11T09:01:45.543Z</time></trkpt><trkpt lat="43.6832794" lon="12.929288"><ele>129.0</ele><time>2026-04-11T09:01:46.542Z</time></trkpt><trkpt lat="43.6833839" lon="12.929317"><ele>129.0</ele><time>2026-04-11T09:01:48.541Z</time></trkpt><trkpt lat="43.6834509" lon="12.9294475"><ele>129.0</ele><time>2026-04-11T09:01:50.541Z</time></trkpt><trkpt lat="43.6834635" lon="12.9295346"><ele>129.0</ele><time>2026-04-11T09:01:51.543Z</time></trkpt><trkpt lat="43.6834692" lon="12.9296596"><ele>129.0</ele><time>2026-04-11T09:01:53.544Z</time></trkpt><trkpt lat="43.6834563" lon="12.9297475"><ele>129.0</ele><time>2026-04-11T09:01:55.543Z</time></trkpt><trkpt lat="43.6835184" lon="12.9298245"><ele>129.0</ele><time>2026-04-11T09:01:59.543Z</time></trkpt><trkpt lat="43.6835901" lon="12.9298059"><ele>129.0</ele><time>2026-04-11T09:02:02.543Z</time></trkpt><trkpt lat="43.6836795" lon="12.9298106"><ele>129.0</ele><time>2026-04-11T09:02:05.543Z</time></trkpt><trkpt lat="43.6837639" lon="12.9299111"><ele>129.0</ele><time>2026-04-11T09:02:07.543Z</time></trkpt><trkpt lat="43.6838382" lon="12.9300459"><ele>129.0</ele><time>2026-04-11T09:02:09.543Z</time></trkpt><trkpt lat="43.6838649" lon="12.9301299"><ele>130.16666666666666</ele><time>2026-04-11T09:02:10.543Z</time></trkpt><trkpt lat="43.6838874" lon="12.9302202"><ele>131.33333333333334</ele><time>2026-04-11T09:02:11.544Z</time></trkpt><trkpt lat="43.6838979" lon="12.9303075"><ele>132.5</ele><time>2026-04-11T09:02:12.541Z</time></trkpt><trkpt lat="43.6838946" lon="12.9303956"><ele>133.66666666666669</ele><time>2026-04-11T09:02:13.543Z</time></trkpt><trkpt lat="43.6838737" lon="12.9305623"><ele>134.83333333333334</ele><time>2026-04-11T09:02:15.542Z</time></trkpt><trkpt lat="43.6838423" lon="12.9307019"><ele>136.0</ele><time>2026-04-11T09:02:17.544Z</time></trkpt><trkpt lat="43.68383" lon="12.930838"><ele>135.8</ele><time>2026-04-11T09:02:19.543Z</time></trkpt><trkpt lat="43.6838163" lon="12.9309865"><ele>135.6</ele><time>2026-04-11T09:02:21.543Z</time></trkpt><trkpt lat="43.6838054" lon="12.931154"><ele>135.4</ele><time>2026-04-11T09:02:23.543Z</time></trkpt><trkpt lat="43.6838051" lon="12.9313025"><ele>135.2</ele><time>2026-04-11T09:02:25.544Z</time></trkpt><trkpt lat="43.6838286" lon="12.9314102"><ele>135.0</ele><time>2026-04-11T09:02:27.542Z</time></trkpt><trkpt lat="43.683871" lon="12.9314782"><ele>135.0</ele><time>2026-04-11T09:02:29.543Z</time></trkpt><trkpt lat="43.6839682" lon="12.9315662"><ele>135.0</ele><time>2026-04-11T09:02:31.543Z</time></trkpt><trkpt lat="43.6840254" lon="12.9316125"><ele>135.0</ele><time>2026-04-11T09:02:32.543Z</time></trkpt><trkpt lat="43.6840817" lon="12.9316518"><ele>135.0</ele><time>2026-04-11T09:02:33.541Z</time></trkpt><trkpt lat="43.6842032" lon="12.9317284"><ele>135.0</ele><time>2026-04-11T09:02:35.542Z</time></trkpt><trkpt lat="43.68427" lon="12.9317723"><ele>135.33333333333334</ele><time>2026-04-11T09:02:36.541Z</time></trkpt><trkpt lat="43.6843326" lon="12.9318127"><ele>135.66666666666666</ele><time>2026-04-11T09:02:37.543Z</time></trkpt><trkpt lat="43.6844007" lon="12.9318508"><ele>136.0</ele><time>2026-04-11T09:02:38.543Z</time></trkpt><trkpt lat="43.6844634" lon="12.931885"><ele>136.33333333333331</ele><time>2026-04-11T09:02:39.542Z</time></trkpt><trkpt lat="43.684557" lon="12.931997"><ele>136.66666666666666</ele><time>2026-04-11T09:02:41.543Z</time></trkpt><trkpt lat="43.6846" lon="12.932122"><ele>137.0</ele><time>2026-04-11T09:02:43.543Z</time></trkpt><trkpt lat="43.6845692" lon="12.9322491"><ele>137.0</ele><time>2026-04-11T09:02:45.543Z</time></trkpt><trkpt lat="43.6845273" lon="12.9323832"><ele>137.0</ele><time>2026-04-11T09:02:47.542Z</time></trkpt><trkpt lat="43.6844948" lon="12.9324619"><ele>137.0</ele><time>2026-04-11T09:02:48.542Z</time></trkpt><trkpt lat="43.6844422" lon="12.9325571"><ele>137.0</ele><time>2026-04-11T09:02:50.544Z</time></trkpt><trkpt lat="43.6843563" lon="12.9325751"><ele>137.0</ele><time>2026-04-11T09:02:52.542Z</time></trkpt><trkpt lat="43.6842456" lon="12.9325169"><ele>137.0</ele><time>2026-04-11T09:02:54.543Z</time></trkpt><trkpt lat="43.6841759" lon="12.9324824"><ele>137.0</ele><time>2026-04-11T09:02:55.544Z</time></trkpt><trkpt lat="43.6841173" lon="12.9324505"><ele>137.0</ele><time>2026-04-11T09:02:56.543Z</time></trkpt><trkpt lat="43.6840494" lon="12.9324202"><ele>137.0</ele><time>2026-04-11T09:02:57.542Z</time></trkpt><trkpt lat="43.6839526" lon="12.9323755"><ele>137.0</ele><time>2026-04-11T09:02:59.543Z</time></trkpt><trkpt lat="43.683885" lon="12.9323259"><ele>137.0</ele><time>2026-04-11T09:03:01.543Z</time></trkpt><trkpt lat="43.6838106" lon="12.9323392"><ele>137.0</ele><time>2026-04-11T09:03:22.543Z</time></trkpt><trkpt lat="43.6837585" lon="12.9324142"><ele>137.0</ele><time>2026-04-11T09:03:24.542Z</time></trkpt><trkpt lat="43.6837038" lon="12.932531"><ele>137.0</ele><time>2026-04-11T09:03:26.542Z</time></trkpt><trkpt lat="43.6836584" lon="12.9326394"><ele>137.0</ele><time>2026-04-11T09:03:28.543Z</time></trkpt><trkpt lat="43.683617" lon="12.9327546"><ele>137.0</ele><time>2026-04-11T09:03:30.541Z</time></trkpt><trkpt lat="43.6835817" lon="12.9328504"><ele>137.0</ele><time>2026-04-11T09:03:32.541Z</time></trkpt><trkpt lat="43.6835407" lon="12.9329576"><ele>137.00000000000003</ele><time>2026-04-11T09:03:35.543Z</time></trkpt><trkpt lat="43.6835121" lon="12.9330407"><ele>137.0</ele><time>2026-04-11T09:03:39.543Z</time></trkpt><trkpt lat="43.6834755" lon="12.9331454"><ele>137.0</ele><time>2026-04-11T09:03:43.543Z</time></trkpt><trkpt lat="43.6834471" lon="12.9332307"><ele>137.0</ele><time>2026-04-11T09:03:45.542Z</time></trkpt><trkpt lat="43.6834077" lon="12.9333349"><ele>137.0</ele><time>2026-04-11T09:03:47.543Z</time></trkpt><trkpt lat="43.6833772" lon="12.9334148"><ele>137.00000000000003</ele><time>2026-04-11T09:03:49.543Z</time></trkpt><trkpt lat="43.6833485" lon="12.9334969"><ele>137.0</ele><time>2026-04-11T09:03:51.542Z</time></trkpt><trkpt lat="43.6833459" lon="12.933591"><ele>137.00000000000003</ele><time>2026-04-11T09:04:37.544Z</time></trkpt><trkpt lat="43.6833045" lon="12.9336684"><ele>137.0</ele><time>2026-04-11T09:04:50.542Z</time></trkpt><trkpt lat="43.6832704" lon="12.9337645"><ele>137.0</ele><time>2026-04-11T09:04:54.543Z</time></trkpt><trkpt lat="43.6832432" lon="12.9338523"><ele>137.0</ele><time>2026-04-11T09:04:57.543Z</time></trkpt><trkpt lat="43.6832168" lon="12.9339555"><ele>137.0</ele><time>2026-04-11T09:05:00.543Z</time></trkpt><trkpt lat="43.683187" lon="12.9340501"><ele>137.00000000000003</ele><time>2026-04-11T09:05:03.543Z</time></trkpt><trkpt lat="43.6831549" lon="12.9341395"><ele>137.0</ele><time>2026-04-11T09:05:05.543Z</time></trkpt><trkpt lat="43.6831219" lon="12.9342311"><ele>137.83333333333331</ele><time>2026-04-11T09:05:08.543Z</time></trkpt><trkpt lat="43.6830931" lon="12.9343382"><ele>138.66666666666666</ele><time>2026-04-11T09:05:25.543Z</time></trkpt><trkpt lat="43.6830596" lon="12.9344207"><ele>139.5</ele><time>2026-04-11T09:05:28.543Z</time></trkpt><trkpt lat="43.6830345" lon="12.9345016"><ele>140.33333333333334</ele><time>2026-04-11T09:05:32.542Z</time></trkpt><trkpt lat="43.6829985" lon="12.9346097"><ele>141.16666666666669</ele><time>2026-04-11T09:05:35.542Z</time></trkpt><trkpt lat="43.6829592" lon="12.934718"><ele>142.0</ele><time>2026-04-11T09:05:38.543Z</time></trkpt><trkpt lat="43.6829276" lon="12.9348284"><ele>142.0</ele><time>2026-04-11T09:05:40.542Z</time></trkpt><trkpt lat="43.6829045" lon="12.9349152"><ele>142.0</ele><time>2026-04-11T09:05:44.544Z</time></trkpt><trkpt lat="43.6828529" lon="12.9350118"><ele>142.0</ele><time>2026-04-11T09:05:48.543Z</time></trkpt><trkpt lat="43.6828161" lon="12.9350838"><ele>142.0</ele><time>2026-04-11T09:05:50.543Z</time></trkpt><trkpt lat="43.6827578" lon="12.9351976"><ele>142.0</ele><time>2026-04-11T09:05:52.543Z</time></trkpt><trkpt lat="43.6827156" lon="12.9352707"><ele>142.0</ele><time>2026-04-11T09:05:54.543Z</time></trkpt><trkpt lat="43.6826671" lon="12.9353341"><ele>141.28571428571428</ele><time>2026-04-11T09:06:59.544Z</time></trkpt><trkpt lat="43.6825999" lon="12.9353869"><ele>140.57142857142856</ele><time>2026-04-11T09:07:03.543Z</time></trkpt><trkpt lat="43.6825382" lon="12.9354324"><ele>139.85714285714286</ele><time>2026-04-11T09:07:06.542Z</time></trkpt><trkpt lat="43.6824773" lon="12.9354951"><ele>139.14285714285714</ele><time>2026-04-11T09:07:31.543Z</time></trkpt><trkpt lat="43.6824088" lon="12.9355434"><ele>138.42857142857144</ele><time>2026-04-11T09:07:38.543Z</time></trkpt><trkpt lat="43.6823484" lon="12.9355792"><ele>137.71428571428572</ele><time>2026-04-11T09:07:43.541Z</time></trkpt><trkpt lat="43.6822791" lon="12.9356064"><ele>137.0</ele><time>2026-04-11T09:07:48.543Z</time></trkpt><trkpt lat="43.6822126" lon="12.9356225"><ele>137.0</ele><time>2026-04-11T09:13:23.543Z</time></trkpt><trkpt lat="43.6821399" lon="12.9356099"><ele>137.0</ele><time>2026-04-11T09:13:26.543Z</time></trkpt><trkpt lat="43.6820812" lon="12.9355273"><ele>137.0</ele><time>2026-04-11T09:13:29.543Z</time></trkpt><trkpt lat="43.6820857" lon="12.9354161"><ele>137.0</ele><time>2026-04-11T09:13:32.542Z</time></trkpt><trkpt lat="43.6821208" lon="12.9353284"><ele>137.0</ele><time>2026-04-11T09:13:34.542Z</time></trkpt><trkpt lat="43.6821589" lon="12.9352141"><ele>137.0</ele><time>2026-04-11T09:13:36.541Z</time></trkpt><trkpt lat="43.6821921" lon="12.935102"><ele>137.2</ele><time>2026-04-11T09:13:38.542Z</time></trkpt><trkpt lat="43.6822355" lon="12.9349553"><ele>137.39999999999998</ele><time>2026-04-11T09:13:40.543Z</time></trkpt><trkpt lat="43.682282" lon="12.9348023"><ele>137.60000000000002</ele><time>2026-04-11T09:13:42.543Z</time></trkpt><trkpt lat="43.6823152" lon="12.9346891"><ele>137.8</ele><time>2026-04-11T09:13:44.542Z</time></trkpt><trkpt lat="43.6823346" lon="12.9345998"><ele>138.0</ele><time>2026-04-11T09:13:46.541Z</time></trkpt><trkpt lat="43.6823584" lon="12.9344923"><ele>138.0</ele><time>2026-04-11T09:13:48.542Z</time></trkpt><trkpt lat="43.6823692" lon="12.9343744"><ele>138.0</ele><time>2026-04-11T09:13:50.541Z</time></trkpt><trkpt lat="43.6823713" lon="12.9342718"><ele>138.0</ele><time>2026-04-11T09:13:52.543Z</time></trkpt><trkpt lat="43.682373" lon="12.9341668"><ele>138.0</ele><time>2026-04-11T09:13:54.542Z</time></trkpt><trkpt lat="43.6823898" lon="12.9340534"><ele>138.0</ele><time>2026-04-11T09:13:57.542Z</time></trkpt><trkpt lat="43.6823958" lon="12.9339477"><ele>138.0</ele><time>2026-04-11T09:13:59.542Z</time></trkpt><trkpt lat="43.682403" lon="12.9338612"><ele>138.33333333333334</ele><time>2026-04-11T09:14:01.543Z</time></trkpt><trkpt lat="43.6824238" lon="12.9337647"><ele>138.66666666666666</ele><time>2026-04-11T09:14:03.543Z</time></trkpt><trkpt lat="43.6824448" lon="12.9336736"><ele>139.0</ele><time>2026-04-11T09:14:05.542Z</time></trkpt><trkpt lat="43.682465" lon="12.9335336"><ele>139.33333333333331</ele><time>2026-04-11T09:14:08.542Z</time></trkpt><trkpt lat="43.6824678" lon="12.9333965"><ele>139.66666666666666</ele><time>2026-04-11T09:14:10.543Z</time></trkpt><trkpt lat="43.6824575" lon="12.9332645"><ele>140.0</ele><time>2026-04-11T09:14:12.542Z</time></trkpt><trkpt lat="43.6824205" lon="12.9331739"><ele>139.33333333333331</ele><time>2026-04-11T09:14:14.543Z</time></trkpt><trkpt lat="43.6823761" lon="12.9331099"><ele>138.66666666666666</ele><time>2026-04-11T09:14:35.54Z</time></trkpt><trkpt lat="43.6823349" lon="12.9330041"><ele>138.0</ele><time>2026-04-11T09:14:38.542Z</time></trkpt><trkpt lat="43.6823007" lon="12.93285"><ele>137.33333333333334</ele><time>2026-04-11T09:14:40.542Z</time></trkpt><trkpt lat="43.6822719" lon="12.9327505"><ele>136.66666666666669</ele><time>2026-04-11T09:14:41.542Z</time></trkpt><trkpt lat="43.6822371" lon="12.9326176"><ele>136.0</ele><time>2026-04-11T09:14:42.542Z</time></trkpt><trkpt lat="43.6822083" lon="12.9324901"><ele>135.33333333333334</ele><time>2026-04-11T09:14:43.54Z</time></trkpt><trkpt lat="43.682191" lon="12.9323822"><ele>134.66666666666669</ele><time>2026-04-11T09:14:44.541Z</time></trkpt><trkpt lat="43.6821691" lon="12.9322933"><ele>134.0</ele><time>2026-04-11T09:14:45.541Z</time></trkpt><trkpt lat="43.6820905" lon="12.9321947"><ele>133.33333333333334</ele><time>2026-04-11T09:14:47.542Z</time></trkpt><trkpt lat="43.6820278" lon="12.9321777"><ele>132.66666666666666</ele><time>2026-04-11T09:14:48.543Z</time></trkpt><trkpt lat="43.6819586" lon="12.9321921"><ele>132.0</ele><time>2026-04-11T09:14:49.541Z</time></trkpt><trkpt lat="43.6818533" lon="12.9322146"><ele>133.6</ele><time>2026-04-11T09:14:50.543Z</time></trkpt><trkpt lat="43.6817505" lon="12.9322392"><ele>135.2</ele><time>2026-04-11T09:14:51.542Z</time></trkpt><trkpt lat="43.6816541" lon="12.9322604"><ele>136.8</ele><time>2026-04-11T09:14:52.541Z</time></trkpt><trkpt lat="43.6815654" lon="12.9322726"><ele>138.4</ele><time>2026-04-11T09:14:53.541Z</time></trkpt><trkpt lat="43.6814832" lon="12.9322864"><ele>140.0</ele><time>2026-04-11T09:14:54.542Z</time></trkpt><trkpt lat="43.6814085" lon="12.9323029"><ele>140.0</ele><time>2026-04-11T09:14:55.543Z</time></trkpt><trkpt lat="43.6813263" lon="12.9323228"><ele>140.0</ele><time>2026-04-11T09:14:56.542Z</time></trkpt><trkpt lat="43.6812403" lon="12.9323407"><ele>140.0</ele><time>2026-04-11T09:14:57.542Z</time></trkpt><trkpt lat="43.681156" lon="12.9323526"><ele>140.0</ele><time>2026-04-11T09:14:58.542Z</time></trkpt><trkpt lat="43.6810839" lon="12.9323565"><ele>140.0</ele><time>2026-04-11T09:14:59.542Z</time></trkpt><trkpt lat="43.6810171" lon="12.9323449"><ele>140.0</ele><time>2026-04-11T09:15:00.543Z</time></trkpt><trkpt lat="43.6809184" lon="12.9322776"><ele>140.0</ele><time>2026-04-11T09:15:02.541Z</time></trkpt><trkpt lat="43.6808755" lon="12.9321818"><ele>140.0</ele><time>2026-04-11T09:15:05.541Z</time></trkpt><trkpt lat="43.6808939" lon="12.9320756"><ele>140.0</ele><time>2026-04-11T09:15:14.541Z</time></trkpt><trkpt lat="43.6809308" lon="12.9320041"><ele>140.0</ele><time>2026-04-11T09:15:30.541Z</time></trkpt><trkpt lat="43.6809891" lon="12.9318964"><ele>140.0</ele><time>2026-04-11T09:15:33.541Z</time></trkpt><trkpt lat="43.6810518" lon="12.9318273"><ele>140.0</ele><time>2026-04-11T09:15:35.542Z</time></trkpt><trkpt lat="43.6811063" lon="12.9317537"><ele>138.8</ele><time>2026-04-11T09:15:37.542Z</time></trkpt><trkpt lat="43.6811861" lon="12.9316105"><ele>137.6</ele><time>2026-04-11T09:15:39.542Z</time></trkpt><trkpt lat="43.6812339" lon="12.9315163"><ele>136.4</ele><time>2026-04-11T09:15:40.542Z</time></trkpt><trkpt lat="43.6812937" lon="12.9314057"><ele>135.2</ele><time>2026-04-11T09:15:41.543Z</time></trkpt><trkpt lat="43.6813646" lon="12.9312758"><ele>134.0</ele><time>2026-04-11T09:15:42.543Z</time></trkpt><trkpt lat="43.6814282" lon="12.9311545"><ele>134.0</ele><time>2026-04-11T09:15:43.54Z</time></trkpt><trkpt lat="43.6814978" lon="12.9310421"><ele>134.0</ele><time>2026-04-11T09:15:44.542Z</time></trkpt><trkpt lat="43.6815672" lon="12.9309167"><ele>134.0</ele><time>2026-04-11T09:15:45.542Z</time></trkpt><trkpt lat="43.6816349" lon="12.930794"><ele>134.0</ele><time>2026-04-11T09:15:46.542Z</time></trkpt><trkpt lat="43.6816943" lon="12.9306886"><ele>134.0</ele><time>2026-04-11T09:15:47.543Z</time></trkpt><trkpt lat="43.6817532" lon="12.9305857"><ele>133.8</ele><time>2026-04-11T09:15:48.542Z</time></trkpt><trkpt lat="43.6818254" lon="12.9304795"><ele>133.60000000000002</ele><time>2026-04-11T09:15:49.542Z</time></trkpt><trkpt lat="43.6818852" lon="12.9303867"><ele>133.4</ele><time>2026-04-11T09:15:50.541Z</time></trkpt><trkpt lat="43.6819304" lon="12.9303106"><ele>133.20000000000002</ele><time>2026-04-11T09:15:51.542Z</time></trkpt><trkpt lat="43.682033" lon="12.9302145"><ele>133.0</ele><time>2026-04-11T09:15:53.54Z</time></trkpt><trkpt lat="43.6821003" lon="12.9301767"><ele>132.66666666666669</ele><time>2026-04-11T09:15:54.542Z</time></trkpt><trkpt lat="43.6821668" lon="12.9301392"><ele>132.33333333333334</ele><time>2026-04-11T09:15:55.542Z</time></trkpt><trkpt lat="43.6822342" lon="12.9300995"><ele>132.0</ele><time>2026-04-11T09:15:57.541Z</time></trkpt><trkpt lat="43.6822102" lon="12.9300092"><ele>131.66666666666666</ele><time>2026-04-11T09:16:36.543Z</time></trkpt><trkpt lat="43.6821109" lon="12.9299928"><ele>131.33333333333331</ele><time>2026-04-11T09:16:38.541Z</time></trkpt><trkpt lat="43.6820445" lon="12.9299698"><ele>131.0</ele><time>2026-04-11T09:16:39.541Z</time></trkpt><trkpt lat="43.6819725" lon="12.9299422"><ele>133.2</ele><time>2026-04-11T09:16:40.542Z</time></trkpt><trkpt lat="43.6818989" lon="12.9299048"><ele>135.39999999999998</ele><time>2026-04-11T09:16:41.541Z</time></trkpt><trkpt lat="43.6818087" lon="12.9298625"><ele>137.6</ele><time>2026-04-11T09:16:42.542Z</time></trkpt><trkpt lat="43.6817121" lon="12.9298255"><ele>139.79999999999998</ele><time>2026-04-11T09:16:43.542Z</time></trkpt><trkpt lat="43.6816056" lon="12.9297816"><ele>142.0</ele><time>2026-04-11T09:16:44.541Z</time></trkpt><trkpt lat="43.6815065" lon="12.9297272"><ele>142.0</ele><time>2026-04-11T09:16:45.543Z</time></trkpt><trkpt lat="43.6814099" lon="12.929642"><ele>142.0</ele><time>2026-04-11T09:16:46.541Z</time></trkpt><trkpt lat="43.6813148" lon="12.9295464"><ele>142.0</ele><time>2026-04-11T09:16:47.541Z</time></trkpt><trkpt lat="43.6812176" lon="12.929439"><ele>142.0</ele><time>2026-04-11T09:16:48.54Z</time></trkpt><trkpt lat="43.681116" lon="12.9293332"><ele>144.5</ele><time>2026-04-11T09:16:49.541Z</time></trkpt><trkpt lat="43.6810106" lon="12.9292071"><ele>147.0</ele><time>2026-04-11T09:16:50.542Z</time></trkpt><trkpt lat="43.6808997" lon="12.9290854"><ele>149.5</ele><time>2026-04-11T09:16:51.541Z</time></trkpt><trkpt lat="43.6807823" lon="12.9289502"><ele>152.0</ele><time>2026-04-11T09:16:52.541Z</time></trkpt><trkpt lat="43.680656" lon="12.9288014"><ele>152.0</ele><time>2026-04-11T09:16:53.541Z</time></trkpt><trkpt lat="43.6805199" lon="12.9286488"><ele>152.0</ele><time>2026-04-11T09:16:54.541Z</time></trkpt><trkpt lat="43.6803842" lon="12.9284965"><ele>152.0</ele><time>2026-04-11T09:16:55.542Z</time></trkpt><trkpt lat="43.6802548" lon="12.9283516"><ele>156.75</ele><time>2026-04-11T09:16:56.541Z</time></trkpt><trkpt lat="43.6801385" lon="12.9282241"><ele>161.5</ele><time>2026-04-11T09:16:57.542Z</time></trkpt><trkpt lat="43.6800329" lon="12.9281191"><ele>166.25</ele><time>2026-04-11T09:16:58.542Z</time></trkpt><trkpt lat="43.6799409" lon="12.9280285"><ele>171.0</ele><time>2026-04-11T09:16:59.543Z</time></trkpt><trkpt lat="43.6798565" lon="12.9279608"><ele>171.0</ele><time>2026-04-11T09:17:00.541Z</time></trkpt><trkpt lat="43.6797636" lon="12.9279131"><ele>171.0</ele><time>2026-04-11T09:17:01.541Z</time></trkpt><trkpt lat="43.6796629" lon="12.9278723"><ele>171.0</ele><time>2026-04-11T09:17:02.542Z</time></trkpt><trkpt lat="43.6795567" lon="12.9278373"><ele>171.0</ele><time>2026-04-11T09:17:03.541Z</time></trkpt><trkpt lat="43.6794369" lon="12.9277961"><ele>171.0</ele><time>2026-04-11T09:17:04.542Z</time></trkpt><trkpt lat="43.679304" lon="12.9277577"><ele>174.0</ele><time>2026-04-11T09:17:05.541Z</time></trkpt><trkpt lat="43.6791595" lon="12.9277236"><ele>177.0</ele><time>2026-04-11T09:17:06.542Z</time></trkpt><trkpt lat="43.6790234" lon="12.9276824"><ele>180.0</ele><time>2026-04-11T09:17:07.541Z</time></trkpt><trkpt lat="43.6788877" lon="12.9276351"><ele>183.0</ele><time>2026-04-11T09:17:08.541Z</time></trkpt><trkpt lat="43.6787363" lon="12.9275816"><ele>187.0</ele><time>2026-04-11T09:17:09.543Z</time></trkpt><trkpt lat="43.67859" lon="12.9275289"><ele>191.0</ele><time>2026-04-11T09:17:10.541Z</time></trkpt><trkpt lat="43.6784536" lon="12.9274715"><ele>195.0</ele><time>2026-04-11T09:17:11.54Z</time></trkpt><trkpt lat="43.6783311" lon="12.9274185"><ele>199.0</ele><time>2026-04-11T09:17:12.542Z</time></trkpt><trkpt lat="43.6782163" lon="12.9273683"><ele>199.0</ele><time>2026-04-11T09:17:13.541Z</time></trkpt><trkpt lat="43.6780962" lon="12.9273232"><ele>199.0</ele><time>2026-04-11T09:17:14.541Z</time></trkpt><trkpt lat="43.6779752" lon="12.9272897"><ele>199.0</ele><time>2026-04-11T09:17:15.542Z</time></trkpt><trkpt lat="43.6778572" lon="12.9272492"><ele>199.0</ele><time>2026-04-11T09:17:16.542Z</time></trkpt><trkpt lat="43.6777422" lon="12.9271885"><ele>201.79999999999998</ele><time>2026-04-11T09:17:17.542Z</time></trkpt><trkpt lat="43.6776485" lon="12.9271278"><ele>204.6</ele><time>2026-04-11T09:17:18.541Z</time></trkpt><trkpt lat="43.6775668" lon="12.927064"><ele>207.4</ele><time>2026-04-11T09:17:19.543Z</time></trkpt><trkpt lat="43.6774837" lon="12.9270152"><ele>210.2</ele><time>2026-04-11T09:17:20.542Z</time></trkpt><trkpt lat="43.6773909" lon="12.9269785"><ele>213.0</ele><time>2026-04-11T09:17:21.542Z</time></trkpt><trkpt lat="43.6772953" lon="12.9269628"><ele>213.0</ele><time>2026-04-11T09:17:22.542Z</time></trkpt><trkpt lat="43.6772135" lon="12.9269262"><ele>213.0</ele><time>2026-04-11T09:17:23.541Z</time></trkpt><trkpt lat="43.6771572" lon="12.9268665"><ele>213.0</ele><time>2026-04-11T09:17:24.542Z</time></trkpt><trkpt lat="43.6771244" lon="12.9267883"><ele>213.0</ele><time>2026-04-11T09:17:25.542Z</time></trkpt><trkpt lat="43.6771052" lon="12.9266748"><ele>213.0</ele><time>2026-04-11T09:17:26.542Z</time></trkpt><trkpt lat="43.6770729" lon="12.9265469"><ele>213.0</ele><time>2026-04-11T09:17:27.542Z</time></trkpt><trkpt lat="43.6770412" lon="12.9264107"><ele>213.5</ele><time>2026-04-11T09:17:28.542Z</time></trkpt><trkpt lat="43.6770025" lon="12.9262858"><ele>214.0</ele><time>2026-04-11T09:17:29.541Z</time></trkpt><trkpt lat="43.6769673" lon="12.9261837"><ele>214.5</ele><time>2026-04-11T09:17:30.541Z</time></trkpt><trkpt lat="43.6769225" lon="12.9261002"><ele>215.0</ele><time>2026-04-11T09:17:31.541Z</time></trkpt><trkpt lat="43.6768676" lon="12.9260389"><ele>215.5</ele><time>2026-04-11T09:17:32.541Z</time></trkpt><trkpt lat="43.6768039" lon="12.9259942"><ele>216.0</ele><time>2026-04-11T09:17:33.543Z</time></trkpt><trkpt lat="43.6767305" lon="12.9259772"><ele>220.60000000000002</ele><time>2026-04-11T09:17:34.542Z</time></trkpt><trkpt lat="43.6766431" lon="12.9259888"><ele>225.20000000000002</ele><time>2026-04-11T09:17:35.541Z</time></trkpt><trkpt lat="43.6765426" lon="12.9260114"><ele>229.79999999999998</ele><time>2026-04-11T09:17:36.542Z</time></trkpt><trkpt lat="43.6764474" lon="12.9260299"><ele>234.39999999999998</ele><time>2026-04-11T09:17:37.542Z</time></trkpt><trkpt lat="43.6763616" lon="12.9260438"><ele>239.0</ele><time>2026-04-11T09:17:38.543Z</time></trkpt><trkpt lat="43.6762821" lon="12.9260253"><ele>239.00000000000003</ele><time>2026-04-11T09:17:39.541Z</time></trkpt><trkpt lat="43.6762053" lon="12.9259669"><ele>239.0</ele><time>2026-04-11T09:17:40.543Z</time></trkpt><trkpt lat="43.6761248" lon="12.9258726"><ele>239.0</ele><time>2026-04-11T09:17:41.541Z</time></trkpt><trkpt lat="43.6760695" lon="12.9257761"><ele>239.0</ele><time>2026-04-11T09:17:42.542Z</time></trkpt><trkpt lat="43.676039" lon="12.9256778"><ele>239.00000000000003</ele><time>2026-04-11T09:17:43.542Z</time></trkpt><trkpt lat="43.6760294" lon="12.9255626"><ele>239.0</ele><time>2026-04-11T09:17:44.54Z</time></trkpt><trkpt lat="43.6760355" lon="12.9254362"><ele>239.39999999999998</ele><time>2026-04-11T09:17:45.541Z</time></trkpt><trkpt lat="43.6760485" lon="12.9253035"><ele>239.79999999999998</ele><time>2026-04-11T09:17:46.541Z</time></trkpt><trkpt lat="43.6760726" lon="12.9251639"><ele>240.20000000000002</ele><time>2026-04-11T09:17:47.542Z</time></trkpt><trkpt lat="43.6760893" lon="12.9250128"><ele>240.60000000000002</ele><time>2026-04-11T09:17:48.541Z</time></trkpt><trkpt lat="43.6760973" lon="12.9248713"><ele>241.0</ele><time>2026-04-11T09:17:49.542Z</time></trkpt><trkpt lat="43.6760993" lon="12.9247419"><ele>240.99999999999997</ele><time>2026-04-11T09:17:50.542Z</time></trkpt><trkpt lat="43.676089" lon="12.9246352"><ele>241.0</ele><time>2026-04-11T09:17:51.541Z</time></trkpt><trkpt lat="43.6760587" lon="12.9245288"><ele>241.0</ele><time>2026-04-11T09:17:52.542Z</time></trkpt><trkpt lat="43.6760194" lon="12.924423"><ele>241.0</ele><time>2026-04-11T09:17:53.542Z</time></trkpt><trkpt lat="43.6759767" lon="12.9243463"><ele>240.99999999999997</ele><time>2026-04-11T09:17:54.541Z</time></trkpt><trkpt lat="43.6758824" lon="12.9242479"><ele>241.0</ele><time>2026-04-11T09:17:56.542Z</time></trkpt><trkpt lat="43.6758193" lon="12.924241"><ele>241.0</ele><time>2026-04-11T09:17:57.541Z</time></trkpt><trkpt lat="43.675753" lon="12.9242759"><ele>241.00000000000003</ele><time>2026-04-11T09:17:58.541Z</time></trkpt><trkpt lat="43.6756748" lon="12.9243338"><ele>241.00000000000003</ele><time>2026-04-11T09:17:59.542Z</time></trkpt><trkpt lat="43.6755886" lon="12.9243881"><ele>241.0</ele><time>2026-04-11T09:18:00.542Z</time></trkpt><trkpt lat="43.675493" lon="12.9244225"><ele>241.0</ele><time>2026-04-11T09:18:01.541Z</time></trkpt><trkpt lat="43.6753895" lon="12.9244256"><ele>241.0</ele><time>2026-04-11T09:18:02.541Z</time></trkpt><trkpt lat="43.6752964" lon="12.9244049"><ele>241.00000000000003</ele><time>2026-04-11T09:18:03.543Z</time></trkpt><trkpt lat="43.6752133" lon="12.9243407"><ele>241.00000000000003</ele><time>2026-04-11T09:18:04.542Z</time></trkpt><trkpt lat="43.6751328" lon="12.9242608"><ele>241.0</ele><time>2026-04-11T09:18:05.541Z</time></trkpt><trkpt lat="43.6750559" lon="12.9241627"><ele>241.0</ele><time>2026-04-11T09:18:06.541Z</time></trkpt><trkpt lat="43.6749957" lon="12.9240673"><ele>243.4</ele><time>2026-04-11T09:18:07.542Z</time></trkpt><trkpt lat="43.6749486" lon="12.923981"><ele>245.8</ele><time>2026-04-11T09:18:08.541Z</time></trkpt><trkpt lat="43.6748526" lon="12.9239248"><ele>248.20000000000002</ele><time>2026-04-11T09:18:10.542Z</time></trkpt><trkpt lat="43.6747672" lon="12.9240231"><ele>250.60000000000002</ele><time>2026-04-11T09:18:12.543Z</time></trkpt><trkpt lat="43.6747361" lon="12.9241243"><ele>253.0</ele><time>2026-04-11T09:18:13.542Z</time></trkpt><trkpt lat="43.6746877" lon="12.9242463"><ele>253.75</ele><time>2026-04-11T09:18:14.541Z</time></trkpt><trkpt lat="43.6746287" lon="12.9243894"><ele>254.5</ele><time>2026-04-11T09:18:15.541Z</time></trkpt><trkpt lat="43.6745715" lon="12.9245201"><ele>255.25</ele><time>2026-04-11T09:18:16.541Z</time></trkpt><trkpt lat="43.6745146" lon="12.9246475"><ele>256.0</ele><time>2026-04-11T09:18:17.542Z</time></trkpt><trkpt lat="43.674459" lon="12.9247909"><ele>258.8</ele><time>2026-04-11T09:18:18.541Z</time></trkpt><trkpt lat="43.6743978" lon="12.9249234"><ele>261.6</ele><time>2026-04-11T09:18:19.54Z</time></trkpt><trkpt lat="43.6743454" lon="12.9250453"><ele>264.4</ele><time>2026-04-11T09:18:20.542Z</time></trkpt><trkpt lat="43.6743032" lon="12.9251648"><ele>267.2</ele><time>2026-04-11T09:18:21.54Z</time></trkpt><trkpt lat="43.6742681" lon="12.9252949"><ele>270.0</ele><time>2026-04-11T09:18:22.542Z</time></trkpt><trkpt lat="43.6742441" lon="12.9254226"><ele>272.6</ele><time>2026-04-11T09:18:23.543Z</time></trkpt><trkpt lat="43.6742226" lon="12.9255552"><ele>275.2</ele><time>2026-04-11T09:18:24.541Z</time></trkpt><trkpt lat="43.6742107" lon="12.9256904"><ele>277.8</ele><time>2026-04-11T09:18:25.541Z</time></trkpt><trkpt lat="43.6742116" lon="12.9258247"><ele>280.4</ele><time>2026-04-11T09:18:26.541Z</time></trkpt><trkpt lat="43.674204" lon="12.9259574"><ele>283.0</ele><time>2026-04-11T09:18:27.541Z</time></trkpt><trkpt lat="43.6741506" lon="12.9260858"><ele>283.0</ele><time>2026-04-11T09:18:29.543Z</time></trkpt><trkpt lat="43.6740793" lon="12.9261336"><ele>283.0</ele><time>2026-04-11T09:18:31.542Z</time></trkpt><trkpt lat="43.6740188" lon="12.926063"><ele>283.0</ele><time>2026-04-11T09:22:23.541Z</time></trkpt><trkpt lat="43.6739923" lon="12.9259222"><ele>283.0</ele><time>2026-04-11T09:22:25.541Z</time></trkpt><trkpt lat="43.6738979" lon="12.9258375"><ele>283.0</ele><time>2026-04-11T09:22:27.542Z</time></trkpt><trkpt lat="43.6738307" lon="12.9258202"><ele>283.0</ele><time>2026-04-11T09:22:28.541Z</time></trkpt><trkpt lat="43.6737646" lon="12.9258173"><ele>283.0</ele><time>2026-04-11T09:22:29.541Z</time></trkpt><trkpt lat="43.6736898" lon="12.9258193"><ele>283.0</ele><time>2026-04-11T09:22:30.54Z</time></trkpt><trkpt lat="43.6736043" lon="12.9258172"><ele>283.0</ele><time>2026-04-11T09:22:31.542Z</time></trkpt><trkpt lat="43.6735189" lon="12.9258018"><ele>283.0</ele><time>2026-04-11T09:22:32.54Z</time></trkpt><trkpt lat="43.6734434" lon="12.9257781"><ele>283.0</ele><time>2026-04-11T09:22:33.542Z</time></trkpt><trkpt lat="43.6733779" lon="12.9257357"><ele>283.0</ele><time>2026-04-11T09:22:34.541Z</time></trkpt><trkpt lat="43.6733198" lon="12.9256621"><ele>283.8</ele><time>2026-04-11T09:22:35.541Z</time></trkpt><trkpt lat="43.6732681" lon="12.9255542"><ele>284.6</ele><time>2026-04-11T09:22:36.541Z</time></trkpt><trkpt lat="43.6732262" lon="12.9254147"><ele>285.4</ele><time>2026-04-11T09:22:37.542Z</time></trkpt><trkpt lat="43.673187" lon="12.9252563"><ele>286.2</ele><time>2026-04-11T09:22:38.541Z</time></trkpt><trkpt lat="43.6731554" lon="12.9251041"><ele>287.0</ele><time>2026-04-11T09:22:39.542Z</time></trkpt><trkpt lat="43.6731264" lon="12.9249531"><ele>284.8</ele><time>2026-04-11T09:22:40.54Z</time></trkpt><trkpt lat="43.6730909" lon="12.9248043"><ele>282.6</ele><time>2026-04-11T09:22:41.54Z</time></trkpt><trkpt lat="43.6730563" lon="12.9246675"><ele>280.40000000000003</ele><time>2026-04-11T09:22:42.542Z</time></trkpt><trkpt lat="43.6730223" lon="12.924533"><ele>278.2</ele><time>2026-04-11T09:22:43.542Z</time></trkpt><trkpt lat="43.6729769" lon="12.9244075"><ele>276.0</ele><time>2026-04-11T09:22:44.542Z</time></trkpt><trkpt lat="43.6729286" lon="12.924284"><ele>275.6</ele><time>2026-04-11T09:22:45.541Z</time></trkpt><trkpt lat="43.6728616" lon="12.9241922"><ele>275.20000000000005</ele><time>2026-04-11T09:22:46.542Z</time></trkpt><trkpt lat="43.6727754" lon="12.9241143"><ele>274.79999999999995</ele><time>2026-04-11T09:22:47.541Z</time></trkpt><trkpt lat="43.6726843" lon="12.9240553"><ele>274.4</ele><time>2026-04-11T09:22:48.541Z</time></trkpt><trkpt lat="43.6725861" lon="12.9240028"><ele>274.0</ele><time>2026-04-11T09:22:49.541Z</time></trkpt><trkpt lat="43.6724839" lon="12.9239413"><ele>274.0</ele><time>2026-04-11T09:22:50.542Z</time></trkpt><trkpt lat="43.6723885" lon="12.9238718"><ele>274.0</ele><time>2026-04-11T09:22:51.542Z</time></trkpt><trkpt lat="43.6723097" lon="12.9237776"><ele>274.0</ele><time>2026-04-11T09:22:52.542Z</time></trkpt><trkpt lat="43.6722464" lon="12.9236576"><ele>274.0</ele><time>2026-04-11T09:22:53.54Z</time></trkpt><trkpt lat="43.6721888" lon="12.9235212"><ele>274.0</ele><time>2026-04-11T09:22:54.541Z</time></trkpt><trkpt lat="43.6721284" lon="12.9233752"><ele>272.25</ele><time>2026-04-11T09:22:55.541Z</time></trkpt><trkpt lat="43.6720635" lon="12.9232357"><ele>270.5</ele><time>2026-04-11T09:22:56.541Z</time></trkpt><trkpt lat="43.6720048" lon="12.9230904"><ele>268.75</ele><time>2026-04-11T09:22:57.54Z</time></trkpt><trkpt lat="43.6719429" lon="12.9229358"><ele>267.0</ele><time>2026-04-11T09:22:58.542Z</time></trkpt><trkpt lat="43.6718811" lon="12.9227937"><ele>266.8</ele><time>2026-04-11T09:22:59.541Z</time></trkpt><trkpt lat="43.6718212" lon="12.9226611"><ele>266.6</ele><time>2026-04-11T09:23:00.541Z</time></trkpt><trkpt lat="43.6717707" lon="12.9225365"><ele>266.40000000000003</ele><time>2026-04-11T09:23:01.542Z</time></trkpt><trkpt lat="43.6717181" lon="12.9224108"><ele>266.2</ele><time>2026-04-11T09:23:02.541Z</time></trkpt><trkpt lat="43.6716644" lon="12.9222803"><ele>266.0</ele><time>2026-04-11T09:23:03.541Z</time></trkpt><trkpt lat="43.6716153" lon="12.9221519"><ele>265.2</ele><time>2026-04-11T09:23:04.542Z</time></trkpt><trkpt lat="43.671567" lon="12.9220158"><ele>264.40000000000003</ele><time>2026-04-11T09:23:05.541Z</time></trkpt><trkpt lat="43.6715221" lon="12.9218891"><ele>263.6</ele><time>2026-04-11T09:23:06.541Z</time></trkpt><trkpt lat="43.6714814" lon="12.9217553"><ele>262.8</ele><time>2026-04-11T09:23:07.542Z</time></trkpt><trkpt lat="43.6714527" lon="12.9216378"><ele>262.0</ele><time>2026-04-11T09:23:08.541Z</time></trkpt><trkpt lat="43.671422" lon="12.9215146"><ele>261.5</ele><time>2026-04-11T09:23:09.541Z</time></trkpt><trkpt lat="43.6714008" lon="12.9213938"><ele>261.0</ele><time>2026-04-11T09:23:10.542Z</time></trkpt><trkpt lat="43.6713866" lon="12.9212972"><ele>260.5</ele><time>2026-04-11T09:23:11.542Z</time></trkpt><trkpt lat="43.6713618" lon="12.9211868"><ele>260.0</ele><time>2026-04-11T09:23:12.541Z</time></trkpt><trkpt lat="43.6713444" lon="12.9210702"><ele>259.5</ele><time>2026-04-11T09:23:13.541Z</time></trkpt><trkpt lat="43.671323" lon="12.920969"><ele>259.0</ele><time>2026-04-11T09:23:14.541Z</time></trkpt><trkpt lat="43.6713058" lon="12.9208659"><ele>258.0</ele><time>2026-04-11T09:23:15.541Z</time></trkpt><trkpt lat="43.6712877" lon="12.9207631"><ele>257.0</ele><time>2026-04-11T09:23:16.541Z</time></trkpt><trkpt lat="43.6712601" lon="12.9205518"><ele>255.99999999999997</ele><time>2026-04-11T09:23:18.541Z</time></trkpt><trkpt lat="43.6712406" lon="12.9204209"><ele>255.0</ele><time>2026-04-11T09:23:19.542Z</time></trkpt><trkpt lat="43.6712146" lon="12.9202634"><ele>254.0</ele><time>2026-04-11T09:23:20.54Z</time></trkpt><trkpt lat="43.6711817" lon="12.9201038"><ele>254.5</ele><time>2026-04-11T09:23:21.54Z</time></trkpt><trkpt lat="43.6711503" lon="12.919941"><ele>255.0</ele><time>2026-04-11T09:23:22.541Z</time></trkpt><trkpt lat="43.67112" lon="12.9197631"><ele>255.5</ele><time>2026-04-11T09:23:23.541Z</time></trkpt><trkpt lat="43.6710909" lon="12.9195869"><ele>256.0</ele><time>2026-04-11T09:23:24.54Z</time></trkpt><trkpt lat="43.6710764" lon="12.9194257"><ele>256.0</ele><time>2026-04-11T09:23:25.541Z</time></trkpt><trkpt lat="43.6710609" lon="12.9192559"><ele>256.0</ele><time>2026-04-11T09:23:26.541Z</time></trkpt><trkpt lat="43.6710468" lon="12.9190853"><ele>256.0</ele><time>2026-04-11T09:23:27.54Z</time></trkpt><trkpt lat="43.6710413" lon="12.9189097"><ele>256.0</ele><time>2026-04-11T09:23:28.541Z</time></trkpt><trkpt lat="43.6710386" lon="12.9187289"><ele>256.25</ele><time>2026-04-11T09:23:29.542Z</time></trkpt><trkpt lat="43.6710378" lon="12.918541"><ele>256.5</ele><time>2026-04-11T09:23:30.541Z</time></trkpt><trkpt lat="43.6710361" lon="12.9183528"><ele>256.75</ele><time>2026-04-11T09:23:31.542Z</time></trkpt><trkpt lat="43.6710403" lon="12.9181787"><ele>257.0</ele><time>2026-04-11T09:23:32.541Z</time></trkpt><trkpt lat="43.671044" lon="12.9180056"><ele>257.25</ele><time>2026-04-11T09:23:33.542Z</time></trkpt><trkpt lat="43.6710519" lon="12.917838"><ele>257.5</ele><time>2026-04-11T09:23:34.541Z</time></trkpt><trkpt lat="43.6710578" lon="12.9176665"><ele>257.75</ele><time>2026-04-11T09:23:35.542Z</time></trkpt><trkpt lat="43.6710645" lon="12.9174982"><ele>258.0</ele><time>2026-04-11T09:23:36.542Z</time></trkpt><trkpt lat="43.6710685" lon="12.9173345"><ele>259.25</ele><time>2026-04-11T09:23:37.54Z</time></trkpt><trkpt lat="43.6710743" lon="12.9171573"><ele>260.5</ele><time>2026-04-11T09:23:38.541Z</time></trkpt><trkpt lat="43.6710824" lon="12.9169624"><ele>261.75</ele><time>2026-04-11T09:23:39.542Z</time></trkpt><trkpt lat="43.671089" lon="12.9167666"><ele>263.0</ele><time>2026-04-11T09:23:40.541Z</time></trkpt><trkpt lat="43.6711042" lon="12.9165617"><ele>261.0</ele><time>2026-04-11T09:23:41.542Z</time></trkpt><trkpt lat="43.6711171" lon="12.9163598"><ele>259.0</ele><time>2026-04-11T09:23:42.542Z</time></trkpt><trkpt lat="43.6711324" lon="12.9161541"><ele>257.0</ele><time>2026-04-11T09:23:43.541Z</time></trkpt><trkpt lat="43.6711439" lon="12.9159447"><ele>255.0</ele><time>2026-04-11T09:23:44.541Z</time></trkpt><trkpt lat="43.6711481" lon="12.9157427"><ele>255.0</ele><time>2026-04-11T09:23:45.541Z</time></trkpt><trkpt lat="43.6711508" lon="12.9155447"><ele>255.0</ele><time>2026-04-11T09:23:46.541Z</time></trkpt><trkpt lat="43.6711473" lon="12.9153474"><ele>255.0</ele><time>2026-04-11T09:23:47.539Z</time></trkpt><trkpt lat="43.6711405" lon="12.9151634"><ele>255.0</ele><time>2026-04-11T09:23:48.541Z</time></trkpt><trkpt lat="43.6711373" lon="12.9149808"><ele>255.25</ele><time>2026-04-11T09:23:49.541Z</time></trkpt><trkpt lat="43.6711423" lon="12.9147961"><ele>255.5</ele><time>2026-04-11T09:23:50.54Z</time></trkpt><trkpt lat="43.6711728" lon="12.914603"><ele>255.75</ele><time>2026-04-11T09:23:51.541Z</time></trkpt><trkpt lat="43.6712242" lon="12.9144176"><ele>256.0</ele><time>2026-04-11T09:23:52.541Z</time></trkpt><trkpt lat="43.6712842" lon="12.9142213"><ele>256.66666666666663</ele><time>2026-04-11T09:23:53.541Z</time></trkpt><trkpt lat="43.6713541" lon="12.9140213"><ele>257.3333333333333</ele><time>2026-04-11T09:23:54.542Z</time></trkpt><trkpt lat="43.6714273" lon="12.91382"><ele>258.0</ele><time>2026-04-11T09:23:55.541Z</time></trkpt><trkpt lat="43.6715071" lon="12.9136158"><ele>258.0</ele><time>2026-04-11T09:23:56.542Z</time></trkpt><trkpt lat="43.6715869" lon="12.9134126"><ele>258.0</ele><time>2026-04-11T09:23:57.541Z</time></trkpt><trkpt lat="43.6716699" lon="12.9132095"><ele>258.0</ele><time>2026-04-11T09:23:58.541Z</time></trkpt><trkpt lat="43.671756" lon="12.9130107"><ele>258.25</ele><time>2026-04-11T09:23:59.541Z</time></trkpt><trkpt lat="43.671827" lon="12.9128248"><ele>258.5</ele><time>2026-04-11T09:24:00.54Z</time></trkpt><trkpt lat="43.6718911" lon="12.9126506"><ele>258.75</ele><time>2026-04-11T09:24:01.541Z</time></trkpt><trkpt lat="43.6719467" lon="12.9124797"><ele>259.0</ele><time>2026-04-11T09:24:02.54Z</time></trkpt><trkpt lat="43.6720057" lon="12.9123103"><ele>257.5</ele><time>2026-04-11T09:24:03.54Z</time></trkpt><trkpt lat="43.6720645" lon="12.9121473"><ele>256.0</ele><time>2026-04-11T09:24:04.541Z</time></trkpt><trkpt lat="43.6721243" lon="12.9119727"><ele>254.5</ele><time>2026-04-11T09:24:05.542Z</time></trkpt><trkpt lat="43.6721858" lon="12.9117918"><ele>253.0</ele><time>2026-04-11T09:24:06.541Z</time></trkpt><trkpt lat="43.6722421" lon="12.9115984"><ele>253.0</ele><time>2026-04-11T09:24:07.542Z</time></trkpt><trkpt lat="43.6722953" lon="12.9113879"><ele>253.0</ele><time>2026-04-11T09:24:08.539Z</time></trkpt><trkpt lat="43.6723345" lon="12.9111659"><ele>253.0</ele><time>2026-04-11T09:24:09.539Z</time></trkpt><trkpt lat="43.6723534" lon="12.910931"><ele>253.33333333333331</ele><time>2026-04-11T09:24:10.541Z</time></trkpt><trkpt lat="43.6723545" lon="12.9106878"><ele>253.66666666666669</ele><time>2026-04-11T09:24:11.542Z</time></trkpt><trkpt lat="43.6723465" lon="12.9104202"><ele>254.0</ele><time>2026-04-11T09:24:12.542Z</time></trkpt><trkpt lat="43.6723399" lon="12.9101696"><ele>254.0</ele><time>2026-04-11T09:24:13.541Z</time></trkpt><trkpt lat="43.6723251" lon="12.9099211"><ele>254.0</ele><time>2026-04-11T09:24:14.54Z</time></trkpt><trkpt lat="43.6723089" lon="12.9096695"><ele>254.0</ele><time>2026-04-11T09:24:15.542Z</time></trkpt><trkpt lat="43.6722929" lon="12.9094135"><ele>254.66666666666669</ele><time>2026-04-11T09:24:16.541Z</time></trkpt><trkpt lat="43.6722772" lon="12.9091527"><ele>255.33333333333331</ele><time>2026-04-11T09:24:17.541Z</time></trkpt><trkpt lat="43.6722581" lon="12.9088937"><ele>256.0</ele><time>2026-04-11T09:24:18.541Z</time></trkpt><trkpt lat="43.6722362" lon="12.9086381"><ele>257.0</ele><time>2026-04-11T09:24:19.54Z</time></trkpt><trkpt lat="43.6722107" lon="12.9083932"><ele>258.0</ele><time>2026-04-11T09:24:20.542Z</time></trkpt><trkpt lat="43.672182" lon="12.9081527"><ele>259.0</ele><time>2026-04-11T09:24:21.542Z</time></trkpt><trkpt lat="43.6721409" lon="12.9079284"><ele>259.0</ele><time>2026-04-11T09:24:22.542Z</time></trkpt><trkpt lat="43.6720784" lon="12.9077168"><ele>259.0</ele><time>2026-04-11T09:24:23.542Z</time></trkpt><trkpt lat="43.6719954" lon="12.9075177"><ele>259.0</ele><time>2026-04-11T09:24:24.542Z</time></trkpt><trkpt lat="43.6718996" lon="12.9073276"><ele>261.0</ele><time>2026-04-11T09:24:25.541Z</time></trkpt><trkpt lat="43.6717955" lon="12.9071323"><ele>263.0</ele><time>2026-04-11T09:24:26.541Z</time></trkpt><trkpt lat="43.6716852" lon="12.9069367"><ele>265.0</ele><time>2026-04-11T09:24:27.542Z</time></trkpt><trkpt lat="43.6715808" lon="12.9067382"><ele>267.3333333333333</ele><time>2026-04-11T09:24:28.541Z</time></trkpt><trkpt lat="43.6714731" lon="12.9065401"><ele>269.6666666666667</ele><time>2026-04-11T09:24:29.541Z</time></trkpt><trkpt lat="43.6713684" lon="12.9063357"><ele>272.0</ele><time>2026-04-11T09:24:30.54Z</time></trkpt><trkpt lat="43.6712608" lon="12.9061279"><ele>272.0</ele><time>2026-04-11T09:24:31.54Z</time></trkpt><trkpt lat="43.6711567" lon="12.9059354"><ele>272.0</ele><time>2026-04-11T09:24:32.541Z</time></trkpt><trkpt lat="43.6710551" lon="12.9057416"><ele>272.0</ele><time>2026-04-11T09:24:33.54Z</time></trkpt><trkpt lat="43.6709565" lon="12.9055542"><ele>273.75</ele><time>2026-04-11T09:24:34.542Z</time></trkpt><trkpt lat="43.6708671" lon="12.9053843"><ele>275.5</ele><time>2026-04-11T09:24:35.54Z</time></trkpt><trkpt lat="43.6707855" lon="12.9052209"><ele>277.25</ele><time>2026-04-11T09:24:36.54Z</time></trkpt><trkpt lat="43.6707123" lon="12.9050581"><ele>279.0</ele><time>2026-04-11T09:24:37.54Z</time></trkpt><trkpt lat="43.6706604" lon="12.9048892"><ele>281.0</ele><time>2026-04-11T09:24:38.542Z</time></trkpt><trkpt lat="43.670625" lon="12.9047231"><ele>283.0</ele><time>2026-04-11T09:24:39.54Z</time></trkpt><trkpt lat="43.6705998" lon="12.9045474"><ele>285.0</ele><time>2026-04-11T09:24:40.54Z</time></trkpt><trkpt lat="43.6705805" lon="12.9043679"><ele>287.0</ele><time>2026-04-11T09:24:41.54Z</time></trkpt><trkpt lat="43.670581" lon="12.9041803"><ele>288.25</ele><time>2026-04-11T09:24:42.541Z</time></trkpt><trkpt lat="43.670599" lon="12.9039859"><ele>289.5</ele><time>2026-04-11T09:24:43.541Z</time></trkpt><trkpt lat="43.6706325" lon="12.9037906"><ele>290.75</ele><time>2026-04-11T09:24:44.542Z</time></trkpt><trkpt lat="43.6706711" lon="12.9035928"><ele>292.0</ele><time>2026-04-11T09:24:45.542Z</time></trkpt><trkpt lat="43.6707118" lon="12.9033896"><ele>293.0</ele><time>2026-04-11T09:24:46.542Z</time></trkpt><trkpt lat="43.6707468" lon="12.9031705"><ele>294.0</ele><time>2026-04-11T09:24:47.54Z</time></trkpt><trkpt lat="43.6707871" lon="12.9029335"><ele>295.0</ele><time>2026-04-11T09:24:48.541Z</time></trkpt><trkpt lat="43.6708322" lon="12.902694"><ele>295.0</ele><time>2026-04-11T09:24:49.541Z</time></trkpt><trkpt lat="43.6708798" lon="12.9024429"><ele>295.0</ele><time>2026-04-11T09:24:50.541Z</time></trkpt><trkpt lat="43.6709238" lon="12.9021868"><ele>295.0</ele><time>2026-04-11T09:24:51.54Z</time></trkpt><trkpt lat="43.6709644" lon="12.9019281"><ele>296.66666666666663</ele><time>2026-04-11T09:24:52.541Z</time></trkpt><trkpt lat="43.670997" lon="12.9016799"><ele>298.3333333333333</ele><time>2026-04-11T09:24:53.541Z</time></trkpt><trkpt lat="43.6710361" lon="12.9014391"><ele>300.0</ele><time>2026-04-11T09:24:54.54Z</time></trkpt><trkpt lat="43.6710598" lon="12.9012001"><ele>300.0</ele><time>2026-04-11T09:24:55.541Z</time></trkpt><trkpt lat="43.6710632" lon="12.9009651"><ele>300.0</ele><time>2026-04-11T09:24:56.541Z</time></trkpt><trkpt lat="43.6710461" lon="12.9007327"><ele>300.0</ele><time>2026-04-11T09:24:57.541Z</time></trkpt><trkpt lat="43.6710189" lon="12.900493"><ele>302.0</ele><time>2026-04-11T09:24:58.541Z</time></trkpt><trkpt lat="43.670993" lon="12.9002448"><ele>304.0</ele><time>2026-04-11T09:24:59.54Z</time></trkpt><trkpt lat="43.6709617" lon="12.899987"><ele>306.0</ele><time>2026-04-11T09:25:00.54Z</time></trkpt><trkpt lat="43.6709273" lon="12.8997265"><ele>309.0</ele><time>2026-04-11T09:25:01.54Z</time></trkpt><trkpt lat="43.6708837" lon="12.8994711"><ele>312.0</ele><time>2026-04-11T09:25:02.541Z</time></trkpt><trkpt lat="43.6708494" lon="12.899239"><ele>315.0</ele><time>2026-04-11T09:25:03.542Z</time></trkpt><trkpt lat="43.6708341" lon="12.8990117"><ele>316.3333333333333</ele><time>2026-04-11T09:25:04.54Z</time></trkpt><trkpt lat="43.6708297" lon="12.8987955"><ele>317.66666666666663</ele><time>2026-04-11T09:25:05.541Z</time></trkpt><trkpt lat="43.6708524" lon="12.8985819"><ele>319.0</ele><time>2026-04-11T09:25:06.542Z</time></trkpt><trkpt lat="43.6708726" lon="12.8983639"><ele>319.3333333333333</ele><time>2026-04-11T09:25:07.541Z</time></trkpt><trkpt lat="43.670881" lon="12.8981351"><ele>319.6666666666667</ele><time>2026-04-11T09:25:08.541Z</time></trkpt><trkpt lat="43.6708897" lon="12.89791"><ele>320.0</ele><time>2026-04-11T09:25:09.541Z</time></trkpt><trkpt lat="43.6709131" lon="12.8976918"><ele>320.6666666666667</ele><time>2026-04-11T09:25:10.541Z</time></trkpt><trkpt lat="43.6709661" lon="12.8974749"><ele>321.3333333333333</ele><time>2026-04-11T09:25:11.54Z</time></trkpt><trkpt lat="43.6710195" lon="12.8972651"><ele>322.0</ele><time>2026-04-11T09:25:12.541Z</time></trkpt><trkpt lat="43.6710706" lon="12.8970636"><ele>322.5</ele><time>2026-04-11T09:25:13.541Z</time></trkpt><trkpt lat="43.6711084" lon="12.8968754"><ele>323.0</ele><time>2026-04-11T09:25:14.54Z</time></trkpt><trkpt lat="43.6711232" lon="12.8966824"><ele>323.5</ele><time>2026-04-11T09:25:15.541Z</time></trkpt><trkpt lat="43.6711119" lon="12.8965034"><ele>324.0</ele><time>2026-04-11T09:25:16.539Z</time></trkpt><trkpt lat="43.6710981" lon="12.8963327"><ele>324.0</ele><time>2026-04-11T09:25:17.541Z</time></trkpt><trkpt lat="43.671081" lon="12.8961718"><ele>324.0</ele><time>2026-04-11T09:25:18.541Z</time></trkpt><trkpt lat="43.671078" lon="12.8960183"><ele>324.0</ele><time>2026-04-11T09:25:19.541Z</time></trkpt><trkpt lat="43.6711091" lon="12.8958715"><ele>324.0</ele><time>2026-04-11T09:25:20.54Z</time></trkpt><trkpt lat="43.6711561" lon="12.8957258"><ele>329.25</ele><time>2026-04-11T09:25:21.541Z</time></trkpt><trkpt lat="43.6712191" lon="12.8955759"><ele>334.5</ele><time>2026-04-11T09:25:22.541Z</time></trkpt><trkpt lat="43.6712876" lon="12.8954242"><ele>339.75</ele><time>2026-04-11T09:25:23.541Z</time></trkpt><trkpt lat="43.6713411" lon="12.8952685"><ele>345.0</ele><time>2026-04-11T09:25:24.54Z</time></trkpt><trkpt lat="43.6713677" lon="12.8951085"><ele>344.75</ele><time>2026-04-11T09:25:25.542Z</time></trkpt><trkpt lat="43.6713688" lon="12.8949492"><ele>344.5</ele><time>2026-04-11T09:25:26.541Z</time></trkpt><trkpt lat="43.6713445" lon="12.8947968"><ele>344.25</ele><time>2026-04-11T09:25:27.541Z</time></trkpt><trkpt lat="43.6713102" lon="12.894646"><ele>344.0</ele><time>2026-04-11T09:25:28.54Z</time></trkpt><trkpt lat="43.671274" lon="12.8944984"><ele>344.0</ele><time>2026-04-11T09:25:29.541Z</time></trkpt><trkpt lat="43.6712421" lon="12.8943476"><ele>344.0</ele><time>2026-04-11T09:25:30.542Z</time></trkpt><trkpt lat="43.6712198" lon="12.8941842"><ele>344.0</ele><time>2026-04-11T09:25:31.541Z</time></trkpt><trkpt lat="43.671208" lon="12.8940117"><ele>344.0</ele><time>2026-04-11T09:25:32.54Z</time></trkpt><trkpt lat="43.6711928" lon="12.8938362"><ele>344.5</ele><time>2026-04-11T09:25:33.541Z</time></trkpt><trkpt lat="43.6711765" lon="12.8936758"><ele>345.0</ele><time>2026-04-11T09:25:34.54Z</time></trkpt><trkpt lat="43.6711512" lon="12.8935241"><ele>345.5</ele><time>2026-04-11T09:25:35.54Z</time></trkpt><trkpt lat="43.6711232" lon="12.8933739"><ele>346.0</ele><time>2026-04-11T09:25:36.54Z</time></trkpt><trkpt lat="43.6710852" lon="12.8932336"><ele>342.20000000000005</ele><time>2026-04-11T09:25:37.542Z</time></trkpt><trkpt lat="43.6710482" lon="12.8930947"><ele>338.40000000000003</ele><time>2026-04-11T09:25:38.541Z</time></trkpt><trkpt lat="43.6710035" lon="12.8929627"><ele>334.6</ele><time>2026-04-11T09:25:39.54Z</time></trkpt><trkpt lat="43.6709626" lon="12.8928476"><ele>330.8</ele><time>2026-04-11T09:25:40.541Z</time></trkpt><trkpt lat="43.6709235" lon="12.8927549"><ele>327.0</ele><time>2026-04-11T09:25:41.54Z</time></trkpt><trkpt lat="43.6708897" lon="12.8926585"><ele>327.3333333333333</ele><time>2026-04-11T09:25:42.54Z</time></trkpt><trkpt lat="43.6708596" lon="12.8925747"><ele>327.6666666666667</ele><time>2026-04-11T09:25:43.542Z</time></trkpt><trkpt lat="43.6708289" lon="12.8924891"><ele>328.0</ele><time>2026-04-11T09:25:44.541Z</time></trkpt><trkpt lat="43.6708" lon="12.8924079"><ele>328.33333333333337</ele><time>2026-04-11T09:25:45.541Z</time></trkpt><trkpt lat="43.6707666" lon="12.8923335"><ele>328.6666666666667</ele><time>2026-04-11T09:25:46.541Z</time></trkpt><trkpt lat="43.6706881" lon="12.8921942"><ele>329.0</ele><time>2026-04-11T09:25:48.54Z</time></trkpt><trkpt lat="43.6706441" lon="12.8921209"><ele>329.0</ele><time>2026-04-11T09:25:49.54Z</time></trkpt><trkpt lat="43.670542" lon="12.8920007"><ele>329.0</ele><time>2026-04-11T09:25:51.54Z</time></trkpt><trkpt lat="43.6704829" lon="12.8919453"><ele>329.0</ele><time>2026-04-11T09:25:52.542Z</time></trkpt><trkpt lat="43.6704175" lon="12.8918876"><ele>329.0</ele><time>2026-04-11T09:25:53.541Z</time></trkpt><trkpt lat="43.6703488" lon="12.8918277"><ele>329.0</ele><time>2026-04-11T09:25:54.54Z</time></trkpt><trkpt lat="43.6702868" lon="12.8917704"><ele>329.0</ele><time>2026-04-11T09:25:55.541Z</time></trkpt><trkpt lat="43.6702263" lon="12.8917183"><ele>327.83333333333337</ele><time>2026-04-11T09:25:56.539Z</time></trkpt><trkpt lat="43.6701593" lon="12.8916637"><ele>326.6666666666667</ele><time>2026-04-11T09:25:57.54Z</time></trkpt><trkpt lat="43.6700976" lon="12.8916109"><ele>325.5</ele><time>2026-04-11T09:25:58.541Z</time></trkpt><trkpt lat="43.6700373" lon="12.8915578"><ele>324.3333333333333</ele><time>2026-04-11T09:25:59.54Z</time></trkpt><trkpt lat="43.6699661" lon="12.8915004"><ele>323.16666666666663</ele><time>2026-04-11T09:26:00.54Z</time></trkpt><trkpt lat="43.6699003" lon="12.8914483"><ele>322.0</ele><time>2026-04-11T09:26:01.541Z</time></trkpt><trkpt lat="43.6698228" lon="12.8913779"><ele>322.0</ele><time>2026-04-11T09:26:02.542Z</time></trkpt><trkpt lat="43.6697541" lon="12.8913118"><ele>322.0</ele><time>2026-04-11T09:26:03.541Z</time></trkpt><trkpt lat="43.6696862" lon="12.8912517"><ele>322.0</ele><time>2026-04-11T09:26:04.542Z</time></trkpt><trkpt lat="43.6696326" lon="12.8911932"><ele>322.0</ele><time>2026-04-11T09:26:05.542Z</time></trkpt><trkpt lat="43.6695773" lon="12.8911294"><ele>322.0</ele><time>2026-04-11T09:26:06.542Z</time></trkpt><trkpt lat="43.6695296" lon="12.8910701"><ele>322.0</ele><time>2026-04-11T09:26:07.54Z</time></trkpt><trkpt lat="43.6694785" lon="12.8910122"><ele>322.0</ele><time>2026-04-11T09:26:08.54Z</time></trkpt><trkpt lat="43.6694332" lon="12.8909475"><ele>321.16666666666663</ele><time>2026-04-11T09:26:09.541Z</time></trkpt><trkpt lat="43.6693879" lon="12.8908748"><ele>320.3333333333333</ele><time>2026-04-11T09:26:10.542Z</time></trkpt><trkpt lat="43.6693435" lon="12.8907917"><ele>319.5</ele><time>2026-04-11T09:26:11.541Z</time></trkpt><trkpt lat="43.6693044" lon="12.8907124"><ele>318.6666666666667</ele><time>2026-04-11T09:26:12.542Z</time></trkpt><trkpt lat="43.6692543" lon="12.8905547"><ele>317.83333333333337</ele><time>2026-04-11T09:26:14.54Z</time></trkpt><trkpt lat="43.6692384" lon="12.8904598"><ele>317.0</ele><time>2026-04-11T09:26:15.54Z</time></trkpt><trkpt lat="43.6692023" lon="12.8903051"><ele>317.0</ele><time>2026-04-11T09:26:17.541Z</time></trkpt><trkpt lat="43.6691702" lon="12.8901627"><ele>317.0</ele><time>2026-04-11T09:26:19.541Z</time></trkpt><trkpt lat="43.6691482" lon="12.8900781"><ele>317.0</ele><time>2026-04-11T09:26:21.54Z</time></trkpt><trkpt lat="43.6691651" lon="12.8899788"><ele>317.0</ele><time>2026-04-11T09:26:24.541Z</time></trkpt><trkpt lat="43.6692361" lon="12.8899634"><ele>317.0</ele><time>2026-04-11T09:26:26.54Z</time></trkpt><trkpt lat="43.669338" lon="12.8899744"><ele>317.0</ele><time>2026-04-11T09:26:28.54Z</time></trkpt><trkpt lat="43.6694562" lon="12.8900227"><ele>316.5</ele><time>2026-04-11T09:26:30.54Z</time></trkpt><trkpt lat="43.6695138" lon="12.8900597"><ele>316.0</ele><time>2026-04-11T09:26:31.541Z</time></trkpt><trkpt lat="43.6695749" lon="12.8901136"><ele>315.5</ele><time>2026-04-11T09:26:32.539Z</time></trkpt><trkpt lat="43.6696319" lon="12.8901776"><ele>315.0</ele><time>2026-04-11T09:26:33.54Z</time></trkpt><trkpt lat="43.6697047" lon="12.8902639"><ele>314.5</ele><time>2026-04-11T09:26:34.541Z</time></trkpt><trkpt lat="43.6697789" lon="12.89036"><ele>314.0</ele><time>2026-04-11T09:26:35.542Z</time></trkpt><trkpt lat="43.669836" lon="12.8904481"><ele>313.6666666666667</ele><time>2026-04-11T09:26:36.54Z</time></trkpt><trkpt lat="43.6699038" lon="12.8905074"><ele>313.33333333333337</ele><time>2026-04-11T09:26:37.541Z</time></trkpt><trkpt lat="43.6699698" lon="12.8905593"><ele>313.0</ele><time>2026-04-11T09:26:38.54Z</time></trkpt><trkpt lat="43.6700558" lon="12.8905889"><ele>312.6666666666667</ele><time>2026-04-11T09:26:39.541Z</time></trkpt><trkpt lat="43.6701401" lon="12.8905853"><ele>312.3333333333333</ele><time>2026-04-11T09:26:40.541Z</time></trkpt><trkpt lat="43.6702386" lon="12.8905803"><ele>312.0</ele><time>2026-04-11T09:26:41.542Z</time></trkpt><trkpt lat="43.6703549" lon="12.8905717"><ele>312.0</ele><time>2026-04-11T09:26:42.541Z</time></trkpt><trkpt lat="43.6704723" lon="12.8905655"><ele>312.0</ele><time>2026-04-11T09:26:43.54Z</time></trkpt><trkpt lat="43.6705852" lon="12.890563"><ele>312.0</ele><time>2026-04-11T09:26:44.541Z</time></trkpt><trkpt lat="43.6706946" lon="12.890561"><ele>312.0</ele><time>2026-04-11T09:26:45.541Z</time></trkpt><trkpt lat="43.6707965" lon="12.890558"><ele>312.0</ele><time>2026-04-11T09:26:46.54Z</time></trkpt><trkpt lat="43.670893" lon="12.8905645"><ele>312.0</ele><time>2026-04-11T09:26:47.541Z</time></trkpt><trkpt lat="43.6709907" lon="12.8905725"><ele>312.0</ele><time>2026-04-11T09:26:48.54Z</time></trkpt><trkpt lat="43.6710888" lon="12.8905848"><ele>312.0</ele><time>2026-04-11T09:26:49.541Z</time></trkpt><trkpt lat="43.6711824" lon="12.8905895"><ele>312.0</ele><time>2026-04-11T09:26:50.542Z</time></trkpt><trkpt lat="43.6712646" lon="12.8905926"><ele>312.0</ele><time>2026-04-11T09:26:51.539Z</time></trkpt><trkpt lat="43.6713354" lon="12.8905875"><ele>312.0</ele><time>2026-04-11T09:26:52.541Z</time></trkpt><trkpt lat="43.6714003" lon="12.8905707"><ele>310.8571428571429</ele><time>2026-04-11T09:26:53.54Z</time></trkpt><trkpt lat="43.6714622" lon="12.8905301"><ele>309.71428571428567</ele><time>2026-04-11T09:26:54.539Z</time></trkpt><trkpt lat="43.6715231" lon="12.8904576"><ele>308.57142857142856</ele><time>2026-04-11T09:26:55.541Z</time></trkpt><trkpt lat="43.6715796" lon="12.8903862"><ele>307.42857142857144</ele><time>2026-04-11T09:26:56.54Z</time></trkpt><trkpt lat="43.6716229" lon="12.890315"><ele>306.28571428571433</ele><time>2026-04-11T09:26:57.542Z</time></trkpt><trkpt lat="43.6716672" lon="12.8902364"><ele>305.1428571428571</ele><time>2026-04-11T09:26:58.541Z</time></trkpt><trkpt lat="43.6717052" lon="12.8901585"><ele>304.0</ele><time>2026-04-11T09:26:59.539Z</time></trkpt><trkpt lat="43.671728" lon="12.8900755"><ele>303.16666666666663</ele><time>2026-04-11T09:27:00.54Z</time></trkpt><trkpt lat="43.671752" lon="12.8899741"><ele>302.3333333333333</ele><time>2026-04-11T09:27:01.541Z</time></trkpt><trkpt lat="43.6717678" lon="12.889869"><ele>301.5</ele><time>2026-04-11T09:27:02.54Z</time></trkpt><trkpt lat="43.6717639" lon="12.88977"><ele>300.6666666666667</ele><time>2026-04-11T09:27:03.54Z</time></trkpt><trkpt lat="43.6717506" lon="12.8896814"><ele>299.83333333333337</ele><time>2026-04-11T09:27:04.541Z</time></trkpt><trkpt lat="43.6717577" lon="12.8895162"><ele>299.0</ele><time>2026-04-11T09:27:06.54Z</time></trkpt><trkpt lat="43.6717918" lon="12.8893471"><ele>297.6666666666667</ele><time>2026-04-11T09:27:08.541Z</time></trkpt><trkpt lat="43.6718174" lon="12.8892587"><ele>296.33333333333337</ele><time>2026-04-11T09:27:09.54Z</time></trkpt><trkpt lat="43.6718459" lon="12.8891576"><ele>295.0</ele><time>2026-04-11T09:27:10.54Z</time></trkpt><trkpt lat="43.6718708" lon="12.8890546"><ele>293.6666666666667</ele><time>2026-04-11T09:27:11.541Z</time></trkpt><trkpt lat="43.6719119" lon="12.8889636"><ele>292.3333333333333</ele><time>2026-04-11T09:27:12.54Z</time></trkpt><trkpt lat="43.6719584" lon="12.888881"><ele>291.0</ele><time>2026-04-11T09:27:13.54Z</time></trkpt><trkpt lat="43.6720172" lon="12.8887902"><ele>289.8</ele><time>2026-04-11T09:27:14.54Z</time></trkpt><trkpt lat="43.6720778" lon="12.8886961"><ele>288.6</ele><time>2026-04-11T09:27:15.54Z</time></trkpt><trkpt lat="43.672139" lon="12.888606"><ele>287.4</ele><time>2026-04-11T09:27:16.54Z</time></trkpt><trkpt lat="43.6722047" lon="12.8885095"><ele>286.2</ele><time>2026-04-11T09:27:17.54Z</time></trkpt><trkpt lat="43.672268" lon="12.8884135"><ele>285.0</ele><time>2026-04-11T09:27:18.541Z</time></trkpt><trkpt lat="43.6723422" lon="12.8883204"><ele>283.6</ele><time>2026-04-11T09:27:19.539Z</time></trkpt><trkpt lat="43.6724194" lon="12.8882327"><ele>282.2</ele><time>2026-04-11T09:27:20.541Z</time></trkpt><trkpt lat="43.672495" lon="12.8881554"><ele>280.8</ele><time>2026-04-11T09:27:21.54Z</time></trkpt><trkpt lat="43.6725789" lon="12.888089"><ele>279.4</ele><time>2026-04-11T09:27:22.541Z</time></trkpt><trkpt lat="43.6726614" lon="12.8880321"><ele>278.0</ele><time>2026-04-11T09:27:23.542Z</time></trkpt><trkpt lat="43.6727398" lon="12.8879688"><ele>275.8</ele><time>2026-04-11T09:27:24.54Z</time></trkpt><trkpt lat="43.6728118" lon="12.8878867"><ele>273.6</ele><time>2026-04-11T09:27:25.54Z</time></trkpt><trkpt lat="43.6728873" lon="12.8877929"><ele>271.4</ele><time>2026-04-11T09:27:26.542Z</time></trkpt><trkpt lat="43.6729624" lon="12.8876988"><ele>269.2</ele><time>2026-04-11T09:27:27.54Z</time></trkpt><trkpt lat="43.6730386" lon="12.8876042"><ele>267.0</ele><time>2026-04-11T09:27:28.541Z</time></trkpt><trkpt lat="43.6731164" lon="12.8875009"><ele>266.2</ele><time>2026-04-11T09:27:29.541Z</time></trkpt><trkpt lat="43.67319" lon="12.8874039"><ele>265.4</ele><time>2026-04-11T09:27:30.541Z</time></trkpt><trkpt lat="43.6732636" lon="12.8873013"><ele>264.6</ele><time>2026-04-11T09:27:31.541Z</time></trkpt><trkpt lat="43.6733312" lon="12.8871883"><ele>263.8</ele><time>2026-04-11T09:27:32.542Z</time></trkpt><trkpt lat="43.6733964" lon="12.8870716"><ele>263.0</ele><time>2026-04-11T09:27:33.54Z</time></trkpt><trkpt lat="43.6734644" lon="12.886953"><ele>263.0</ele><time>2026-04-11T09:27:34.542Z</time></trkpt><trkpt lat="43.6735339" lon="12.8868255"><ele>263.0</ele><time>2026-04-11T09:27:35.542Z</time></trkpt><trkpt lat="43.6736005" lon="12.886706"><ele>263.0</ele><time>2026-04-11T09:27:36.54Z</time></trkpt><trkpt lat="43.6736611" lon="12.8866004"><ele>263.0</ele><time>2026-04-11T09:27:37.54Z</time></trkpt><trkpt lat="43.6737176" lon="12.8865197"><ele>263.0</ele><time>2026-04-11T09:27:38.542Z</time></trkpt><trkpt lat="43.673799" lon="12.886453"><ele>260.83333333333337</ele><time>2026-04-11T09:27:40.541Z</time></trkpt><trkpt lat="43.6738742" lon="12.8865419"><ele>258.6666666666667</ele><time>2026-04-11T09:27:43.54Z</time></trkpt><trkpt lat="43.6739416" lon="12.8866802"><ele>256.5</ele><time>2026-04-11T09:27:45.54Z</time></trkpt><trkpt lat="43.673989" lon="12.8867536"><ele>254.33333333333331</ele><time>2026-04-11T09:27:46.541Z</time></trkpt><trkpt lat="43.6740339" lon="12.8868223"><ele>252.16666666666666</ele><time>2026-04-11T09:27:47.54Z</time></trkpt><trkpt lat="43.6740824" lon="12.8868787"><ele>250.0</ele><time>2026-04-11T09:27:48.54Z</time></trkpt><trkpt lat="43.6741331" lon="12.8869307"><ele>250.0</ele><time>2026-04-11T09:27:49.539Z</time></trkpt><trkpt lat="43.6742201" lon="12.8870335"><ele>250.0</ele><time>2026-04-11T09:27:51.541Z</time></trkpt><trkpt lat="43.6742943" lon="12.8871662"><ele>250.0</ele><time>2026-04-11T09:27:53.541Z</time></trkpt><trkpt lat="43.6743744" lon="12.8872837"><ele>250.0</ele><time>2026-04-11T09:27:55.542Z</time></trkpt><trkpt lat="43.6744821" lon="12.8873385"><ele>248.83333333333331</ele><time>2026-04-11T09:27:57.541Z</time></trkpt><trkpt lat="43.6745406" lon="12.8873711"><ele>247.66666666666666</ele><time>2026-04-11T09:27:58.541Z</time></trkpt><trkpt lat="43.6746029" lon="12.8874304"><ele>246.5</ele><time>2026-04-11T09:27:59.541Z</time></trkpt><trkpt lat="43.6746686" lon="12.8874986"><ele>245.33333333333331</ele><time>2026-04-11T09:28:00.541Z</time></trkpt><trkpt lat="43.674731" lon="12.8875692"><ele>244.16666666666666</ele><time>2026-04-11T09:28:01.541Z</time></trkpt><trkpt lat="43.6747944" lon="12.8876513"><ele>243.0</ele><time>2026-04-11T09:28:02.54Z</time></trkpt><trkpt lat="43.6748542" lon="12.8877284"><ele>243.0</ele><time>2026-04-11T09:28:03.541Z</time></trkpt><trkpt lat="43.6749089" lon="12.8877855"><ele>243.0</ele><time>2026-04-11T09:28:04.542Z</time></trkpt><trkpt lat="43.6749697" lon="12.887826"><ele>243.0</ele><time>2026-04-11T09:28:05.539Z</time></trkpt><trkpt lat="43.6750497" lon="12.8878411"><ele>243.0</ele><time>2026-04-11T09:28:06.542Z</time></trkpt><trkpt lat="43.6751279" lon="12.8878637"><ele>243.0</ele><time>2026-04-11T09:28:07.541Z</time></trkpt><trkpt lat="43.6751862" lon="12.8878999"><ele>243.0</ele><time>2026-04-11T09:28:08.542Z</time></trkpt><trkpt lat="43.6752386" lon="12.8879673"><ele>243.0</ele><time>2026-04-11T09:28:09.542Z</time></trkpt><trkpt lat="43.6753021" lon="12.888099"><ele>241.83333333333334</ele><time>2026-04-11T09:28:11.541Z</time></trkpt><trkpt lat="43.6753512" lon="12.8882083"><ele>240.66666666666669</ele><time>2026-04-11T09:28:13.54Z</time></trkpt><trkpt lat="43.6753958" lon="12.8883295"><ele>239.5</ele><time>2026-04-11T09:28:15.541Z</time></trkpt><trkpt lat="43.6754431" lon="12.8884201"><ele>238.33333333333334</ele><time>2026-04-11T09:28:17.542Z</time></trkpt><trkpt lat="43.6755174" lon="12.8884384"><ele>237.16666666666669</ele><time>2026-04-11T09:28:20.54Z</time></trkpt><trkpt lat="43.6755949" lon="12.8883714"><ele>236.0</ele><time>2026-04-11T09:28:23.54Z</time></trkpt><trkpt lat="43.6756537" lon="12.8883115"><ele>235.00000000000003</ele><time>2026-04-11T09:28:25.541Z</time></trkpt><trkpt lat="43.6757151" lon="12.8882412"><ele>234.0</ele><time>2026-04-11T09:28:27.541Z</time></trkpt><trkpt lat="43.6757782" lon="12.8881576"><ele>233.0</ele><time>2026-04-11T09:28:29.541Z</time></trkpt><trkpt lat="43.6758513" lon="12.8880677"><ele>232.0</ele><time>2026-04-11T09:28:31.541Z</time></trkpt><trkpt lat="43.6759229" lon="12.887985"><ele>231.00000000000003</ele><time>2026-04-11T09:28:33.54Z</time></trkpt><trkpt lat="43.6759883" lon="12.8879034"><ele>230.0</ele><time>2026-04-11T09:28:35.54Z</time></trkpt><trkpt lat="43.6760667" lon="12.8878228"><ele>228.0</ele><time>2026-04-11T09:28:37.541Z</time></trkpt><trkpt lat="43.67613" lon="12.8877421"><ele>226.0</ele><time>2026-04-11T09:28:39.541Z</time></trkpt><trkpt lat="43.6762023" lon="12.8876635"><ele>224.0</ele><time>2026-04-11T09:28:41.54Z</time></trkpt><trkpt lat="43.676304" lon="12.8875664"><ele>222.0</ele><time>2026-04-11T09:28:43.539Z</time></trkpt><trkpt lat="43.6763936" lon="12.8874642"><ele>220.0</ele><time>2026-04-11T09:28:45.541Z</time></trkpt><trkpt lat="43.6764741" lon="12.8873711"><ele>218.6</ele><time>2026-04-11T09:28:47.54Z</time></trkpt><trkpt lat="43.6765556" lon="12.8873114"><ele>217.2</ele><time>2026-04-11T09:28:49.541Z</time></trkpt><trkpt lat="43.6766372" lon="12.8873194"><ele>215.8</ele><time>2026-04-11T09:28:51.54Z</time></trkpt><trkpt lat="43.6767148" lon="12.8873891"><ele>214.4</ele><time>2026-04-11T09:28:53.541Z</time></trkpt><trkpt lat="43.6767847" lon="12.8874898"><ele>213.0</ele><time>2026-04-11T09:28:55.542Z</time></trkpt><trkpt lat="43.6768659" lon="12.8875579"><ele>212.99999999999997</ele><time>2026-04-11T09:28:57.541Z</time></trkpt><trkpt lat="43.6769289" lon="12.8875635"><ele>213.0</ele><time>2026-04-11T09:28:59.541Z</time></trkpt><trkpt lat="43.6769799" lon="12.8875071"><ele>213.0</ele><time>2026-04-11T09:29:14.54Z</time></trkpt><trkpt lat="43.6770338" lon="12.8874525"><ele>213.0</ele><time>2026-04-11T09:29:17.541Z</time></trkpt><trkpt lat="43.6770977" lon="12.8873549"><ele>213.0</ele><time>2026-04-11T09:29:20.539Z</time></trkpt><trkpt lat="43.6771539" lon="12.887278"><ele>212.99999999999997</ele><time>2026-04-11T09:29:22.541Z</time></trkpt><trkpt lat="43.6772073" lon="12.8872117"><ele>213.0</ele><time>2026-04-11T09:29:24.541Z</time></trkpt><trkpt lat="43.6772699" lon="12.8871393"><ele>211.8</ele><time>2026-04-11T09:29:26.541Z</time></trkpt><trkpt lat="43.6773267" lon="12.8870423"><ele>210.60000000000002</ele><time>2026-04-11T09:29:28.541Z</time></trkpt><trkpt lat="43.6773815" lon="12.8869236"><ele>209.39999999999998</ele><time>2026-04-11T09:29:30.541Z</time></trkpt><trkpt lat="43.6774372" lon="12.886797"><ele>208.2</ele><time>2026-04-11T09:29:32.54Z</time></trkpt><trkpt lat="43.677511" lon="12.8866592"><ele>207.0</ele><time>2026-04-11T09:29:34.539Z</time></trkpt><trkpt lat="43.6775839" lon="12.8865251"><ele>206.0</ele><time>2026-04-11T09:29:36.541Z</time></trkpt><trkpt lat="43.677659" lon="12.886398"><ele>205.0</ele><time>2026-04-11T09:29:38.54Z</time></trkpt><trkpt lat="43.6777276" lon="12.8862921"><ele>204.0</ele><time>2026-04-11T09:29:40.542Z</time></trkpt><trkpt lat="43.6777981" lon="12.8861989"><ele>203.0</ele><time>2026-04-11T09:29:42.541Z</time></trkpt><trkpt lat="43.6778704" lon="12.8861198"><ele>202.0</ele><time>2026-04-11T09:29:44.54Z</time></trkpt><trkpt lat="43.677943" lon="12.886013"><ele>199.83333333333331</ele><time>2026-04-11T09:29:46.541Z</time></trkpt><trkpt lat="43.6780038" lon="12.8859199"><ele>197.66666666666666</ele><time>2026-04-11T09:29:48.54Z</time></trkpt><trkpt lat="43.6780472" lon="12.885835"><ele>195.5</ele><time>2026-04-11T09:29:50.541Z</time></trkpt><trkpt lat="43.6780537" lon="12.8857129"><ele>193.33333333333331</ele><time>2026-04-11T09:29:52.541Z</time></trkpt><trkpt lat="43.678042" lon="12.8856052"><ele>191.16666666666666</ele><time>2026-04-11T09:29:54.539Z</time></trkpt><trkpt lat="43.6780052" lon="12.8855098"><ele>189.0</ele><time>2026-04-11T09:29:56.541Z</time></trkpt><trkpt lat="43.6779682" lon="12.8854074"><ele>189.0</ele><time>2026-04-11T09:29:58.541Z</time></trkpt><trkpt lat="43.677912" lon="12.8853049"><ele>189.0</ele><time>2026-04-11T09:30:00.541Z</time></trkpt><trkpt lat="43.6778735" lon="12.885206"><ele>189.0</ele><time>2026-04-11T09:30:02.541Z</time></trkpt><trkpt lat="43.6778428" lon="12.8850703"><ele>189.0</ele><time>2026-04-11T09:30:04.54Z</time></trkpt><trkpt lat="43.6778335" lon="12.8849471"><ele>189.0</ele><time>2026-04-11T09:30:06.541Z</time></trkpt><trkpt lat="43.6778448" lon="12.8848298"><ele>187.0</ele><time>2026-04-11T09:30:08.54Z</time></trkpt><trkpt lat="43.6778665" lon="12.8847024"><ele>185.0</ele><time>2026-04-11T09:30:10.54Z</time></trkpt><trkpt lat="43.6778978" lon="12.8845894"><ele>183.0</ele><time>2026-04-11T09:30:12.541Z</time></trkpt><trkpt lat="43.6779285" lon="12.8844688"><ele>181.0</ele><time>2026-04-11T09:30:14.542Z</time></trkpt><trkpt lat="43.6779725" lon="12.884351"><ele>179.0</ele><time>2026-04-11T09:30:16.542Z</time></trkpt><trkpt lat="43.6780098" lon="12.8842158"><ele>176.25</ele><time>2026-04-11T09:30:18.541Z</time></trkpt><trkpt lat="43.6780453" lon="12.8840683"><ele>173.5</ele><time>2026-04-11T09:30:20.541Z</time></trkpt><trkpt lat="43.6780641" lon="12.8839246"><ele>170.75</ele><time>2026-04-11T09:30:22.54Z</time></trkpt><trkpt lat="43.6780748" lon="12.8837632"><ele>168.0</ele><time>2026-04-11T09:30:24.54Z</time></trkpt><trkpt lat="43.6780843" lon="12.8836006"><ele>168.0</ele><time>2026-04-11T09:30:26.541Z</time></trkpt><trkpt lat="43.678091" lon="12.8834795"><ele>168.0</ele><time>2026-04-11T09:30:28.541Z</time></trkpt><trkpt lat="43.6780935" lon="12.8833797"><ele>168.0</ele><time>2026-04-11T09:30:30.54Z</time></trkpt><trkpt lat="43.6780963" lon="12.8832717"><ele>168.0</ele><time>2026-04-11T09:30:32.54Z</time></trkpt><trkpt lat="43.6781083" lon="12.88318"><ele>168.0</ele><time>2026-04-11T09:30:34.541Z</time></trkpt><trkpt lat="43.6781276" lon="12.8830728"><ele>168.0</ele><time>2026-04-11T09:30:36.54Z</time></trkpt><trkpt lat="43.6781492" lon="12.8829742"><ele>166.66666666666666</ele><time>2026-04-11T09:30:38.54Z</time></trkpt><trkpt lat="43.6781714" lon="12.8828785"><ele>165.33333333333334</ele><time>2026-04-11T09:30:40.54Z</time></trkpt><trkpt lat="43.6781887" lon="12.8827817"><ele>164.0</ele><time>2026-04-11T09:30:42.54Z</time></trkpt><trkpt lat="43.6782109" lon="12.8826735"><ele>162.66666666666669</ele><time>2026-04-11T09:30:44.541Z</time></trkpt><trkpt lat="43.6782329" lon="12.882582"><ele>161.33333333333334</ele><time>2026-04-11T09:30:46.541Z</time></trkpt><trkpt lat="43.6782567" lon="12.8824684"><ele>160.0</ele><time>2026-04-11T09:30:49.54Z</time></trkpt><trkpt lat="43.6782729" lon="12.8823655"><ele>159.0</ele><time>2026-04-11T09:30:52.539Z</time></trkpt><trkpt lat="43.678313" lon="12.8822974"><ele>158.0</ele><time>2026-04-11T09:30:54.541Z</time></trkpt><trkpt lat="43.6783688" lon="12.882221"><ele>157.0</ele><time>2026-04-11T09:30:56.541Z</time></trkpt><trkpt lat="43.6784364" lon="12.8821423"><ele>156.0</ele><time>2026-04-11T09:30:59.541Z</time></trkpt><trkpt lat="43.678489" lon="12.8820653"><ele>155.0</ele><time>2026-04-11T09:31:02.54Z</time></trkpt><trkpt lat="43.6785958" lon="12.8820114"><ele>154.0</ele><time>2026-04-11T09:31:05.541Z</time></trkpt><trkpt lat="43.6787255" lon="12.8819777"><ele>154.16666666666669</ele><time>2026-04-11T09:31:07.541Z</time></trkpt><trkpt lat="43.6787969" lon="12.8819638"><ele>154.33333333333334</ele><time>2026-04-11T09:31:08.54Z</time></trkpt><trkpt lat="43.678865" lon="12.881947"><ele>154.5</ele><time>2026-04-11T09:31:09.54Z</time></trkpt><trkpt lat="43.6789616" lon="12.8819133"><ele>154.66666666666666</ele><time>2026-04-11T09:31:11.54Z</time></trkpt><trkpt lat="43.6790337" lon="12.8818452"><ele>154.83333333333331</ele><time>2026-04-11T09:31:13.541Z</time></trkpt><trkpt lat="43.6791111" lon="12.8817177"><ele>155.0</ele><time>2026-04-11T09:31:15.541Z</time></trkpt><trkpt lat="43.6791477" lon="12.8816443"><ele>155.0</ele><time>2026-04-11T09:31:16.54Z</time></trkpt><trkpt lat="43.6791859" lon="12.8815537"><ele>155.0</ele><time>2026-04-11T09:31:17.539Z</time></trkpt><trkpt lat="43.6792247" lon="12.8814558"><ele>155.0</ele><time>2026-04-11T09:31:18.541Z</time></trkpt><trkpt lat="43.6792641" lon="12.8813514"><ele>155.0</ele><time>2026-04-11T09:31:19.541Z</time></trkpt><trkpt lat="43.6793058" lon="12.8812414"><ele>155.0</ele><time>2026-04-11T09:31:20.541Z</time></trkpt><trkpt lat="43.6793418" lon="12.881136"><ele>155.0</ele><time>2026-04-11T09:31:21.54Z</time></trkpt><trkpt lat="43.6793814" lon="12.8810337"><ele>155.0</ele><time>2026-04-11T09:31:22.54Z</time></trkpt><trkpt lat="43.6794223" lon="12.8809416"><ele>155.0</ele><time>2026-04-11T09:31:23.539Z</time></trkpt><trkpt lat="43.6794606" lon="12.8808622"><ele>155.0</ele><time>2026-04-11T09:31:24.541Z</time></trkpt><trkpt lat="43.6795053" lon="12.8807899"><ele>155.0</ele><time>2026-04-11T09:31:25.541Z</time></trkpt><trkpt lat="43.6795491" lon="12.8807099"><ele>155.0</ele><time>2026-04-11T09:31:26.541Z</time></trkpt><trkpt lat="43.6796318" lon="12.8805856"><ele>155.0</ele><time>2026-04-11T09:31:28.54Z</time></trkpt><trkpt lat="43.6797027" lon="12.8805532"><ele>157.14285714285714</ele><time>2026-04-11T09:31:29.54Z</time></trkpt><trkpt lat="43.6797639" lon="12.88051"><ele>159.28571428571428</ele><time>2026-04-11T09:31:30.54Z</time></trkpt><trkpt lat="43.6798218" lon="12.8804685"><ele>161.42857142857144</ele><time>2026-04-11T09:31:31.54Z</time></trkpt><trkpt lat="43.6798728" lon="12.8804166"><ele>163.57142857142856</ele><time>2026-04-11T09:31:32.54Z</time></trkpt><trkpt lat="43.6799192" lon="12.8803481"><ele>165.7142857142857</ele><time>2026-04-11T09:31:33.541Z</time></trkpt><trkpt lat="43.6799618" lon="12.8802819"><ele>167.85714285714286</ele><time>2026-04-11T09:31:34.54Z</time></trkpt><trkpt lat="43.68005" lon="12.8802238"><ele>170.0</ele><time>2026-04-11T09:31:36.54Z</time></trkpt><trkpt lat="43.6801516" lon="12.8802525"><ele>170.0</ele><time>2026-04-11T09:31:38.539Z</time></trkpt><trkpt lat="43.680223" lon="12.8802704"><ele>170.0</ele><time>2026-04-11T09:31:39.541Z</time></trkpt><trkpt lat="43.6802858" lon="12.8802791"><ele>170.0</ele><time>2026-04-11T09:31:40.539Z</time></trkpt><trkpt lat="43.6803511" lon="12.8802578"><ele>170.0</ele><time>2026-04-11T09:31:41.541Z</time></trkpt><trkpt lat="43.6804175" lon="12.8802195"><ele>170.0</ele><time>2026-04-11T09:31:42.541Z</time></trkpt><trkpt lat="43.6804896" lon="12.8801501"><ele>170.0</ele><time>2026-04-11T09:31:43.54Z</time></trkpt><trkpt lat="43.6805582" lon="12.8800706"><ele>174.6</ele><time>2026-04-11T09:31:44.54Z</time></trkpt><trkpt lat="43.6806351" lon="12.8799748"><ele>179.2</ele><time>2026-04-11T09:31:45.54Z</time></trkpt><trkpt lat="43.6807091" lon="12.8798785"><ele>183.8</ele><time>2026-04-11T09:31:46.538Z</time></trkpt><trkpt lat="43.6807742" lon="12.8797956"><ele>188.4</ele><time>2026-04-11T09:31:47.54Z</time></trkpt><trkpt lat="43.6808203" lon="12.8797235"><ele>193.0</ele><time>2026-04-11T09:31:48.541Z</time></trkpt><trkpt lat="43.6808663" lon="12.8795721"><ele>192.99999999999997</ele><time>2026-04-11T09:31:50.539Z</time></trkpt><trkpt lat="43.680871" lon="12.8794823"><ele>193.0</ele><time>2026-04-11T09:31:51.541Z</time></trkpt><trkpt lat="43.6808536" lon="12.8793904"><ele>193.0</ele><time>2026-04-11T09:31:52.541Z</time></trkpt><trkpt lat="43.6808341" lon="12.8792719"><ele>193.0</ele><time>2026-04-11T09:31:53.541Z</time></trkpt><trkpt lat="43.6808151" lon="12.8791389"><ele>192.99999999999997</ele><time>2026-04-11T09:31:54.539Z</time></trkpt><trkpt lat="43.6807999" lon="12.8789973"><ele>193.0</ele><time>2026-04-11T09:31:55.54Z</time></trkpt><trkpt lat="43.6807843" lon="12.8788576"><ele>196.2</ele><time>2026-04-11T09:31:56.541Z</time></trkpt><trkpt lat="43.6807616" lon="12.878724"><ele>199.4</ele><time>2026-04-11T09:31:57.541Z</time></trkpt><trkpt lat="43.680747" lon="12.8785906"><ele>202.6</ele><time>2026-04-11T09:31:58.539Z</time></trkpt><trkpt lat="43.6807393" lon="12.8784745"><ele>205.79999999999998</ele><time>2026-04-11T09:31:59.54Z</time></trkpt><trkpt lat="43.6807376" lon="12.8783839"><ele>209.0</ele><time>2026-04-11T09:32:00.54Z</time></trkpt><trkpt lat="43.6807865" lon="12.8782433"><ele>210.85714285714286</ele><time>2026-04-11T09:32:02.54Z</time></trkpt><trkpt lat="43.6808348" lon="12.878185"><ele>212.71428571428572</ele><time>2026-04-11T09:32:03.541Z</time></trkpt><trkpt lat="43.6808799" lon="12.8781195"><ele>214.57142857142856</ele><time>2026-04-11T09:32:04.54Z</time></trkpt><trkpt lat="43.6809213" lon="12.8780432"><ele>216.42857142857144</ele><time>2026-04-11T09:32:05.539Z</time></trkpt><trkpt lat="43.6809565" lon="12.8779551"><ele>218.2857142857143</ele><time>2026-04-11T09:32:06.541Z</time></trkpt><trkpt lat="43.6809884" lon="12.8778626"><ele>220.14285714285714</ele><time>2026-04-11T09:32:07.541Z</time></trkpt><trkpt lat="43.6810094" lon="12.8777554"><ele>222.0</ele><time>2026-04-11T09:32:08.539Z</time></trkpt><trkpt lat="43.6810287" lon="12.8776477"><ele>225.39999999999998</ele><time>2026-04-11T09:32:09.541Z</time></trkpt><trkpt lat="43.6810362" lon="12.8775466"><ele>228.79999999999998</ele><time>2026-04-11T09:32:10.54Z</time></trkpt><trkpt lat="43.6810199" lon="12.8774548"><ele>232.2</ele><time>2026-04-11T09:32:11.541Z</time></trkpt><trkpt lat="43.6809677" lon="12.8773273"><ele>235.6</ele><time>2026-04-11T09:32:13.541Z</time></trkpt><trkpt lat="43.6808535" lon="12.8772567"><ele>239.0</ele><time>2026-04-11T09:32:15.541Z</time></trkpt><trkpt lat="43.6807757" lon="12.8772291"><ele>239.00000000000003</ele><time>2026-04-11T09:32:16.54Z</time></trkpt><trkpt lat="43.6806994" lon="12.8772105"><ele>239.0</ele><time>2026-04-11T09:32:17.541Z</time></trkpt><trkpt lat="43.6806175" lon="12.8771998"><ele>239.0</ele><time>2026-04-11T09:32:18.539Z</time></trkpt><trkpt lat="43.6805541" lon="12.8771817"><ele>239.0</ele><time>2026-04-11T09:32:19.541Z</time></trkpt><trkpt lat="43.6804976" lon="12.8771359"><ele>239.00000000000003</ele><time>2026-04-11T09:32:20.539Z</time></trkpt><trkpt lat="43.680456" lon="12.8770031"><ele>239.0</ele><time>2026-04-11T09:32:22.54Z</time></trkpt><trkpt lat="43.6804581" lon="12.8768105"><ele>241.83333333333334</ele><time>2026-04-11T09:32:24.54Z</time></trkpt><trkpt lat="43.680462" lon="12.8766977"><ele>244.66666666666669</ele><time>2026-04-11T09:32:25.541Z</time></trkpt><trkpt lat="43.6804624" lon="12.8765674"><ele>247.5</ele><time>2026-04-11T09:32:26.541Z</time></trkpt><trkpt lat="43.6804663" lon="12.8764376"><ele>250.33333333333331</ele><time>2026-04-11T09:32:27.54Z</time></trkpt><trkpt lat="43.6804698" lon="12.8763153"><ele>253.16666666666666</ele><time>2026-04-11T09:32:28.541Z</time></trkpt><trkpt lat="43.680473" lon="12.8762113"><ele>256.0</ele><time>2026-04-11T09:32:29.541Z</time></trkpt><trkpt lat="43.6804948" lon="12.8760785"><ele>255.99999999999997</ele><time>2026-04-11T09:32:31.541Z</time></trkpt><trkpt lat="43.6805449" lon="12.8760242"><ele>256.0</ele><time>2026-04-11T09:32:33.541Z</time></trkpt><trkpt lat="43.6806298" lon="12.8760164"><ele>256.0</ele><time>2026-04-11T09:32:35.54Z</time></trkpt><trkpt lat="43.6806969" lon="12.8760195"><ele>256.0</ele><time>2026-04-11T09:32:37.54Z</time></trkpt><trkpt lat="43.680598" lon="12.8759965"><ele>255.99999999999997</ele><time>2026-04-11T09:33:55.54Z</time></trkpt><trkpt lat="43.680478" lon="12.8759692"><ele>256.0</ele><time>2026-04-11T09:33:57.541Z</time></trkpt><trkpt lat="43.6804114" lon="12.8759565"><ele>256.0</ele><time>2026-04-11T09:33:58.54Z</time></trkpt><trkpt lat="43.6802788" lon="12.8759535"><ele>256.0</ele><time>2026-04-11T09:34:00.541Z</time></trkpt><trkpt lat="43.6802007" lon="12.8759533"><ele>256.0</ele><time>2026-04-11T09:34:01.54Z</time></trkpt><trkpt lat="43.680117" lon="12.8759509"><ele>256.0</ele><time>2026-04-11T09:34:02.54Z</time></trkpt><trkpt lat="43.6800347" lon="12.8759591"><ele>256.0</ele><time>2026-04-11T09:34:03.54Z</time></trkpt><trkpt lat="43.6799506" lon="12.8759771"><ele>255.66666666666666</ele><time>2026-04-11T09:34:04.541Z</time></trkpt><trkpt lat="43.6798639" lon="12.8760022"><ele>255.33333333333331</ele><time>2026-04-11T09:34:05.541Z</time></trkpt><trkpt lat="43.6797838" lon="12.8760255"><ele>255.0</ele><time>2026-04-11T09:34:06.541Z</time></trkpt><trkpt lat="43.6797083" lon="12.8760543"><ele>254.66666666666669</ele><time>2026-04-11T09:34:07.539Z</time></trkpt><trkpt lat="43.6796268" lon="12.876082"><ele>254.33333333333334</ele><time>2026-04-11T09:34:08.54Z</time></trkpt><trkpt lat="43.6795507" lon="12.8761164"><ele>254.0</ele><time>2026-04-11T09:34:09.54Z</time></trkpt><trkpt lat="43.6794764" lon="12.8761504"><ele>254.16666666666669</ele><time>2026-04-11T09:34:10.541Z</time></trkpt><trkpt lat="43.679409" lon="12.8761801"><ele>254.33333333333334</ele><time>2026-04-11T09:34:11.54Z</time></trkpt><trkpt lat="43.679338" lon="12.8762056"><ele>254.5</ele><time>2026-04-11T09:34:12.54Z</time></trkpt><trkpt lat="43.6792672" lon="12.8762362"><ele>254.66666666666669</ele><time>2026-04-11T09:34:13.54Z</time></trkpt><trkpt lat="43.6791801" lon="12.8762688"><ele>254.83333333333334</ele><time>2026-04-11T09:34:14.54Z</time></trkpt><trkpt lat="43.6790955" lon="12.8762925"><ele>255.0</ele><time>2026-04-11T09:34:15.539Z</time></trkpt><trkpt lat="43.6790083" lon="12.8763174"><ele>255.0</ele><time>2026-04-11T09:34:16.538Z</time></trkpt><trkpt lat="43.6789254" lon="12.8763385"><ele>255.0</ele><time>2026-04-11T09:34:17.544Z</time></trkpt><trkpt lat="43.6788457" lon="12.8763648"><ele>255.0</ele><time>2026-04-11T09:34:18.54Z</time></trkpt><trkpt lat="43.67876" lon="12.8763728"><ele>255.0</ele><time>2026-04-11T09:34:19.539Z</time></trkpt><trkpt lat="43.6786818" lon="12.876372"><ele>255.0</ele><time>2026-04-11T09:34:20.54Z</time></trkpt><trkpt lat="43.6786059" lon="12.8763667"><ele>255.0</ele><time>2026-04-11T09:34:21.539Z</time></trkpt><trkpt lat="43.67853" lon="12.8763681"><ele>256.0</ele><time>2026-04-11T09:34:22.539Z</time></trkpt><trkpt lat="43.678456" lon="12.8763782"><ele>257.0</ele><time>2026-04-11T09:34:23.539Z</time></trkpt><trkpt lat="43.6783822" lon="12.8763791"><ele>258.0</ele><time>2026-04-11T09:34:24.541Z</time></trkpt><trkpt lat="43.6782805" lon="12.8763699"><ele>259.0</ele><time>2026-04-11T09:34:26.54Z</time></trkpt><trkpt lat="43.6782026" lon="12.8763223"><ele>260.0</ele><time>2026-04-11T09:34:29.539Z</time></trkpt><trkpt lat="43.6781746" lon="12.8762385"><ele>261.0</ele><time>2026-04-11T09:34:31.54Z</time></trkpt><trkpt lat="43.678171" lon="12.8760987"><ele>261.0</ele><time>2026-04-11T09:34:33.539Z</time></trkpt><trkpt lat="43.6781771" lon="12.8759421"><ele>261.0</ele><time>2026-04-11T09:34:35.54Z</time></trkpt><trkpt lat="43.6781929" lon="12.8758142"><ele>261.0</ele><time>2026-04-11T09:34:37.539Z</time></trkpt><trkpt lat="43.6781891" lon="12.8757139"><ele>261.0</ele><time>2026-04-11T09:34:39.54Z</time></trkpt><trkpt lat="43.6781562" lon="12.8756279"><ele>261.0</ele><time>2026-04-11T09:34:43.541Z</time></trkpt><trkpt lat="43.6780495" lon="12.8756114"><ele>261.0</ele><time>2026-04-11T09:34:45.541Z</time></trkpt><trkpt lat="43.6779713" lon="12.8756182"><ele>261.0</ele><time>2026-04-11T09:34:46.54Z</time></trkpt><trkpt lat="43.6778783" lon="12.8756161"><ele>261.0</ele><time>2026-04-11T09:34:47.54Z</time></trkpt><trkpt lat="43.6777852" lon="12.8756037"><ele>261.0</ele><time>2026-04-11T09:34:48.54Z</time></trkpt><trkpt lat="43.6776835" lon="12.8755933"><ele>261.0</ele><time>2026-04-11T09:34:49.541Z</time></trkpt><trkpt lat="43.6775819" lon="12.8755847"><ele>260.8</ele><time>2026-04-11T09:34:50.539Z</time></trkpt><trkpt lat="43.6774785" lon="12.8755846"><ele>260.6</ele><time>2026-04-11T09:34:51.539Z</time></trkpt><trkpt lat="43.6773659" lon="12.8755764"><ele>260.4</ele><time>2026-04-11T09:34:52.54Z</time></trkpt><trkpt lat="43.6772631" lon="12.8755751"><ele>260.2</ele><time>2026-04-11T09:34:53.54Z</time></trkpt><trkpt lat="43.6771616" lon="12.8755643"><ele>260.0</ele><time>2026-04-11T09:34:54.539Z</time></trkpt><trkpt lat="43.6770796" lon="12.8755356"><ele>260.0</ele><time>2026-04-11T09:34:55.541Z</time></trkpt><trkpt lat="43.6770222" lon="12.8754827"><ele>260.0</ele><time>2026-04-11T09:34:56.54Z</time></trkpt><trkpt lat="43.6769865" lon="12.8754098"><ele>260.0</ele><time>2026-04-11T09:34:57.54Z</time></trkpt><trkpt lat="43.6769738" lon="12.8752411"><ele>260.0</ele><time>2026-04-11T09:34:59.541Z</time></trkpt><trkpt lat="43.6769825" lon="12.8751504"><ele>260.0</ele><time>2026-04-11T09:35:00.54Z</time></trkpt><trkpt lat="43.6769907" lon="12.8750547"><ele>260.0</ele><time>2026-04-11T09:35:01.541Z</time></trkpt><trkpt lat="43.6770021" lon="12.8749681"><ele>258.6</ele><time>2026-04-11T09:35:02.541Z</time></trkpt><trkpt lat="43.6770119" lon="12.8748142"><ele>257.2</ele><time>2026-04-11T09:35:04.541Z</time></trkpt><trkpt lat="43.676986" lon="12.874714"><ele>255.8</ele><time>2026-04-11T09:35:07.54Z</time></trkpt><trkpt lat="43.6768848" lon="12.8746729"><ele>254.4</ele><time>2026-04-11T09:35:09.54Z</time></trkpt><trkpt lat="43.6767917" lon="12.8746793"><ele>253.0</ele><time>2026-04-11T09:35:10.54Z</time></trkpt><trkpt lat="43.6766769" lon="12.8747138"><ele>253.0</ele><time>2026-04-11T09:35:11.54Z</time></trkpt><trkpt lat="43.676556" lon="12.8747781"><ele>253.0</ele><time>2026-04-11T09:35:12.54Z</time></trkpt><trkpt lat="43.6764339" lon="12.8748425"><ele>253.0</ele><time>2026-04-11T09:35:13.54Z</time></trkpt><trkpt lat="43.6763089" lon="12.8748871"><ele>253.0</ele><time>2026-04-11T09:35:14.54Z</time></trkpt><trkpt lat="43.6761876" lon="12.8749164"><ele>253.4</ele><time>2026-04-11T09:35:15.54Z</time></trkpt><trkpt lat="43.6760627" lon="12.8749233"><ele>253.8</ele><time>2026-04-11T09:35:16.541Z</time></trkpt><trkpt lat="43.6759506" lon="12.8749317"><ele>254.2</ele><time>2026-04-11T09:35:17.539Z</time></trkpt><trkpt lat="43.6758431" lon="12.8749354"><ele>254.6</ele><time>2026-04-11T09:35:18.539Z</time></trkpt><trkpt lat="43.6757436" lon="12.8749276"><ele>255.0</ele><time>2026-04-11T09:35:19.54Z</time></trkpt><trkpt lat="43.6756537" lon="12.8749138"><ele>255.0</ele><time>2026-04-11T09:35:20.54Z</time></trkpt><trkpt lat="43.6755617" lon="12.8748819"><ele>255.0</ele><time>2026-04-11T09:35:21.54Z</time></trkpt><trkpt lat="43.6754777" lon="12.8748398"><ele>255.0</ele><time>2026-04-11T09:35:22.539Z</time></trkpt><trkpt lat="43.6753955" lon="12.8747862"><ele>255.0</ele><time>2026-04-11T09:35:23.541Z</time></trkpt><trkpt lat="43.6753181" lon="12.8747405"><ele>255.0</ele><time>2026-04-11T09:35:24.54Z</time></trkpt><trkpt lat="43.675242" lon="12.8746902"><ele>255.0</ele><time>2026-04-11T09:35:25.541Z</time></trkpt><trkpt lat="43.675163" lon="12.8746404"><ele>255.2</ele><time>2026-04-11T09:35:26.539Z</time></trkpt><trkpt lat="43.6750774" lon="12.8745911"><ele>255.4</ele><time>2026-04-11T09:35:27.538Z</time></trkpt><trkpt lat="43.674991" lon="12.874543"><ele>255.60000000000002</ele><time>2026-04-11T09:35:28.541Z</time></trkpt><trkpt lat="43.6748982" lon="12.8745099"><ele>255.8</ele><time>2026-04-11T09:35:29.54Z</time></trkpt><trkpt lat="43.6748014" lon="12.8744814"><ele>256.0</ele><time>2026-04-11T09:35:30.539Z</time></trkpt><trkpt lat="43.6747021" lon="12.8744603"><ele>256.0</ele><time>2026-04-11T09:35:31.54Z</time></trkpt><trkpt lat="43.6745886" lon="12.8744427"><ele>256.0</ele><time>2026-04-11T09:35:32.539Z</time></trkpt><trkpt lat="43.6744734" lon="12.8744348"><ele>256.0</ele><time>2026-04-11T09:35:33.539Z</time></trkpt><trkpt lat="43.6743556" lon="12.8744337"><ele>256.0</ele><time>2026-04-11T09:35:34.541Z</time></trkpt><trkpt lat="43.6742376" lon="12.8744345"><ele>256.75</ele><time>2026-04-11T09:35:35.539Z</time></trkpt><trkpt lat="43.6741184" lon="12.8744317"><ele>257.5</ele><time>2026-04-11T09:35:36.541Z</time></trkpt><trkpt lat="43.674001" lon="12.8744211"><ele>258.25</ele><time>2026-04-11T09:35:37.54Z</time></trkpt><trkpt lat="43.6738852" lon="12.8743842"><ele>259.0</ele><time>2026-04-11T09:35:38.54Z</time></trkpt><trkpt lat="43.6737665" lon="12.8743183"><ele>260.25</ele><time>2026-04-11T09:35:39.54Z</time></trkpt><trkpt lat="43.6736673" lon="12.8742191"><ele>261.5</ele><time>2026-04-11T09:35:40.539Z</time></trkpt><trkpt lat="43.6735711" lon="12.8741125"><ele>262.75</ele><time>2026-04-11T09:35:41.54Z</time></trkpt><trkpt lat="43.6734677" lon="12.8740071"><ele>264.0</ele><time>2026-04-11T09:35:42.541Z</time></trkpt><trkpt lat="43.6733702" lon="12.8739177"><ele>264.25</ele><time>2026-04-11T09:35:43.54Z</time></trkpt><trkpt lat="43.6732649" lon="12.8738718"><ele>264.5</ele><time>2026-04-11T09:35:44.539Z</time></trkpt><trkpt lat="43.6731372" lon="12.873846"><ele>264.75</ele><time>2026-04-11T09:35:45.54Z</time></trkpt><trkpt lat="43.6730097" lon="12.8738486"><ele>265.0</ele><time>2026-04-11T09:35:46.539Z</time></trkpt><trkpt lat="43.6728826" lon="12.8738633"><ele>263.75</ele><time>2026-04-11T09:35:47.54Z</time></trkpt><trkpt lat="43.6727503" lon="12.8738561"><ele>262.5</ele><time>2026-04-11T09:35:48.54Z</time></trkpt><trkpt lat="43.6726199" lon="12.8738379"><ele>261.25</ele><time>2026-04-11T09:35:49.539Z</time></trkpt><trkpt lat="43.6724886" lon="12.8737927"><ele>260.0</ele><time>2026-04-11T09:35:50.54Z</time></trkpt><trkpt lat="43.6723552" lon="12.8737199"><ele>260.0</ele><time>2026-04-11T09:35:51.541Z</time></trkpt><trkpt lat="43.6722183" lon="12.8736221"><ele>260.0</ele><time>2026-04-11T09:35:52.541Z</time></trkpt><trkpt lat="43.6720819" lon="12.8735135"><ele>260.0</ele><time>2026-04-11T09:35:53.538Z</time></trkpt><trkpt lat="43.67195" lon="12.8734"><ele>261.5</ele><time>2026-04-11T09:35:54.541Z</time></trkpt><trkpt lat="43.671819" lon="12.8732914"><ele>263.0</ele><time>2026-04-11T09:35:55.541Z</time></trkpt><trkpt lat="43.6716887" lon="12.8731987"><ele>264.5</ele><time>2026-04-11T09:35:56.54Z</time></trkpt><trkpt lat="43.671551" lon="12.8731298"><ele>266.0</ele><time>2026-04-11T09:35:57.54Z</time></trkpt><trkpt lat="43.6714188" lon="12.8730772"><ele>266.0</ele><time>2026-04-11T09:35:58.54Z</time></trkpt><trkpt lat="43.6712812" lon="12.8730388"><ele>266.0</ele><time>2026-04-11T09:35:59.54Z</time></trkpt><trkpt lat="43.6711461" lon="12.8730095"><ele>266.0</ele><time>2026-04-11T09:36:00.54Z</time></trkpt><trkpt lat="43.6710237" lon="12.8729892"><ele>266.0</ele><time>2026-04-11T09:36:01.54Z</time></trkpt><trkpt lat="43.6709088" lon="12.8729864"><ele>265.83333333333337</ele><time>2026-04-11T09:36:02.539Z</time></trkpt><trkpt lat="43.6708079" lon="12.8729802"><ele>265.6666666666667</ele><time>2026-04-11T09:36:03.54Z</time></trkpt><trkpt lat="43.6707182" lon="12.8729744"><ele>265.5</ele><time>2026-04-11T09:36:04.54Z</time></trkpt><trkpt lat="43.6706407" lon="12.872964"><ele>265.3333333333333</ele><time>2026-04-11T09:36:05.541Z</time></trkpt><trkpt lat="43.6705747" lon="12.8729579"><ele>265.16666666666663</ele><time>2026-04-11T09:36:06.54Z</time></trkpt><trkpt lat="43.6704697" lon="12.8729425"><ele>265.0</ele><time>2026-04-11T09:36:08.539Z</time></trkpt><trkpt lat="43.6703995" lon="12.8729071"><ele>265.0</ele><time>2026-04-11T09:36:10.54Z</time></trkpt><trkpt lat="43.6703485" lon="12.872778"><ele>265.0</ele><time>2026-04-11T09:36:12.538Z</time></trkpt><trkpt lat="43.6703444" lon="12.8726218"><ele>265.0</ele><time>2026-04-11T09:36:14.538Z</time></trkpt><trkpt lat="43.6703373" lon="12.8725171"><ele>265.0</ele><time>2026-04-11T09:36:16.541Z</time></trkpt><trkpt lat="43.6703061" lon="12.8724141"><ele>265.0</ele><time>2026-04-11T09:36:33.539Z</time></trkpt><trkpt lat="43.6702712" lon="12.8722519"><ele>266.8333333333333</ele><time>2026-04-11T09:36:35.541Z</time></trkpt><trkpt lat="43.6702433" lon="12.8721686"><ele>268.66666666666663</ele><time>2026-04-11T09:36:36.54Z</time></trkpt><trkpt lat="43.6702114" lon="12.8720842"><ele>270.5</ele><time>2026-04-11T09:36:37.541Z</time></trkpt><trkpt lat="43.6701683" lon="12.8719859"><ele>272.3333333333333</ele><time>2026-04-11T09:36:38.539Z</time></trkpt><trkpt lat="43.6701223" lon="12.8718698"><ele>274.1666666666667</ele><time>2026-04-11T09:36:39.54Z</time></trkpt><trkpt lat="43.6700752" lon="12.8717475"><ele>276.0</ele><time>2026-04-11T09:36:40.54Z</time></trkpt><trkpt lat="43.6700222" lon="12.8716044"><ele>276.0</ele><time>2026-04-11T09:36:41.54Z</time></trkpt><trkpt lat="43.6699594" lon="12.8714484"><ele>276.0</ele><time>2026-04-11T09:36:42.539Z</time></trkpt><trkpt lat="43.6698982" lon="12.8712875"><ele>276.0</ele><time>2026-04-11T09:36:43.54Z</time></trkpt><trkpt lat="43.6698371" lon="12.8711252"><ele>276.0</ele><time>2026-04-11T09:36:44.539Z</time></trkpt><trkpt lat="43.6697703" lon="12.8709655"><ele>274.75</ele><time>2026-04-11T09:36:45.541Z</time></trkpt><trkpt lat="43.6697104" lon="12.8708072"><ele>273.5</ele><time>2026-04-11T09:36:46.539Z</time></trkpt><trkpt lat="43.6696526" lon="12.8706493"><ele>272.25</ele><time>2026-04-11T09:36:47.539Z</time></trkpt><trkpt lat="43.6695984" lon="12.8704924"><ele>271.0</ele><time>2026-04-11T09:36:48.539Z</time></trkpt><trkpt lat="43.6695369" lon="12.8703355"><ele>271.0</ele><time>2026-04-11T09:36:49.541Z</time></trkpt><trkpt lat="43.6694766" lon="12.8701839"><ele>271.0</ele><time>2026-04-11T09:36:50.541Z</time></trkpt><trkpt lat="43.6694143" lon="12.8700421"><ele>271.0</ele><time>2026-04-11T09:36:51.539Z</time></trkpt><trkpt lat="43.6693569" lon="12.8699107"><ele>271.0</ele><time>2026-04-11T09:36:52.539Z</time></trkpt><trkpt lat="43.6693077" lon="12.8697768"><ele>273.25</ele><time>2026-04-11T09:36:53.541Z</time></trkpt><trkpt lat="43.6692558" lon="12.8696415"><ele>275.5</ele><time>2026-04-11T09:36:54.541Z</time></trkpt><trkpt lat="43.6692018" lon="12.8695009"><ele>277.75</ele><time>2026-04-11T09:36:55.539Z</time></trkpt><trkpt lat="43.6691481" lon="12.8693519"><ele>280.0</ele><time>2026-04-11T09:36:56.539Z</time></trkpt><trkpt lat="43.6690936" lon="12.8692092"><ele>280.0</ele><time>2026-04-11T09:36:57.541Z</time></trkpt><trkpt lat="43.669038" lon="12.8690661"><ele>280.0</ele><time>2026-04-11T09:36:58.54Z</time></trkpt><trkpt lat="43.6689883" lon="12.8689373"><ele>280.0</ele><time>2026-04-11T09:36:59.54Z</time></trkpt><trkpt lat="43.6689362" lon="12.8688284"><ele>280.0</ele><time>2026-04-11T09:37:00.539Z</time></trkpt><trkpt lat="43.6688867" lon="12.8687474"><ele>280.0</ele><time>2026-04-11T09:37:01.54Z</time></trkpt><trkpt lat="43.6688347" lon="12.8686696"><ele>280.0</ele><time>2026-04-11T09:37:02.54Z</time></trkpt><trkpt lat="43.6687806" lon="12.8685854"><ele>280.0</ele><time>2026-04-11T09:37:03.539Z</time></trkpt><trkpt lat="43.6687173" lon="12.8684882"><ele>280.0</ele><time>2026-04-11T09:37:04.541Z</time></trkpt><trkpt lat="43.6686495" lon="12.8683849"><ele>280.0</ele><time>2026-04-11T09:37:05.54Z</time></trkpt><trkpt lat="43.6685878" lon="12.868269"><ele>280.0</ele><time>2026-04-11T09:37:06.54Z</time></trkpt><trkpt lat="43.6685186" lon="12.8681546"><ele>278.8</ele><time>2026-04-11T09:37:07.541Z</time></trkpt><trkpt lat="43.6684523" lon="12.8680374"><ele>277.6</ele><time>2026-04-11T09:37:08.54Z</time></trkpt><trkpt lat="43.6683872" lon="12.8679206"><ele>276.4</ele><time>2026-04-11T09:37:09.541Z</time></trkpt><trkpt lat="43.6683223" lon="12.8677963"><ele>275.2</ele><time>2026-04-11T09:37:10.54Z</time></trkpt><trkpt lat="43.6682563" lon="12.8676732"><ele>274.0</ele><time>2026-04-11T09:37:11.541Z</time></trkpt><trkpt lat="43.6681872" lon="12.8675534"><ele>271.0</ele><time>2026-04-11T09:37:12.54Z</time></trkpt><trkpt lat="43.6681153" lon="12.8674378"><ele>268.0</ele><time>2026-04-11T09:37:13.54Z</time></trkpt><trkpt lat="43.6680282" lon="12.867317"><ele>265.0</ele><time>2026-04-11T09:37:14.541Z</time></trkpt><trkpt lat="43.6679346" lon="12.8672023"><ele>262.0</ele><time>2026-04-11T09:37:15.541Z</time></trkpt><trkpt lat="43.667839" lon="12.8671071"><ele>260.6</ele><time>2026-04-11T09:37:16.54Z</time></trkpt><trkpt lat="43.66775" lon="12.8670111"><ele>259.2</ele><time>2026-04-11T09:37:17.54Z</time></trkpt><trkpt lat="43.6676692" lon="12.8669124"><ele>257.8</ele><time>2026-04-11T09:37:18.541Z</time></trkpt><trkpt lat="43.6676058" lon="12.8667962"><ele>256.4</ele><time>2026-04-11T09:37:19.54Z</time></trkpt><trkpt lat="43.6675749" lon="12.8666744"><ele>255.0</ele><time>2026-04-11T09:37:20.54Z</time></trkpt><trkpt lat="43.6675613" lon="12.8665237"><ele>252.5</ele><time>2026-04-11T09:37:21.539Z</time></trkpt><trkpt lat="43.6675437" lon="12.8663653"><ele>250.0</ele><time>2026-04-11T09:37:22.54Z</time></trkpt><trkpt lat="43.6675156" lon="12.8662087"><ele>247.5</ele><time>2026-04-11T09:37:23.539Z</time></trkpt><trkpt lat="43.6674804" lon="12.8660443"><ele>245.0</ele><time>2026-04-11T09:37:24.54Z</time></trkpt><trkpt lat="43.6674468" lon="12.8658865"><ele>241.75</ele><time>2026-04-11T09:37:25.541Z</time></trkpt><trkpt lat="43.6673995" lon="12.8657243"><ele>238.5</ele><time>2026-04-11T09:37:26.541Z</time></trkpt><trkpt lat="43.6673478" lon="12.8655605"><ele>235.25</ele><time>2026-04-11T09:37:27.54Z</time></trkpt><trkpt lat="43.6672863" lon="12.8653871"><ele>232.0</ele><time>2026-04-11T09:37:28.541Z</time></trkpt><trkpt lat="43.6672272" lon="12.8652093"><ele>229.5</ele><time>2026-04-11T09:37:29.541Z</time></trkpt><trkpt lat="43.6671739" lon="12.8650342"><ele>227.0</ele><time>2026-04-11T09:37:30.54Z</time></trkpt><trkpt lat="43.6671272" lon="12.8648435"><ele>224.5</ele><time>2026-04-11T09:37:31.539Z</time></trkpt><trkpt lat="43.6670994" lon="12.8646535"><ele>222.0</ele><time>2026-04-11T09:37:32.54Z</time></trkpt><trkpt lat="43.6670691" lon="12.8644717"><ele>222.0</ele><time>2026-04-11T09:37:33.54Z</time></trkpt><trkpt lat="43.6670359" lon="12.8642912"><ele>222.0</ele><time>2026-04-11T09:37:34.541Z</time></trkpt><trkpt lat="43.6669923" lon="12.8641051"><ele>222.0</ele><time>2026-04-11T09:37:35.54Z</time></trkpt><trkpt lat="43.6669455" lon="12.8639182"><ele>222.0</ele><time>2026-04-11T09:37:36.54Z</time></trkpt><trkpt lat="43.6668929" lon="12.863731"><ele>219.5</ele><time>2026-04-11T09:37:37.541Z</time></trkpt><trkpt lat="43.6668415" lon="12.8635393"><ele>217.0</ele><time>2026-04-11T09:37:38.541Z</time></trkpt><trkpt lat="43.6668012" lon="12.8633452"><ele>214.5</ele><time>2026-04-11T09:37:39.54Z</time></trkpt><trkpt lat="43.6667599" lon="12.8631425"><ele>212.0</ele><time>2026-04-11T09:37:40.54Z</time></trkpt><trkpt lat="43.666717" lon="12.8629441"><ele>209.5</ele><time>2026-04-11T09:37:41.541Z</time></trkpt><trkpt lat="43.666668" lon="12.8627465"><ele>207.0</ele><time>2026-04-11T09:37:42.54Z</time></trkpt><trkpt lat="43.6666209" lon="12.8625501"><ele>204.5</ele><time>2026-04-11T09:37:43.541Z</time></trkpt><trkpt lat="43.6665795" lon="12.8623627"><ele>202.0</ele><time>2026-04-11T09:37:44.54Z</time></trkpt><trkpt lat="43.6665417" lon="12.8621736"><ele>201.0</ele><time>2026-04-11T09:37:45.54Z</time></trkpt><trkpt lat="43.6664975" lon="12.8619951"><ele>200.0</ele><time>2026-04-11T09:37:46.539Z</time></trkpt><trkpt lat="43.6664464" lon="12.8618061"><ele>199.0</ele><time>2026-04-11T09:37:47.541Z</time></trkpt><trkpt lat="43.6663908" lon="12.8616218"><ele>198.0</ele><time>2026-04-11T09:37:48.539Z</time></trkpt><trkpt lat="43.6663301" lon="12.8614448"><ele>196.25</ele><time>2026-04-11T09:37:49.54Z</time></trkpt><trkpt lat="43.6662685" lon="12.8612684"><ele>194.5</ele><time>2026-04-11T09:37:50.54Z</time></trkpt><trkpt lat="43.6662042" lon="12.8610913"><ele>192.75</ele><time>2026-04-11T09:37:51.54Z</time></trkpt><trkpt lat="43.6661388" lon="12.8609134"><ele>191.0</ele><time>2026-04-11T09:37:52.539Z</time></trkpt><trkpt lat="43.6660727" lon="12.860735"><ele>187.75</ele><time>2026-04-11T09:37:53.539Z</time></trkpt><trkpt lat="43.6660101" lon="12.8605728"><ele>184.5</ele><time>2026-04-11T09:37:54.54Z</time></trkpt><trkpt lat="43.6659464" lon="12.8604051"><ele>181.25</ele><time>2026-04-11T09:37:55.54Z</time></trkpt><trkpt lat="43.6658855" lon="12.8602412"><ele>178.0</ele><time>2026-04-11T09:37:56.54Z</time></trkpt><trkpt lat="43.6658451" lon="12.8600739"><ele>176.5</ele><time>2026-04-11T09:37:57.54Z</time></trkpt><trkpt lat="43.6658213" lon="12.8599033"><ele>175.0</ele><time>2026-04-11T09:37:58.54Z</time></trkpt><trkpt lat="43.6658184" lon="12.8597316"><ele>173.5</ele><time>2026-04-11T09:37:59.539Z</time></trkpt><trkpt lat="43.6658168" lon="12.859575"><ele>172.0</ele><time>2026-04-11T09:38:00.54Z</time></trkpt><trkpt lat="43.6657916" lon="12.8594292"><ele>172.0</ele><time>2026-04-11T09:38:01.539Z</time></trkpt><trkpt lat="43.6657443" lon="12.8593028"><ele>172.0</ele><time>2026-04-11T09:38:02.539Z</time></trkpt><trkpt lat="43.6656789" lon="12.8591917"><ele>172.0</ele><time>2026-04-11T09:38:03.54Z</time></trkpt><trkpt lat="43.6655966" lon="12.8590795"><ele>172.0</ele><time>2026-04-11T09:38:04.539Z</time></trkpt><trkpt lat="43.665511" lon="12.8589644"><ele>172.0</ele><time>2026-04-11T09:38:05.541Z</time></trkpt><trkpt lat="43.6654365" lon="12.8588492"><ele>170.6</ele><time>2026-04-11T09:38:06.54Z</time></trkpt><trkpt lat="43.6653796" lon="12.858731"><ele>169.2</ele><time>2026-04-11T09:38:07.54Z</time></trkpt><trkpt lat="43.6653253" lon="12.8585934"><ele>167.8</ele><time>2026-04-11T09:38:08.54Z</time></trkpt><trkpt lat="43.6652909" lon="12.8584471"><ele>166.4</ele><time>2026-04-11T09:38:09.539Z</time></trkpt><trkpt lat="43.6652639" lon="12.8582901"><ele>165.0</ele><time>2026-04-11T09:38:10.539Z</time></trkpt><trkpt lat="43.6652292" lon="12.8581263"><ele>163.75</ele><time>2026-04-11T09:38:11.54Z</time></trkpt><trkpt lat="43.6651721" lon="12.8579606"><ele>162.5</ele><time>2026-04-11T09:38:12.541Z</time></trkpt><trkpt lat="43.6651006" lon="12.8577919"><ele>161.25</ele><time>2026-04-11T09:38:13.541Z</time></trkpt><trkpt lat="43.665029" lon="12.857615"><ele>160.0</ele><time>2026-04-11T09:38:14.539Z</time></trkpt><trkpt lat="43.6649516" lon="12.8574521"><ele>158.0</ele><time>2026-04-11T09:38:15.54Z</time></trkpt><trkpt lat="43.6648844" lon="12.8573063"><ele>156.0</ele><time>2026-04-11T09:38:16.541Z</time></trkpt><trkpt lat="43.6648178" lon="12.8571517"><ele>154.0</ele><time>2026-04-11T09:38:17.54Z</time></trkpt><trkpt lat="43.6647478" lon="12.8569888"><ele>152.0</ele><time>2026-04-11T09:38:18.54Z</time></trkpt><trkpt lat="43.6646887" lon="12.8568223"><ele>149.5</ele><time>2026-04-11T09:38:19.54Z</time></trkpt><trkpt lat="43.6646197" lon="12.8566382"><ele>147.0</ele><time>2026-04-11T09:38:20.54Z</time></trkpt><trkpt lat="43.6646206" lon="12.8564659"><ele>144.5</ele><time>2026-04-11T09:38:21.541Z</time></trkpt><trkpt lat="43.6646373" lon="12.8563176"><ele>142.0</ele><time>2026-04-11T09:38:22.538Z</time></trkpt><trkpt lat="43.664645" lon="12.8561666"><ele>142.0</ele><time>2026-04-11T09:38:23.541Z</time></trkpt><trkpt lat="43.6646412" lon="12.8560248"><ele>142.0</ele><time>2026-04-11T09:38:24.538Z</time></trkpt><trkpt lat="43.6646164" lon="12.8558791"><ele>142.0</ele><time>2026-04-11T09:38:25.54Z</time></trkpt><trkpt lat="43.6645804" lon="12.8557312"><ele>142.0</ele><time>2026-04-11T09:38:26.539Z</time></trkpt><trkpt lat="43.6645329" lon="12.8555675"><ele>141.0</ele><time>2026-04-11T09:38:27.541Z</time></trkpt><trkpt lat="43.6644918" lon="12.8553899"><ele>140.0</ele><time>2026-04-11T09:38:28.541Z</time></trkpt><trkpt lat="43.664448" lon="12.8552207"><ele>139.0</ele><time>2026-04-11T09:38:29.54Z</time></trkpt><trkpt lat="43.6644226" lon="12.8550622"><ele>138.0</ele><time>2026-04-11T09:38:30.54Z</time></trkpt><trkpt lat="43.6643851" lon="12.8549247"><ele>138.0</ele><time>2026-04-11T09:38:31.54Z</time></trkpt><trkpt lat="43.66433" lon="12.8548058"><ele>138.0</ele><time>2026-04-11T09:38:32.541Z</time></trkpt><trkpt lat="43.6642451" lon="12.854712"><ele>138.0</ele><time>2026-04-11T09:38:33.539Z</time></trkpt><trkpt lat="43.664135" lon="12.8546302"><ele>138.0</ele><time>2026-04-11T09:38:34.541Z</time></trkpt><trkpt lat="43.6640111" lon="12.8545563"><ele>138.0</ele><time>2026-04-11T09:38:35.54Z</time></trkpt><trkpt lat="43.6638749" lon="12.854481"><ele>138.0</ele><time>2026-04-11T09:38:36.541Z</time></trkpt><trkpt lat="43.6637313" lon="12.8543989"><ele>138.0</ele><time>2026-04-11T09:38:37.539Z</time></trkpt><trkpt lat="43.6635904" lon="12.8543101"><ele>136.33333333333334</ele><time>2026-04-11T09:38:38.538Z</time></trkpt><trkpt lat="43.6634447" lon="12.8542055"><ele>134.66666666666669</ele><time>2026-04-11T09:38:39.541Z</time></trkpt><trkpt lat="43.6633028" lon="12.8540987"><ele>133.0</ele><time>2026-04-11T09:38:40.539Z</time></trkpt><trkpt lat="43.6631555" lon="12.853986"><ele>133.0</ele><time>2026-04-11T09:38:41.54Z</time></trkpt><trkpt lat="43.6630102" lon="12.8538738"><ele>133.0</ele><time>2026-04-11T09:38:42.541Z</time></trkpt><trkpt lat="43.6628586" lon="12.8537564"><ele>133.0</ele><time>2026-04-11T09:38:43.539Z</time></trkpt><trkpt lat="43.6627097" lon="12.8536429"><ele>133.33333333333334</ele><time>2026-04-11T09:38:44.541Z</time></trkpt><trkpt lat="43.6625569" lon="12.8535208"><ele>133.66666666666666</ele><time>2026-04-11T09:38:45.539Z</time></trkpt><trkpt lat="43.6624047" lon="12.8534054"><ele>134.0</ele><time>2026-04-11T09:38:46.54Z</time></trkpt><trkpt lat="43.6622565" lon="12.8532907"><ele>134.0</ele><time>2026-04-11T09:38:47.54Z</time></trkpt><trkpt lat="43.6621097" lon="12.8531764"><ele>134.0</ele><time>2026-04-11T09:38:48.541Z</time></trkpt><trkpt lat="43.661968" lon="12.853065"><ele>134.0</ele><time>2026-04-11T09:38:49.54Z</time></trkpt><trkpt lat="43.6618278" lon="12.8529618"><ele>135.25</ele><time>2026-04-11T09:38:50.54Z</time></trkpt><trkpt lat="43.6616942" lon="12.852863"><ele>136.5</ele><time>2026-04-11T09:38:51.539Z</time></trkpt><trkpt lat="43.6615661" lon="12.852769"><ele>137.75</ele><time>2026-04-11T09:38:52.54Z</time></trkpt><trkpt lat="43.6614469" lon="12.8526732"><ele>139.0</ele><time>2026-04-11T09:38:53.541Z</time></trkpt><trkpt lat="43.6613392" lon="12.8525839"><ele>139.0</ele><time>2026-04-11T09:38:54.54Z</time></trkpt><trkpt lat="43.6612376" lon="12.852492"><ele>139.0</ele><time>2026-04-11T09:38:55.541Z</time></trkpt><trkpt lat="43.6611654" lon="12.8524025"><ele>139.0</ele><time>2026-04-11T09:38:56.541Z</time></trkpt><trkpt lat="43.6611113" lon="12.8522864"><ele>139.0</ele><time>2026-04-11T09:38:57.54Z</time></trkpt><trkpt lat="43.6610753" lon="12.8521572"><ele>139.0</ele><time>2026-04-11T09:38:58.54Z</time></trkpt><trkpt lat="43.661049" lon="12.8520259"><ele>140.6</ele><time>2026-04-11T09:38:59.54Z</time></trkpt><trkpt lat="43.6610036" lon="12.8519072"><ele>142.2</ele><time>2026-04-11T09:39:00.54Z</time></trkpt><trkpt lat="43.6609376" lon="12.8518082"><ele>143.79999999999998</ele><time>2026-04-11T09:39:01.539Z</time></trkpt><trkpt lat="43.6608447" lon="12.8517253"><ele>145.4</ele><time>2026-04-11T09:39:02.539Z</time></trkpt><trkpt lat="43.6607492" lon="12.8516544"><ele>147.0</ele><time>2026-04-11T09:39:03.539Z</time></trkpt><trkpt lat="43.6606473" lon="12.8515771"><ele>147.0</ele><time>2026-04-11T09:39:04.541Z</time></trkpt><trkpt lat="43.6605509" lon="12.8515063"><ele>147.0</ele><time>2026-04-11T09:39:05.539Z</time></trkpt><trkpt lat="43.6604652" lon="12.8514415"><ele>147.0</ele><time>2026-04-11T09:39:06.539Z</time></trkpt><trkpt lat="43.6603802" lon="12.8513623"><ele>147.0</ele><time>2026-04-11T09:39:07.54Z</time></trkpt><trkpt lat="43.6603069" lon="12.8512692"><ele>147.0</ele><time>2026-04-11T09:39:08.541Z</time></trkpt><trkpt lat="43.6602431" lon="12.8511588"><ele>147.0</ele><time>2026-04-11T09:39:09.539Z</time></trkpt><trkpt lat="43.6601804" lon="12.8510393"><ele>147.0</ele><time>2026-04-11T09:39:10.539Z</time></trkpt><trkpt lat="43.6601349" lon="12.8509114"><ele>147.0</ele><time>2026-04-11T09:39:11.54Z</time></trkpt><trkpt lat="43.6601352" lon="12.8507863"><ele>147.0</ele><time>2026-04-11T09:39:12.54Z</time></trkpt><trkpt lat="43.660164" lon="12.8506688"><ele>147.0</ele><time>2026-04-11T09:39:13.54Z</time></trkpt><trkpt lat="43.6602031" lon="12.8505318"><ele>146.25</ele><time>2026-04-11T09:39:14.541Z</time></trkpt><trkpt lat="43.660244" lon="12.8503846"><ele>145.5</ele><time>2026-04-11T09:39:15.54Z</time></trkpt><trkpt lat="43.6602982" lon="12.8502241"><ele>144.75</ele><time>2026-04-11T09:39:16.539Z</time></trkpt><trkpt lat="43.66035" lon="12.8500648"><ele>144.0</ele><time>2026-04-11T09:39:17.538Z</time></trkpt><trkpt lat="43.6604069" lon="12.8499108"><ele>143.5</ele><time>2026-04-11T09:39:18.54Z</time></trkpt><trkpt lat="43.6604669" lon="12.8497627"><ele>143.0</ele><time>2026-04-11T09:39:19.541Z</time></trkpt><trkpt lat="43.6605065" lon="12.8496074"><ele>142.5</ele><time>2026-04-11T09:39:20.541Z</time></trkpt><trkpt lat="43.6605364" lon="12.8494585"><ele>142.0</ele><time>2026-04-11T09:39:21.54Z</time></trkpt><trkpt lat="43.6605496" lon="12.8492991"><ele>141.6</ele><time>2026-04-11T09:39:22.539Z</time></trkpt><trkpt lat="43.6605402" lon="12.8491494"><ele>141.2</ele><time>2026-04-11T09:39:23.54Z</time></trkpt><trkpt lat="43.6605112" lon="12.8490073"><ele>140.8</ele><time>2026-04-11T09:39:24.54Z</time></trkpt><trkpt lat="43.6604648" lon="12.8488913"><ele>140.4</ele><time>2026-04-11T09:39:25.541Z</time></trkpt><trkpt lat="43.6603988" lon="12.8488013"><ele>140.0</ele><time>2026-04-11T09:39:26.54Z</time></trkpt><trkpt lat="43.6603292" lon="12.8487649"><ele>141.0</ele><time>2026-04-11T09:39:27.54Z</time></trkpt><trkpt lat="43.6602601" lon="12.8487686"><ele>142.0</ele><time>2026-04-11T09:39:28.54Z</time></trkpt><trkpt lat="43.6601956" lon="12.8488042"><ele>143.0</ele><time>2026-04-11T09:39:29.539Z</time></trkpt><trkpt lat="43.6601339" lon="12.848853"><ele>144.0</ele><time>2026-04-11T09:39:30.541Z</time></trkpt><trkpt lat="43.6600387" lon="12.8489292"><ele>145.0</ele><time>2026-04-11T09:39:32.541Z</time></trkpt><trkpt lat="43.6599817" lon="12.8489761"><ele>146.0</ele><time>2026-04-11T09:39:34.541Z</time></trkpt><trkpt lat="43.6599186" lon="12.8489552"><ele>146.0</ele><time>2026-04-11T09:40:09.541Z</time></trkpt><trkpt lat="43.6599262" lon="12.848842"><ele>146.0</ele><time>2026-04-11T09:40:14.539Z</time></trkpt><trkpt lat="43.6600494" lon="12.8487717"><ele>146.0</ele><time>2026-04-11T09:40:16.541Z</time></trkpt><trkpt lat="43.6601397" lon="12.8487242"><ele>146.0</ele><time>2026-04-11T09:40:17.541Z</time></trkpt><trkpt lat="43.6602324" lon="12.8486638"><ele>146.0</ele><time>2026-04-11T09:40:18.54Z</time></trkpt><trkpt lat="43.660322" lon="12.8485844"><ele>145.0</ele><time>2026-04-11T09:40:19.54Z</time></trkpt><trkpt lat="43.6604015" lon="12.8484834"><ele>144.0</ele><time>2026-04-11T09:40:20.54Z</time></trkpt><trkpt lat="43.6604786" lon="12.848378"><ele>143.0</ele><time>2026-04-11T09:40:21.539Z</time></trkpt><trkpt lat="43.6605488" lon="12.8482724"><ele>142.0</ele><time>2026-04-11T09:40:22.54Z</time></trkpt><trkpt lat="43.6606101" lon="12.8481743"><ele>141.0</ele><time>2026-04-11T09:40:23.541Z</time></trkpt><trkpt lat="43.6606683" lon="12.8480784"><ele>141.0</ele><time>2026-04-11T09:40:24.54Z</time></trkpt><trkpt lat="43.6607224" lon="12.847994"><ele>141.0</ele><time>2026-04-11T09:40:25.539Z</time></trkpt><trkpt lat="43.6607774" lon="12.8479205"><ele>141.0</ele><time>2026-04-11T09:40:26.538Z</time></trkpt><trkpt lat="43.660838" lon="12.8478544"><ele>141.0</ele><time>2026-04-11T09:40:27.54Z</time></trkpt><trkpt lat="43.6608959" lon="12.847805"><ele>141.0</ele><time>2026-04-11T09:40:28.54Z</time></trkpt><trkpt lat="43.6609671" lon="12.8477744"><ele>141.0</ele><time>2026-04-11T09:40:29.54Z</time></trkpt><trkpt lat="43.6610403" lon="12.8477715"><ele>140.8</ele><time>2026-04-11T09:40:30.54Z</time></trkpt><trkpt lat="43.6611583" lon="12.8478315"><ele>140.6</ele><time>2026-04-11T09:40:32.538Z</time></trkpt><trkpt lat="43.6612178" lon="12.8478949"><ele>140.4</ele><time>2026-04-11T09:40:33.541Z</time></trkpt><trkpt lat="43.6612818" lon="12.8479782"><ele>140.2</ele><time>2026-04-11T09:40:34.54Z</time></trkpt><trkpt lat="43.6613581" lon="12.8480633"><ele>140.0</ele><time>2026-04-11T09:40:35.54Z</time></trkpt><trkpt lat="43.6614529" lon="12.8481428"><ele>140.0</ele><time>2026-04-11T09:40:36.541Z</time></trkpt><trkpt lat="43.6615688" lon="12.8481975"><ele>140.0</ele><time>2026-04-11T09:40:37.541Z</time></trkpt><trkpt lat="43.6617085" lon="12.8482288"><ele>140.0</ele><time>2026-04-11T09:40:38.541Z</time></trkpt><trkpt lat="43.6618523" lon="12.8482438"><ele>140.0</ele><time>2026-04-11T09:40:39.539Z</time></trkpt><trkpt lat="43.6620056" lon="12.8482526"><ele>140.0</ele><time>2026-04-11T09:40:40.54Z</time></trkpt><trkpt lat="43.6621641" lon="12.8482611"><ele>140.0</ele><time>2026-04-11T09:40:41.54Z</time></trkpt><trkpt lat="43.6623276" lon="12.8482769"><ele>140.0</ele><time>2026-04-11T09:40:42.538Z</time></trkpt><trkpt lat="43.6624933" lon="12.8482991"><ele>140.0</ele><time>2026-04-11T09:40:43.539Z</time></trkpt><trkpt lat="43.6626526" lon="12.8483408"><ele>140.0</ele><time>2026-04-11T09:40:44.538Z</time></trkpt><trkpt lat="43.6628045" lon="12.8484143"><ele>140.0</ele><time>2026-04-11T09:40:45.54Z</time></trkpt><trkpt lat="43.6629381" lon="12.8485242"><ele>141.33333333333331</ele><time>2026-04-11T09:40:46.541Z</time></trkpt><trkpt lat="43.6630508" lon="12.8486679"><ele>142.66666666666666</ele><time>2026-04-11T09:40:47.54Z</time></trkpt><trkpt lat="43.6631499" lon="12.8488413"><ele>144.0</ele><time>2026-04-11T09:40:48.54Z</time></trkpt><trkpt lat="43.6632333" lon="12.8490361"><ele>144.0</ele><time>2026-04-11T09:40:49.54Z</time></trkpt><trkpt lat="43.6632962" lon="12.8492204"><ele>144.0</ele><time>2026-04-11T09:40:50.541Z</time></trkpt><trkpt lat="43.6633689" lon="12.8493867"><ele>144.0</ele><time>2026-04-11T09:40:51.538Z</time></trkpt><trkpt lat="43.6634659" lon="12.8495371"><ele>144.0</ele><time>2026-04-11T09:40:52.539Z</time></trkpt><trkpt lat="43.6635804" lon="12.8496718"><ele>145.0</ele><time>2026-04-11T09:40:53.54Z</time></trkpt><trkpt lat="43.6637096" lon="12.8498153"><ele>146.0</ele><time>2026-04-11T09:40:54.539Z</time></trkpt><trkpt lat="43.6638409" lon="12.849954"><ele>147.0</ele><time>2026-04-11T09:40:55.541Z</time></trkpt><trkpt lat="43.6639831" lon="12.8500998"><ele>145.33333333333334</ele><time>2026-04-11T09:40:56.54Z</time></trkpt><trkpt lat="43.6641164" lon="12.8502356"><ele>143.66666666666669</ele><time>2026-04-11T09:40:57.54Z</time></trkpt><trkpt lat="43.6642491" lon="12.8503761"><ele>142.0</ele><time>2026-04-11T09:40:58.54Z</time></trkpt><trkpt lat="43.6643732" lon="12.850505"><ele>143.0</ele><time>2026-04-11T09:40:59.541Z</time></trkpt><trkpt lat="43.6644984" lon="12.8506373"><ele>144.0</ele><time>2026-04-11T09:41:00.54Z</time></trkpt><trkpt lat="43.6646248" lon="12.8507622"><ele>145.0</ele><time>2026-04-11T09:41:01.54Z</time></trkpt><trkpt lat="43.664754" lon="12.8508922"><ele>144.0</ele><time>2026-04-11T09:41:02.541Z</time></trkpt><trkpt lat="43.664887" lon="12.8510137"><ele>143.0</ele><time>2026-04-11T09:41:03.54Z</time></trkpt><trkpt lat="43.665029" lon="12.8511238"><ele>142.0</ele><time>2026-04-11T09:41:04.539Z</time></trkpt><trkpt lat="43.6651769" lon="12.8512036"><ele>141.0</ele><time>2026-04-11T09:41:05.54Z</time></trkpt><trkpt lat="43.6653429" lon="12.8512626"><ele>140.0</ele><time>2026-04-11T09:41:06.54Z</time></trkpt><trkpt lat="43.6655162" lon="12.8512904"><ele>139.0</ele><time>2026-04-11T09:41:07.541Z</time></trkpt><trkpt lat="43.6656991" lon="12.8512974"><ele>139.0</ele><time>2026-04-11T09:41:08.54Z</time></trkpt><trkpt lat="43.6658852" lon="12.8512831"><ele>139.0</ele><time>2026-04-11T09:41:09.54Z</time></trkpt><trkpt lat="43.6660694" lon="12.8512707"><ele>139.0</ele><time>2026-04-11T09:41:10.54Z</time></trkpt><trkpt lat="43.6662593" lon="12.8512727"><ele>139.33333333333334</ele><time>2026-04-11T09:41:11.539Z</time></trkpt><trkpt lat="43.6664496" lon="12.8512942"><ele>139.66666666666666</ele><time>2026-04-11T09:41:12.54Z</time></trkpt><trkpt lat="43.6666415" lon="12.8513343"><ele>140.0</ele><time>2026-04-11T09:41:13.54Z</time></trkpt><trkpt lat="43.6668273" lon="12.8513988"><ele>140.33333333333331</ele><time>2026-04-11T09:41:14.539Z</time></trkpt><trkpt lat="43.6670085" lon="12.8514677"><ele>140.66666666666666</ele><time>2026-04-11T09:41:15.539Z</time></trkpt><trkpt lat="43.6671982" lon="12.8515304"><ele>141.0</ele><time>2026-04-11T09:41:16.54Z</time></trkpt><trkpt lat="43.6673843" lon="12.8515765"><ele>141.0</ele><time>2026-04-11T09:41:17.538Z</time></trkpt><trkpt lat="43.6675707" lon="12.8516011"><ele>141.0</ele><time>2026-04-11T09:41:18.54Z</time></trkpt><trkpt lat="43.6677458" lon="12.851616"><ele>141.0</ele><time>2026-04-11T09:41:19.54Z</time></trkpt><trkpt lat="43.66792" lon="12.8516307"><ele>141.0</ele><time>2026-04-11T09:41:20.54Z</time></trkpt><trkpt lat="43.6680889" lon="12.8516375"><ele>141.0</ele><time>2026-04-11T09:41:21.541Z</time></trkpt><trkpt lat="43.6682569" lon="12.8516354"><ele>141.0</ele><time>2026-04-11T09:41:22.539Z</time></trkpt><trkpt lat="43.6684211" lon="12.8516175"><ele>141.0</ele><time>2026-04-11T09:41:23.539Z</time></trkpt><trkpt lat="43.6685869" lon="12.8515836"><ele>141.0</ele><time>2026-04-11T09:41:24.54Z</time></trkpt><trkpt lat="43.6687459" lon="12.8515344"><ele>141.0</ele><time>2026-04-11T09:41:25.539Z</time></trkpt><trkpt lat="43.6689024" lon="12.8514691"><ele>139.33333333333334</ele><time>2026-04-11T09:41:26.54Z</time></trkpt><trkpt lat="43.6690598" lon="12.8514028"><ele>137.66666666666669</ele><time>2026-04-11T09:41:27.54Z</time></trkpt><trkpt lat="43.6692199" lon="12.8513281"><ele>136.0</ele><time>2026-04-11T09:41:28.54Z</time></trkpt><trkpt lat="43.6693757" lon="12.851242"><ele>134.33333333333334</ele><time>2026-04-11T09:41:29.54Z</time></trkpt><trkpt lat="43.6695308" lon="12.8511607"><ele>132.66666666666666</ele><time>2026-04-11T09:41:30.541Z</time></trkpt><trkpt lat="43.6696812" lon="12.8510796"><ele>131.0</ele><time>2026-04-11T09:41:31.54Z</time></trkpt><trkpt lat="43.6698241" lon="12.8510003"><ele>132.33333333333331</ele><time>2026-04-11T09:41:32.541Z</time></trkpt><trkpt lat="43.6699699" lon="12.8509458"><ele>133.66666666666666</ele><time>2026-04-11T09:41:33.54Z</time></trkpt><trkpt lat="43.6701241" lon="12.8509352"><ele>135.0</ele><time>2026-04-11T09:41:34.54Z</time></trkpt><trkpt lat="43.6702791" lon="12.8509633"><ele>135.0</ele><time>2026-04-11T09:41:35.539Z</time></trkpt><trkpt lat="43.6704248" lon="12.851002"><ele>135.0</ele><time>2026-04-11T09:41:36.539Z</time></trkpt><trkpt lat="43.670565" lon="12.8510367"><ele>135.0</ele><time>2026-04-11T09:41:37.539Z</time></trkpt><trkpt lat="43.6706964" lon="12.8510664"><ele>135.0</ele><time>2026-04-11T09:41:38.541Z</time></trkpt><trkpt lat="43.6708267" lon="12.8510878"><ele>135.0</ele><time>2026-04-11T09:41:39.54Z</time></trkpt><trkpt lat="43.6709634" lon="12.8511171"><ele>135.0</ele><time>2026-04-11T09:41:40.539Z</time></trkpt><trkpt lat="43.6711013" lon="12.8511489"><ele>135.0</ele><time>2026-04-11T09:41:41.54Z</time></trkpt><trkpt lat="43.6712515" lon="12.8512008"><ele>135.0</ele><time>2026-04-11T09:41:42.541Z</time></trkpt><trkpt lat="43.6714007" lon="12.8512432"><ele>133.75</ele><time>2026-04-11T09:41:43.54Z</time></trkpt><trkpt lat="43.6715471" lon="12.851262"><ele>132.5</ele><time>2026-04-11T09:41:44.538Z</time></trkpt><trkpt lat="43.671693" lon="12.8512449"><ele>131.25</ele><time>2026-04-11T09:41:45.54Z</time></trkpt><trkpt lat="43.6718332" lon="12.851204"><ele>130.0</ele><time>2026-04-11T09:41:46.54Z</time></trkpt><trkpt lat="43.6719712" lon="12.8511517"><ele>130.0</ele><time>2026-04-11T09:41:47.54Z</time></trkpt><trkpt lat="43.6721119" lon="12.8511034"><ele>130.0</ele><time>2026-04-11T09:41:48.54Z</time></trkpt><trkpt lat="43.6722458" lon="12.851054"><ele>130.0</ele><time>2026-04-11T09:41:49.54Z</time></trkpt><trkpt lat="43.6723682" lon="12.8510074"><ele>130.0</ele><time>2026-04-11T09:41:50.54Z</time></trkpt><trkpt lat="43.6724887" lon="12.8509831"><ele>130.0</ele><time>2026-04-11T09:41:51.54Z</time></trkpt><trkpt lat="43.6726088" lon="12.8509665"><ele>130.0</ele><time>2026-04-11T09:41:52.539Z</time></trkpt><trkpt lat="43.6727249" lon="12.850969"><ele>130.0</ele><time>2026-04-11T09:41:53.539Z</time></trkpt><trkpt lat="43.6728348" lon="12.8509746"><ele>130.0</ele><time>2026-04-11T09:41:54.54Z</time></trkpt><trkpt lat="43.6729456" lon="12.8509814"><ele>131.5</ele><time>2026-04-11T09:41:55.54Z</time></trkpt><trkpt lat="43.6730594" lon="12.8510006"><ele>133.0</ele><time>2026-04-11T09:41:56.541Z</time></trkpt><trkpt lat="43.6731794" lon="12.851027"><ele>134.5</ele><time>2026-04-11T09:41:57.539Z</time></trkpt><trkpt lat="43.6733" lon="12.8510486"><ele>136.0</ele><time>2026-04-11T09:41:58.54Z</time></trkpt><trkpt lat="43.6734254" lon="12.8510645"><ele>136.0</ele><time>2026-04-11T09:41:59.54Z</time></trkpt><trkpt lat="43.6735549" lon="12.8510885"><ele>136.0</ele><time>2026-04-11T09:42:00.541Z</time></trkpt><trkpt lat="43.6736801" lon="12.8511092"><ele>136.0</ele><time>2026-04-11T09:42:01.54Z</time></trkpt><trkpt lat="43.6738154" lon="12.8511482"><ele>136.0</ele><time>2026-04-11T09:42:02.54Z</time></trkpt><trkpt lat="43.673947" lon="12.8511942"><ele>135.75</ele><time>2026-04-11T09:42:03.541Z</time></trkpt><trkpt lat="43.674082" lon="12.851253"><ele>135.5</ele><time>2026-04-11T09:42:04.54Z</time></trkpt><trkpt lat="43.6742188" lon="12.8513281"><ele>135.25</ele><time>2026-04-11T09:42:05.54Z</time></trkpt><trkpt lat="43.6743587" lon="12.8514078"><ele>135.0</ele><time>2026-04-11T09:42:06.541Z</time></trkpt><trkpt lat="43.6744939" lon="12.8514897"><ele>136.0</ele><time>2026-04-11T09:42:07.54Z</time></trkpt><trkpt lat="43.6746274" lon="12.8515725"><ele>137.0</ele><time>2026-04-11T09:42:08.54Z</time></trkpt><trkpt lat="43.6747564" lon="12.8516477"><ele>138.0</ele><time>2026-04-11T09:42:09.539Z</time></trkpt><trkpt lat="43.674888" lon="12.8517397"><ele>139.0</ele><time>2026-04-11T09:42:10.54Z</time></trkpt><trkpt lat="43.6750165" lon="12.8518471"><ele>138.33333333333334</ele><time>2026-04-11T09:42:11.539Z</time></trkpt><trkpt lat="43.6751421" lon="12.8519677"><ele>137.66666666666666</ele><time>2026-04-11T09:42:12.539Z</time></trkpt><trkpt lat="43.675262" lon="12.8520937"><ele>137.0</ele><time>2026-04-11T09:42:13.541Z</time></trkpt><trkpt lat="43.6753826" lon="12.8522229"><ele>137.0</ele><time>2026-04-11T09:42:14.541Z</time></trkpt><trkpt lat="43.6755052" lon="12.8523623"><ele>137.0</ele><time>2026-04-11T09:42:15.539Z</time></trkpt><trkpt lat="43.6756265" lon="12.8525125"><ele>137.0</ele><time>2026-04-11T09:42:16.539Z</time></trkpt><trkpt lat="43.6757446" lon="12.8526652"><ele>134.66666666666666</ele><time>2026-04-11T09:42:17.538Z</time></trkpt><trkpt lat="43.6758606" lon="12.8528167"><ele>132.33333333333334</ele><time>2026-04-11T09:42:18.539Z</time></trkpt><trkpt lat="43.6759865" lon="12.8529508"><ele>130.0</ele><time>2026-04-11T09:42:19.539Z</time></trkpt><trkpt lat="43.6761219" lon="12.8530635"><ele>130.0</ele><time>2026-04-11T09:42:20.541Z</time></trkpt><trkpt lat="43.6762574" lon="12.8531576"><ele>130.0</ele><time>2026-04-11T09:42:21.538Z</time></trkpt><trkpt lat="43.6764019" lon="12.8532361"><ele>130.0</ele><time>2026-04-11T09:42:22.54Z</time></trkpt><trkpt lat="43.6765514" lon="12.8533117"><ele>130.0</ele><time>2026-04-11T09:42:23.54Z</time></trkpt><trkpt lat="43.6766915" lon="12.8533795"><ele>130.0</ele><time>2026-04-11T09:42:24.54Z</time></trkpt><trkpt lat="43.6768471" lon="12.8534565"><ele>130.0</ele><time>2026-04-11T09:42:25.541Z</time></trkpt><trkpt lat="43.6769994" lon="12.8535376"><ele>128.66666666666669</ele><time>2026-04-11T09:42:26.54Z</time></trkpt><trkpt lat="43.6771566" lon="12.8536187"><ele>127.33333333333334</ele><time>2026-04-11T09:42:27.539Z</time></trkpt><trkpt lat="43.6773147" lon="12.8536936"><ele>126.0</ele><time>2026-04-11T09:42:28.541Z</time></trkpt><trkpt lat="43.6774649" lon="12.8537745"><ele>126.0</ele><time>2026-04-11T09:42:29.539Z</time></trkpt><trkpt lat="43.6776187" lon="12.8538493"><ele>126.0</ele><time>2026-04-11T09:42:30.541Z</time></trkpt><trkpt lat="43.6777715" lon="12.8539268"><ele>126.0</ele><time>2026-04-11T09:42:31.54Z</time></trkpt><trkpt lat="43.6779205" lon="12.8540047"><ele>126.0</ele><time>2026-04-11T09:42:32.54Z</time></trkpt><trkpt lat="43.6780671" lon="12.8540817"><ele>126.0</ele><time>2026-04-11T09:42:33.54Z</time></trkpt><trkpt lat="43.6782171" lon="12.8541548"><ele>126.0</ele><time>2026-04-11T09:42:34.54Z</time></trkpt><trkpt lat="43.6783668" lon="12.8542237"><ele>126.0</ele><time>2026-04-11T09:42:35.539Z</time></trkpt><trkpt lat="43.6785198" lon="12.8542853"><ele>126.0</ele><time>2026-04-11T09:42:36.54Z</time></trkpt><trkpt lat="43.6786752" lon="12.8543398"><ele>126.0</ele><time>2026-04-11T09:42:37.54Z</time></trkpt><trkpt lat="43.6788425" lon="12.8543893"><ele>125.0</ele><time>2026-04-11T09:42:38.539Z</time></trkpt><trkpt lat="43.6790126" lon="12.8544278"><ele>124.0</ele><time>2026-04-11T09:42:39.541Z</time></trkpt><trkpt lat="43.6791836" lon="12.8544543"><ele>123.0</ele><time>2026-04-11T09:42:40.541Z</time></trkpt><trkpt lat="43.6793544" lon="12.8544776"><ele>123.0</ele><time>2026-04-11T09:42:41.54Z</time></trkpt><trkpt lat="43.6795243" lon="12.8545024"><ele>123.0</ele><time>2026-04-11T09:42:42.539Z</time></trkpt><trkpt lat="43.679698" lon="12.854521"><ele>123.0</ele><time>2026-04-11T09:42:43.541Z</time></trkpt><trkpt lat="43.679877" lon="12.8545425"><ele>123.0</ele><time>2026-04-11T09:42:44.54Z</time></trkpt><trkpt lat="43.6800555" lon="12.8545561"><ele>123.0</ele><time>2026-04-11T09:42:45.54Z</time></trkpt><trkpt lat="43.6802372" lon="12.8545719"><ele>123.0</ele><time>2026-04-11T09:42:46.54Z</time></trkpt><trkpt lat="43.680421" lon="12.8545924"><ele>122.0</ele><time>2026-04-11T09:42:47.539Z</time></trkpt><trkpt lat="43.6806052" lon="12.8546113"><ele>121.0</ele><time>2026-04-11T09:42:48.54Z</time></trkpt><trkpt lat="43.6807862" lon="12.8546257"><ele>120.0</ele><time>2026-04-11T09:42:49.54Z</time></trkpt><trkpt lat="43.6809634" lon="12.85464"><ele>121.0</ele><time>2026-04-11T09:42:50.54Z</time></trkpt><trkpt lat="43.6811316" lon="12.8546558"><ele>122.0</ele><time>2026-04-11T09:42:51.539Z</time></trkpt><trkpt lat="43.681293" lon="12.8546659"><ele>123.0</ele><time>2026-04-11T09:42:52.54Z</time></trkpt><trkpt lat="43.6814527" lon="12.8546819"><ele>123.0</ele><time>2026-04-11T09:42:53.54Z</time></trkpt><trkpt lat="43.6816045" lon="12.8546944"><ele>123.0</ele><time>2026-04-11T09:42:54.54Z</time></trkpt><trkpt lat="43.6817552" lon="12.8547147"><ele>123.0</ele><time>2026-04-11T09:42:55.54Z</time></trkpt><trkpt lat="43.6819026" lon="12.8547309"><ele>123.25</ele><time>2026-04-11T09:42:56.54Z</time></trkpt><trkpt lat="43.6820331" lon="12.854741"><ele>123.5</ele><time>2026-04-11T09:42:57.539Z</time></trkpt><trkpt lat="43.6821622" lon="12.8547471"><ele>123.75</ele><time>2026-04-11T09:42:58.54Z</time></trkpt><trkpt lat="43.6822951" lon="12.8547632"><ele>124.0</ele><time>2026-04-11T09:42:59.54Z</time></trkpt><trkpt lat="43.6824181" lon="12.8547791"><ele>124.0</ele><time>2026-04-11T09:43:00.54Z</time></trkpt><trkpt lat="43.6825358" lon="12.8547899"><ele>124.0</ele><time>2026-04-11T09:43:01.538Z</time></trkpt><trkpt lat="43.6826387" lon="12.8547965"><ele>124.0</ele><time>2026-04-11T09:43:02.539Z</time></trkpt><trkpt lat="43.6827162" lon="12.8548024"><ele>124.0</ele><time>2026-04-11T09:43:03.541Z</time></trkpt><trkpt lat="43.6827994" lon="12.8548148"><ele>124.0</ele><time>2026-04-11T09:43:04.54Z</time></trkpt><trkpt lat="43.6829071" lon="12.8548105"><ele>123.83333333333334</ele><time>2026-04-11T09:43:06.541Z</time></trkpt><trkpt lat="43.6829514" lon="12.8547461"><ele>123.66666666666667</ele><time>2026-04-11T09:43:08.54Z</time></trkpt><trkpt lat="43.682948" lon="12.8546181"><ele>123.5</ele><time>2026-04-11T09:43:10.541Z</time></trkpt><trkpt lat="43.6829426" lon="12.8545267"><ele>123.33333333333334</ele><time>2026-04-11T09:43:11.54Z</time></trkpt><trkpt lat="43.6829412" lon="12.8544344"><ele>123.16666666666667</ele><time>2026-04-11T09:43:12.54Z</time></trkpt><trkpt lat="43.6829409" lon="12.8543215"><ele>123.0</ele><time>2026-04-11T09:43:13.541Z</time></trkpt><trkpt lat="43.6829355" lon="12.8541958"><ele>124.0</ele><time>2026-04-11T09:43:14.54Z</time></trkpt><trkpt lat="43.6829343" lon="12.8540662"><ele>125.00000000000001</ele><time>2026-04-11T09:43:15.539Z</time></trkpt><trkpt lat="43.6829364" lon="12.8539328"><ele>126.00000000000001</ele><time>2026-04-11T09:43:16.54Z</time></trkpt><trkpt lat="43.6829341" lon="12.8537987"><ele>127.0</ele><time>2026-04-11T09:43:17.539Z</time></trkpt><trkpt lat="43.6829325" lon="12.8536597"><ele>128.0</ele><time>2026-04-11T09:43:18.538Z</time></trkpt><trkpt lat="43.682909" lon="12.8535277"><ele>129.6</ele><time>2026-04-11T09:43:19.54Z</time></trkpt><trkpt lat="43.6828758" lon="12.8534077"><ele>131.20000000000002</ele><time>2026-04-11T09:43:20.538Z</time></trkpt><trkpt lat="43.6828382" lon="12.8532888"><ele>132.8</ele><time>2026-04-11T09:43:21.54Z</time></trkpt><trkpt lat="43.6827967" lon="12.8531663"><ele>134.4</ele><time>2026-04-11T09:43:22.54Z</time></trkpt><trkpt lat="43.6827566" lon="12.8530418"><ele>136.0</ele><time>2026-04-11T09:43:23.539Z</time></trkpt><trkpt lat="43.6827121" lon="12.8529283"><ele>136.33333333333334</ele><time>2026-04-11T09:43:24.539Z</time></trkpt><trkpt lat="43.682664" lon="12.8528228"><ele>136.66666666666669</ele><time>2026-04-11T09:43:25.54Z</time></trkpt><trkpt lat="43.6826316" lon="12.8527191"><ele>137.0</ele><time>2026-04-11T09:43:26.54Z</time></trkpt><trkpt lat="43.6826219" lon="12.8526063"><ele>137.33333333333334</ele><time>2026-04-11T09:43:27.54Z</time></trkpt><trkpt lat="43.6826226" lon="12.8524791"><ele>137.66666666666666</ele><time>2026-04-11T09:43:28.538Z</time></trkpt><trkpt lat="43.682621" lon="12.8523376"><ele>138.0</ele><time>2026-04-11T09:43:29.54Z</time></trkpt><trkpt lat="43.6826106" lon="12.8521951"><ele>139.33333333333334</ele><time>2026-04-11T09:43:30.539Z</time></trkpt><trkpt lat="43.6825917" lon="12.8520685"><ele>140.66666666666666</ele><time>2026-04-11T09:43:31.539Z</time></trkpt><trkpt lat="43.6825567" lon="12.8519627"><ele>142.0</ele><time>2026-04-11T09:43:32.54Z</time></trkpt><trkpt lat="43.6825044" lon="12.8518703"><ele>143.33333333333331</ele><time>2026-04-11T09:43:33.538Z</time></trkpt><trkpt lat="43.6824326" lon="12.8517972"><ele>144.66666666666666</ele><time>2026-04-11T09:43:34.54Z</time></trkpt><trkpt lat="43.6823515" lon="12.8517306"><ele>146.0</ele><time>2026-04-11T09:43:35.54Z</time></trkpt><trkpt lat="43.6822503" lon="12.8516728"><ele>148.75</ele><time>2026-04-11T09:43:36.54Z</time></trkpt><trkpt lat="43.6821361" lon="12.8516051"><ele>151.5</ele><time>2026-04-11T09:43:37.538Z</time></trkpt><trkpt lat="43.6820227" lon="12.851545"><ele>154.25</ele><time>2026-04-11T09:43:38.539Z</time></trkpt><trkpt lat="43.6819104" lon="12.8514867"><ele>157.0</ele><time>2026-04-11T09:43:39.539Z</time></trkpt><trkpt lat="43.6818033" lon="12.8514269"><ele>158.0</ele><time>2026-04-11T09:43:40.54Z</time></trkpt><trkpt lat="43.6817039" lon="12.8513724"><ele>159.0</ele><time>2026-04-11T09:43:41.539Z</time></trkpt><trkpt lat="43.6815923" lon="12.8513082"><ele>160.0</ele><time>2026-04-11T09:43:42.54Z</time></trkpt><trkpt lat="43.681492" lon="12.8512483"><ele>161.0</ele><time>2026-04-11T09:43:43.54Z</time></trkpt><trkpt lat="43.681378" lon="12.8511809"><ele>161.0</ele><time>2026-04-11T09:43:44.54Z</time></trkpt><trkpt lat="43.681258" lon="12.8511132"><ele>161.0</ele><time>2026-04-11T09:43:45.54Z</time></trkpt><trkpt lat="43.681125" lon="12.8510377"><ele>161.0</ele><time>2026-04-11T09:43:46.541Z</time></trkpt><trkpt lat="43.6809941" lon="12.8509661"><ele>161.0</ele><time>2026-04-11T09:43:47.54Z</time></trkpt><trkpt lat="43.6808597" lon="12.8508927"><ele>164.20000000000002</ele><time>2026-04-11T09:43:48.538Z</time></trkpt><trkpt lat="43.6807388" lon="12.8508293"><ele>167.4</ele><time>2026-04-11T09:43:49.54Z</time></trkpt><trkpt lat="43.6806381" lon="12.850766"><ele>170.6</ele><time>2026-04-11T09:43:50.539Z</time></trkpt><trkpt lat="43.6805584" lon="12.8506985"><ele>173.8</ele><time>2026-04-11T09:43:51.539Z</time></trkpt><trkpt lat="43.6804972" lon="12.850618"><ele>177.0</ele><time>2026-04-11T09:43:52.54Z</time></trkpt><trkpt lat="43.6804505" lon="12.8505288"><ele>177.0</ele><time>2026-04-11T09:43:53.539Z</time></trkpt><trkpt lat="43.6804178" lon="12.850443"><ele>177.0</ele><time>2026-04-11T09:43:54.54Z</time></trkpt><trkpt lat="43.6804111" lon="12.8503334"><ele>177.0</ele><time>2026-04-11T09:43:55.541Z</time></trkpt><trkpt lat="43.6804161" lon="12.8502109"><ele>177.0</ele><time>2026-04-11T09:43:56.54Z</time></trkpt><trkpt lat="43.6804277" lon="12.850084"><ele>177.0</ele><time>2026-04-11T09:43:57.54Z</time></trkpt><trkpt lat="43.6804752" lon="12.8499983"><ele>177.0</ele><time>2026-04-11T09:43:58.541Z</time></trkpt><trkpt lat="43.680539" lon="12.8499264"><ele>179.6</ele><time>2026-04-11T09:43:59.539Z</time></trkpt><trkpt lat="43.6806103" lon="12.8498728"><ele>182.2</ele><time>2026-04-11T09:44:00.54Z</time></trkpt><trkpt lat="43.6806848" lon="12.8498105"><ele>184.8</ele><time>2026-04-11T09:44:01.539Z</time></trkpt><trkpt lat="43.6807643" lon="12.8497508"><ele>187.4</ele><time>2026-04-11T09:44:02.54Z</time></trkpt><trkpt lat="43.6808389" lon="12.8496564"><ele>190.0</ele><time>2026-04-11T09:44:03.539Z</time></trkpt><trkpt lat="43.680896" lon="12.8495491"><ele>190.0</ele><time>2026-04-11T09:44:04.541Z</time></trkpt><trkpt lat="43.6809309" lon="12.8494311"><ele>190.0</ele><time>2026-04-11T09:44:05.54Z</time></trkpt><trkpt lat="43.680935" lon="12.8492857"><ele>190.0</ele><time>2026-04-11T09:44:06.539Z</time></trkpt><trkpt lat="43.6809346" lon="12.8491308"><ele>190.0</ele><time>2026-04-11T09:44:07.539Z</time></trkpt><trkpt lat="43.6809324" lon="12.8489761"><ele>190.0</ele><time>2026-04-11T09:44:08.54Z</time></trkpt><trkpt lat="43.6809313" lon="12.8488245"><ele>192.5</ele><time>2026-04-11T09:44:09.54Z</time></trkpt><trkpt lat="43.680929" lon="12.8486487"><ele>195.0</ele><time>2026-04-11T09:44:10.539Z</time></trkpt><trkpt lat="43.680927" lon="12.8484807"><ele>197.5</ele><time>2026-04-11T09:44:11.539Z</time></trkpt><trkpt lat="43.6809154" lon="12.8483038"><ele>200.0</ele><time>2026-04-11T09:44:12.541Z</time></trkpt><trkpt lat="43.6808967" lon="12.8481261"><ele>201.16666666666669</ele><time>2026-04-11T09:44:13.54Z</time></trkpt><trkpt lat="43.6808805" lon="12.847974"><ele>202.33333333333334</ele><time>2026-04-11T09:44:14.54Z</time></trkpt><trkpt lat="43.6808672" lon="12.8478443"><ele>203.5</ele><time>2026-04-11T09:44:15.541Z</time></trkpt><trkpt lat="43.6808604" lon="12.8477227"><ele>204.66666666666669</ele><time>2026-04-11T09:44:16.54Z</time></trkpt><trkpt lat="43.6808715" lon="12.8476092"><ele>205.83333333333334</ele><time>2026-04-11T09:44:17.54Z</time></trkpt><trkpt lat="43.6808831" lon="12.8475109"><ele>207.0</ele><time>2026-04-11T09:44:18.539Z</time></trkpt><trkpt lat="43.6808637" lon="12.8473507"><ele>207.8</ele><time>2026-04-11T09:44:20.54Z</time></trkpt><trkpt lat="43.6807578" lon="12.8472466"><ele>208.6</ele><time>2026-04-11T09:44:22.54Z</time></trkpt><trkpt lat="43.6806704" lon="12.8471688"><ele>209.4</ele><time>2026-04-11T09:44:23.54Z</time></trkpt><trkpt lat="43.6805868" lon="12.8470882"><ele>210.20000000000002</ele><time>2026-04-11T09:44:24.539Z</time></trkpt><trkpt lat="43.6805004" lon="12.8470036"><ele>211.0</ele><time>2026-04-11T09:44:25.54Z</time></trkpt><trkpt lat="43.6804035" lon="12.8469151"><ele>211.0</ele><time>2026-04-11T09:44:26.54Z</time></trkpt><trkpt lat="43.6802985" lon="12.8468253"><ele>211.0</ele><time>2026-04-11T09:44:27.538Z</time></trkpt><trkpt lat="43.6801909" lon="12.8467281"><ele>211.0</ele><time>2026-04-11T09:44:28.54Z</time></trkpt><trkpt lat="43.680085" lon="12.8466171"><ele>211.0</ele><time>2026-04-11T09:44:29.539Z</time></trkpt><trkpt lat="43.6799873" lon="12.846496"><ele>211.75</ele><time>2026-04-11T09:44:30.541Z</time></trkpt><trkpt lat="43.679907" lon="12.8463713"><ele>212.5</ele><time>2026-04-11T09:44:31.54Z</time></trkpt><trkpt lat="43.6798299" lon="12.8462528"><ele>213.25</ele><time>2026-04-11T09:44:32.541Z</time></trkpt><trkpt lat="43.6797514" lon="12.8461463"><ele>214.0</ele><time>2026-04-11T09:44:33.54Z</time></trkpt><trkpt lat="43.6796684" lon="12.8460393"><ele>213.75</ele><time>2026-04-11T09:44:34.54Z</time></trkpt><trkpt lat="43.6795884" lon="12.8459373"><ele>213.5</ele><time>2026-04-11T09:44:35.539Z</time></trkpt><trkpt lat="43.6795009" lon="12.8458232"><ele>213.25</ele><time>2026-04-11T09:44:36.541Z</time></trkpt><trkpt lat="43.6794146" lon="12.8457126"><ele>213.0</ele><time>2026-04-11T09:44:37.539Z</time></trkpt><trkpt lat="43.6793262" lon="12.8455981"><ele>213.0</ele><time>2026-04-11T09:44:38.539Z</time></trkpt><trkpt lat="43.6792432" lon="12.845482"><ele>213.0</ele><time>2026-04-11T09:44:39.541Z</time></trkpt><trkpt lat="43.6791667" lon="12.8453576"><ele>213.0</ele><time>2026-04-11T09:44:40.538Z</time></trkpt><trkpt lat="43.6790963" lon="12.8452276"><ele>213.0</ele><time>2026-04-11T09:44:41.539Z</time></trkpt><trkpt lat="43.6790359" lon="12.8450896"><ele>212.5</ele><time>2026-04-11T09:44:42.54Z</time></trkpt><trkpt lat="43.6789675" lon="12.8449495"><ele>212.0</ele><time>2026-04-11T09:44:43.54Z</time></trkpt><trkpt lat="43.6789048" lon="12.8447999"><ele>211.5</ele><time>2026-04-11T09:44:44.54Z</time></trkpt><trkpt lat="43.6788198" lon="12.8446567"><ele>211.0</ele><time>2026-04-11T09:44:45.54Z</time></trkpt><trkpt lat="43.6787347" lon="12.8445137"><ele>211.0</ele><time>2026-04-11T09:44:46.54Z</time></trkpt><trkpt lat="43.6786303" lon="12.8443775"><ele>211.0</ele><time>2026-04-11T09:44:47.539Z</time></trkpt><trkpt lat="43.678523" lon="12.8442526"><ele>211.0</ele><time>2026-04-11T09:44:48.538Z</time></trkpt><trkpt lat="43.6784146" lon="12.8441323"><ele>211.0</ele><time>2026-04-11T09:44:49.539Z</time></trkpt><trkpt lat="43.6783203" lon="12.8440269"><ele>211.83333333333331</ele><time>2026-04-11T09:44:50.541Z</time></trkpt><trkpt lat="43.6782403" lon="12.8439388"><ele>212.66666666666666</ele><time>2026-04-11T09:44:51.54Z</time></trkpt><trkpt lat="43.6781763" lon="12.8438683"><ele>213.5</ele><time>2026-04-11T09:44:52.539Z</time></trkpt><trkpt lat="43.6781204" lon="12.8438107"><ele>214.33333333333331</ele><time>2026-04-11T09:44:53.539Z</time></trkpt><trkpt lat="43.6780412" lon="12.8437266"><ele>215.16666666666666</ele><time>2026-04-11T09:44:55.539Z</time></trkpt><trkpt lat="43.6779778" lon="12.8436448"><ele>216.0</ele><time>2026-04-11T09:44:58.539Z</time></trkpt><trkpt lat="43.6779085" lon="12.8435456"><ele>217.20000000000002</ele><time>2026-04-11T09:45:01.539Z</time></trkpt><trkpt lat="43.6778579" lon="12.8434435"><ele>218.40000000000003</ele><time>2026-04-11T09:45:03.54Z</time></trkpt><trkpt lat="43.6777993" lon="12.8433205"><ele>219.6</ele><time>2026-04-11T09:45:05.539Z</time></trkpt><trkpt lat="43.6777401" lon="12.8431744"><ele>220.8</ele><time>2026-04-11T09:45:07.54Z</time></trkpt><trkpt lat="43.6776767" lon="12.8430187"><ele>222.0</ele><time>2026-04-11T09:45:09.54Z</time></trkpt><trkpt lat="43.6776437" lon="12.8429196"><ele>223.0</ele><time>2026-04-11T09:45:10.541Z</time></trkpt><trkpt lat="43.6776081" lon="12.8428162"><ele>224.0</ele><time>2026-04-11T09:45:11.539Z</time></trkpt><trkpt lat="43.677557" lon="12.8427142"><ele>225.0</ele><time>2026-04-11T09:45:12.54Z</time></trkpt><trkpt lat="43.6775037" lon="12.8426411"><ele>226.0</ele><time>2026-04-11T09:45:13.539Z</time></trkpt><trkpt lat="43.6774387" lon="12.8425806"><ele>227.0</ele><time>2026-04-11T09:45:14.54Z</time></trkpt><trkpt lat="43.6773741" lon="12.842533"><ele>228.0</ele><time>2026-04-11T09:45:15.54Z</time></trkpt><trkpt lat="43.6773184" lon="12.8424818"><ele>230.0</ele><time>2026-04-11T09:45:16.54Z</time></trkpt><trkpt lat="43.6772581" lon="12.8423494"><ele>232.0</ele><time>2026-04-11T09:45:18.539Z</time></trkpt><trkpt lat="43.6772317" lon="12.8422547"><ele>234.0</ele><time>2026-04-11T09:45:19.54Z</time></trkpt><trkpt lat="43.6771989" lon="12.8421459"><ele>236.0</ele><time>2026-04-11T09:45:20.539Z</time></trkpt><trkpt lat="43.6771636" lon="12.842047"><ele>238.0</ele><time>2026-04-11T09:45:21.54Z</time></trkpt><trkpt lat="43.6771269" lon="12.8419545"><ele>240.0</ele><time>2026-04-11T09:45:22.539Z</time></trkpt><trkpt lat="43.6770919" lon="12.8418564"><ele>239.66666666666666</ele><time>2026-04-11T09:45:23.54Z</time></trkpt><trkpt lat="43.6770562" lon="12.8417658"><ele>239.33333333333331</ele><time>2026-04-11T09:45:24.539Z</time></trkpt><trkpt lat="43.6770254" lon="12.8416887"><ele>239.0</ele><time>2026-04-11T09:45:25.539Z</time></trkpt><trkpt lat="43.6769646" lon="12.8415512"><ele>238.66666666666666</ele><time>2026-04-11T09:45:27.54Z</time></trkpt><trkpt lat="43.6769402" lon="12.8414565"><ele>238.33333333333331</ele><time>2026-04-11T09:45:28.54Z</time></trkpt><trkpt lat="43.676911" lon="12.8413535"><ele>238.0</ele><time>2026-04-11T09:45:29.539Z</time></trkpt><trkpt lat="43.6768757" lon="12.8412343"><ele>239.2</ele><time>2026-04-11T09:45:30.54Z</time></trkpt><trkpt lat="43.6768368" lon="12.841115"><ele>240.4</ele><time>2026-04-11T09:45:31.54Z</time></trkpt><trkpt lat="43.6767984" lon="12.840998"><ele>241.59999999999997</ele><time>2026-04-11T09:45:32.54Z</time></trkpt><trkpt lat="43.6767568" lon="12.8408792"><ele>242.79999999999998</ele><time>2026-04-11T09:45:33.54Z</time></trkpt><trkpt lat="43.6767178" lon="12.8407592"><ele>244.0</ele><time>2026-04-11T09:45:34.54Z</time></trkpt><trkpt lat="43.6766812" lon="12.8406403"><ele>244.2</ele><time>2026-04-11T09:45:35.54Z</time></trkpt><trkpt lat="43.6766454" lon="12.8405219"><ele>244.39999999999998</ele><time>2026-04-11T09:45:36.538Z</time></trkpt><trkpt lat="43.6766175" lon="12.8403885"><ele>244.6</ele><time>2026-04-11T09:45:37.539Z</time></trkpt><trkpt lat="43.6765943" lon="12.8402607"><ele>244.8</ele><time>2026-04-11T09:45:38.539Z</time></trkpt><trkpt lat="43.6765786" lon="12.8401287"><ele>245.0</ele><time>2026-04-11T09:45:39.54Z</time></trkpt><trkpt lat="43.6765622" lon="12.8399947"><ele>242.6</ele><time>2026-04-11T09:45:40.539Z</time></trkpt><trkpt lat="43.6765539" lon="12.8398586"><ele>240.2</ele><time>2026-04-11T09:45:41.54Z</time></trkpt><trkpt lat="43.6765512" lon="12.8397181"><ele>237.8</ele><time>2026-04-11T09:45:42.541Z</time></trkpt><trkpt lat="43.6765603" lon="12.8395833"><ele>235.4</ele><time>2026-04-11T09:45:43.54Z</time></trkpt><trkpt lat="43.6765784" lon="12.8394354"><ele>233.0</ele><time>2026-04-11T09:45:44.54Z</time></trkpt><trkpt lat="43.6766048" lon="12.8392909"><ele>231.8</ele><time>2026-04-11T09:45:45.538Z</time></trkpt><trkpt lat="43.6766376" lon="12.8391473"><ele>230.60000000000002</ele><time>2026-04-11T09:45:46.539Z</time></trkpt><trkpt lat="43.6766742" lon="12.8390125"><ele>229.39999999999998</ele><time>2026-04-11T09:45:47.54Z</time></trkpt><trkpt lat="43.6767064" lon="12.8388795"><ele>228.2</ele><time>2026-04-11T09:45:48.539Z</time></trkpt><trkpt lat="43.6767439" lon="12.838762"><ele>227.0</ele><time>2026-04-11T09:45:49.539Z</time></trkpt><trkpt lat="43.676774" lon="12.8386446"><ele>227.0</ele><time>2026-04-11T09:45:50.541Z</time></trkpt><trkpt lat="43.6767893" lon="12.8385249"><ele>227.0</ele><time>2026-04-11T09:45:51.539Z</time></trkpt><trkpt lat="43.6767954" lon="12.8383982"><ele>227.0</ele><time>2026-04-11T09:45:52.54Z</time></trkpt><trkpt lat="43.6767829" lon="12.8382672"><ele>227.0</ele><time>2026-04-11T09:45:53.54Z</time></trkpt><trkpt lat="43.6767475" lon="12.8381302"><ele>227.0</ele><time>2026-04-11T09:45:54.54Z</time></trkpt><trkpt lat="43.6766958" lon="12.8379805"><ele>225.25</ele><time>2026-04-11T09:45:55.539Z</time></trkpt><trkpt lat="43.6766414" lon="12.8378264"><ele>223.5</ele><time>2026-04-11T09:45:56.54Z</time></trkpt><trkpt lat="43.6765857" lon="12.8376676"><ele>221.75</ele><time>2026-04-11T09:45:57.538Z</time></trkpt><trkpt lat="43.6765276" lon="12.8375115"><ele>220.0</ele><time>2026-04-11T09:45:58.54Z</time></trkpt><trkpt lat="43.6764782" lon="12.8373743"><ele>217.8</ele><time>2026-04-11T09:45:59.539Z</time></trkpt><trkpt lat="43.6764266" lon="12.8372301"><ele>215.6</ele><time>2026-04-11T09:46:00.54Z</time></trkpt><trkpt lat="43.676383" lon="12.8370956"><ele>213.39999999999998</ele><time>2026-04-11T09:46:01.538Z</time></trkpt><trkpt lat="43.6763324" lon="12.8369597"><ele>211.2</ele><time>2026-04-11T09:46:02.538Z</time></trkpt><trkpt lat="43.6762774" lon="12.836829"><ele>209.0</ele><time>2026-04-11T09:46:03.539Z</time></trkpt><trkpt lat="43.6762213" lon="12.8367031"><ele>208.66666666666669</ele><time>2026-04-11T09:46:04.54Z</time></trkpt><trkpt lat="43.676182" lon="12.8365955"><ele>208.33333333333334</ele><time>2026-04-11T09:46:05.539Z</time></trkpt><trkpt lat="43.6761409" lon="12.8364996"><ele>208.0</ele><time>2026-04-11T09:46:06.54Z</time></trkpt><trkpt lat="43.6760918" lon="12.8363976"><ele>207.66666666666669</ele><time>2026-04-11T09:46:08.54Z</time></trkpt><trkpt lat="43.6760299" lon="12.8363667"><ele>207.33333333333334</ele><time>2026-04-11T09:46:10.54Z</time></trkpt><trkpt lat="43.6759683" lon="12.8363371"><ele>207.0</ele><time>2026-04-11T09:46:11.541Z</time></trkpt><trkpt lat="43.6759029" lon="12.8363173"><ele>209.0</ele><time>2026-04-11T09:46:12.539Z</time></trkpt><trkpt lat="43.675824" lon="12.8362778"><ele>211.0</ele><time>2026-04-11T09:46:13.538Z</time></trkpt><trkpt lat="43.675734" lon="12.8362371"><ele>213.0</ele><time>2026-04-11T09:46:14.538Z</time></trkpt><trkpt lat="43.6756639" lon="12.8361483"><ele>215.0</ele><time>2026-04-11T09:46:15.539Z</time></trkpt><trkpt lat="43.6755979" lon="12.8360664"><ele>217.0</ele><time>2026-04-11T09:46:16.541Z</time></trkpt><trkpt lat="43.6755254" lon="12.8359622"><ele>217.5</ele><time>2026-04-11T09:46:17.541Z</time></trkpt><trkpt lat="43.6754366" lon="12.8358367"><ele>218.0</ele><time>2026-04-11T09:46:18.54Z</time></trkpt><trkpt lat="43.6753457" lon="12.835716"><ele>218.5</ele><time>2026-04-11T09:46:19.539Z</time></trkpt><trkpt lat="43.6752614" lon="12.8356009"><ele>219.0</ele><time>2026-04-11T09:46:20.539Z</time></trkpt><trkpt lat="43.6751844" lon="12.8354868"><ele>219.6</ele><time>2026-04-11T09:46:21.539Z</time></trkpt><trkpt lat="43.6751092" lon="12.8353545"><ele>220.2</ele><time>2026-04-11T09:46:22.54Z</time></trkpt><trkpt lat="43.6750441" lon="12.8352283"><ele>220.79999999999998</ele><time>2026-04-11T09:46:23.539Z</time></trkpt><trkpt lat="43.6749958" lon="12.8351004"><ele>221.39999999999998</ele><time>2026-04-11T09:46:24.539Z</time></trkpt><trkpt lat="43.6749603" lon="12.8349823"><ele>222.0</ele><time>2026-04-11T09:46:25.539Z</time></trkpt><trkpt lat="43.6749427" lon="12.8348547"><ele>222.0</ele><time>2026-04-11T09:46:26.54Z</time></trkpt><trkpt lat="43.6749358" lon="12.834722"><ele>222.0</ele><time>2026-04-11T09:46:27.54Z</time></trkpt><trkpt lat="43.6749436" lon="12.8345827"><ele>222.0</ele><time>2026-04-11T09:46:28.54Z</time></trkpt><trkpt lat="43.6749597" lon="12.8344357"><ele>222.0</ele><time>2026-04-11T09:46:29.541Z</time></trkpt><trkpt lat="43.674965" lon="12.8342765"><ele>222.0</ele><time>2026-04-11T09:46:30.539Z</time></trkpt><trkpt lat="43.6749606" lon="12.8341186"><ele>222.39999999999998</ele><time>2026-04-11T09:46:31.54Z</time></trkpt><trkpt lat="43.6749459" lon="12.8339629"><ele>222.79999999999998</ele><time>2026-04-11T09:46:32.541Z</time></trkpt><trkpt lat="43.6749341" lon="12.8338102"><ele>223.2</ele><time>2026-04-11T09:46:33.541Z</time></trkpt><trkpt lat="43.6749191" lon="12.8336575"><ele>223.6</ele><time>2026-04-11T09:46:34.541Z</time></trkpt><trkpt lat="43.6749091" lon="12.8335063"><ele>224.0</ele><time>2026-04-11T09:46:35.538Z</time></trkpt><trkpt lat="43.6749083" lon="12.8333522"><ele>224.0</ele><time>2026-04-11T09:46:36.54Z</time></trkpt><trkpt lat="43.6749084" lon="12.8332003"><ele>223.99999999999997</ele><time>2026-04-11T09:46:37.54Z</time></trkpt><trkpt lat="43.6749217" lon="12.8330583"><ele>223.99999999999997</ele><time>2026-04-11T09:46:38.54Z</time></trkpt><trkpt lat="43.6749319" lon="12.8329249"><ele>224.0</ele><time>2026-04-11T09:46:39.538Z</time></trkpt><trkpt lat="43.6749262" lon="12.8327997"><ele>224.0</ele><time>2026-04-11T09:46:40.54Z</time></trkpt><trkpt lat="43.6748969" lon="12.8326801"><ele>222.75</ele><time>2026-04-11T09:46:41.54Z</time></trkpt><trkpt lat="43.6748452" lon="12.8325627"><ele>221.5</ele><time>2026-04-11T09:46:42.539Z</time></trkpt><trkpt lat="43.6747768" lon="12.832447"><ele>220.25</ele><time>2026-04-11T09:46:43.539Z</time></trkpt><trkpt lat="43.6746951" lon="12.8323191"><ele>219.0</ele><time>2026-04-11T09:46:44.54Z</time></trkpt><trkpt lat="43.6746262" lon="12.832183"><ele>219.0</ele><time>2026-04-11T09:46:45.541Z</time></trkpt><trkpt lat="43.6745506" lon="12.8320559"><ele>218.99999999999997</ele><time>2026-04-11T09:46:46.54Z</time></trkpt><trkpt lat="43.6744787" lon="12.831934"><ele>218.99999999999997</ele><time>2026-04-11T09:46:47.54Z</time></trkpt><trkpt lat="43.6744071" lon="12.8318222"><ele>219.0</ele><time>2026-04-11T09:46:48.539Z</time></trkpt><trkpt lat="43.6743339" lon="12.8317189"><ele>219.0</ele><time>2026-04-11T09:46:49.54Z</time></trkpt><trkpt lat="43.6742523" lon="12.8316107"><ele>220.75</ele><time>2026-04-11T09:46:50.538Z</time></trkpt><trkpt lat="43.6741617" lon="12.8315119"><ele>222.5</ele><time>2026-04-11T09:46:51.54Z</time></trkpt><trkpt lat="43.6740665" lon="12.831411"><ele>224.25</ele><time>2026-04-11T09:46:52.54Z</time></trkpt><trkpt lat="43.673974" lon="12.8313085"><ele>226.0</ele><time>2026-04-11T09:46:53.54Z</time></trkpt><trkpt lat="43.6738903" lon="12.8311946"><ele>226.0</ele><time>2026-04-11T09:46:54.54Z</time></trkpt><trkpt lat="43.6738153" lon="12.8310628"><ele>226.0</ele><time>2026-04-11T09:46:55.539Z</time></trkpt><trkpt lat="43.6737592" lon="12.8309184"><ele>226.0</ele><time>2026-04-11T09:46:56.539Z</time></trkpt><trkpt lat="43.6737132" lon="12.8307833"><ele>226.0</ele><time>2026-04-11T09:46:57.539Z</time></trkpt><trkpt lat="43.6736601" lon="12.8306587"><ele>225.20000000000002</ele><time>2026-04-11T09:46:58.54Z</time></trkpt><trkpt lat="43.6735971" lon="12.8305362"><ele>224.40000000000003</ele><time>2026-04-11T09:46:59.539Z</time></trkpt><trkpt lat="43.6735352" lon="12.830445"><ele>223.6</ele><time>2026-04-11T09:47:00.54Z</time></trkpt><trkpt lat="43.6734653" lon="12.8303671"><ele>222.8</ele><time>2026-04-11T09:47:01.54Z</time></trkpt><trkpt lat="43.673391" lon="12.8303013"><ele>222.0</ele><time>2026-04-11T09:47:02.539Z</time></trkpt><trkpt lat="43.6733116" lon="12.8302625"><ele>222.0</ele><time>2026-04-11T09:47:03.538Z</time></trkpt><trkpt lat="43.6732277" lon="12.8302462"><ele>222.0</ele><time>2026-04-11T09:47:04.54Z</time></trkpt><trkpt lat="43.6731329" lon="12.8302507"><ele>222.0</ele><time>2026-04-11T09:47:05.539Z</time></trkpt><trkpt lat="43.6730381" lon="12.8302699"><ele>222.0</ele><time>2026-04-11T09:47:06.54Z</time></trkpt><trkpt lat="43.6726682" lon="12.8303739"><ele>221.25</ele><time>2026-04-11T09:47:10.54Z</time></trkpt><trkpt lat="43.6725761" lon="12.8303827"><ele>220.5</ele><time>2026-04-11T09:47:11.54Z</time></trkpt><trkpt lat="43.6724827" lon="12.8303637"><ele>219.75</ele><time>2026-04-11T09:47:12.539Z</time></trkpt><trkpt lat="43.6723975" lon="12.830306"><ele>219.0</ele><time>2026-04-11T09:47:13.539Z</time></trkpt><trkpt lat="43.6719923" lon="12.8298427"><ele>216.66666666666669</ele><time>2026-04-11T09:47:18.539Z</time></trkpt><trkpt lat="43.6719109" lon="12.8297375"><ele>214.33333333333334</ele><time>2026-04-11T09:47:19.538Z</time></trkpt><trkpt lat="43.6718308" lon="12.8296368"><ele>212.0</ele><time>2026-04-11T09:47:20.54Z</time></trkpt><trkpt lat="43.6715657" lon="12.8291895"><ele>212.0</ele><time>2026-04-11T09:47:24.539Z</time></trkpt><trkpt lat="43.6715404" lon="12.8290606"><ele>212.0</ele><time>2026-04-11T09:47:25.541Z</time></trkpt><trkpt lat="43.6715293" lon="12.8289285"><ele>212.0</ele><time>2026-04-11T09:47:26.541Z</time></trkpt><trkpt lat="43.6715106" lon="12.8287908"><ele>212.0</ele><time>2026-04-11T09:47:27.54Z</time></trkpt><trkpt lat="43.6714705" lon="12.8286478"><ele>212.0</ele><time>2026-04-11T09:47:28.54Z</time></trkpt><trkpt lat="43.6714045" lon="12.8284969"><ele>212.5</ele><time>2026-04-11T09:47:29.539Z</time></trkpt><trkpt lat="43.671327" lon="12.8283416"><ele>213.0</ele><time>2026-04-11T09:47:30.539Z</time></trkpt><trkpt lat="43.6712432" lon="12.8281903"><ele>213.5</ele><time>2026-04-11T09:47:31.538Z</time></trkpt><trkpt lat="43.6711637" lon="12.8280451"><ele>214.0</ele><time>2026-04-11T09:47:32.54Z</time></trkpt><trkpt lat="43.6710871" lon="12.8279062"><ele>214.0</ele><time>2026-04-11T09:47:33.54Z</time></trkpt><trkpt lat="43.6710193" lon="12.8277695"><ele>214.0</ele><time>2026-04-11T09:47:34.54Z</time></trkpt><trkpt lat="43.6709517" lon="12.8276259"><ele>214.0</ele><time>2026-04-11T09:47:35.541Z</time></trkpt><trkpt lat="43.6708812" lon="12.8274702"><ele>214.0</ele><time>2026-04-11T09:47:36.539Z</time></trkpt><trkpt lat="43.670802" lon="12.8273352"><ele>214.0</ele><time>2026-04-11T09:47:37.54Z</time></trkpt><trkpt lat="43.6706964" lon="12.8272208"><ele>214.0</ele><time>2026-04-11T09:47:38.539Z</time></trkpt><trkpt lat="43.6705815" lon="12.8271242"><ele>214.0</ele><time>2026-04-11T09:47:39.54Z</time></trkpt><trkpt lat="43.6704502" lon="12.8270355"><ele>214.0</ele><time>2026-04-11T09:47:40.54Z</time></trkpt><trkpt lat="43.6703265" lon="12.8269393"><ele>213.25</ele><time>2026-04-11T09:47:41.539Z</time></trkpt><trkpt lat="43.6701928" lon="12.8268422"><ele>212.5</ele><time>2026-04-11T09:47:42.54Z</time></trkpt><trkpt lat="43.6700643" lon="12.8267567"><ele>211.75</ele><time>2026-04-11T09:47:43.54Z</time></trkpt><trkpt lat="43.669947" lon="12.8266716"><ele>211.0</ele><time>2026-04-11T09:47:44.54Z</time></trkpt><trkpt lat="43.6698307" lon="12.8265918"><ele>211.0</ele><time>2026-04-11T09:47:45.54Z</time></trkpt><trkpt lat="43.6697176" lon="12.826505"><ele>211.0</ele><time>2026-04-11T09:47:46.54Z</time></trkpt><trkpt lat="43.6696045" lon="12.8264119"><ele>211.0</ele><time>2026-04-11T09:47:47.54Z</time></trkpt><trkpt lat="43.6694821" lon="12.8263153"><ele>211.0</ele><time>2026-04-11T09:47:48.54Z</time></trkpt><trkpt lat="43.6693619" lon="12.826218"><ele>211.0</ele><time>2026-04-11T09:47:49.541Z</time></trkpt><trkpt lat="43.6692359" lon="12.8261395"><ele>211.0</ele><time>2026-04-11T09:47:50.541Z</time></trkpt><trkpt lat="43.6691162" lon="12.8260672"><ele>211.0</ele><time>2026-04-11T09:47:51.539Z</time></trkpt><trkpt lat="43.6689984" lon="12.8259941"><ele>211.0</ele><time>2026-04-11T09:47:52.539Z</time></trkpt><trkpt lat="43.6688897" lon="12.8259312"><ele>210.0</ele><time>2026-04-11T09:47:53.539Z</time></trkpt><trkpt lat="43.6687955" lon="12.8258754"><ele>209.0</ele><time>2026-04-11T09:47:54.539Z</time></trkpt><trkpt lat="43.6687168" lon="12.8258141"><ele>208.0</ele><time>2026-04-11T09:47:55.539Z</time></trkpt><trkpt lat="43.6686499" lon="12.8257306"><ele>207.0</ele><time>2026-04-11T09:47:56.539Z</time></trkpt><trkpt lat="43.6685938" lon="12.8256037"><ele>206.0</ele><time>2026-04-11T09:47:57.54Z</time></trkpt><trkpt lat="43.6685503" lon="12.8254545"><ele>206.0</ele><time>2026-04-11T09:47:58.54Z</time></trkpt><trkpt lat="43.6685145" lon="12.8252944"><ele>206.0</ele><time>2026-04-11T09:47:59.538Z</time></trkpt><trkpt lat="43.6684804" lon="12.8251343"><ele>206.0</ele><time>2026-04-11T09:48:00.54Z</time></trkpt><trkpt lat="43.6684534" lon="12.8249899"><ele>206.0</ele><time>2026-04-11T09:48:01.54Z</time></trkpt><trkpt lat="43.6684396" lon="12.8248786"><ele>206.0</ele><time>2026-04-11T09:48:02.541Z</time></trkpt><trkpt lat="43.6684124" lon="12.8247825"><ele>206.20000000000002</ele><time>2026-04-11T09:48:03.538Z</time></trkpt><trkpt lat="43.668367" lon="12.8247212"><ele>206.4</ele><time>2026-04-11T09:48:04.539Z</time></trkpt><trkpt lat="43.6682946" lon="12.8246862"><ele>206.6</ele><time>2026-04-11T09:48:05.539Z</time></trkpt><trkpt lat="43.6681968" lon="12.8246907"><ele>206.8</ele><time>2026-04-11T09:48:06.54Z</time></trkpt><trkpt lat="43.6680889" lon="12.8247113"><ele>207.0</ele><time>2026-04-11T09:48:07.539Z</time></trkpt><trkpt lat="43.6679693" lon="12.8247207"><ele>207.0</ele><time>2026-04-11T09:48:08.54Z</time></trkpt><trkpt lat="43.6678409" lon="12.8247353"><ele>207.0</ele><time>2026-04-11T09:48:09.541Z</time></trkpt><trkpt lat="43.6677187" lon="12.8247453"><ele>207.0</ele><time>2026-04-11T09:48:10.54Z</time></trkpt><trkpt lat="43.6676039" lon="12.8247391"><ele>207.0</ele><time>2026-04-11T09:48:11.538Z</time></trkpt><trkpt lat="43.667499" lon="12.8247059"><ele>206.39999999999998</ele><time>2026-04-11T09:48:12.539Z</time></trkpt><trkpt lat="43.6674037" lon="12.8246744"><ele>205.79999999999998</ele><time>2026-04-11T09:48:13.539Z</time></trkpt><trkpt lat="43.6673104" lon="12.8246345"><ele>205.2</ele><time>2026-04-11T09:48:14.539Z</time></trkpt><trkpt lat="43.6672223" lon="12.8245779"><ele>204.6</ele><time>2026-04-11T09:48:15.54Z</time></trkpt><trkpt lat="43.6671289" lon="12.8245072"><ele>204.0</ele><time>2026-04-11T09:48:16.539Z</time></trkpt><trkpt lat="43.6670478" lon="12.8244449"><ele>204.0</ele><time>2026-04-11T09:48:17.54Z</time></trkpt><trkpt lat="43.666966" lon="12.8243786"><ele>204.0</ele><time>2026-04-11T09:48:18.539Z</time></trkpt><trkpt lat="43.6668846" lon="12.824303"><ele>204.0</ele><time>2026-04-11T09:48:19.538Z</time></trkpt><trkpt lat="43.6668129" lon="12.8242285"><ele>204.0</ele><time>2026-04-11T09:48:20.54Z</time></trkpt><trkpt lat="43.6667343" lon="12.8241246"><ele>204.0</ele><time>2026-04-11T09:48:21.54Z</time></trkpt><trkpt lat="43.6666591" lon="12.8240053"><ele>204.75</ele><time>2026-04-11T09:48:22.54Z</time></trkpt><trkpt lat="43.6665879" lon="12.8238707"><ele>205.5</ele><time>2026-04-11T09:48:23.539Z</time></trkpt><trkpt lat="43.6665261" lon="12.823734"><ele>206.25</ele><time>2026-04-11T09:48:24.539Z</time></trkpt><trkpt lat="43.6664687" lon="12.8235862"><ele>207.0</ele><time>2026-04-11T09:48:25.54Z</time></trkpt><trkpt lat="43.6664241" lon="12.8234366"><ele>208.25</ele><time>2026-04-11T09:48:26.541Z</time></trkpt><trkpt lat="43.6663846" lon="12.8232817"><ele>209.5</ele><time>2026-04-11T09:48:27.539Z</time></trkpt><trkpt lat="43.666344" lon="12.8231246"><ele>210.75</ele><time>2026-04-11T09:48:28.541Z</time></trkpt><trkpt lat="43.6662864" lon="12.8229796"><ele>212.0</ele><time>2026-04-11T09:48:29.54Z</time></trkpt><trkpt lat="43.6662077" lon="12.8228424"><ele>212.0</ele><time>2026-04-11T09:48:30.54Z</time></trkpt><trkpt lat="43.6661162" lon="12.8227063"><ele>212.0</ele><time>2026-04-11T09:48:31.539Z</time></trkpt><trkpt lat="43.6660308" lon="12.82259"><ele>212.0</ele><time>2026-04-11T09:48:32.539Z</time></trkpt><trkpt lat="43.6659544" lon="12.8224677"><ele>212.0</ele><time>2026-04-11T09:48:33.539Z</time></trkpt><trkpt lat="43.6658745" lon="12.8223414"><ele>211.6</ele><time>2026-04-11T09:48:34.54Z</time></trkpt><trkpt lat="43.6658016" lon="12.8222126"><ele>211.2</ele><time>2026-04-11T09:48:35.538Z</time></trkpt><trkpt lat="43.6657345" lon="12.8221043"><ele>210.8</ele><time>2026-04-11T09:48:36.54Z</time></trkpt><trkpt lat="43.6656594" lon="12.8220069"><ele>210.4</ele><time>2026-04-11T09:48:37.54Z</time></trkpt><trkpt lat="43.6655779" lon="12.8219242"><ele>210.0</ele><time>2026-04-11T09:48:38.54Z</time></trkpt><trkpt lat="43.6655095" lon="12.8218556"><ele>210.16666666666666</ele><time>2026-04-11T09:48:39.54Z</time></trkpt><trkpt lat="43.6654433" lon="12.8217908"><ele>210.33333333333331</ele><time>2026-04-11T09:48:40.54Z</time></trkpt><trkpt lat="43.66538" lon="12.8217333"><ele>210.5</ele><time>2026-04-11T09:48:41.541Z</time></trkpt><trkpt lat="43.6653208" lon="12.8216726"><ele>210.66666666666666</ele><time>2026-04-11T09:48:42.539Z</time></trkpt><trkpt lat="43.6652655" lon="12.8216233"><ele>210.83333333333331</ele><time>2026-04-11T09:48:43.539Z</time></trkpt><trkpt lat="43.6651512" lon="12.8215193"><ele>211.0</ele><time>2026-04-11T09:48:45.538Z</time></trkpt><trkpt lat="43.6650947" lon="12.8214258"><ele>211.0</ele><time>2026-04-11T09:48:46.539Z</time></trkpt><trkpt lat="43.6650413" lon="12.8213169"><ele>211.0</ele><time>2026-04-11T09:48:47.538Z</time></trkpt><trkpt lat="43.6649912" lon="12.8212081"><ele>211.0</ele><time>2026-04-11T09:48:48.54Z</time></trkpt><trkpt lat="43.6649422" lon="12.821108"><ele>211.0</ele><time>2026-04-11T09:48:49.54Z</time></trkpt><trkpt lat="43.6648746" lon="12.8210065"><ele>211.0</ele><time>2026-04-11T09:48:50.541Z</time></trkpt><trkpt lat="43.664802" lon="12.8209256"><ele>212.4</ele><time>2026-04-11T09:48:51.541Z</time></trkpt><trkpt lat="43.66472" lon="12.820848"><ele>213.8</ele><time>2026-04-11T09:48:52.539Z</time></trkpt><trkpt lat="43.664647" lon="12.8207896"><ele>215.20000000000002</ele><time>2026-04-11T09:48:53.539Z</time></trkpt><trkpt lat="43.664569" lon="12.8207273"><ele>216.60000000000002</ele><time>2026-04-11T09:48:54.54Z</time></trkpt><trkpt lat="43.66449" lon="12.8206458"><ele>218.0</ele><time>2026-04-11T09:48:55.54Z</time></trkpt><trkpt lat="43.6644264" lon="12.8205488"><ele>218.0</ele><time>2026-04-11T09:48:56.538Z</time></trkpt><trkpt lat="43.6643617" lon="12.820441"><ele>218.0</ele><time>2026-04-11T09:48:57.54Z</time></trkpt><trkpt lat="43.6642947" lon="12.820325"><ele>218.0</ele><time>2026-04-11T09:48:58.54Z</time></trkpt><trkpt lat="43.6642356" lon="12.8202059"><ele>218.0</ele><time>2026-04-11T09:48:59.54Z</time></trkpt><trkpt lat="43.6641775" lon="12.8200932"><ele>218.0</ele><time>2026-04-11T09:49:00.54Z</time></trkpt><trkpt lat="43.6641202" lon="12.8199819"><ele>219.60000000000002</ele><time>2026-04-11T09:49:01.54Z</time></trkpt><trkpt lat="43.6640478" lon="12.8199014"><ele>221.20000000000002</ele><time>2026-04-11T09:49:02.539Z</time></trkpt><trkpt lat="43.6639689" lon="12.8198082"><ele>222.8</ele><time>2026-04-11T09:49:03.541Z</time></trkpt><trkpt lat="43.6638993" lon="12.8197004"><ele>224.4</ele><time>2026-04-11T09:49:04.538Z</time></trkpt><trkpt lat="43.6638568" lon="12.8195757"><ele>226.0</ele><time>2026-04-11T09:49:05.54Z</time></trkpt><trkpt lat="43.6638151" lon="12.8194349"><ele>228.0</ele><time>2026-04-11T09:49:06.54Z</time></trkpt><trkpt lat="43.6637475" lon="12.8192948"><ele>230.0</ele><time>2026-04-11T09:49:07.54Z</time></trkpt><trkpt lat="43.6636743" lon="12.8191707"><ele>232.0</ele><time>2026-04-11T09:49:08.538Z</time></trkpt><trkpt lat="43.6635907" lon="12.8190307"><ele>234.0</ele><time>2026-04-11T09:49:09.538Z</time></trkpt><trkpt lat="43.6635169" lon="12.8188823"><ele>235.25</ele><time>2026-04-11T09:49:10.541Z</time></trkpt><trkpt lat="43.6634454" lon="12.8187262"><ele>236.5</ele><time>2026-04-11T09:49:11.54Z</time></trkpt><trkpt lat="43.6633878" lon="12.8185609"><ele>237.75</ele><time>2026-04-11T09:49:12.541Z</time></trkpt><trkpt lat="43.6633238" lon="12.8184035"><ele>239.0</ele><time>2026-04-11T09:49:13.54Z</time></trkpt><trkpt lat="43.66325" lon="12.8182442"><ele>239.0</ele><time>2026-04-11T09:49:14.54Z</time></trkpt><trkpt lat="43.6631794" lon="12.8180814"><ele>239.0</ele><time>2026-04-11T09:49:15.539Z</time></trkpt><trkpt lat="43.6631166" lon="12.8179161"><ele>239.0</ele><time>2026-04-11T09:49:16.539Z</time></trkpt><trkpt lat="43.6630581" lon="12.8177555"><ele>239.0</ele><time>2026-04-11T09:49:17.54Z</time></trkpt><trkpt lat="43.6629922" lon="12.817602"><ele>238.2</ele><time>2026-04-11T09:49:18.54Z</time></trkpt><trkpt lat="43.6629317" lon="12.8174756"><ele>237.39999999999998</ele><time>2026-04-11T09:49:19.54Z</time></trkpt><trkpt lat="43.6628671" lon="12.8173519"><ele>236.6</ele><time>2026-04-11T09:49:20.539Z</time></trkpt><trkpt lat="43.6628215" lon="12.8172028"><ele>235.8</ele><time>2026-04-11T09:49:21.539Z</time></trkpt><trkpt lat="43.6627762" lon="12.8171099"><ele>235.0</ele><time>2026-04-11T09:49:22.539Z</time></trkpt><trkpt lat="43.6627943" lon="12.8169557"><ele>246.5</ele><time>2026-04-11T09:49:23.538Z</time></trkpt><trkpt lat="43.6627722" lon="12.8168062"><ele>258.0</ele><time>2026-04-11T09:49:24.539Z</time></trkpt><trkpt lat="43.6627437" lon="12.8166594"><ele>269.5</ele><time>2026-04-11T09:49:25.538Z</time></trkpt><trkpt lat="43.6627053" lon="12.8165012"><ele>281.0</ele><time>2026-04-11T09:49:26.54Z</time></trkpt><trkpt lat="43.6626548" lon="12.8163286"><ele>281.0</ele><time>2026-04-11T09:49:27.54Z</time></trkpt><trkpt lat="43.6626086" lon="12.8161935"><ele>281.0</ele><time>2026-04-11T09:49:28.54Z</time></trkpt><trkpt lat="43.6625823" lon="12.8160396"><ele>281.0</ele><time>2026-04-11T09:49:29.539Z</time></trkpt><trkpt lat="43.6625505" lon="12.8159323"><ele>281.0</ele><time>2026-04-11T09:49:30.541Z</time></trkpt><trkpt lat="43.6624937" lon="12.8158147"><ele>281.0</ele><time>2026-04-11T09:49:31.538Z</time></trkpt><trkpt lat="43.6624224" lon="12.8157067"><ele>278.40000000000003</ele><time>2026-04-11T09:49:32.54Z</time></trkpt><trkpt lat="43.6623712" lon="12.8155934"><ele>275.8</ele><time>2026-04-11T09:49:33.54Z</time></trkpt><trkpt lat="43.6623339" lon="12.8154961"><ele>273.20000000000005</ele><time>2026-04-11T09:49:34.539Z</time></trkpt><trkpt lat="43.6623244" lon="12.8153373"><ele>270.6</ele><time>2026-04-11T09:49:35.54Z</time></trkpt><trkpt lat="43.6622986" lon="12.8151928"><ele>268.0</ele><time>2026-04-11T09:49:36.539Z</time></trkpt><trkpt lat="43.6623056" lon="12.8150273"><ele>267.4</ele><time>2026-04-11T09:49:37.541Z</time></trkpt><trkpt lat="43.6622989" lon="12.8148786"><ele>266.8</ele><time>2026-04-11T09:49:38.539Z</time></trkpt><trkpt lat="43.6622995" lon="12.8147359"><ele>266.2</ele><time>2026-04-11T09:49:39.541Z</time></trkpt><trkpt lat="43.6622915" lon="12.8145986"><ele>265.6</ele><time>2026-04-11T09:49:40.54Z</time></trkpt><trkpt lat="43.6622503" lon="12.8144766"><ele>265.0</ele><time>2026-04-11T09:49:41.539Z</time></trkpt><trkpt lat="43.6622073" lon="12.8143643"><ele>265.2</ele><time>2026-04-11T09:49:42.539Z</time></trkpt><trkpt lat="43.6621446" lon="12.814247"><ele>265.4</ele><time>2026-04-11T09:49:43.539Z</time></trkpt><trkpt lat="43.6620685" lon="12.8141238"><ele>265.6</ele><time>2026-04-11T09:49:44.541Z</time></trkpt><trkpt lat="43.661987" lon="12.8140117"><ele>265.8</ele><time>2026-04-11T09:49:45.539Z</time></trkpt><trkpt lat="43.6619161" lon="12.8138999"><ele>266.0</ele><time>2026-04-11T09:49:46.54Z</time></trkpt><trkpt lat="43.6618798" lon="12.813765"><ele>273.0</ele><time>2026-04-11T09:49:47.54Z</time></trkpt><trkpt lat="43.6618669" lon="12.813618"><ele>280.0</ele><time>2026-04-11T09:49:48.539Z</time></trkpt><trkpt lat="43.6618757" lon="12.8134805"><ele>287.0</ele><time>2026-04-11T09:49:49.54Z</time></trkpt><trkpt lat="43.6618829" lon="12.8133587"><ele>294.0</ele><time>2026-04-11T09:49:50.54Z</time></trkpt><trkpt lat="43.6618776" lon="12.8132441"><ele>301.0</ele><time>2026-04-11T09:49:51.539Z</time></trkpt><trkpt lat="43.6618409" lon="12.8131455"><ele>301.0</ele><time>2026-04-11T09:49:52.54Z</time></trkpt><trkpt lat="43.6617899" lon="12.8130656"><ele>301.0</ele><time>2026-04-11T09:49:53.54Z</time></trkpt><trkpt lat="43.6617378" lon="12.8129883"><ele>301.0</ele><time>2026-04-11T09:49:54.54Z</time></trkpt><trkpt lat="43.66164" lon="12.8129533"><ele>301.0</ele><time>2026-04-11T09:49:55.539Z</time></trkpt><trkpt lat="43.6615444" lon="12.8129413"><ele>301.0</ele><time>2026-04-11T09:49:56.54Z</time></trkpt><trkpt lat="43.6614382" lon="12.8128788"><ele>301.0</ele><time>2026-04-11T09:49:57.54Z</time></trkpt><trkpt lat="43.661341" lon="12.8127984"><ele>301.0</ele><time>2026-04-11T09:49:58.539Z</time></trkpt><trkpt lat="43.6612513" lon="12.8126992"><ele>301.0</ele><time>2026-04-11T09:49:59.539Z</time></trkpt><trkpt lat="43.6611738" lon="12.8125884"><ele>301.0</ele><time>2026-04-11T09:50:00.54Z</time></trkpt><trkpt lat="43.6611178" lon="12.8124343"><ele>304.2</ele><time>2026-04-11T09:50:01.539Z</time></trkpt><trkpt lat="43.6610757" lon="12.8122876"><ele>307.40000000000003</ele><time>2026-04-11T09:50:02.541Z</time></trkpt><trkpt lat="43.661035" lon="12.8121163"><ele>310.6</ele><time>2026-04-11T09:50:03.541Z</time></trkpt><trkpt lat="43.6610168" lon="12.8119787"><ele>313.8</ele><time>2026-04-11T09:50:04.54Z</time></trkpt><trkpt lat="43.6609905" lon="12.8118932"><ele>317.0</ele><time>2026-04-11T09:50:05.54Z</time></trkpt><trkpt lat="43.6609652" lon="12.8118028"><ele>317.0</ele><time>2026-04-11T09:50:06.539Z</time></trkpt><trkpt lat="43.6609149" lon="12.8117243"><ele>317.0</ele><time>2026-04-11T09:50:08.54Z</time></trkpt><trkpt lat="43.6608163" lon="12.8117286"><ele>317.0</ele><time>2026-04-11T09:50:10.54Z</time></trkpt><trkpt lat="43.6607277" lon="12.8117816"><ele>317.0</ele><time>2026-04-11T09:50:12.538Z</time></trkpt><trkpt lat="43.6607099" lon="12.8118814"><ele>317.0</ele><time>2026-04-11T09:50:14.541Z</time></trkpt><trkpt lat="43.6607454" lon="12.8120194"><ele>319.4</ele><time>2026-04-11T09:50:16.541Z</time></trkpt><trkpt lat="43.6607652" lon="12.8121113"><ele>321.79999999999995</ele><time>2026-04-11T09:50:17.539Z</time></trkpt><trkpt lat="43.6607896" lon="12.812215"><ele>324.2</ele><time>2026-04-11T09:50:18.54Z</time></trkpt><trkpt lat="43.66081" lon="12.8123324"><ele>326.59999999999997</ele><time>2026-04-11T09:50:19.54Z</time></trkpt><trkpt lat="43.6608293" lon="12.8124775"><ele>329.0</ele><time>2026-04-11T09:50:20.539Z</time></trkpt><trkpt lat="43.6608518" lon="12.8126239"><ele>332.5</ele><time>2026-04-11T09:50:21.54Z</time></trkpt><trkpt lat="43.660874" lon="12.8127765"><ele>336.0</ele><time>2026-04-11T09:50:22.539Z</time></trkpt><trkpt lat="43.6608943" lon="12.8129373"><ele>339.5</ele><time>2026-04-11T09:50:23.539Z</time></trkpt><trkpt lat="43.6609092" lon="12.8131044"><ele>343.0</ele><time>2026-04-11T09:50:24.539Z</time></trkpt><trkpt lat="43.6609197" lon="12.8132869"><ele>346.0</ele><time>2026-04-11T09:50:25.541Z</time></trkpt><trkpt lat="43.660946" lon="12.8134985"><ele>349.0</ele><time>2026-04-11T09:50:26.539Z</time></trkpt><trkpt lat="43.6609683" lon="12.8137137"><ele>352.0</ele><time>2026-04-11T09:50:27.538Z</time></trkpt><trkpt lat="43.6609872" lon="12.8139115"><ele>352.0</ele><time>2026-04-11T09:50:28.54Z</time></trkpt><trkpt lat="43.6610076" lon="12.8140994"><ele>352.0</ele><time>2026-04-11T09:50:29.538Z</time></trkpt><trkpt lat="43.6610285" lon="12.8142285"><ele>352.0</ele><time>2026-04-11T09:50:30.54Z</time></trkpt><trkpt lat="43.6610336" lon="12.8143437"><ele>352.0</ele><time>2026-04-11T09:50:31.541Z</time></trkpt><trkpt lat="43.6610168" lon="12.8144398"><ele>352.0</ele><time>2026-04-11T09:50:32.54Z</time></trkpt><trkpt lat="43.6609848" lon="12.8145211"><ele>351.8</ele><time>2026-04-11T09:50:33.539Z</time></trkpt><trkpt lat="43.6609321" lon="12.8146111"><ele>351.6</ele><time>2026-04-11T09:50:34.539Z</time></trkpt><trkpt lat="43.6608801" lon="12.8147017"><ele>351.40000000000003</ele><time>2026-04-11T09:50:35.54Z</time></trkpt><trkpt lat="43.6608071" lon="12.8148026"><ele>351.20000000000005</ele><time>2026-04-11T09:50:36.541Z</time></trkpt><trkpt lat="43.660732" lon="12.8148923"><ele>351.0</ele><time>2026-04-11T09:50:37.541Z</time></trkpt><trkpt lat="43.6606591" lon="12.8149617"><ele>351.0</ele><time>2026-04-11T09:50:38.541Z</time></trkpt><trkpt lat="43.6605507" lon="12.8149907"><ele>351.0</ele><time>2026-04-11T09:50:39.54Z</time></trkpt><trkpt lat="43.6604541" lon="12.8150174"><ele>351.0</ele><time>2026-04-11T09:50:40.539Z</time></trkpt><trkpt lat="43.6603459" lon="12.8150261"><ele>351.0</ele><time>2026-04-11T09:50:41.54Z</time></trkpt><trkpt lat="43.6602492" lon="12.8150179"><ele>351.0</ele><time>2026-04-11T09:50:42.539Z</time></trkpt><trkpt lat="43.6601622" lon="12.8149881"><ele>353.8</ele><time>2026-04-11T09:50:43.54Z</time></trkpt><trkpt lat="43.6600794" lon="12.8149528"><ele>356.6</ele><time>2026-04-11T09:50:44.54Z</time></trkpt><trkpt lat="43.6600106" lon="12.8148671"><ele>359.4</ele><time>2026-04-11T09:50:45.54Z</time></trkpt><trkpt lat="43.6599384" lon="12.8147821"><ele>362.2</ele><time>2026-04-11T09:50:46.54Z</time></trkpt><trkpt lat="43.6598785" lon="12.814661"><ele>365.0</ele><time>2026-04-11T09:50:47.54Z</time></trkpt><trkpt lat="43.6598239" lon="12.8145347"><ele>365.0</ele><time>2026-04-11T09:50:48.539Z</time></trkpt><trkpt lat="43.6597696" lon="12.814405"><ele>365.0</ele><time>2026-04-11T09:50:49.539Z</time></trkpt><trkpt lat="43.6597044" lon="12.8142733"><ele>365.0</ele><time>2026-04-11T09:50:50.54Z</time></trkpt><trkpt lat="43.659631" lon="12.8141363"><ele>365.0</ele><time>2026-04-11T09:50:51.54Z</time></trkpt><trkpt lat="43.6595484" lon="12.8140041"><ele>366.75</ele><time>2026-04-11T09:50:52.54Z</time></trkpt><trkpt lat="43.6594626" lon="12.8138711"><ele>368.5</ele><time>2026-04-11T09:50:53.541Z</time></trkpt><trkpt lat="43.6593755" lon="12.8137457"><ele>370.25</ele><time>2026-04-11T09:50:54.541Z</time></trkpt><trkpt lat="43.6592789" lon="12.8136261"><ele>372.0</ele><time>2026-04-11T09:50:55.54Z</time></trkpt><trkpt lat="43.6591836" lon="12.8135094"><ele>375.25</ele><time>2026-04-11T09:50:56.539Z</time></trkpt><trkpt lat="43.6590932" lon="12.8133818"><ele>378.5</ele><time>2026-04-11T09:50:57.541Z</time></trkpt><trkpt lat="43.6589991" lon="12.8132514"><ele>381.75</ele><time>2026-04-11T09:50:58.54Z</time></trkpt><trkpt lat="43.658913" lon="12.8131201"><ele>385.0</ele><time>2026-04-11T09:50:59.539Z</time></trkpt><trkpt lat="43.658825" lon="12.8129878"><ele>385.0</ele><time>2026-04-11T09:51:00.539Z</time></trkpt><trkpt lat="43.6587313" lon="12.8128537"><ele>385.0</ele><time>2026-04-11T09:51:01.541Z</time></trkpt><trkpt lat="43.6586391" lon="12.8127208"><ele>385.0</ele><time>2026-04-11T09:51:02.539Z</time></trkpt><trkpt lat="43.6585484" lon="12.8125854"><ele>385.0</ele><time>2026-04-11T09:51:03.539Z</time></trkpt><trkpt lat="43.6584524" lon="12.8124433"><ele>388.75</ele><time>2026-04-11T09:51:04.541Z</time></trkpt><trkpt lat="43.6583575" lon="12.8122948"><ele>392.5</ele><time>2026-04-11T09:51:05.54Z</time></trkpt><trkpt lat="43.6582669" lon="12.8121537"><ele>396.25</ele><time>2026-04-11T09:51:06.539Z</time></trkpt><trkpt lat="43.6581913" lon="12.8120103"><ele>400.0</ele><time>2026-04-11T09:51:07.54Z</time></trkpt><trkpt lat="43.6581252" lon="12.8118554"><ele>400.25</ele><time>2026-04-11T09:51:08.539Z</time></trkpt><trkpt lat="43.6580549" lon="12.8117012"><ele>400.5</ele><time>2026-04-11T09:51:09.54Z</time></trkpt><trkpt lat="43.6579829" lon="12.8115331"><ele>400.75</ele><time>2026-04-11T09:51:10.54Z</time></trkpt><trkpt lat="43.6579117" lon="12.8113636"><ele>401.0</ele><time>2026-04-11T09:51:11.54Z</time></trkpt><trkpt lat="43.6578564" lon="12.8112151"><ele>401.0</ele><time>2026-04-11T09:51:12.538Z</time></trkpt><trkpt lat="43.6577931" lon="12.8110851"><ele>401.0</ele><time>2026-04-11T09:51:13.54Z</time></trkpt><trkpt lat="43.657736" lon="12.8109542"><ele>401.0</ele><time>2026-04-11T09:51:14.54Z</time></trkpt><trkpt lat="43.6576629" lon="12.8108481"><ele>401.0</ele><time>2026-04-11T09:51:15.538Z</time></trkpt><trkpt lat="43.6575869" lon="12.8107691"><ele>401.0</ele><time>2026-04-11T09:51:16.539Z</time></trkpt><trkpt lat="43.6574915" lon="12.8107186"><ele>404.75</ele><time>2026-04-11T09:51:17.539Z</time></trkpt><trkpt lat="43.6573925" lon="12.8106865"><ele>408.5</ele><time>2026-04-11T09:51:18.54Z</time></trkpt><trkpt lat="43.6572771" lon="12.8106723"><ele>412.25</ele><time>2026-04-11T09:51:19.539Z</time></trkpt><trkpt lat="43.6571517" lon="12.8106678"><ele>416.0</ele><time>2026-04-11T09:51:20.539Z</time></trkpt><trkpt lat="43.6570178" lon="12.8106549"><ele>418.25</ele><time>2026-04-11T09:51:21.541Z</time></trkpt><trkpt lat="43.6568932" lon="12.8106313"><ele>420.5</ele><time>2026-04-11T09:51:22.539Z</time></trkpt><trkpt lat="43.6567785" lon="12.8106019"><ele>422.75</ele><time>2026-04-11T09:51:23.539Z</time></trkpt><trkpt lat="43.656669" lon="12.8105288"><ele>425.0</ele><time>2026-04-11T09:51:24.54Z</time></trkpt><trkpt lat="43.6565718" lon="12.8104218"><ele>425.0</ele><time>2026-04-11T09:51:25.54Z</time></trkpt><trkpt lat="43.656478" lon="12.8102921"><ele>425.0</ele><time>2026-04-11T09:51:26.539Z</time></trkpt><trkpt lat="43.6563775" lon="12.8101375"><ele>425.0</ele><time>2026-04-11T09:51:27.539Z</time></trkpt><trkpt lat="43.6562889" lon="12.8099955"><ele>425.0</ele><time>2026-04-11T09:51:28.54Z</time></trkpt><trkpt lat="43.6562104" lon="12.8098643"><ele>424.8</ele><time>2026-04-11T09:51:29.539Z</time></trkpt><trkpt lat="43.6561336" lon="12.8097493"><ele>424.6</ele><time>2026-04-11T09:51:30.54Z</time></trkpt><trkpt lat="43.6560609" lon="12.8096588"><ele>424.4</ele><time>2026-04-11T09:51:31.538Z</time></trkpt><trkpt lat="43.6559883" lon="12.8095961"><ele>424.2</ele><time>2026-04-11T09:51:32.54Z</time></trkpt><trkpt lat="43.6559037" lon="12.8095513"><ele>424.0</ele><time>2026-04-11T09:51:33.54Z</time></trkpt><trkpt lat="43.6557943" lon="12.8095171"><ele>426.75</ele><time>2026-04-11T09:51:34.539Z</time></trkpt><trkpt lat="43.6556606" lon="12.8095088"><ele>429.5</ele><time>2026-04-11T09:51:35.541Z</time></trkpt><trkpt lat="43.6555171" lon="12.8095001"><ele>432.25</ele><time>2026-04-11T09:51:36.54Z</time></trkpt><trkpt lat="43.6553801" lon="12.8094932"><ele>435.0</ele><time>2026-04-11T09:51:37.538Z</time></trkpt><trkpt lat="43.6552476" lon="12.809488"><ele>435.25</ele><time>2026-04-11T09:51:38.539Z</time></trkpt><trkpt lat="43.6551151" lon="12.8094918"><ele>435.5</ele><time>2026-04-11T09:51:39.539Z</time></trkpt><trkpt lat="43.6549741" lon="12.8095151"><ele>435.75</ele><time>2026-04-11T09:51:40.539Z</time></trkpt><trkpt lat="43.6548392" lon="12.8095499"><ele>436.0</ele><time>2026-04-11T09:51:41.541Z</time></trkpt><trkpt lat="43.6547167" lon="12.8095875"><ele>436.0</ele><time>2026-04-11T09:51:42.539Z</time></trkpt><trkpt lat="43.6546067" lon="12.809612"><ele>436.0</ele><time>2026-04-11T09:51:43.54Z</time></trkpt><trkpt lat="43.6545064" lon="12.8096048"><ele>436.0</ele><time>2026-04-11T09:51:44.54Z</time></trkpt><trkpt lat="43.6544125" lon="12.8095557"><ele>436.0</ele><time>2026-04-11T09:51:45.54Z</time></trkpt><trkpt lat="43.6543292" lon="12.8094737"><ele>436.0</ele><time>2026-04-11T09:51:46.541Z</time></trkpt><trkpt lat="43.6542548" lon="12.8093541"><ele>437.0</ele><time>2026-04-11T09:51:47.539Z</time></trkpt><trkpt lat="43.6541972" lon="12.80921"><ele>438.0</ele><time>2026-04-11T09:51:48.539Z</time></trkpt><trkpt lat="43.6541417" lon="12.8090688"><ele>439.0</ele><time>2026-04-11T09:51:49.54Z</time></trkpt><trkpt lat="43.6540862" lon="12.8089435"><ele>440.0</ele><time>2026-04-11T09:51:50.541Z</time></trkpt><trkpt lat="43.6540216" lon="12.8088344"><ele>441.0</ele><time>2026-04-11T09:51:51.538Z</time></trkpt><trkpt lat="43.653935" lon="12.8087274"><ele>441.0</ele><time>2026-04-11T09:51:52.539Z</time></trkpt><trkpt lat="43.6538443" lon="12.8086387"><ele>441.0</ele><time>2026-04-11T09:51:53.54Z</time></trkpt><trkpt lat="43.6537386" lon="12.8085731"><ele>441.0</ele><time>2026-04-11T09:51:54.54Z</time></trkpt><trkpt lat="43.6536171" lon="12.8085134"><ele>441.0</ele><time>2026-04-11T09:51:55.539Z</time></trkpt><trkpt lat="43.6534796" lon="12.8084509"><ele>443.66666666666663</ele><time>2026-04-11T09:51:56.541Z</time></trkpt><trkpt lat="43.6533276" lon="12.8083835"><ele>446.3333333333333</ele><time>2026-04-11T09:51:57.541Z</time></trkpt><trkpt lat="43.6531803" lon="12.808321"><ele>449.0</ele><time>2026-04-11T09:51:58.539Z</time></trkpt><trkpt lat="43.6530395" lon="12.8082644"><ele>449.0</ele><time>2026-04-11T09:51:59.541Z</time></trkpt><trkpt lat="43.6529034" lon="12.8082116"><ele>449.0</ele><time>2026-04-11T09:52:00.539Z</time></trkpt><trkpt lat="43.6527803" lon="12.8081738"><ele>449.0</ele><time>2026-04-11T09:52:01.54Z</time></trkpt><trkpt lat="43.652679" lon="12.8081423"><ele>449.0</ele><time>2026-04-11T09:52:02.538Z</time></trkpt><trkpt lat="43.652581" lon="12.8081111"><ele>450.66666666666663</ele><time>2026-04-11T09:52:03.539Z</time></trkpt><trkpt lat="43.6524877" lon="12.8080829"><ele>452.3333333333333</ele><time>2026-04-11T09:52:04.539Z</time></trkpt><trkpt lat="43.6524142" lon="12.8080577"><ele>454.0</ele><time>2026-04-11T09:52:05.54Z</time></trkpt><trkpt lat="43.6523591" lon="12.8080122"><ele>455.66666666666663</ele><time>2026-04-11T09:52:06.539Z</time></trkpt><trkpt lat="43.6523148" lon="12.8079383"><ele>457.3333333333333</ele><time>2026-04-11T09:52:07.539Z</time></trkpt><trkpt lat="43.6522823" lon="12.8078491"><ele>459.0</ele><time>2026-04-11T09:52:08.54Z</time></trkpt><trkpt lat="43.652255" lon="12.8077368"><ele>457.2</ele><time>2026-04-11T09:52:09.541Z</time></trkpt><trkpt lat="43.6522332" lon="12.8076024"><ele>455.4</ele><time>2026-04-11T09:52:10.54Z</time></trkpt><trkpt lat="43.6522106" lon="12.8074661"><ele>453.6</ele><time>2026-04-11T09:52:11.539Z</time></trkpt><trkpt lat="43.6521885" lon="12.8073424"><ele>451.8</ele><time>2026-04-11T09:52:12.541Z</time></trkpt><trkpt lat="43.652164" lon="12.8072177"><ele>450.0</ele><time>2026-04-11T09:52:13.54Z</time></trkpt><trkpt lat="43.6521464" lon="12.8071204"><ele>450.0</ele><time>2026-04-11T09:52:14.539Z</time></trkpt><trkpt lat="43.6521239" lon="12.8070356"><ele>450.0</ele><time>2026-04-11T09:52:15.539Z</time></trkpt><trkpt lat="43.652071" lon="12.8069164"><ele>450.0</ele><time>2026-04-11T09:52:17.541Z</time></trkpt><trkpt lat="43.6519971" lon="12.8068819"><ele>450.0</ele><time>2026-04-11T09:52:19.539Z</time></trkpt><trkpt lat="43.6518892" lon="12.8069516"><ele>450.0</ele><time>2026-04-11T09:52:21.539Z</time></trkpt><trkpt lat="43.6518262" lon="12.8070035"><ele>450.0</ele><time>2026-04-11T09:52:22.539Z</time></trkpt><trkpt lat="43.6517623" lon="12.8070596"><ele>449.5</ele><time>2026-04-11T09:52:23.54Z</time></trkpt><trkpt lat="43.6517015" lon="12.8071204"><ele>449.0</ele><time>2026-04-11T09:52:24.54Z</time></trkpt><trkpt lat="43.6516297" lon="12.8071833"><ele>448.5</ele><time>2026-04-11T09:52:25.539Z</time></trkpt><trkpt lat="43.6515745" lon="12.807239"><ele>448.0</ele><time>2026-04-11T09:52:26.539Z</time></trkpt><trkpt lat="43.6515085" lon="12.8073026"><ele>447.5</ele><time>2026-04-11T09:52:27.54Z</time></trkpt><trkpt lat="43.6514522" lon="12.80736"><ele>447.0</ele><time>2026-04-11T09:52:28.54Z</time></trkpt><trkpt lat="43.6513662" lon="12.807457"><ele>447.0</ele><time>2026-04-11T09:52:30.541Z</time></trkpt><trkpt lat="43.6512948" lon="12.8075509"><ele>447.0</ele><time>2026-04-11T09:52:32.539Z</time></trkpt><trkpt lat="43.6512273" lon="12.8076468"><ele>447.0</ele><time>2026-04-11T09:52:34.54Z</time></trkpt><trkpt lat="43.6511767" lon="12.8077181"><ele>447.0</ele><time>2026-04-11T09:52:36.54Z</time></trkpt><trkpt lat="43.6511273" lon="12.807774"><ele>447.0</ele><time>2026-04-11T09:52:38.539Z</time></trkpt><trkpt lat="43.6510665" lon="12.8078522"><ele>447.0</ele><time>2026-04-11T09:52:41.54Z</time></trkpt><trkpt lat="43.6510091" lon="12.8079394"><ele>444.3333333333333</ele><time>2026-04-11T09:52:43.539Z</time></trkpt><trkpt lat="43.6509381" lon="12.8080294"><ele>441.66666666666663</ele><time>2026-04-11T09:52:45.54Z</time></trkpt><trkpt lat="43.650868" lon="12.8081227"><ele>439.0</ele><time>2026-04-11T09:52:47.541Z</time></trkpt><trkpt lat="43.6507831" lon="12.8082158"><ele>436.3333333333333</ele><time>2026-04-11T09:52:49.539Z</time></trkpt><trkpt lat="43.6507337" lon="12.8082752"><ele>433.66666666666663</ele><time>2026-04-11T09:52:50.539Z</time></trkpt><trkpt lat="43.6506783" lon="12.8083354"><ele>431.0</ele><time>2026-04-11T09:52:51.54Z</time></trkpt><trkpt lat="43.6506182" lon="12.8084075"><ele>431.0</ele><time>2026-04-11T09:52:52.539Z</time></trkpt><trkpt lat="43.6505526" lon="12.8084807"><ele>431.0</ele><time>2026-04-11T09:52:53.541Z</time></trkpt><trkpt lat="43.6504905" lon="12.8085496"><ele>431.0</ele><time>2026-04-11T09:52:54.54Z</time></trkpt><trkpt lat="43.6504204" lon="12.8086302"><ele>431.0</ele><time>2026-04-11T09:52:55.54Z</time></trkpt><trkpt lat="43.6503502" lon="12.8087213"><ele>431.0</ele><time>2026-04-11T09:52:56.541Z</time></trkpt><trkpt lat="43.6502758" lon="12.8088177"><ele>428.4</ele><time>2026-04-11T09:52:57.541Z</time></trkpt><trkpt lat="43.6502022" lon="12.8089046"><ele>425.8</ele><time>2026-04-11T09:52:58.541Z</time></trkpt><trkpt lat="43.6501295" lon="12.8089946"><ele>423.2</ele><time>2026-04-11T09:52:59.54Z</time></trkpt><trkpt lat="43.6500553" lon="12.80909"><ele>420.59999999999997</ele><time>2026-04-11T09:53:00.539Z</time></trkpt><trkpt lat="43.6499773" lon="12.8091873"><ele>418.0</ele><time>2026-04-11T09:53:01.539Z</time></trkpt><trkpt lat="43.6498951" lon="12.8092892"><ele>416.59999999999997</ele><time>2026-04-11T09:53:02.54Z</time></trkpt><trkpt lat="43.6498133" lon="12.809386"><ele>415.2</ele><time>2026-04-11T09:53:03.54Z</time></trkpt><trkpt lat="43.6497311" lon="12.8094881"><ele>413.8</ele><time>2026-04-11T09:53:04.54Z</time></trkpt><trkpt lat="43.6496502" lon="12.809598"><ele>412.4</ele><time>2026-04-11T09:53:05.54Z</time></trkpt><trkpt lat="43.649574" lon="12.8097156"><ele>411.0</ele><time>2026-04-11T09:53:06.539Z</time></trkpt><trkpt lat="43.6494949" lon="12.8098365"><ele>411.5</ele><time>2026-04-11T09:53:07.539Z</time></trkpt><trkpt lat="43.6494178" lon="12.8099506"><ele>412.0</ele><time>2026-04-11T09:53:08.539Z</time></trkpt><trkpt lat="43.6493292" lon="12.8100677"><ele>412.5</ele><time>2026-04-11T09:53:09.539Z</time></trkpt><trkpt lat="43.6492292" lon="12.8101868"><ele>413.0</ele><time>2026-04-11T09:53:10.541Z</time></trkpt><trkpt lat="43.6491255" lon="12.8102801"><ele>412.0</ele><time>2026-04-11T09:53:11.539Z</time></trkpt><trkpt lat="43.6490264" lon="12.8103558"><ele>411.0</ele><time>2026-04-11T09:53:12.54Z</time></trkpt><trkpt lat="43.6489224" lon="12.8104038"><ele>410.0</ele><time>2026-04-11T09:53:13.539Z</time></trkpt><trkpt lat="43.6488174" lon="12.8104213"><ele>409.0</ele><time>2026-04-11T09:53:14.54Z</time></trkpt><trkpt lat="43.6487032" lon="12.8104282"><ele>408.0</ele><time>2026-04-11T09:53:15.54Z</time></trkpt><trkpt lat="43.6485903" lon="12.8104225"><ele>408.0</ele><time>2026-04-11T09:53:16.539Z</time></trkpt><trkpt lat="43.6484686" lon="12.8104299"><ele>408.0</ele><time>2026-04-11T09:53:17.54Z</time></trkpt><trkpt lat="43.648343" lon="12.8104513"><ele>408.0</ele><time>2026-04-11T09:53:18.539Z</time></trkpt><trkpt lat="43.6482206" lon="12.8104962"><ele>408.0</ele><time>2026-04-11T09:53:19.539Z</time></trkpt><trkpt lat="43.6481029" lon="12.8105566"><ele>408.0</ele><time>2026-04-11T09:53:20.541Z</time></trkpt><trkpt lat="43.6479834" lon="12.8106393"><ele>408.0</ele><time>2026-04-11T09:53:21.539Z</time></trkpt><trkpt lat="43.6478603" lon="12.8107259"><ele>408.0</ele><time>2026-04-11T09:53:22.541Z</time></trkpt><trkpt lat="43.64774" lon="12.8108179"><ele>408.0</ele><time>2026-04-11T09:53:23.54Z</time></trkpt><trkpt lat="43.647613" lon="12.8109144"><ele>404.66666666666663</ele><time>2026-04-11T09:53:24.539Z</time></trkpt><trkpt lat="43.6474829" lon="12.8110112"><ele>401.3333333333333</ele><time>2026-04-11T09:53:25.54Z</time></trkpt><trkpt lat="43.647341" lon="12.8111079"><ele>398.0</ele><time>2026-04-11T09:53:26.539Z</time></trkpt><trkpt lat="43.6472026" lon="12.8112067"><ele>398.0</ele><time>2026-04-11T09:53:27.539Z</time></trkpt><trkpt lat="43.6470799" lon="12.8112877"><ele>398.0</ele><time>2026-04-11T09:53:28.54Z</time></trkpt><trkpt lat="43.6469644" lon="12.8113445"><ele>398.0</ele><time>2026-04-11T09:53:29.539Z</time></trkpt><trkpt lat="43.6468659" lon="12.8113664"><ele>398.0</ele><time>2026-04-11T09:53:30.538Z</time></trkpt><trkpt lat="43.6467612" lon="12.8113595"><ele>401.5</ele><time>2026-04-11T09:53:31.541Z</time></trkpt><trkpt lat="43.6466442" lon="12.8113386"><ele>405.0</ele><time>2026-04-11T09:53:32.54Z</time></trkpt><trkpt lat="43.6465004" lon="12.8113159"><ele>408.5</ele><time>2026-04-11T09:53:33.539Z</time></trkpt><trkpt lat="43.6463591" lon="12.8113045"><ele>412.0</ele><time>2026-04-11T09:53:34.54Z</time></trkpt><trkpt lat="43.6462214" lon="12.8112957"><ele>413.40000000000003</ele><time>2026-04-11T09:53:35.54Z</time></trkpt><trkpt lat="43.6460944" lon="12.8112776"><ele>414.8</ele><time>2026-04-11T09:53:36.538Z</time></trkpt><trkpt lat="43.6459914" lon="12.8112642"><ele>416.2</ele><time>2026-04-11T09:53:37.54Z</time></trkpt><trkpt lat="43.6459007" lon="12.8112611"><ele>417.6</ele><time>2026-04-11T09:53:38.539Z</time></trkpt><trkpt lat="43.645808" lon="12.8112886"><ele>419.0</ele><time>2026-04-11T09:53:39.539Z</time></trkpt><trkpt lat="43.6457066" lon="12.8113559"><ele>419.0</ele><time>2026-04-11T09:53:40.54Z</time></trkpt><trkpt lat="43.645608" lon="12.8114527"><ele>419.0</ele><time>2026-04-11T09:53:41.54Z</time></trkpt><trkpt lat="43.6455202" lon="12.8115404"><ele>419.0</ele><time>2026-04-11T09:53:42.539Z</time></trkpt><trkpt lat="43.6454366" lon="12.8116032"><ele>419.0</ele><time>2026-04-11T09:53:43.539Z</time></trkpt><trkpt lat="43.6453636" lon="12.8116401"><ele>419.0</ele><time>2026-04-11T09:53:44.539Z</time></trkpt><trkpt lat="43.6452928" lon="12.8116534"><ele>418.3333333333333</ele><time>2026-04-11T09:53:45.54Z</time></trkpt><trkpt lat="43.6452251" lon="12.8116383"><ele>417.66666666666663</ele><time>2026-04-11T09:53:46.539Z</time></trkpt><trkpt lat="43.6451492" lon="12.81159"><ele>417.0</ele><time>2026-04-11T09:53:47.538Z</time></trkpt><trkpt lat="43.6450805" lon="12.8115049"><ele>416.33333333333337</ele><time>2026-04-11T09:53:48.538Z</time></trkpt><trkpt lat="43.6450303" lon="12.8114207"><ele>415.6666666666667</ele><time>2026-04-11T09:53:49.539Z</time></trkpt><trkpt lat="43.6449822" lon="12.8113437"><ele>415.0</ele><time>2026-04-11T09:53:50.54Z</time></trkpt><trkpt lat="43.6448927" lon="12.8112517"><ele>415.00000000000006</ele><time>2026-04-11T09:53:52.54Z</time></trkpt><trkpt lat="43.6448182" lon="12.8112362"><ele>415.0</ele><time>2026-04-11T09:53:53.541Z</time></trkpt><trkpt lat="43.6447339" lon="12.8112366"><ele>415.0</ele><time>2026-04-11T09:53:54.54Z</time></trkpt><trkpt lat="43.6446442" lon="12.8112278"><ele>415.0</ele><time>2026-04-11T09:53:55.54Z</time></trkpt><trkpt lat="43.6445417" lon="12.8112387"><ele>415.00000000000006</ele><time>2026-04-11T09:53:56.539Z</time></trkpt><trkpt lat="43.6444457" lon="12.8112498"><ele>415.0</ele><time>2026-04-11T09:53:57.539Z</time></trkpt><trkpt lat="43.644342" lon="12.8112479"><ele>411.8</ele><time>2026-04-11T09:53:58.538Z</time></trkpt><trkpt lat="43.6442367" lon="12.8112295"><ele>408.6</ele><time>2026-04-11T09:53:59.539Z</time></trkpt><trkpt lat="43.6441312" lon="12.8111887"><ele>405.4</ele><time>2026-04-11T09:54:00.541Z</time></trkpt><trkpt lat="43.6440258" lon="12.811148"><ele>402.2</ele><time>2026-04-11T09:54:01.54Z</time></trkpt><trkpt lat="43.6439231" lon="12.8110925"><ele>399.0</ele><time>2026-04-11T09:54:02.538Z</time></trkpt><trkpt lat="43.6438189" lon="12.8110349"><ele>398.5</ele><time>2026-04-11T09:54:03.539Z</time></trkpt><trkpt lat="43.6437142" lon="12.8109778"><ele>398.0</ele><time>2026-04-11T09:54:04.54Z</time></trkpt><trkpt lat="43.643608" lon="12.8109218"><ele>397.5</ele><time>2026-04-11T09:54:05.541Z</time></trkpt><trkpt lat="43.6434984" lon="12.8108759"><ele>397.0</ele><time>2026-04-11T09:54:06.539Z</time></trkpt><trkpt lat="43.6433952" lon="12.8108118"><ele>397.0</ele><time>2026-04-11T09:54:07.54Z</time></trkpt><trkpt lat="43.6433012" lon="12.8107435"><ele>397.0</ele><time>2026-04-11T09:54:08.541Z</time></trkpt><trkpt lat="43.6432039" lon="12.8106698"><ele>397.0</ele><time>2026-04-11T09:54:09.54Z</time></trkpt><trkpt lat="43.6431161" lon="12.8105985"><ele>397.0</ele><time>2026-04-11T09:54:10.539Z</time></trkpt><trkpt lat="43.6430249" lon="12.810537"><ele>397.0</ele><time>2026-04-11T09:54:11.538Z</time></trkpt><trkpt lat="43.6429359" lon="12.8104733"><ele>397.0</ele><time>2026-04-11T09:54:12.54Z</time></trkpt><trkpt lat="43.6428584" lon="12.8103983"><ele>397.0</ele><time>2026-04-11T09:54:13.54Z</time></trkpt><trkpt lat="43.642788" lon="12.810293"><ele>397.0</ele><time>2026-04-11T09:54:14.54Z</time></trkpt><trkpt lat="43.6427263" lon="12.810191"><ele>397.0</ele><time>2026-04-11T09:54:15.54Z</time></trkpt><trkpt lat="43.6426616" lon="12.8100988"><ele>397.0</ele><time>2026-04-11T09:54:16.54Z</time></trkpt><trkpt lat="43.6425938" lon="12.8100068"><ele>393.6</ele><time>2026-04-11T09:54:17.54Z</time></trkpt><trkpt lat="43.6425265" lon="12.8099287"><ele>390.20000000000005</ele><time>2026-04-11T09:54:18.539Z</time></trkpt><trkpt lat="43.6424651" lon="12.809867"><ele>386.8</ele><time>2026-04-11T09:54:19.539Z</time></trkpt><trkpt lat="43.6424062" lon="12.8098201"><ele>383.4</ele><time>2026-04-11T09:54:20.54Z</time></trkpt><trkpt lat="43.6423055" lon="12.8097045"><ele>380.0</ele><time>2026-04-11T09:54:22.538Z</time></trkpt><trkpt lat="43.6422567" lon="12.8095473"><ele>380.0</ele><time>2026-04-11T09:54:24.541Z</time></trkpt><trkpt lat="43.642268" lon="12.8093499"><ele>380.0</ele><time>2026-04-11T09:54:26.541Z</time></trkpt><trkpt lat="43.6422802" lon="12.8092521"><ele>380.0</ele><time>2026-04-11T09:54:27.539Z</time></trkpt><trkpt lat="43.6422816" lon="12.8091588"><ele>380.0</ele><time>2026-04-11T09:54:28.54Z</time></trkpt><trkpt lat="43.6422856" lon="12.8090439"><ele>380.0</ele><time>2026-04-11T09:54:29.54Z</time></trkpt><trkpt lat="43.6422829" lon="12.8089162"><ele>379.33333333333337</ele><time>2026-04-11T09:54:30.54Z</time></trkpt><trkpt lat="43.6422706" lon="12.8087868"><ele>378.6666666666667</ele><time>2026-04-11T09:54:31.538Z</time></trkpt><trkpt lat="43.6422489" lon="12.8086768"><ele>378.0</ele><time>2026-04-11T09:54:32.541Z</time></trkpt><trkpt lat="43.6422248" lon="12.8085761"><ele>377.3333333333333</ele><time>2026-04-11T09:54:33.539Z</time></trkpt><trkpt lat="43.6421888" lon="12.8084789"><ele>376.66666666666663</ele><time>2026-04-11T09:54:34.54Z</time></trkpt><trkpt lat="43.6421511" lon="12.8083753"><ele>376.0</ele><time>2026-04-11T09:54:35.54Z</time></trkpt><trkpt lat="43.6421133" lon="12.8082833"><ele>376.0</ele><time>2026-04-11T09:54:36.539Z</time></trkpt><trkpt lat="43.6420708" lon="12.8081991"><ele>376.0</ele><time>2026-04-11T09:54:37.539Z</time></trkpt><trkpt lat="43.6420317" lon="12.8081242"><ele>376.0</ele><time>2026-04-11T09:54:38.54Z</time></trkpt><trkpt lat="43.6419842" lon="12.8080504"><ele>376.0</ele><time>2026-04-11T09:54:39.539Z</time></trkpt><trkpt lat="43.6419358" lon="12.8079717"><ele>376.0</ele><time>2026-04-11T09:54:40.539Z</time></trkpt><trkpt lat="43.6418575" lon="12.8079305"><ele>376.0</ele><time>2026-04-11T09:54:41.54Z</time></trkpt><trkpt lat="43.641771" lon="12.8078961"><ele>370.5</ele><time>2026-04-11T09:54:42.54Z</time></trkpt><trkpt lat="43.6416661" lon="12.8078673"><ele>365.0</ele><time>2026-04-11T09:54:43.539Z</time></trkpt><trkpt lat="43.6415512" lon="12.8078322"><ele>359.5</ele><time>2026-04-11T09:54:44.539Z</time></trkpt><trkpt lat="43.6414301" lon="12.8077912"><ele>354.0</ele><time>2026-04-11T09:54:45.539Z</time></trkpt><trkpt lat="43.6413154" lon="12.8077445"><ele>354.0</ele><time>2026-04-11T09:54:46.539Z</time></trkpt><trkpt lat="43.6411907" lon="12.8076959"><ele>354.0</ele><time>2026-04-11T09:54:47.54Z</time></trkpt><trkpt lat="43.6410653" lon="12.8076489"><ele>354.0</ele><time>2026-04-11T09:54:48.539Z</time></trkpt><trkpt lat="43.640944" lon="12.8076046"><ele>354.0</ele><time>2026-04-11T09:54:49.538Z</time></trkpt><trkpt lat="43.6408231" lon="12.8075537"><ele>350.5</ele><time>2026-04-11T09:54:50.541Z</time></trkpt><trkpt lat="43.6406963" lon="12.8075005"><ele>347.0</ele><time>2026-04-11T09:54:51.539Z</time></trkpt><trkpt lat="43.6405763" lon="12.8074299"><ele>343.5</ele><time>2026-04-11T09:54:52.541Z</time></trkpt><trkpt lat="43.6404551" lon="12.8073504"><ele>340.0</ele><time>2026-04-11T09:54:53.539Z</time></trkpt><trkpt lat="43.6403316" lon="12.8072611"><ele>336.25</ele><time>2026-04-11T09:54:54.54Z</time></trkpt><trkpt lat="43.6402107" lon="12.8071596"><ele>332.5</ele><time>2026-04-11T09:54:55.54Z</time></trkpt><trkpt lat="43.6401053" lon="12.8070602"><ele>328.75</ele><time>2026-04-11T09:54:56.539Z</time></trkpt><trkpt lat="43.6399882" lon="12.8069554"><ele>325.0</ele><time>2026-04-11T09:54:57.54Z</time></trkpt><trkpt lat="43.6398713" lon="12.806859"><ele>325.25</ele><time>2026-04-11T09:54:58.54Z</time></trkpt><trkpt lat="43.6397524" lon="12.806772"><ele>325.5</ele><time>2026-04-11T09:54:59.54Z</time></trkpt><trkpt lat="43.6396282" lon="12.8066978"><ele>325.75</ele><time>2026-04-11T09:55:00.538Z</time></trkpt><trkpt lat="43.6394964" lon="12.8066205"><ele>326.0</ele><time>2026-04-11T09:55:01.539Z</time></trkpt><trkpt lat="43.6393581" lon="12.8065382"><ele>324.0</ele><time>2026-04-11T09:55:02.539Z</time></trkpt><trkpt lat="43.6392162" lon="12.8064585"><ele>322.0</ele><time>2026-04-11T09:55:03.539Z</time></trkpt><trkpt lat="43.6390791" lon="12.8063861"><ele>320.0</ele><time>2026-04-11T09:55:04.539Z</time></trkpt><trkpt lat="43.6389611" lon="12.8063284"><ele>318.0</ele><time>2026-04-11T09:55:05.539Z</time></trkpt><trkpt lat="43.6388757" lon="12.8062903"><ele>318.0</ele><time>2026-04-11T09:55:06.539Z</time></trkpt><trkpt lat="43.6387907" lon="12.806247"><ele>318.0</ele><time>2026-04-11T09:55:07.539Z</time></trkpt><trkpt lat="43.6387222" lon="12.8062077"><ele>318.0</ele><time>2026-04-11T09:55:08.538Z</time></trkpt><trkpt lat="43.6386491" lon="12.8061225"><ele>318.0</ele><time>2026-04-11T09:55:10.54Z</time></trkpt><trkpt lat="43.6386507" lon="12.80595"><ele>318.0</ele><time>2026-04-11T09:55:12.54Z</time></trkpt><trkpt lat="43.6386758" lon="12.805821"><ele>318.0</ele><time>2026-04-11T09:55:13.541Z</time></trkpt><trkpt lat="43.638703" lon="12.8056788"><ele>318.0</ele><time>2026-04-11T09:55:14.539Z</time></trkpt><trkpt lat="43.6387308" lon="12.8055184"><ele>318.0</ele><time>2026-04-11T09:55:15.54Z</time></trkpt><trkpt lat="43.6387528" lon="12.8053623"><ele>318.0</ele><time>2026-04-11T09:55:16.539Z</time></trkpt><trkpt lat="43.6387713" lon="12.8052038"><ele>318.2</ele><time>2026-04-11T09:55:17.541Z</time></trkpt><trkpt lat="43.6387842" lon="12.8050594"><ele>318.4</ele><time>2026-04-11T09:55:18.539Z</time></trkpt><trkpt lat="43.6387959" lon="12.8049268"><ele>318.59999999999997</ele><time>2026-04-11T09:55:19.539Z</time></trkpt><trkpt lat="43.6388066" lon="12.8047999"><ele>318.8</ele><time>2026-04-11T09:55:20.541Z</time></trkpt><trkpt lat="43.638816" lon="12.8046743"><ele>319.0</ele><time>2026-04-11T09:55:21.539Z</time></trkpt><trkpt lat="43.6388241" lon="12.8045454"><ele>319.0</ele><time>2026-04-11T09:55:22.54Z</time></trkpt><trkpt lat="43.6388313" lon="12.8044236"><ele>319.0</ele><time>2026-04-11T09:55:23.539Z</time></trkpt><trkpt lat="43.6388368" lon="12.8042964"><ele>319.0</ele><time>2026-04-11T09:55:24.54Z</time></trkpt><trkpt lat="43.638843" lon="12.8041722"><ele>319.0</ele><time>2026-04-11T09:55:25.539Z</time></trkpt><trkpt lat="43.6388517" lon="12.8040606"><ele>319.0</ele><time>2026-04-11T09:55:26.539Z</time></trkpt><trkpt lat="43.6388732" lon="12.8039567"><ele>319.0</ele><time>2026-04-11T09:55:27.54Z</time></trkpt><trkpt lat="43.6388976" lon="12.803874"><ele>316.8</ele><time>2026-04-11T09:55:28.539Z</time></trkpt><trkpt lat="43.6389119" lon="12.8037199"><ele>314.59999999999997</ele><time>2026-04-11T09:55:30.539Z</time></trkpt><trkpt lat="43.6388393" lon="12.8036567"><ele>312.4</ele><time>2026-04-11T09:55:32.539Z</time></trkpt><trkpt lat="43.6387229" lon="12.8037313"><ele>310.2</ele><time>2026-04-11T09:55:34.539Z</time></trkpt><trkpt lat="43.6386535" lon="12.8037822"><ele>308.0</ele><time>2026-04-11T09:55:35.538Z</time></trkpt><trkpt lat="43.6385827" lon="12.8038214"><ele>304.33333333333337</ele><time>2026-04-11T09:55:36.54Z</time></trkpt><trkpt lat="43.6385148" lon="12.8038558"><ele>300.6666666666667</ele><time>2026-04-11T09:55:37.54Z</time></trkpt><trkpt lat="43.6384464" lon="12.8038717"><ele>297.0</ele><time>2026-04-11T09:55:38.54Z</time></trkpt><trkpt lat="43.6383744" lon="12.803857"><ele>293.3333333333333</ele><time>2026-04-11T09:55:39.54Z</time></trkpt><trkpt lat="43.6383017" lon="12.8038089"><ele>289.66666666666663</ele><time>2026-04-11T09:55:40.54Z</time></trkpt><trkpt lat="43.6382238" lon="12.8037356"><ele>286.0</ele><time>2026-04-11T09:55:41.54Z</time></trkpt><trkpt lat="43.6381456" lon="12.8036435"><ele>286.0</ele><time>2026-04-11T09:55:42.54Z</time></trkpt><trkpt lat="43.6380725" lon="12.8035437"><ele>286.0</ele><time>2026-04-11T09:55:43.539Z</time></trkpt><trkpt lat="43.6380065" lon="12.8034575"><ele>286.0</ele><time>2026-04-11T09:55:44.54Z</time></trkpt><trkpt lat="43.6379389" lon="12.8033851"><ele>286.0</ele><time>2026-04-11T09:55:45.539Z</time></trkpt><trkpt lat="43.6378738" lon="12.8033373"><ele>286.0</ele><time>2026-04-11T09:55:46.54Z</time></trkpt><trkpt lat="43.6378059" lon="12.8032866"><ele>286.0</ele><time>2026-04-11T09:55:47.539Z</time></trkpt><trkpt lat="43.6377426" lon="12.8032403"><ele>283.3333333333333</ele><time>2026-04-11T09:55:48.539Z</time></trkpt><trkpt lat="43.6376855" lon="12.8031955"><ele>280.66666666666663</ele><time>2026-04-11T09:55:49.54Z</time></trkpt><trkpt lat="43.6375926" lon="12.8031109"><ele>278.0</ele><time>2026-04-11T09:55:51.54Z</time></trkpt><trkpt lat="43.6375422" lon="12.8030509"><ele>275.3333333333333</ele><time>2026-04-11T09:55:53.538Z</time></trkpt><trkpt lat="43.6374914" lon="12.8029658"><ele>272.6666666666667</ele><time>2026-04-11T09:56:10.539Z</time></trkpt><trkpt lat="43.63744" lon="12.8028703"><ele>270.0</ele><time>2026-04-11T09:56:12.54Z</time></trkpt><trkpt lat="43.6373979" lon="12.802742"><ele>270.2</ele><time>2026-04-11T09:56:14.54Z</time></trkpt><trkpt lat="43.6373734" lon="12.8025935"><ele>270.4</ele><time>2026-04-11T09:56:16.54Z</time></trkpt><trkpt lat="43.6373557" lon="12.8024485"><ele>270.6</ele><time>2026-04-11T09:56:18.539Z</time></trkpt><trkpt lat="43.6373442" lon="12.8022756"><ele>270.8</ele><time>2026-04-11T09:56:20.54Z</time></trkpt><trkpt lat="43.6373438" lon="12.8021763"><ele>271.0</ele><time>2026-04-11T09:56:21.54Z</time></trkpt><trkpt lat="43.6373695" lon="12.802096"><ele>271.0</ele><time>2026-04-11T09:56:22.539Z</time></trkpt><trkpt lat="43.6374186" lon="12.8020205"><ele>271.0</ele><time>2026-04-11T09:56:23.539Z</time></trkpt><trkpt lat="43.6374689" lon="12.8019324"><ele>271.0</ele><time>2026-04-11T09:56:24.538Z</time></trkpt><trkpt lat="43.6375027" lon="12.8018456"><ele>271.0</ele><time>2026-04-11T09:56:25.54Z</time></trkpt><trkpt lat="43.6375075" lon="12.8017459"><ele>271.0</ele><time>2026-04-11T09:56:26.539Z</time></trkpt><trkpt lat="43.6374824" lon="12.8016411"><ele>271.0</ele><time>2026-04-11T09:56:27.541Z</time></trkpt><trkpt lat="43.6374368" lon="12.8015204"><ele>272.6</ele><time>2026-04-11T09:56:28.541Z</time></trkpt><trkpt lat="43.6373834" lon="12.8013981"><ele>274.20000000000005</ele><time>2026-04-11T09:56:29.539Z</time></trkpt><trkpt lat="43.6373269" lon="12.8012652"><ele>275.79999999999995</ele><time>2026-04-11T09:56:30.539Z</time></trkpt><trkpt lat="43.637272" lon="12.8011398"><ele>277.4</ele><time>2026-04-11T09:56:31.539Z</time></trkpt><trkpt lat="43.6372201" lon="12.8010246"><ele>279.0</ele><time>2026-04-11T09:56:32.539Z</time></trkpt><trkpt lat="43.6371897" lon="12.8008973"><ele>281.4</ele><time>2026-04-11T09:56:33.54Z</time></trkpt><trkpt lat="43.6371767" lon="12.8007632"><ele>283.79999999999995</ele><time>2026-04-11T09:56:34.539Z</time></trkpt><trkpt lat="43.6371819" lon="12.8006199"><ele>286.20000000000005</ele><time>2026-04-11T09:56:35.539Z</time></trkpt><trkpt lat="43.6372206" lon="12.8004693"><ele>288.6</ele><time>2026-04-11T09:56:36.539Z</time></trkpt><trkpt lat="43.6372706" lon="12.8003299"><ele>291.0</ele><time>2026-04-11T09:56:37.54Z</time></trkpt><trkpt lat="43.637325" lon="12.8001861"><ele>293.5</ele><time>2026-04-11T09:56:38.539Z</time></trkpt><trkpt lat="43.6373758" lon="12.8000436"><ele>296.0</ele><time>2026-04-11T09:56:39.54Z</time></trkpt><trkpt lat="43.6374171" lon="12.7998959"><ele>298.5</ele><time>2026-04-11T09:56:40.54Z</time></trkpt><trkpt lat="43.6374573" lon="12.7997453"><ele>301.0</ele><time>2026-04-11T09:56:41.54Z</time></trkpt><trkpt lat="43.6374884" lon="12.7995976"><ele>301.0</ele><time>2026-04-11T09:56:42.539Z</time></trkpt><trkpt lat="43.6375" lon="12.7994553"><ele>301.0</ele><time>2026-04-11T09:56:43.539Z</time></trkpt><trkpt lat="43.6374988" lon="12.7993226"><ele>301.0</ele><time>2026-04-11T09:56:44.539Z</time></trkpt><trkpt lat="43.6375037" lon="12.7992187"><ele>301.0</ele><time>2026-04-11T09:56:45.539Z</time></trkpt><trkpt lat="43.6375232" lon="12.7990768"><ele>301.0</ele><time>2026-04-11T09:56:47.54Z</time></trkpt><trkpt lat="43.6375143" lon="12.7989821"><ele>301.0</ele><time>2026-04-11T09:56:49.54Z</time></trkpt><trkpt lat="43.637474" lon="12.7988998"><ele>302.75</ele><time>2026-04-11T09:56:51.54Z</time></trkpt><trkpt lat="43.6373938" lon="12.7987998"><ele>304.5</ele><time>2026-04-11T09:56:53.541Z</time></trkpt><trkpt lat="43.6372882" lon="12.7987073"><ele>306.25</ele><time>2026-04-11T09:56:55.539Z</time></trkpt><trkpt lat="43.6371798" lon="12.798642"><ele>308.0</ele><time>2026-04-11T09:56:57.539Z</time></trkpt><trkpt lat="43.6370598" lon="12.7986043"><ele>308.0</ele><time>2026-04-11T09:56:59.54Z</time></trkpt><trkpt lat="43.6369952" lon="12.7986104"><ele>308.0</ele><time>2026-04-11T09:57:00.539Z</time></trkpt><trkpt lat="43.6369186" lon="12.7986224"><ele>308.0</ele><time>2026-04-11T09:57:01.54Z</time></trkpt><trkpt lat="43.636826" lon="12.798634"><ele>308.0</ele><time>2026-04-11T09:57:02.54Z</time></trkpt><trkpt lat="43.6367174" lon="12.798634"><ele>308.0</ele><time>2026-04-11T09:57:03.54Z</time></trkpt><trkpt lat="43.6365943" lon="12.7986333"><ele>307.25</ele><time>2026-04-11T09:57:04.54Z</time></trkpt><trkpt lat="43.6364608" lon="12.7986176"><ele>306.5</ele><time>2026-04-11T09:57:05.54Z</time></trkpt><trkpt lat="43.6363252" lon="12.7985989"><ele>305.75</ele><time>2026-04-11T09:57:06.539Z</time></trkpt><trkpt lat="43.6361951" lon="12.7985836"><ele>305.0</ele><time>2026-04-11T09:57:07.539Z</time></trkpt><trkpt lat="43.6360745" lon="12.7985783"><ele>303.75</ele><time>2026-04-11T09:57:08.54Z</time></trkpt><trkpt lat="43.6359529" lon="12.798568"><ele>302.5</ele><time>2026-04-11T09:57:09.539Z</time></trkpt><trkpt lat="43.6358284" lon="12.7985504"><ele>301.25</ele><time>2026-04-11T09:57:10.54Z</time></trkpt><trkpt lat="43.6357049" lon="12.7985325"><ele>300.0</ele><time>2026-04-11T09:57:11.54Z</time></trkpt><trkpt lat="43.6355734" lon="12.7985097"><ele>304.25</ele><time>2026-04-11T09:57:12.539Z</time></trkpt><trkpt lat="43.6354387" lon="12.7984834"><ele>308.5</ele><time>2026-04-11T09:57:13.54Z</time></trkpt><trkpt lat="43.6353006" lon="12.7984563"><ele>312.75</ele><time>2026-04-11T09:57:14.54Z</time></trkpt><trkpt lat="43.635159" lon="12.7984526"><ele>317.0</ele><time>2026-04-11T09:57:15.539Z</time></trkpt><trkpt lat="43.6350184" lon="12.7984669"><ele>310.33333333333337</ele><time>2026-04-11T09:57:16.54Z</time></trkpt><trkpt lat="43.6348691" lon="12.7985175"><ele>303.6666666666667</ele><time>2026-04-11T09:57:17.54Z</time></trkpt><trkpt lat="43.6347167" lon="12.798558"><ele>297.0</ele><time>2026-04-11T09:57:18.539Z</time></trkpt><trkpt lat="43.6345621" lon="12.7985957"><ele>298.25</ele><time>2026-04-11T09:57:19.54Z</time></trkpt><trkpt lat="43.6344219" lon="12.7986564"><ele>299.5</ele><time>2026-04-11T09:57:20.54Z</time></trkpt><trkpt lat="43.6342909" lon="12.7987147"><ele>300.75</ele><time>2026-04-11T09:57:21.54Z</time></trkpt><trkpt lat="43.6341638" lon="12.7987645"><ele>302.0</ele><time>2026-04-11T09:57:22.541Z</time></trkpt><trkpt lat="43.6340443" lon="12.7987973"><ele>302.0</ele><time>2026-04-11T09:57:23.54Z</time></trkpt><trkpt lat="43.6339159" lon="12.7987999"><ele>302.0</ele><time>2026-04-11T09:57:24.538Z</time></trkpt><trkpt lat="43.6337825" lon="12.7987756"><ele>302.0</ele><time>2026-04-11T09:57:25.54Z</time></trkpt><trkpt lat="43.6336473" lon="12.798734"><ele>302.0</ele><time>2026-04-11T09:57:26.54Z</time></trkpt><trkpt lat="43.6335205" lon="12.7986684"><ele>302.25</ele><time>2026-04-11T09:57:27.541Z</time></trkpt><trkpt lat="43.6333887" lon="12.7986141"><ele>302.5</ele><time>2026-04-11T09:57:28.539Z</time></trkpt><trkpt lat="43.6332659" lon="12.7985638"><ele>302.75</ele><time>2026-04-11T09:57:29.539Z</time></trkpt><trkpt lat="43.633163" lon="12.7985246"><ele>303.0</ele><time>2026-04-11T09:57:30.54Z</time></trkpt><trkpt lat="43.6330785" lon="12.7984769"><ele>308.8</ele><time>2026-04-11T09:57:31.538Z</time></trkpt><trkpt lat="43.6330195" lon="12.7983949"><ele>314.6</ele><time>2026-04-11T09:57:32.54Z</time></trkpt><trkpt lat="43.6329876" lon="12.7982889"><ele>320.40000000000003</ele><time>2026-04-11T09:57:33.539Z</time></trkpt><trkpt lat="43.6329768" lon="12.7981504"><ele>326.20000000000005</ele><time>2026-04-11T09:57:34.539Z</time></trkpt><trkpt lat="43.6329727" lon="12.7979907"><ele>332.0</ele><time>2026-04-11T09:57:35.54Z</time></trkpt><trkpt lat="43.6329767" lon="12.797813"><ele>337.75</ele><time>2026-04-11T09:57:36.54Z</time></trkpt><trkpt lat="43.632975" lon="12.797649"><ele>343.5</ele><time>2026-04-11T09:57:37.541Z</time></trkpt><trkpt lat="43.6329575" lon="12.7974998"><ele>349.25</ele><time>2026-04-11T09:57:38.54Z</time></trkpt><trkpt lat="43.6329186" lon="12.7973565"><ele>355.0</ele><time>2026-04-11T09:57:39.54Z</time></trkpt><trkpt lat="43.632857" lon="12.7972147"><ele>350.0</ele><time>2026-04-11T09:57:40.541Z</time></trkpt><trkpt lat="43.6327663" lon="12.7970626"><ele>345.0</ele><time>2026-04-11T09:57:41.54Z</time></trkpt><trkpt lat="43.6326813" lon="12.796905"><ele>340.0</ele><time>2026-04-11T09:57:42.54Z</time></trkpt><trkpt lat="43.6326107" lon="12.7967389"><ele>335.0</ele><time>2026-04-11T09:57:43.54Z</time></trkpt><trkpt lat="43.632552" lon="12.7965649"><ele>335.0</ele><time>2026-04-11T09:57:44.539Z</time></trkpt><trkpt lat="43.6325066" lon="12.7964137"><ele>335.0</ele><time>2026-04-11T09:57:45.539Z</time></trkpt><trkpt lat="43.6324724" lon="12.7962867"><ele>335.0</ele><time>2026-04-11T09:57:46.539Z</time></trkpt><trkpt lat="43.6324506" lon="12.7961796"><ele>335.0</ele><time>2026-04-11T09:57:47.539Z</time></trkpt><trkpt lat="43.6324345" lon="12.7960725"><ele>335.0</ele><time>2026-04-11T09:57:48.54Z</time></trkpt><trkpt lat="43.6324355" lon="12.7959738"><ele>335.0</ele><time>2026-04-11T09:57:49.54Z</time></trkpt><trkpt lat="43.6324518" lon="12.7958585"><ele>335.6</ele><time>2026-04-11T09:57:50.538Z</time></trkpt><trkpt lat="43.6324663" lon="12.7957216"><ele>336.2</ele><time>2026-04-11T09:57:51.54Z</time></trkpt><trkpt lat="43.6324643" lon="12.7955697"><ele>336.79999999999995</ele><time>2026-04-11T09:57:52.539Z</time></trkpt><trkpt lat="43.6324496" lon="12.7954168"><ele>337.4</ele><time>2026-04-11T09:57:53.539Z</time></trkpt><trkpt lat="43.6324165" lon="12.7952775"><ele>338.0</ele><time>2026-04-11T09:57:54.539Z</time></trkpt><trkpt lat="43.6323771" lon="12.795138"><ele>339.59999999999997</ele><time>2026-04-11T09:57:55.541Z</time></trkpt><trkpt lat="43.6323331" lon="12.7950122"><ele>341.2</ele><time>2026-04-11T09:57:56.54Z</time></trkpt><trkpt lat="43.6322821" lon="12.7948969"><ele>342.8</ele><time>2026-04-11T09:57:57.54Z</time></trkpt><trkpt lat="43.632225" lon="12.7947932"><ele>344.4</ele><time>2026-04-11T09:57:58.54Z</time></trkpt><trkpt lat="43.6321699" lon="12.7946939"><ele>346.0</ele><time>2026-04-11T09:57:59.54Z</time></trkpt><trkpt lat="43.6321151" lon="12.7945973"><ele>346.0</ele><time>2026-04-11T09:58:00.54Z</time></trkpt><trkpt lat="43.632056" lon="12.7945151"><ele>346.0</ele><time>2026-04-11T09:58:01.54Z</time></trkpt><trkpt lat="43.6319858" lon="12.7944327"><ele>346.0</ele><time>2026-04-11T09:58:02.54Z</time></trkpt><trkpt lat="43.6319121" lon="12.7943458"><ele>346.0</ele><time>2026-04-11T09:58:03.539Z</time></trkpt><trkpt lat="43.6318486" lon="12.7942491"><ele>346.0</ele><time>2026-04-11T09:58:04.539Z</time></trkpt><trkpt lat="43.6317932" lon="12.7941478"><ele>343.6</ele><time>2026-04-11T09:58:05.54Z</time></trkpt><trkpt lat="43.6317415" lon="12.7940436"><ele>341.20000000000005</ele><time>2026-04-11T09:58:06.539Z</time></trkpt><trkpt lat="43.6316818" lon="12.793933"><ele>338.79999999999995</ele><time>2026-04-11T09:58:07.54Z</time></trkpt><trkpt lat="43.6316249" lon="12.7938197"><ele>336.4</ele><time>2026-04-11T09:58:08.538Z</time></trkpt><trkpt lat="43.6315661" lon="12.7937077"><ele>334.0</ele><time>2026-04-11T09:58:09.54Z</time></trkpt><trkpt lat="43.631505" lon="12.7935895"><ele>334.4</ele><time>2026-04-11T09:58:10.539Z</time></trkpt><trkpt lat="43.631442" lon="12.7934692"><ele>334.79999999999995</ele><time>2026-04-11T09:58:11.539Z</time></trkpt><trkpt lat="43.6313847" lon="12.7933511"><ele>335.20000000000005</ele><time>2026-04-11T09:58:12.539Z</time></trkpt><trkpt lat="43.6313243" lon="12.7932334"><ele>335.6</ele><time>2026-04-11T09:58:13.541Z</time></trkpt><trkpt lat="43.6312605" lon="12.7931162"><ele>336.0</ele><time>2026-04-11T09:58:14.541Z</time></trkpt><trkpt lat="43.6312011" lon="12.7929939"><ele>336.0</ele><time>2026-04-11T09:58:15.539Z</time></trkpt><trkpt lat="43.6311488" lon="12.7928736"><ele>336.0</ele><time>2026-04-11T09:58:16.539Z</time></trkpt><trkpt lat="43.6311044" lon="12.7927535"><ele>336.0</ele><time>2026-04-11T09:58:17.541Z</time></trkpt><trkpt lat="43.6310581" lon="12.7926393"><ele>336.0</ele><time>2026-04-11T09:58:18.539Z</time></trkpt><trkpt lat="43.6310191" lon="12.7925357"><ele>336.0</ele><time>2026-04-11T09:58:19.538Z</time></trkpt><trkpt lat="43.6309857" lon="12.7924531"><ele>336.0</ele><time>2026-04-11T09:58:20.539Z</time></trkpt><trkpt lat="43.6308896" lon="12.7923237"><ele>337.1666666666667</ele><time>2026-04-11T09:58:22.541Z</time></trkpt><trkpt lat="43.6308265" lon="12.7922526"><ele>338.3333333333333</ele><time>2026-04-11T09:58:23.54Z</time></trkpt><trkpt lat="43.6307652" lon="12.7921759"><ele>339.5</ele><time>2026-04-11T09:58:24.54Z</time></trkpt><trkpt lat="43.6306995" lon="12.7920739"><ele>340.66666666666663</ele><time>2026-04-11T09:58:25.541Z</time></trkpt><trkpt lat="43.63064" lon="12.791968"><ele>341.8333333333333</ele><time>2026-04-11T09:58:26.54Z</time></trkpt><trkpt lat="43.6305873" lon="12.7918698"><ele>343.0</ele><time>2026-04-11T09:58:27.539Z</time></trkpt><trkpt lat="43.6305359" lon="12.7917776"><ele>344.2857142857143</ele><time>2026-04-11T09:58:28.539Z</time></trkpt><trkpt lat="43.6304903" lon="12.7916975"><ele>345.57142857142856</ele><time>2026-04-11T09:58:29.538Z</time></trkpt><trkpt lat="43.630444" lon="12.7916255"><ele>346.8571428571429</ele><time>2026-04-11T09:58:30.539Z</time></trkpt><trkpt lat="43.6303916" lon="12.7915674"><ele>348.1428571428571</ele><time>2026-04-11T09:58:31.539Z</time></trkpt><trkpt lat="43.6303349" lon="12.7915128"><ele>349.42857142857144</ele><time>2026-04-11T09:58:32.54Z</time></trkpt><trkpt lat="43.6302664" lon="12.79145"><ele>350.7142857142857</ele><time>2026-04-11T09:58:33.54Z</time></trkpt><trkpt lat="43.6301993" lon="12.7913937"><ele>352.0</ele><time>2026-04-11T09:58:34.54Z</time></trkpt><trkpt lat="43.6301208" lon="12.791328"><ele>352.8</ele><time>2026-04-11T09:58:35.54Z</time></trkpt><trkpt lat="43.6300379" lon="12.7912779"><ele>353.6</ele><time>2026-04-11T09:58:36.54Z</time></trkpt><trkpt lat="43.6299479" lon="12.7912296"><ele>354.40000000000003</ele><time>2026-04-11T09:58:37.539Z</time></trkpt><trkpt lat="43.6298556" lon="12.7911956"><ele>355.20000000000005</ele><time>2026-04-11T09:58:38.539Z</time></trkpt><trkpt lat="43.6297597" lon="12.7911469"><ele>356.0</ele><time>2026-04-11T09:58:39.539Z</time></trkpt><trkpt lat="43.6296592" lon="12.7910899"><ele>356.0</ele><time>2026-04-11T09:58:40.54Z</time></trkpt><trkpt lat="43.6295596" lon="12.7910381"><ele>356.0</ele><time>2026-04-11T09:58:41.54Z</time></trkpt><trkpt lat="43.6294635" lon="12.7909782"><ele>356.0</ele><time>2026-04-11T09:58:42.538Z</time></trkpt><trkpt lat="43.6293672" lon="12.7909033"><ele>356.0</ele><time>2026-04-11T09:58:43.538Z</time></trkpt><trkpt lat="43.6292744" lon="12.7908231"><ele>356.0</ele><time>2026-04-11T09:58:44.54Z</time></trkpt><trkpt lat="43.6291877" lon="12.7907304"><ele>358.4</ele><time>2026-04-11T09:58:45.539Z</time></trkpt><trkpt lat="43.6290972" lon="12.7906567"><ele>360.8</ele><time>2026-04-11T09:58:46.539Z</time></trkpt><trkpt lat="43.6290093" lon="12.7905732"><ele>363.2</ele><time>2026-04-11T09:58:47.539Z</time></trkpt><trkpt lat="43.6289391" lon="12.7904787"><ele>365.59999999999997</ele><time>2026-04-11T09:58:48.539Z</time></trkpt><trkpt lat="43.6288703" lon="12.7903738"><ele>368.0</ele><time>2026-04-11T09:58:49.539Z</time></trkpt><trkpt lat="43.6288021" lon="12.7902688"><ele>369.0</ele><time>2026-04-11T09:58:50.539Z</time></trkpt><trkpt lat="43.6287304" lon="12.7901719"><ele>370.0</ele><time>2026-04-11T09:58:51.54Z</time></trkpt><trkpt lat="43.6286539" lon="12.7900852"><ele>371.0</ele><time>2026-04-11T09:58:52.539Z</time></trkpt><trkpt lat="43.6285802" lon="12.7900189"><ele>372.0</ele><time>2026-04-11T09:58:53.539Z</time></trkpt><trkpt lat="43.6284925" lon="12.7899654"><ele>373.0</ele><time>2026-04-11T09:58:54.54Z</time></trkpt><trkpt lat="43.6284061" lon="12.7899082"><ele>373.0</ele><time>2026-04-11T09:58:55.539Z</time></trkpt><trkpt lat="43.6283324" lon="12.7898458"><ele>373.0</ele><time>2026-04-11T09:58:56.539Z</time></trkpt><trkpt lat="43.628272" lon="12.7897801"><ele>373.0</ele><time>2026-04-11T09:58:57.539Z</time></trkpt><trkpt lat="43.6282215" lon="12.7897105"><ele>373.0</ele><time>2026-04-11T09:58:58.539Z</time></trkpt><trkpt lat="43.6281759" lon="12.7896163"><ele>373.0</ele><time>2026-04-11T09:58:59.539Z</time></trkpt><trkpt lat="43.6281398" lon="12.7895152"><ele>373.0</ele><time>2026-04-11T09:59:00.541Z</time></trkpt><trkpt lat="43.6280889" lon="12.7893911"><ele>376.4</ele><time>2026-04-11T09:59:01.539Z</time></trkpt><trkpt lat="43.6280308" lon="12.7892803"><ele>379.79999999999995</ele><time>2026-04-11T09:59:02.539Z</time></trkpt><trkpt lat="43.6279644" lon="12.7891689"><ele>383.2</ele><time>2026-04-11T09:59:03.54Z</time></trkpt><trkpt lat="43.6278974" lon="12.7890743"><ele>386.6</ele><time>2026-04-11T09:59:04.54Z</time></trkpt><trkpt lat="43.6278346" lon="12.7889865"><ele>390.0</ele><time>2026-04-11T09:59:05.539Z</time></trkpt><trkpt lat="43.6277562" lon="12.7889205"><ele>390.0</ele><time>2026-04-11T09:59:06.538Z</time></trkpt><trkpt lat="43.6276662" lon="12.7888588"><ele>390.0</ele><time>2026-04-11T09:59:07.539Z</time></trkpt><trkpt lat="43.6275732" lon="12.7887933"><ele>390.0</ele><time>2026-04-11T09:59:08.539Z</time></trkpt><trkpt lat="43.6274774" lon="12.7887212"><ele>390.0</ele><time>2026-04-11T09:59:09.539Z</time></trkpt><trkpt lat="43.6273944" lon="12.7886248"><ele>390.0</ele><time>2026-04-11T09:59:10.54Z</time></trkpt><trkpt lat="43.627317" lon="12.7885324"><ele>390.2</ele><time>2026-04-11T09:59:11.539Z</time></trkpt><trkpt lat="43.6272524" lon="12.7884381"><ele>390.4</ele><time>2026-04-11T09:59:12.539Z</time></trkpt><trkpt lat="43.6271818" lon="12.788344"><ele>390.6</ele><time>2026-04-11T09:59:13.54Z</time></trkpt><trkpt lat="43.6271074" lon="12.7882625"><ele>390.8</ele><time>2026-04-11T09:59:14.539Z</time></trkpt><trkpt lat="43.6270324" lon="12.7881776"><ele>391.0</ele><time>2026-04-11T09:59:15.54Z</time></trkpt><trkpt lat="43.626959" lon="12.788086"><ele>394.0</ele><time>2026-04-11T09:59:16.54Z</time></trkpt><trkpt lat="43.6268862" lon="12.787997"><ele>397.0</ele><time>2026-04-11T09:59:17.539Z</time></trkpt><trkpt lat="43.6268259" lon="12.7878942"><ele>400.0</ele><time>2026-04-11T09:59:18.54Z</time></trkpt><trkpt lat="43.6267581" lon="12.7877902"><ele>403.0</ele><time>2026-04-11T09:59:19.54Z</time></trkpt><trkpt lat="43.6266875" lon="12.7876677"><ele>406.0</ele><time>2026-04-11T09:59:20.539Z</time></trkpt><trkpt lat="43.6266231" lon="12.787532"><ele>406.0</ele><time>2026-04-11T09:59:21.54Z</time></trkpt><trkpt lat="43.626552" lon="12.787412"><ele>406.0</ele><time>2026-04-11T09:59:22.539Z</time></trkpt><trkpt lat="43.6264795" lon="12.7873265"><ele>406.0</ele><time>2026-04-11T09:59:23.54Z</time></trkpt><trkpt lat="43.6264075" lon="12.7872493"><ele>406.0</ele><time>2026-04-11T09:59:24.54Z</time></trkpt><trkpt lat="43.6263337" lon="12.7871849"><ele>406.0</ele><time>2026-04-11T09:59:25.54Z</time></trkpt><trkpt lat="43.6262762" lon="12.7871128"><ele>406.00000000000006</ele><time>2026-04-11T09:59:26.54Z</time></trkpt><trkpt lat="43.6262394" lon="12.7870253"><ele>406.0</ele><time>2026-04-11T09:59:27.539Z</time></trkpt><trkpt lat="43.6262108" lon="12.7869175"><ele>406.0</ele><time>2026-04-11T09:59:28.54Z</time></trkpt><trkpt lat="43.6261902" lon="12.7867908"><ele>406.0</ele><time>2026-04-11T09:59:29.541Z</time></trkpt><trkpt lat="43.6261681" lon="12.7866572"><ele>406.00000000000006</ele><time>2026-04-11T09:59:30.539Z</time></trkpt><trkpt lat="43.6261368" lon="12.7865395"><ele>406.0</ele><time>2026-04-11T09:59:31.539Z</time></trkpt><trkpt lat="43.6260963" lon="12.7864259"><ele>409.1666666666667</ele><time>2026-04-11T09:59:32.539Z</time></trkpt><trkpt lat="43.6260612" lon="12.7863237"><ele>412.33333333333337</ele><time>2026-04-11T09:59:33.54Z</time></trkpt><trkpt lat="43.6260414" lon="12.7862174"><ele>415.5</ele><time>2026-04-11T09:59:34.54Z</time></trkpt><trkpt lat="43.6260295" lon="12.7861035"><ele>418.66666666666663</ele><time>2026-04-11T09:59:35.539Z</time></trkpt><trkpt lat="43.6260348" lon="12.7859869"><ele>421.8333333333333</ele><time>2026-04-11T09:59:36.541Z</time></trkpt><trkpt lat="43.6260525" lon="12.7858832"><ele>425.0</ele><time>2026-04-11T09:59:37.539Z</time></trkpt><trkpt lat="43.6261221" lon="12.7858088"><ele>429.3333333333333</ele><time>2026-04-11T09:59:38.54Z</time></trkpt><trkpt lat="43.6262" lon="12.7857274"><ele>433.66666666666663</ele><time>2026-04-11T09:59:39.54Z</time></trkpt><trkpt lat="43.626255" lon="12.7856461"><ele>438.0</ele><time>2026-04-11T09:59:40.54Z</time></trkpt><trkpt lat="43.6263003" lon="12.7855757"><ele>442.33333333333337</ele><time>2026-04-11T09:59:41.54Z</time></trkpt><trkpt lat="43.626312" lon="12.7854617"><ele>446.6666666666667</ele><time>2026-04-11T09:59:43.54Z</time></trkpt><trkpt lat="43.6262449" lon="12.7854122"><ele>451.0</ele><time>2026-04-11T09:59:45.539Z</time></trkpt><trkpt lat="43.6261496" lon="12.7854872"><ele>450.00000000000006</ele><time>2026-04-11T09:59:47.538Z</time></trkpt><trkpt lat="43.6261008" lon="12.7855624"><ele>449.0</ele><time>2026-04-11T09:59:48.54Z</time></trkpt><trkpt lat="43.62604" lon="12.7856311"><ele>448.0</ele><time>2026-04-11T09:59:49.539Z</time></trkpt><trkpt lat="43.6259673" lon="12.7857164"><ele>447.0</ele><time>2026-04-11T09:59:50.54Z</time></trkpt><trkpt lat="43.6258985" lon="12.7858122"><ele>446.00000000000006</ele><time>2026-04-11T09:59:51.54Z</time></trkpt><trkpt lat="43.6258332" lon="12.78591"><ele>445.0</ele><time>2026-04-11T09:59:52.54Z</time></trkpt><trkpt lat="43.6257774" lon="12.786013"><ele>441.0</ele><time>2026-04-11T09:59:53.54Z</time></trkpt><trkpt lat="43.625762" lon="12.7861487"><ele>437.0</ele><time>2026-04-11T09:59:54.54Z</time></trkpt><trkpt lat="43.6257455" lon="12.7862528"><ele>433.0</ele><time>2026-04-11T09:59:55.538Z</time></trkpt><trkpt lat="43.6257044" lon="12.7863833"><ele>429.0</ele><time>2026-04-11T09:59:57.54Z</time></trkpt><trkpt lat="43.6256145" lon="12.7864517"><ele>425.0</ele><time>2026-04-11T09:59:59.539Z</time></trkpt><trkpt lat="43.6254851" lon="12.7864453"><ele>424.99999999999994</ele><time>2026-04-11T10:00:01.54Z</time></trkpt><trkpt lat="43.6254085" lon="12.7864265"><ele>425.0</ele><time>2026-04-11T10:00:02.54Z</time></trkpt><trkpt lat="43.62533" lon="12.7864054"><ele>425.0</ele><time>2026-04-11T10:00:03.54Z</time></trkpt><trkpt lat="43.625242" lon="12.7864056"><ele>425.0</ele><time>2026-04-11T10:00:04.539Z</time></trkpt><trkpt lat="43.62515" lon="12.7863997"><ele>424.99999999999994</ele><time>2026-04-11T10:00:05.54Z</time></trkpt><trkpt lat="43.6250644" lon="12.7863597"><ele>425.0</ele><time>2026-04-11T10:00:06.539Z</time></trkpt><trkpt lat="43.625005" lon="12.7863292"><ele>429.8</ele><time>2026-04-11T10:00:07.539Z</time></trkpt><trkpt lat="43.6249334" lon="12.7862818"><ele>434.6</ele><time>2026-04-11T10:00:08.54Z</time></trkpt><trkpt lat="43.6248676" lon="12.7862682"><ele>439.4</ele><time>2026-04-11T10:00:09.539Z</time></trkpt><trkpt lat="43.6247894" lon="12.78633"><ele>444.2</ele><time>2026-04-11T10:00:10.54Z</time></trkpt><trkpt lat="43.6246694" lon="12.7864656"><ele>449.0</ele><time>2026-04-11T10:00:12.54Z</time></trkpt><trkpt lat="43.6245948" lon="12.7865355"><ele>449.0</ele><time>2026-04-11T10:00:13.539Z</time></trkpt><trkpt lat="43.6245237" lon="12.7865966"><ele>449.0</ele><time>2026-04-11T10:00:14.541Z</time></trkpt><trkpt lat="43.6244523" lon="12.78666"><ele>449.0</ele><time>2026-04-11T10:00:16.539Z</time></trkpt><trkpt lat="43.6243533" lon="12.7867229"><ele>449.0</ele><time>2026-04-11T10:00:19.539Z</time></trkpt><trkpt lat="43.6242853" lon="12.7867356"><ele>449.0</ele><time>2026-04-11T10:00:20.54Z</time></trkpt><trkpt lat="43.6241683" lon="12.7867458"><ele>452.16666666666663</ele><time>2026-04-11T10:00:22.54Z</time></trkpt><trkpt lat="43.6241067" lon="12.7867161"><ele>455.3333333333333</ele><time>2026-04-11T10:00:23.539Z</time></trkpt><trkpt lat="43.6240428" lon="12.7866616"><ele>458.5</ele><time>2026-04-11T10:00:24.54Z</time></trkpt><trkpt lat="43.6239766" lon="12.7865952"><ele>461.66666666666663</ele><time>2026-04-11T10:00:25.54Z</time></trkpt><trkpt lat="43.6239056" lon="12.7865238"><ele>464.8333333333333</ele><time>2026-04-11T10:00:26.54Z</time></trkpt><trkpt lat="43.6238403" lon="12.7864557"><ele>468.0</ele><time>2026-04-11T10:00:27.539Z</time></trkpt><trkpt lat="43.6237803" lon="12.7864053"><ele>468.0</ele><time>2026-04-11T10:00:28.54Z</time></trkpt><trkpt lat="43.62373" lon="12.7863474"><ele>468.0</ele><time>2026-04-11T10:00:29.539Z</time></trkpt><trkpt lat="43.6236797" lon="12.7862904"><ele>468.0</ele><time>2026-04-11T10:00:30.539Z</time></trkpt><trkpt lat="43.6236062" lon="12.7861586"><ele>468.0</ele><time>2026-04-11T10:00:32.538Z</time></trkpt><trkpt lat="43.6236013" lon="12.786048"><ele>468.0</ele><time>2026-04-11T10:00:34.539Z</time></trkpt><trkpt lat="43.623687" lon="12.7859353"><ele>468.0</ele><time>2026-04-11T10:00:36.54Z</time></trkpt><trkpt lat="43.6237728" lon="12.7859169"><ele>471.0</ele><time>2026-04-11T10:00:37.54Z</time></trkpt><trkpt lat="43.6238618" lon="12.7858964"><ele>474.0</ele><time>2026-04-11T10:00:38.54Z</time></trkpt><trkpt lat="43.6239447" lon="12.7858555"><ele>477.0</ele><time>2026-04-11T10:00:39.538Z</time></trkpt><trkpt lat="43.6240142" lon="12.785807"><ele>480.0</ele><time>2026-04-11T10:00:40.54Z</time></trkpt><trkpt lat="43.6240724" lon="12.7857539"><ele>483.0</ele><time>2026-04-11T10:00:41.54Z</time></trkpt><trkpt lat="43.6241237" lon="12.7856958"><ele>486.0</ele><time>2026-04-11T10:00:42.54Z</time></trkpt><trkpt lat="43.6241708" lon="12.7856154"><ele>486.0</ele><time>2026-04-11T10:00:43.54Z</time></trkpt><trkpt lat="43.6242124" lon="12.7855194"><ele>486.0</ele><time>2026-04-11T10:00:44.54Z</time></trkpt><trkpt lat="43.6242476" lon="12.7854148"><ele>486.0</ele><time>2026-04-11T10:00:45.54Z</time></trkpt><trkpt lat="43.6242904" lon="12.7852986"><ele>486.0</ele><time>2026-04-11T10:00:46.54Z</time></trkpt><trkpt lat="43.6243319" lon="12.7852048"><ele>486.0</ele><time>2026-04-11T10:00:47.538Z</time></trkpt><trkpt lat="43.6243908" lon="12.7851292"><ele>486.0</ele><time>2026-04-11T10:00:48.539Z</time></trkpt><trkpt lat="43.6244567" lon="12.7850647"><ele>488.20000000000005</ele><time>2026-04-11T10:00:49.54Z</time></trkpt><trkpt lat="43.6245393" lon="12.7850313"><ele>490.40000000000003</ele><time>2026-04-11T10:00:50.539Z</time></trkpt><trkpt lat="43.6246255" lon="12.785011"><ele>492.6</ele><time>2026-04-11T10:00:51.539Z</time></trkpt><trkpt lat="43.6247225" lon="12.7849936"><ele>494.8</ele><time>2026-04-11T10:00:52.54Z</time></trkpt><trkpt lat="43.6248087" lon="12.7849646"><ele>497.0</ele><time>2026-04-11T10:00:53.539Z</time></trkpt><trkpt lat="43.6248982" lon="12.7849241"><ele>497.0</ele><time>2026-04-11T10:00:54.539Z</time></trkpt><trkpt lat="43.6249902" lon="12.7848591"><ele>497.00000000000006</ele><time>2026-04-11T10:00:55.54Z</time></trkpt><trkpt lat="43.6250838" lon="12.7847841"><ele>497.00000000000006</ele><time>2026-04-11T10:00:56.539Z</time></trkpt><trkpt lat="43.6251807" lon="12.7847147"><ele>497.0</ele><time>2026-04-11T10:00:57.539Z</time></trkpt><trkpt lat="43.6252809" lon="12.7846668"><ele>497.0</ele><time>2026-04-11T10:00:58.54Z</time></trkpt><trkpt lat="43.6253779" lon="12.7846351"><ele>492.99999999999994</ele><time>2026-04-11T10:00:59.539Z</time></trkpt><trkpt lat="43.625455" lon="12.784608"><ele>489.0</ele><time>2026-04-11T10:01:00.539Z</time></trkpt><trkpt lat="43.6255168" lon="12.7845795"><ele>485.0</ele><time>2026-04-11T10:01:01.539Z</time></trkpt><trkpt lat="43.6255609" lon="12.7844911"><ele>481.0</ele><time>2026-04-11T10:01:03.539Z</time></trkpt><trkpt lat="43.6255204" lon="12.7843956"><ele>476.99999999999994</ele><time>2026-04-11T10:01:05.539Z</time></trkpt><trkpt lat="43.6253932" lon="12.7844406"><ele>473.0</ele><time>2026-04-11T10:01:07.54Z</time></trkpt><trkpt lat="43.6253165" lon="12.7844632"><ele>477.79999999999995</ele><time>2026-04-11T10:01:08.539Z</time></trkpt><trkpt lat="43.6252226" lon="12.7844733"><ele>482.59999999999997</ele><time>2026-04-11T10:01:09.539Z</time></trkpt><trkpt lat="43.6251199" lon="12.7844652"><ele>487.40000000000003</ele><time>2026-04-11T10:01:10.539Z</time></trkpt><trkpt lat="43.6250134" lon="12.7844386"><ele>492.20000000000005</ele><time>2026-04-11T10:01:11.54Z</time></trkpt><trkpt lat="43.6249123" lon="12.7843949"><ele>497.0</ele><time>2026-04-11T10:01:12.54Z</time></trkpt><trkpt lat="43.624822" lon="12.784353"><ele>501.40000000000003</ele><time>2026-04-11T10:01:13.539Z</time></trkpt><trkpt lat="43.6247308" lon="12.7842892"><ele>505.80000000000007</ele><time>2026-04-11T10:01:14.54Z</time></trkpt><trkpt lat="43.6246437" lon="12.7842219"><ele>510.2</ele><time>2026-04-11T10:01:15.54Z</time></trkpt><trkpt lat="43.6245745" lon="12.7841562"><ele>514.6</ele><time>2026-04-11T10:01:16.538Z</time></trkpt><trkpt lat="43.6244932" lon="12.7840966"><ele>519.0</ele><time>2026-04-11T10:01:17.539Z</time></trkpt><trkpt lat="43.6244023" lon="12.7840619"><ele>519.8333333333334</ele><time>2026-04-11T10:01:18.539Z</time></trkpt><trkpt lat="43.6243006" lon="12.7840584"><ele>520.6666666666666</ele><time>2026-04-11T10:01:19.539Z</time></trkpt><trkpt lat="43.6242034" lon="12.7840722"><ele>521.5</ele><time>2026-04-11T10:01:20.539Z</time></trkpt><trkpt lat="43.6241242" lon="12.7840889"><ele>522.3333333333333</ele><time>2026-04-11T10:01:21.54Z</time></trkpt><trkpt lat="43.6240456" lon="12.784092"><ele>523.1666666666666</ele><time>2026-04-11T10:01:22.54Z</time></trkpt><trkpt lat="43.6239627" lon="12.7840855"><ele>524.0</ele><time>2026-04-11T10:01:23.539Z</time></trkpt><trkpt lat="43.6238622" lon="12.7840581"><ele>524.0</ele><time>2026-04-11T10:01:24.54Z</time></trkpt><trkpt lat="43.6237745" lon="12.7840639"><ele>524.0</ele><time>2026-04-11T10:01:25.54Z</time></trkpt><trkpt lat="43.6236687" lon="12.7840655"><ele>524.0</ele><time>2026-04-11T10:01:26.54Z</time></trkpt><trkpt lat="43.6235731" lon="12.7840541"><ele>524.0</ele><time>2026-04-11T10:01:27.54Z</time></trkpt><trkpt lat="43.6234761" lon="12.784047"><ele>524.0</ele><time>2026-04-11T10:01:28.539Z</time></trkpt><trkpt lat="43.6233927" lon="12.7840433"><ele>524.8</ele><time>2026-04-11T10:01:29.539Z</time></trkpt><trkpt lat="43.6232837" lon="12.7840622"><ele>525.5999999999999</ele><time>2026-04-11T10:01:31.539Z</time></trkpt><trkpt lat="43.6232112" lon="12.7839962"><ele>526.4</ele><time>2026-04-11T10:01:33.54Z</time></trkpt><trkpt lat="43.6232352" lon="12.7838928"><ele>527.1999999999999</ele><time>2026-04-11T10:01:35.54Z</time></trkpt><trkpt lat="43.6233639" lon="12.7838668"><ele>528.0</ele><time>2026-04-11T10:01:37.54Z</time></trkpt><trkpt lat="43.6234422" lon="12.7838467"><ele>528.0</ele><time>2026-04-11T10:01:38.539Z</time></trkpt><trkpt lat="43.623522" lon="12.7838249"><ele>528.0</ele><time>2026-04-11T10:01:39.541Z</time></trkpt><trkpt lat="43.6235984" lon="12.7837433"><ele>528.0</ele><time>2026-04-11T10:01:40.539Z</time></trkpt><trkpt lat="43.6236869" lon="12.7836629"><ele>528.0</ele><time>2026-04-11T10:01:41.54Z</time></trkpt><trkpt lat="43.6237754" lon="12.7835679"><ele>528.0</ele><time>2026-04-11T10:01:42.541Z</time></trkpt><trkpt lat="43.6238456" lon="12.7834833"><ele>532.1999999999999</ele><time>2026-04-11T10:01:43.539Z</time></trkpt><trkpt lat="43.6239525" lon="12.7834306"><ele>536.4</ele><time>2026-04-11T10:01:44.54Z</time></trkpt><trkpt lat="43.6240612" lon="12.7834081"><ele>540.5999999999999</ele><time>2026-04-11T10:01:45.54Z</time></trkpt><trkpt lat="43.6241494" lon="12.7833859"><ele>544.8</ele><time>2026-04-11T10:01:46.539Z</time></trkpt><trkpt lat="43.6242263" lon="12.7833617"><ele>549.0</ele><time>2026-04-11T10:01:47.539Z</time></trkpt><trkpt lat="43.6243007" lon="12.7833304"><ele>549.0</ele><time>2026-04-11T10:01:48.54Z</time></trkpt><trkpt lat="43.6243644" lon="12.7832637"><ele>549.0</ele><time>2026-04-11T10:01:49.539Z</time></trkpt><trkpt lat="43.6244284" lon="12.7831655"><ele>549.0</ele><time>2026-04-11T10:01:50.54Z</time></trkpt><trkpt lat="43.6245034" lon="12.783079"><ele>549.0</ele><time>2026-04-11T10:01:51.539Z</time></trkpt><trkpt lat="43.6245743" lon="12.7830025"><ele>549.0</ele><time>2026-04-11T10:01:52.54Z</time></trkpt><trkpt lat="43.6246747" lon="12.7829656"><ele>547.8</ele><time>2026-04-11T10:01:53.54Z</time></trkpt><trkpt lat="43.6247742" lon="12.7829396"><ele>546.5999999999999</ele><time>2026-04-11T10:01:54.54Z</time></trkpt><trkpt lat="43.624861" lon="12.7829236"><ele>545.4</ele><time>2026-04-11T10:01:55.539Z</time></trkpt><trkpt lat="43.6249721" lon="12.7829064"><ele>544.1999999999999</ele><time>2026-04-11T10:01:56.539Z</time></trkpt><trkpt lat="43.6250608" lon="12.7828753"><ele>543.0</ele><time>2026-04-11T10:01:57.539Z</time></trkpt><trkpt lat="43.6251295" lon="12.7828415"><ele>543.0</ele><time>2026-04-11T10:01:58.539Z</time></trkpt><trkpt lat="43.6251869" lon="12.7827331"><ele>543.0</ele><time>2026-04-11T10:02:00.54Z</time></trkpt><trkpt lat="43.6251374" lon="12.7826253"><ele>543.0</ele><time>2026-04-11T10:02:02.539Z</time></trkpt><trkpt lat="43.6250729" lon="12.7826225"><ele>543.0</ele><time>2026-04-11T10:02:03.539Z</time></trkpt><trkpt lat="43.6249903" lon="12.7826431"><ele>543.0</ele><time>2026-04-11T10:02:04.54Z</time></trkpt><trkpt lat="43.6248958" lon="12.7826627"><ele>543.0</ele><time>2026-04-11T10:02:05.54Z</time></trkpt><trkpt lat="43.6247928" lon="12.7826579"><ele>547.75</ele><time>2026-04-11T10:02:06.54Z</time></trkpt><trkpt lat="43.6246843" lon="12.782614"><ele>552.5</ele><time>2026-04-11T10:02:07.539Z</time></trkpt><trkpt lat="43.6245654" lon="12.7825751"><ele>557.25</ele><time>2026-04-11T10:02:08.539Z</time></trkpt><trkpt lat="43.6244467" lon="12.7825491"><ele>562.0</ele><time>2026-04-11T10:02:09.54Z</time></trkpt><trkpt lat="43.6243238" lon="12.7825392"><ele>564.25</ele><time>2026-04-11T10:02:10.539Z</time></trkpt><trkpt lat="43.6241956" lon="12.7825352"><ele>566.5</ele><time>2026-04-11T10:02:11.54Z</time></trkpt><trkpt lat="43.6240716" lon="12.7825153"><ele>568.75</ele><time>2026-04-11T10:02:12.539Z</time></trkpt><trkpt lat="43.6239554" lon="12.7824701"><ele>571.0</ele><time>2026-04-11T10:02:13.539Z</time></trkpt><trkpt lat="43.6238297" lon="12.7824148"><ele>571.0</ele><time>2026-04-11T10:02:14.539Z</time></trkpt><trkpt lat="43.6237065" lon="12.7823671"><ele>571.0</ele><time>2026-04-11T10:02:15.539Z</time></trkpt><trkpt lat="43.6235932" lon="12.7823323"><ele>571.0</ele><time>2026-04-11T10:02:16.538Z</time></trkpt><trkpt lat="43.6234766" lon="12.7823342"><ele>571.0</ele><time>2026-04-11T10:02:17.54Z</time></trkpt><trkpt lat="43.6233685" lon="12.7823461"><ele>572.25</ele><time>2026-04-11T10:02:18.539Z</time></trkpt><trkpt lat="43.6232384" lon="12.7823707"><ele>573.5</ele><time>2026-04-11T10:02:19.541Z</time></trkpt><trkpt lat="43.623111" lon="12.7824004"><ele>574.75</ele><time>2026-04-11T10:02:20.538Z</time></trkpt><trkpt lat="43.6229938" lon="12.7824448"><ele>576.0</ele><time>2026-04-11T10:02:21.539Z</time></trkpt><trkpt lat="43.6228822" lon="12.7824847"><ele>577.8</ele><time>2026-04-11T10:02:22.539Z</time></trkpt><trkpt lat="43.6227757" lon="12.7824949"><ele>579.6</ele><time>2026-04-11T10:02:23.539Z</time></trkpt><trkpt lat="43.6226666" lon="12.7824884"><ele>581.4</ele><time>2026-04-11T10:02:24.54Z</time></trkpt><trkpt lat="43.6225535" lon="12.7824649"><ele>583.2</ele><time>2026-04-11T10:02:25.539Z</time></trkpt><trkpt lat="43.6224402" lon="12.7824248"><ele>585.0</ele><time>2026-04-11T10:02:26.54Z</time></trkpt><trkpt lat="43.6223278" lon="12.7823826"><ele>585.0</ele><time>2026-04-11T10:02:27.539Z</time></trkpt><trkpt lat="43.6222041" lon="12.7823368"><ele>585.0</ele><time>2026-04-11T10:02:28.541Z</time></trkpt><trkpt lat="43.6220787" lon="12.7822813"><ele>585.0</ele><time>2026-04-11T10:02:29.54Z</time></trkpt><trkpt lat="43.621949" lon="12.7822082"><ele>585.0</ele><time>2026-04-11T10:02:30.54Z</time></trkpt><trkpt lat="43.6218198" lon="12.7821299"><ele>584.0</ele><time>2026-04-11T10:02:31.54Z</time></trkpt><trkpt lat="43.6217035" lon="12.7820496"><ele>583.0</ele><time>2026-04-11T10:02:32.539Z</time></trkpt><trkpt lat="43.6215896" lon="12.7819585"><ele>582.0</ele><time>2026-04-11T10:02:33.539Z</time></trkpt><trkpt lat="43.6214842" lon="12.781872"><ele>581.0</ele><time>2026-04-11T10:02:34.538Z</time></trkpt><trkpt lat="43.621384" lon="12.7818041"><ele>584.1666666666666</ele><time>2026-04-11T10:02:35.54Z</time></trkpt><trkpt lat="43.6212992" lon="12.7817417"><ele>587.3333333333333</ele><time>2026-04-11T10:02:36.54Z</time></trkpt><trkpt lat="43.6212469" lon="12.7816678"><ele>590.5</ele><time>2026-04-11T10:02:37.54Z</time></trkpt><trkpt lat="43.6211756" lon="12.7816145"><ele>593.6666666666666</ele><time>2026-04-11T10:02:39.54Z</time></trkpt><trkpt lat="43.6211619" lon="12.7814891"><ele>596.8333333333334</ele><time>2026-04-11T10:02:41.539Z</time></trkpt><trkpt lat="43.6212458" lon="12.7814024"><ele>600.0</ele><time>2026-04-11T10:02:43.54Z</time></trkpt><trkpt lat="43.6213217" lon="12.7813953"><ele>600.0</ele><time>2026-04-11T10:02:44.538Z</time></trkpt><trkpt lat="43.6214093" lon="12.7814099"><ele>600.0</ele><time>2026-04-11T10:02:45.54Z</time></trkpt><trkpt lat="43.6215178" lon="12.7814356"><ele>600.0</ele><time>2026-04-11T10:02:46.539Z</time></trkpt><trkpt lat="43.621633" lon="12.7814562"><ele>600.0</ele><time>2026-04-11T10:02:47.539Z</time></trkpt><trkpt lat="43.6217446" lon="12.7814815"><ele>600.0</ele><time>2026-04-11T10:02:48.54Z</time></trkpt><trkpt lat="43.6218556" lon="12.7814991"><ele>600.0</ele><time>2026-04-11T10:02:49.539Z</time></trkpt><trkpt lat="43.6219612" lon="12.7814924"><ele>600.0</ele><time>2026-04-11T10:02:50.539Z</time></trkpt><trkpt lat="43.622067" lon="12.7814667"><ele>600.0</ele><time>2026-04-11T10:02:51.539Z</time></trkpt><trkpt lat="43.6221628" lon="12.7814288"><ele>600.0</ele><time>2026-04-11T10:02:52.539Z</time></trkpt><trkpt lat="43.6222535" lon="12.7813798"><ele>600.0</ele><time>2026-04-11T10:02:53.54Z</time></trkpt><trkpt lat="43.6223257" lon="12.7813238"><ele>600.5</ele><time>2026-04-11T10:02:54.54Z</time></trkpt><trkpt lat="43.6223841" lon="12.7812532"><ele>601.0</ele><time>2026-04-11T10:02:55.539Z</time></trkpt><trkpt lat="43.622434" lon="12.7811738"><ele>601.5</ele><time>2026-04-11T10:02:56.54Z</time></trkpt><trkpt lat="43.6224747" lon="12.7810693"><ele>602.0</ele><time>2026-04-11T10:02:57.539Z</time></trkpt><trkpt lat="43.6225266" lon="12.7809462"><ele>602.5</ele><time>2026-04-11T10:02:58.54Z</time></trkpt><trkpt lat="43.6225703" lon="12.7808295"><ele>603.0</ele><time>2026-04-11T10:02:59.538Z</time></trkpt><trkpt lat="43.622588" lon="12.7807153"><ele>607.0</ele><time>2026-04-11T10:03:00.54Z</time></trkpt><trkpt lat="43.6225838" lon="12.7805993"><ele>611.0</ele><time>2026-04-11T10:03:01.539Z</time></trkpt><trkpt lat="43.6225946" lon="12.7804932"><ele>615.0</ele><time>2026-04-11T10:03:02.539Z</time></trkpt><trkpt lat="43.6226098" lon="12.7803961"><ele>619.0</ele><time>2026-04-11T10:03:03.538Z</time></trkpt><trkpt lat="43.6226258" lon="12.7803041"><ele>623.0</ele><time>2026-04-11T10:03:04.54Z</time></trkpt><trkpt lat="43.6227313" lon="12.7801445"><ele>621.0</ele><time>2026-04-11T10:03:06.54Z</time></trkpt><trkpt lat="43.6228632" lon="12.7801715"><ele>619.0</ele><time>2026-04-11T10:03:07.54Z</time></trkpt><trkpt lat="43.6229783" lon="12.780264"><ele>617.0</ele><time>2026-04-11T10:03:08.539Z</time></trkpt><trkpt lat="43.6230825" lon="12.7802893"><ele>615.0</ele><time>2026-04-11T10:03:09.538Z</time></trkpt><trkpt lat="43.6231834" lon="12.7803155"><ele>615.0</ele><time>2026-04-11T10:03:10.54Z</time></trkpt><trkpt lat="43.6232783" lon="12.7803316"><ele>615.0</ele><time>2026-04-11T10:03:11.541Z</time></trkpt><trkpt lat="43.6233693" lon="12.7803434"><ele>615.0</ele><time>2026-04-11T10:03:12.54Z</time></trkpt><trkpt lat="43.6234663" lon="12.7803183"><ele>615.0</ele><time>2026-04-11T10:03:13.54Z</time></trkpt><trkpt lat="43.6235516" lon="12.7802762"><ele>615.0</ele><time>2026-04-11T10:03:14.54Z</time></trkpt><trkpt lat="43.6236258" lon="12.7802033"><ele>619.0</ele><time>2026-04-11T10:03:15.54Z</time></trkpt><trkpt lat="43.6236992" lon="12.7800896"><ele>623.0</ele><time>2026-04-11T10:03:16.54Z</time></trkpt><trkpt lat="43.6237666" lon="12.7799691"><ele>627.0</ele><time>2026-04-11T10:03:17.539Z</time></trkpt><trkpt lat="43.6238274" lon="12.7798256"><ele>631.0</ele><time>2026-04-11T10:03:18.539Z</time></trkpt><trkpt lat="43.6238887" lon="12.779704"><ele>635.0</ele><time>2026-04-11T10:03:19.539Z</time></trkpt><trkpt lat="43.623951" lon="12.7795675"><ele>635.0</ele><time>2026-04-11T10:03:20.539Z</time></trkpt><trkpt lat="43.6240854" lon="12.7795312"><ele>635.0</ele><time>2026-04-11T10:03:21.54Z</time></trkpt><trkpt lat="43.624182" lon="12.7794519"><ele>635.0</ele><time>2026-04-11T10:03:22.539Z</time></trkpt><trkpt lat="43.6242717" lon="12.7793849"><ele>635.0</ele><time>2026-04-11T10:03:23.539Z</time></trkpt><trkpt lat="43.6243489" lon="12.7793071"><ele>635.0</ele><time>2026-04-11T10:03:24.539Z</time></trkpt><trkpt lat="43.6243977" lon="12.7791951"><ele>637.0</ele><time>2026-04-11T10:03:25.54Z</time></trkpt><trkpt lat="43.6244464" lon="12.7790886"><ele>639.0</ele><time>2026-04-11T10:03:26.54Z</time></trkpt><trkpt lat="43.6244787" lon="12.7789882"><ele>641.0</ele><time>2026-04-11T10:03:27.54Z</time></trkpt><trkpt lat="43.6245359" lon="12.7788925"><ele>643.0</ele><time>2026-04-11T10:03:28.538Z</time></trkpt><trkpt lat="43.6246283" lon="12.7788201"><ele>645.0</ele><time>2026-04-11T10:03:29.54Z</time></trkpt><trkpt lat="43.6247073" lon="12.7787591"><ele>645.0</ele><time>2026-04-11T10:03:30.54Z</time></trkpt><trkpt lat="43.6247955" lon="12.7787972"><ele>645.0</ele><time>2026-04-11T10:03:31.54Z</time></trkpt><trkpt lat="43.6248692" lon="12.7787874"><ele>645.0</ele><time>2026-04-11T10:03:32.54Z</time></trkpt><trkpt lat="43.6249528" lon="12.7787587"><ele>645.0</ele><time>2026-04-11T10:03:33.54Z</time></trkpt><trkpt lat="43.62502" lon="12.778731"><ele>645.0</ele><time>2026-04-11T10:03:34.54Z</time></trkpt><trkpt lat="43.6250886" lon="12.7787047"><ele>645.0</ele><time>2026-04-11T10:03:35.54Z</time></trkpt><trkpt lat="43.6252006" lon="12.778621"><ele>645.0</ele><time>2026-04-11T10:03:37.539Z</time></trkpt><trkpt lat="43.6252515" lon="12.7785692"><ele>645.0</ele><time>2026-04-11T10:03:38.54Z</time></trkpt><trkpt lat="43.6253115" lon="12.7785292"><ele>645.0</ele><time>2026-04-11T10:03:39.538Z</time></trkpt><trkpt lat="43.6253971" lon="12.7783937"><ele>645.0</ele><time>2026-04-11T10:03:41.539Z</time></trkpt><trkpt lat="43.6254331" lon="12.7783088"><ele>645.0</ele><time>2026-04-11T10:03:42.539Z</time></trkpt><trkpt lat="43.625471" lon="12.7782043"><ele>645.0</ele><time>2026-04-11T10:03:43.539Z</time></trkpt><trkpt lat="43.6255007" lon="12.7780813"><ele>645.8333333333334</ele><time>2026-04-11T10:03:44.54Z</time></trkpt><trkpt lat="43.625544" lon="12.7779676"><ele>646.6666666666666</ele><time>2026-04-11T10:03:45.54Z</time></trkpt><trkpt lat="43.6256001" lon="12.7778857"><ele>647.5</ele><time>2026-04-11T10:03:46.541Z</time></trkpt><trkpt lat="43.6256696" lon="12.7778135"><ele>648.3333333333333</ele><time>2026-04-11T10:03:47.54Z</time></trkpt><trkpt lat="43.6257649" lon="12.7778032"><ele>649.1666666666666</ele><time>2026-04-11T10:03:48.539Z</time></trkpt><trkpt lat="43.6258387" lon="12.7777664"><ele>650.0</ele><time>2026-04-11T10:03:49.54Z</time></trkpt><trkpt lat="43.6259202" lon="12.7776543"><ele>651.6666666666666</ele><time>2026-04-11T10:03:51.54Z</time></trkpt><trkpt lat="43.6259582" lon="12.7775841"><ele>653.3333333333333</ele><time>2026-04-11T10:03:53.54Z</time></trkpt><trkpt lat="43.6260151" lon="12.777537"><ele>655.0</ele><time>2026-04-11T10:04:14.539Z</time></trkpt><trkpt lat="43.6260754" lon="12.7774914"><ele>656.6666666666666</ele><time>2026-04-11T10:06:28.539Z</time></trkpt><trkpt lat="43.6261328" lon="12.7774238"><ele>658.3333333333334</ele><time>2026-04-11T10:06:30.539Z</time></trkpt><trkpt lat="43.6262142" lon="12.777344"><ele>660.0</ele><time>2026-04-11T10:06:32.539Z</time></trkpt><trkpt lat="43.6263131" lon="12.7772512"><ele>660.0</ele><time>2026-04-11T10:06:34.54Z</time></trkpt><trkpt lat="43.6263605" lon="12.7771901"><ele>660.0</ele><time>2026-04-11T10:06:35.54Z</time></trkpt><trkpt lat="43.6264597" lon="12.7770872"><ele>660.0</ele><time>2026-04-11T10:06:37.538Z</time></trkpt><trkpt lat="43.6265321" lon="12.7769762"><ele>660.0</ele><time>2026-04-11T10:06:39.539Z</time></trkpt><trkpt lat="43.6265777" lon="12.7768364"><ele>660.0</ele><time>2026-04-11T10:06:41.54Z</time></trkpt><trkpt lat="43.6266018" lon="12.7767529"><ele>663.6</ele><time>2026-04-11T10:06:42.54Z</time></trkpt><trkpt lat="43.6266274" lon="12.7766131"><ele>667.2</ele><time>2026-04-11T10:06:44.54Z</time></trkpt><trkpt lat="43.626599" lon="12.7764602"><ele>670.8</ele><time>2026-04-11T10:06:46.539Z</time></trkpt><trkpt lat="43.6265724" lon="12.7763738"><ele>674.4</ele><time>2026-04-11T10:06:47.54Z</time></trkpt><trkpt lat="43.6265106" lon="12.7762059"><ele>678.0</ele><time>2026-04-11T10:06:49.539Z</time></trkpt><trkpt lat="43.6264767" lon="12.7761186"><ele>680.1666666666666</ele><time>2026-04-11T10:06:50.541Z</time></trkpt><trkpt lat="43.6264644" lon="12.7760142"><ele>682.3333333333334</ele><time>2026-04-11T10:06:51.539Z</time></trkpt><trkpt lat="43.6264462" lon="12.7758952"><ele>684.5</ele><time>2026-04-11T10:06:52.539Z</time></trkpt><trkpt lat="43.626464" lon="12.7757835"><ele>686.6666666666667</ele><time>2026-04-11T10:06:53.539Z</time></trkpt><trkpt lat="43.6264563" lon="12.7756844"><ele>688.8333333333334</ele><time>2026-04-11T10:06:54.54Z</time></trkpt><trkpt lat="43.6264563" lon="12.7755901"><ele>691.0</ele><time>2026-04-11T10:06:55.539Z</time></trkpt><trkpt lat="43.6264517" lon="12.7754835"><ele>691.0</ele><time>2026-04-11T10:06:56.54Z</time></trkpt><trkpt lat="43.6264478" lon="12.7753745"><ele>691.0</ele><time>2026-04-11T10:06:57.539Z</time></trkpt><trkpt lat="43.6265038" lon="12.7752622"><ele>691.0</ele><time>2026-04-11T10:06:59.539Z</time></trkpt><trkpt lat="43.6265635" lon="12.7752207"><ele>691.0</ele><time>2026-04-11T10:07:01.539Z</time></trkpt><trkpt lat="43.6266709" lon="12.7752782"><ele>691.0</ele><time>2026-04-11T10:07:03.539Z</time></trkpt><trkpt lat="43.6267061" lon="12.7753581"><ele>691.0</ele><time>2026-04-11T10:07:04.539Z</time></trkpt><trkpt lat="43.6267797" lon="12.7754762"><ele>691.0</ele><time>2026-04-11T10:07:06.54Z</time></trkpt><trkpt lat="43.6268846" lon="12.7755765"><ele>691.0</ele><time>2026-04-11T10:07:08.539Z</time></trkpt><trkpt lat="43.6269451" lon="12.7756252"><ele>691.0</ele><time>2026-04-11T10:07:09.538Z</time></trkpt><trkpt lat="43.6270039" lon="12.7756919"><ele>691.0</ele><time>2026-04-11T10:07:10.54Z</time></trkpt><trkpt lat="43.6270609" lon="12.775764"><ele>691.0</ele><time>2026-04-11T10:07:11.539Z</time></trkpt><trkpt lat="43.6271144" lon="12.7758355"><ele>691.0</ele><time>2026-04-11T10:07:12.539Z</time></trkpt><trkpt lat="43.6271655" lon="12.7758933"><ele>690.0</ele><time>2026-04-11T10:07:13.539Z</time></trkpt><trkpt lat="43.6272106" lon="12.7759652"><ele>689.0</ele><time>2026-04-11T10:07:15.54Z</time></trkpt><trkpt lat="43.6272596" lon="12.7760345"><ele>688.0</ele><time>2026-04-11T10:07:29.539Z</time></trkpt><trkpt lat="43.6273195" lon="12.776126"><ele>687.0</ele><time>2026-04-11T10:07:31.54Z</time></trkpt><trkpt lat="43.6273983" lon="12.7762187"><ele>686.0</ele><time>2026-04-11T10:07:33.54Z</time></trkpt><trkpt lat="43.6275042" lon="12.7763011"><ele>686.0</ele><time>2026-04-11T10:07:35.54Z</time></trkpt><trkpt lat="43.6275677" lon="12.7763276"><ele>686.0</ele><time>2026-04-11T10:07:36.539Z</time></trkpt><trkpt lat="43.6276503" lon="12.7763407"><ele>686.0</ele><time>2026-04-11T10:07:37.54Z</time></trkpt><trkpt lat="43.627742" lon="12.7763464"><ele>686.0</ele><time>2026-04-11T10:07:38.54Z</time></trkpt><trkpt lat="43.6278312" lon="12.77635"><ele>686.0</ele><time>2026-04-11T10:07:39.54Z</time></trkpt><trkpt lat="43.627918" lon="12.7763476"><ele>686.0</ele><time>2026-04-11T10:07:40.539Z</time></trkpt><trkpt lat="43.628005" lon="12.776339"><ele>689.8</ele><time>2026-04-11T10:07:41.54Z</time></trkpt><trkpt lat="43.6280999" lon="12.7763501"><ele>693.5999999999999</ele><time>2026-04-11T10:07:42.539Z</time></trkpt><trkpt lat="43.6281931" lon="12.776362"><ele>697.4</ele><time>2026-04-11T10:07:43.54Z</time></trkpt><trkpt lat="43.6282791" lon="12.7763815"><ele>701.2</ele><time>2026-04-11T10:07:44.539Z</time></trkpt><trkpt lat="43.6283669" lon="12.7764323"><ele>705.0</ele><time>2026-04-11T10:07:45.54Z</time></trkpt><trkpt lat="43.6284614" lon="12.776504"><ele>705.0</ele><time>2026-04-11T10:07:46.539Z</time></trkpt><trkpt lat="43.6285538" lon="12.7765787"><ele>705.0</ele><time>2026-04-11T10:07:47.539Z</time></trkpt><trkpt lat="43.6286374" lon="12.7766642"><ele>705.0</ele><time>2026-04-11T10:07:48.539Z</time></trkpt><trkpt lat="43.6287215" lon="12.776761"><ele>705.0</ele><time>2026-04-11T10:07:49.539Z</time></trkpt><trkpt lat="43.6287772" lon="12.776851"><ele>705.0</ele><time>2026-04-11T10:07:50.538Z</time></trkpt><trkpt lat="43.6288265" lon="12.7769264"><ele>704.1428571428571</ele><time>2026-04-11T10:07:51.538Z</time></trkpt><trkpt lat="43.62889" lon="12.7769961"><ele>703.2857142857142</ele><time>2026-04-11T10:07:52.54Z</time></trkpt><trkpt lat="43.6289551" lon="12.7770379"><ele>702.4285714285713</ele><time>2026-04-11T10:07:53.54Z</time></trkpt><trkpt lat="43.6290147" lon="12.7770714"><ele>701.5714285714286</ele><time>2026-04-11T10:07:54.54Z</time></trkpt><trkpt lat="43.6290881" lon="12.7770839"><ele>700.7142857142858</ele><time>2026-04-11T10:07:55.54Z</time></trkpt><trkpt lat="43.6291598" lon="12.7770837"><ele>699.8571428571428</ele><time>2026-04-11T10:07:56.539Z</time></trkpt><trkpt lat="43.6292303" lon="12.7770653"><ele>699.0</ele><time>2026-04-11T10:07:57.539Z</time></trkpt><trkpt lat="43.629293" lon="12.7770215"><ele>699.0</ele><time>2026-04-11T10:07:58.539Z</time></trkpt><trkpt lat="43.6293623" lon="12.7769666"><ele>699.0</ele><time>2026-04-11T10:07:59.539Z</time></trkpt><trkpt lat="43.6294404" lon="12.776909"><ele>699.0</ele><time>2026-04-11T10:08:00.539Z</time></trkpt><trkpt lat="43.6295173" lon="12.7768509"><ele>699.0</ele><time>2026-04-11T10:08:01.54Z</time></trkpt><trkpt lat="43.6295918" lon="12.7767933"><ele>699.0</ele><time>2026-04-11T10:08:02.539Z</time></trkpt><trkpt lat="43.6296708" lon="12.7767326"><ele>699.0</ele><time>2026-04-11T10:08:03.539Z</time></trkpt><trkpt lat="43.6297497" lon="12.7766812"><ele>702.1666666666666</ele><time>2026-04-11T10:08:04.54Z</time></trkpt><trkpt lat="43.6298275" lon="12.7766355"><ele>705.3333333333334</ele><time>2026-04-11T10:08:05.539Z</time></trkpt><trkpt lat="43.6298892" lon="12.7766038"><ele>708.5</ele><time>2026-04-11T10:08:06.54Z</time></trkpt><trkpt lat="43.6299675" lon="12.7765567"><ele>711.6666666666667</ele><time>2026-04-11T10:08:08.54Z</time></trkpt><trkpt lat="43.6299484" lon="12.7764403"><ele>714.8333333333334</ele><time>2026-04-11T10:08:11.54Z</time></trkpt><trkpt lat="43.6298344" lon="12.7764216"><ele>718.0</ele><time>2026-04-11T10:08:13.54Z</time></trkpt><trkpt lat="43.6297583" lon="12.7764397"><ele>718.0</ele><time>2026-04-11T10:08:14.539Z</time></trkpt><trkpt lat="43.6296626" lon="12.776456"><ele>718.0</ele><time>2026-04-11T10:08:15.539Z</time></trkpt><trkpt lat="43.6295644" lon="12.776452"><ele>718.0</ele><time>2026-04-11T10:08:16.539Z</time></trkpt><trkpt lat="43.6294494" lon="12.7764361"><ele>718.0</ele><time>2026-04-11T10:08:17.539Z</time></trkpt><trkpt lat="43.6293338" lon="12.7763966"><ele>718.0</ele><time>2026-04-11T10:08:18.54Z</time></trkpt><trkpt lat="43.6292082" lon="12.776347"><ele>718.5</ele><time>2026-04-11T10:08:19.54Z</time></trkpt><trkpt lat="43.6290787" lon="12.7762887"><ele>719.0</ele><time>2026-04-11T10:08:20.54Z</time></trkpt><trkpt lat="43.628957" lon="12.7762157"><ele>719.5</ele><time>2026-04-11T10:08:21.54Z</time></trkpt><trkpt lat="43.6288396" lon="12.7761149"><ele>720.0</ele><time>2026-04-11T10:08:22.539Z</time></trkpt><trkpt lat="43.6287247" lon="12.7760015"><ele>722.0</ele><time>2026-04-11T10:08:23.539Z</time></trkpt><trkpt lat="43.6286289" lon="12.7758661"><ele>724.0</ele><time>2026-04-11T10:08:24.539Z</time></trkpt><trkpt lat="43.6285366" lon="12.77573"><ele>726.0</ele><time>2026-04-11T10:08:25.538Z</time></trkpt><trkpt lat="43.6284544" lon="12.7755824"><ele>728.0</ele><time>2026-04-11T10:08:26.539Z</time></trkpt><trkpt lat="43.6283636" lon="12.775402"><ele>728.0</ele><time>2026-04-11T10:08:27.54Z</time></trkpt><trkpt lat="43.6282772" lon="12.775262"><ele>728.0</ele><time>2026-04-11T10:08:28.54Z</time></trkpt><trkpt lat="43.6281939" lon="12.7751166"><ele>728.0</ele><time>2026-04-11T10:08:29.539Z</time></trkpt><trkpt lat="43.6281127" lon="12.7749848"><ele>728.0</ele><time>2026-04-11T10:08:30.539Z</time></trkpt><trkpt lat="43.6280103" lon="12.7748572"><ele>729.25</ele><time>2026-04-11T10:08:31.54Z</time></trkpt><trkpt lat="43.6279169" lon="12.7747291"><ele>730.5</ele><time>2026-04-11T10:08:32.539Z</time></trkpt><trkpt lat="43.6278243" lon="12.7746018"><ele>731.75</ele><time>2026-04-11T10:08:33.54Z</time></trkpt><trkpt lat="43.6277363" lon="12.7744699"><ele>733.0</ele><time>2026-04-11T10:08:34.54Z</time></trkpt><trkpt lat="43.6276443" lon="12.7743247"><ele>737.75</ele><time>2026-04-11T10:08:35.54Z</time></trkpt><trkpt lat="43.6275524" lon="12.7741825"><ele>742.5</ele><time>2026-04-11T10:08:36.54Z</time></trkpt><trkpt lat="43.6274589" lon="12.7740459"><ele>747.25</ele><time>2026-04-11T10:08:37.539Z</time></trkpt><trkpt lat="43.6273735" lon="12.7739066"><ele>752.0</ele><time>2026-04-11T10:08:38.539Z</time></trkpt><trkpt lat="43.6272975" lon="12.7737554"><ele>752.0</ele><time>2026-04-11T10:08:39.54Z</time></trkpt><trkpt lat="43.6272303" lon="12.7735933"><ele>752.0</ele><time>2026-04-11T10:08:40.539Z</time></trkpt><trkpt lat="43.6271604" lon="12.7734266"><ele>752.0</ele><time>2026-04-11T10:08:41.54Z</time></trkpt><trkpt lat="43.6270947" lon="12.7732557"><ele>752.0</ele><time>2026-04-11T10:08:42.537Z</time></trkpt><trkpt lat="43.6270356" lon="12.7730838"><ele>752.6666666666666</ele><time>2026-04-11T10:08:43.54Z</time></trkpt><trkpt lat="43.6269793" lon="12.7729357"><ele>753.3333333333333</ele><time>2026-04-11T10:08:44.54Z</time></trkpt><trkpt lat="43.6269332" lon="12.7728159"><ele>754.0</ele><time>2026-04-11T10:08:45.538Z</time></trkpt><trkpt lat="43.6268964" lon="12.7727176"><ele>754.6666666666666</ele><time>2026-04-11T10:08:46.539Z</time></trkpt><trkpt lat="43.6268751" lon="12.772633"><ele>755.3333333333334</ele><time>2026-04-11T10:08:47.54Z</time></trkpt><trkpt lat="43.626851" lon="12.7725258"><ele>756.0</ele><time>2026-04-11T10:08:49.539Z</time></trkpt><trkpt lat="43.6268199" lon="12.7724454"><ele>756.0</ele><time>2026-04-11T10:08:53.539Z</time></trkpt><trkpt lat="43.6267845" lon="12.7723706"><ele>756.0</ele><time>2026-04-11T10:10:50.539Z</time></trkpt><trkpt lat="43.6267645" lon="12.7722461"><ele>756.0</ele><time>2026-04-11T10:11:52.54Z</time></trkpt><trkpt lat="43.6267364" lon="12.7720933"><ele>756.0</ele><time>2026-04-11T10:11:54.539Z</time></trkpt><trkpt lat="43.6267163" lon="12.7719888"><ele>756.0</ele><time>2026-04-11T10:11:55.538Z</time></trkpt><trkpt lat="43.626696" lon="12.7718764"><ele>756.0</ele><time>2026-04-11T10:11:56.54Z</time></trkpt><trkpt lat="43.6266749" lon="12.7717551"><ele>758.5999999999999</ele><time>2026-04-11T10:11:57.539Z</time></trkpt><trkpt lat="43.6266482" lon="12.771623"><ele>761.2</ele><time>2026-04-11T10:11:58.539Z</time></trkpt><trkpt lat="43.626611" lon="12.7714928"><ele>763.8</ele><time>2026-04-11T10:11:59.538Z</time></trkpt><trkpt lat="43.6265645" lon="12.7713589"><ele>766.4000000000001</ele><time>2026-04-11T10:12:00.539Z</time></trkpt><trkpt lat="43.6265168" lon="12.7712406"><ele>769.0</ele><time>2026-04-11T10:12:01.539Z</time></trkpt><trkpt lat="43.6264787" lon="12.7711258"><ele>768.9999999999999</ele><time>2026-04-11T10:12:02.54Z</time></trkpt><trkpt lat="43.626441" lon="12.7710304"><ele>769.0</ele><time>2026-04-11T10:12:03.54Z</time></trkpt><trkpt lat="43.6264149" lon="12.7709482"><ele>769.0</ele><time>2026-04-11T10:12:04.54Z</time></trkpt><trkpt lat="43.6263741" lon="12.7708224"><ele>769.0</ele><time>2026-04-11T10:12:06.539Z</time></trkpt><trkpt lat="43.6263482" lon="12.770713"><ele>768.9999999999999</ele><time>2026-04-11T10:12:10.538Z</time></trkpt><trkpt lat="43.6263435" lon="12.7705901"><ele>769.0</ele><time>2026-04-11T10:12:13.539Z</time></trkpt><trkpt lat="43.6263347" lon="12.7704998"><ele>771.1666666666666</ele><time>2026-04-11T10:12:15.539Z</time></trkpt><trkpt lat="43.6263361" lon="12.7703957"><ele>773.3333333333333</ele><time>2026-04-11T10:12:17.54Z</time></trkpt><trkpt lat="43.6263592" lon="12.7702636"><ele>775.5</ele><time>2026-04-11T10:12:19.539Z</time></trkpt><trkpt lat="43.6263859" lon="12.7701066"><ele>777.6666666666667</ele><time>2026-04-11T10:12:21.538Z</time></trkpt><trkpt lat="43.6263971" lon="12.7700038"><ele>779.8333333333334</ele><time>2026-04-11T10:12:22.54Z</time></trkpt><trkpt lat="43.6263995" lon="12.769897"><ele>782.0</ele><time>2026-04-11T10:12:23.54Z</time></trkpt><trkpt lat="43.6263964" lon="12.7698079"><ele>784.5000000000001</ele><time>2026-04-11T10:12:24.537Z</time></trkpt><trkpt lat="43.6263846" lon="12.7697116"><ele>787.0</ele><time>2026-04-11T10:12:25.539Z</time></trkpt><trkpt lat="43.6263602" lon="12.7695881"><ele>789.5</ele><time>2026-04-11T10:12:27.538Z</time></trkpt><trkpt lat="43.6263367" lon="12.769493"><ele>792.0</ele><time>2026-04-11T10:12:30.54Z</time></trkpt><trkpt lat="43.6262935" lon="12.7694189"><ele>794.5000000000001</ele><time>2026-04-11T10:12:36.539Z</time></trkpt><trkpt lat="43.6262652" lon="12.7693112"><ele>797.0</ele><time>2026-04-11T10:13:02.539Z</time></trkpt><trkpt lat="43.6261991" lon="12.7692646"><ele>797.0</ele><time>2026-04-11T10:13:06.539Z</time></trkpt><trkpt lat="43.6261566" lon="12.7693696"><ele>797.0</ele><time>2026-04-11T10:13:35.538Z</time></trkpt><trkpt lat="43.6261442" lon="12.7694944"><ele>797.0</ele><time>2026-04-11T10:13:37.538Z</time></trkpt><trkpt lat="43.6261314" lon="12.7695891"><ele>797.0</ele><time>2026-04-11T10:13:38.539Z</time></trkpt><trkpt lat="43.6261" lon="12.7697364"><ele>797.0</ele><time>2026-04-11T10:13:40.539Z</time></trkpt><trkpt lat="43.6260647" lon="12.7698577"><ele>797.1666666666667</ele><time>2026-04-11T10:13:42.54Z</time></trkpt><trkpt lat="43.6260181" lon="12.7699626"><ele>797.3333333333334</ele><time>2026-04-11T10:13:44.538Z</time></trkpt><trkpt lat="43.6259822" lon="12.7700486"><ele>797.5</ele><time>2026-04-11T10:13:45.539Z</time></trkpt><trkpt lat="43.6259449" lon="12.7701369"><ele>797.6666666666667</ele><time>2026-04-11T10:13:46.539Z</time></trkpt><trkpt lat="43.6259027" lon="12.7702251"><ele>797.8333333333334</ele><time>2026-04-11T10:13:47.538Z</time></trkpt><trkpt lat="43.6258555" lon="12.7703142"><ele>798.0</ele><time>2026-04-11T10:13:48.539Z</time></trkpt><trkpt lat="43.6258028" lon="12.7704276"><ele>795.4</ele><time>2026-04-11T10:13:49.539Z</time></trkpt><trkpt lat="43.6257451" lon="12.7705321"><ele>792.8</ele><time>2026-04-11T10:13:50.539Z</time></trkpt><trkpt lat="43.6256846" lon="12.7706259"><ele>790.2</ele><time>2026-04-11T10:13:51.538Z</time></trkpt><trkpt lat="43.6256246" lon="12.7707224"><ele>787.6</ele><time>2026-04-11T10:13:52.538Z</time></trkpt><trkpt lat="43.6255689" lon="12.7707971"><ele>785.0</ele><time>2026-04-11T10:13:53.539Z</time></trkpt><trkpt lat="43.625475" lon="12.7708776"><ele>785.0</ele><time>2026-04-11T10:13:55.539Z</time></trkpt><trkpt lat="43.6254113" lon="12.7708459"><ele>785.0</ele><time>2026-04-11T10:13:57.537Z</time></trkpt><trkpt lat="43.6254218" lon="12.7707115"><ele>785.0</ele><time>2026-04-11T10:13:59.54Z</time></trkpt><trkpt lat="43.6255013" lon="12.7705695"><ele>785.0</ele><time>2026-04-11T10:14:01.538Z</time></trkpt><trkpt lat="43.6255459" lon="12.770471"><ele>785.0</ele><time>2026-04-11T10:14:02.538Z</time></trkpt><trkpt lat="43.6255888" lon="12.7703655"><ele>785.0000000000001</ele><time>2026-04-11T10:14:03.54Z</time></trkpt><trkpt lat="43.6256231" lon="12.7702499"><ele>785.0</ele><time>2026-04-11T10:14:04.539Z</time></trkpt><trkpt lat="43.6256485" lon="12.7701427"><ele>785.0</ele><time>2026-04-11T10:14:05.54Z</time></trkpt><trkpt lat="43.625661" lon="12.7700334"><ele>785.0</ele><time>2026-04-11T10:14:06.539Z</time></trkpt><trkpt lat="43.6256667" lon="12.7699242"><ele>785.0000000000001</ele><time>2026-04-11T10:14:07.537Z</time></trkpt><trkpt lat="43.6256771" lon="12.7698167"><ele>785.0</ele><time>2026-04-11T10:14:08.538Z</time></trkpt><trkpt lat="43.6256776" lon="12.7696952"><ele>787.6</ele><time>2026-04-11T10:14:09.54Z</time></trkpt><trkpt lat="43.6256822" lon="12.7695791"><ele>790.2</ele><time>2026-04-11T10:14:10.538Z</time></trkpt><trkpt lat="43.6256827" lon="12.7694649"><ele>792.8</ele><time>2026-04-11T10:14:11.54Z</time></trkpt><trkpt lat="43.6256804" lon="12.7693423"><ele>795.4</ele><time>2026-04-11T10:14:12.54Z</time></trkpt><trkpt lat="43.625682" lon="12.7692047"><ele>798.0</ele><time>2026-04-11T10:14:13.539Z</time></trkpt><trkpt lat="43.6256878" lon="12.7690735"><ele>799.8</ele><time>2026-04-11T10:14:14.538Z</time></trkpt><trkpt lat="43.6256907" lon="12.7689448"><ele>801.5999999999999</ele><time>2026-04-11T10:14:15.539Z</time></trkpt><trkpt lat="43.625687" lon="12.7688144"><ele>803.4000000000001</ele><time>2026-04-11T10:14:16.538Z</time></trkpt><trkpt lat="43.6256766" lon="12.7686838"><ele>805.2</ele><time>2026-04-11T10:14:17.539Z</time></trkpt><trkpt lat="43.6256587" lon="12.7685508"><ele>807.0</ele><time>2026-04-11T10:14:18.54Z</time></trkpt><trkpt lat="43.625643" lon="12.7684139"><ele>809.0</ele><time>2026-04-11T10:14:19.54Z</time></trkpt><trkpt lat="43.6256313" lon="12.7682693"><ele>811.0</ele><time>2026-04-11T10:14:20.539Z</time></trkpt><trkpt lat="43.625613" lon="12.7681124"><ele>813.0</ele><time>2026-04-11T10:14:21.54Z</time></trkpt><trkpt lat="43.6255896" lon="12.7679593"><ele>815.0</ele><time>2026-04-11T10:14:22.539Z</time></trkpt><trkpt lat="43.625561" lon="12.7678001"><ele>817.0</ele><time>2026-04-11T10:14:23.539Z</time></trkpt><trkpt lat="43.6255323" lon="12.7676495"><ele>819.0</ele><time>2026-04-11T10:14:24.537Z</time></trkpt><trkpt lat="43.6255024" lon="12.7675055"><ele>821.0</ele><time>2026-04-11T10:14:25.54Z</time></trkpt><trkpt lat="43.6254598" lon="12.767367"><ele>823.0</ele><time>2026-04-11T10:14:26.54Z</time></trkpt><trkpt lat="43.6254083" lon="12.7672165"><ele>823.0</ele><time>2026-04-11T10:14:27.539Z</time></trkpt><trkpt lat="43.6253517" lon="12.7670741"><ele>823.0</ele><time>2026-04-11T10:14:28.539Z</time></trkpt><trkpt lat="43.6252866" lon="12.7669377"><ele>823.0</ele><time>2026-04-11T10:14:29.539Z</time></trkpt><trkpt lat="43.6252137" lon="12.766792"><ele>823.0</ele><time>2026-04-11T10:14:30.54Z</time></trkpt><trkpt lat="43.6251372" lon="12.7666599"><ele>826.4</ele><time>2026-04-11T10:14:31.538Z</time></trkpt><trkpt lat="43.6250525" lon="12.7665447"><ele>829.8</ele><time>2026-04-11T10:14:32.539Z</time></trkpt><trkpt lat="43.6249767" lon="12.7664425"><ele>833.2</ele><time>2026-04-11T10:14:33.54Z</time></trkpt><trkpt lat="43.6249149" lon="12.7663627"><ele>836.6</ele><time>2026-04-11T10:14:34.538Z</time></trkpt><trkpt lat="43.6248716" lon="12.7662912"><ele>840.0</ele><time>2026-04-11T10:14:35.54Z</time></trkpt><trkpt lat="43.624856" lon="12.7661333"><ele>840.0</ele><time>2026-04-11T10:14:37.54Z</time></trkpt><trkpt lat="43.6248875" lon="12.7660476"><ele>840.0</ele><time>2026-04-11T10:14:38.54Z</time></trkpt><trkpt lat="43.6249366" lon="12.7659586"><ele>840.0</ele><time>2026-04-11T10:14:39.54Z</time></trkpt><trkpt lat="43.6249877" lon="12.7658582"><ele>840.0</ele><time>2026-04-11T10:14:40.539Z</time></trkpt><trkpt lat="43.6250507" lon="12.7657668"><ele>840.0</ele><time>2026-04-11T10:14:41.539Z</time></trkpt><trkpt lat="43.6251185" lon="12.7656931"><ele>840.0</ele><time>2026-04-11T10:14:42.539Z</time></trkpt><trkpt lat="43.6251919" lon="12.7656615"><ele>841.1666666666666</ele><time>2026-04-11T10:14:43.539Z</time></trkpt><trkpt lat="43.6252643" lon="12.7656524"><ele>842.3333333333333</ele><time>2026-04-11T10:14:44.54Z</time></trkpt><trkpt lat="43.625339" lon="12.7656504"><ele>843.5</ele><time>2026-04-11T10:14:45.539Z</time></trkpt><trkpt lat="43.6254469" lon="12.7656179"><ele>844.6666666666666</ele><time>2026-04-11T10:14:47.538Z</time></trkpt><trkpt lat="43.6254973" lon="12.7655458"><ele>845.8333333333333</ele><time>2026-04-11T10:14:49.539Z</time></trkpt><trkpt lat="43.6254407" lon="12.765459"><ele>847.0</ele><time>2026-04-11T10:14:52.539Z</time></trkpt><trkpt lat="43.625319" lon="12.7654345"><ele>846.9999999999999</ele><time>2026-04-11T10:14:54.54Z</time></trkpt><trkpt lat="43.6252458" lon="12.765422"><ele>847.0</ele><time>2026-04-11T10:14:55.539Z</time></trkpt><trkpt lat="43.6251711" lon="12.7654086"><ele>847.0</ele><time>2026-04-11T10:14:56.539Z</time></trkpt><trkpt lat="43.625066" lon="12.7654043"><ele>847.0</ele><time>2026-04-11T10:14:58.539Z</time></trkpt><trkpt lat="43.6249816" lon="12.7654135"><ele>846.9999999999999</ele><time>2026-04-11T10:16:08.539Z</time></trkpt><trkpt lat="43.6248914" lon="12.7654313"><ele>847.0</ele><time>2026-04-11T10:16:10.538Z</time></trkpt><trkpt lat="43.6247706" lon="12.7654489"><ele>846.9999999999999</ele><time>2026-04-11T10:16:12.54Z</time></trkpt><trkpt lat="43.6247059" lon="12.7654614"><ele>847.0</ele><time>2026-04-11T10:16:13.539Z</time></trkpt><trkpt lat="43.6246362" lon="12.7654719"><ele>847.0</ele><time>2026-04-11T10:16:14.539Z</time></trkpt><trkpt lat="43.6245538" lon="12.7654767"><ele>847.0</ele><time>2026-04-11T10:16:15.54Z</time></trkpt><trkpt lat="43.62447" lon="12.7654794"><ele>846.9999999999999</ele><time>2026-04-11T10:16:16.537Z</time></trkpt><trkpt lat="43.6243925" lon="12.7654895"><ele>847.0</ele><time>2026-04-11T10:16:17.538Z</time></trkpt><trkpt lat="43.6243232" lon="12.7655189"><ele>847.4999999999999</ele><time>2026-04-11T10:16:18.538Z</time></trkpt><trkpt lat="43.6242585" lon="12.7655607"><ele>848.0</ele><time>2026-04-11T10:16:19.54Z</time></trkpt><trkpt lat="43.6241927" lon="12.765615"><ele>848.5</ele><time>2026-04-11T10:16:20.538Z</time></trkpt><trkpt lat="43.6241262" lon="12.7656756"><ele>849.0</ele><time>2026-04-11T10:16:21.54Z</time></trkpt><trkpt lat="43.6240624" lon="12.7657453"><ele>849.4999999999999</ele><time>2026-04-11T10:16:22.54Z</time></trkpt><trkpt lat="43.6240087" lon="12.7658236"><ele>850.0</ele><time>2026-04-11T10:16:23.539Z</time></trkpt><trkpt lat="43.6239683" lon="12.7659116"><ele>850.0</ele><time>2026-04-11T10:16:24.54Z</time></trkpt><trkpt lat="43.6239411" lon="12.7660195"><ele>850.0</ele><time>2026-04-11T10:16:25.539Z</time></trkpt><trkpt lat="43.6239179" lon="12.7661435"><ele>850.0</ele><time>2026-04-11T10:16:26.54Z</time></trkpt><trkpt lat="43.6238883" lon="12.7662827"><ele>850.0</ele><time>2026-04-11T10:16:27.538Z</time></trkpt><trkpt lat="43.6238519" lon="12.7664303"><ele>850.0</ele><time>2026-04-11T10:16:28.539Z</time></trkpt><trkpt lat="43.6238113" lon="12.7665844"><ele>849.75</ele><time>2026-04-11T10:16:29.539Z</time></trkpt><trkpt lat="43.6237661" lon="12.7667363"><ele>849.5</ele><time>2026-04-11T10:16:30.538Z</time></trkpt><trkpt lat="43.6237121" lon="12.7668733"><ele>849.25</ele><time>2026-04-11T10:16:31.538Z</time></trkpt><trkpt lat="43.6236478" lon="12.7670076"><ele>849.0</ele><time>2026-04-11T10:16:32.538Z</time></trkpt><trkpt lat="43.6235859" lon="12.7671389"><ele>849.4000000000001</ele><time>2026-04-11T10:16:33.539Z</time></trkpt><trkpt lat="43.6235356" lon="12.7672727"><ele>849.8</ele><time>2026-04-11T10:16:34.539Z</time></trkpt><trkpt lat="43.6234965" lon="12.7674096"><ele>850.2</ele><time>2026-04-11T10:16:35.537Z</time></trkpt><trkpt lat="43.6234486" lon="12.7675321"><ele>850.5999999999999</ele><time>2026-04-11T10:16:36.54Z</time></trkpt><trkpt lat="43.6233869" lon="12.7676541"><ele>851.0</ele><time>2026-04-11T10:16:37.538Z</time></trkpt><trkpt lat="43.6233158" lon="12.7677656"><ele>850.0</ele><time>2026-04-11T10:16:38.54Z</time></trkpt><trkpt lat="43.6232466" lon="12.7678749"><ele>849.0</ele><time>2026-04-11T10:16:39.539Z</time></trkpt><trkpt lat="43.6231716" lon="12.7679667"><ele>848.0</ele><time>2026-04-11T10:16:40.539Z</time></trkpt><trkpt lat="43.6231013" lon="12.7680494"><ele>847.0</ele><time>2026-04-11T10:16:41.54Z</time></trkpt><trkpt lat="43.6230292" lon="12.7681263"><ele>846.0</ele><time>2026-04-11T10:16:42.54Z</time></trkpt><trkpt lat="43.6229607" lon="12.7682017"><ele>846.0</ele><time>2026-04-11T10:16:43.539Z</time></trkpt><trkpt lat="43.6228893" lon="12.7682812"><ele>846.0</ele><time>2026-04-11T10:16:44.54Z</time></trkpt><trkpt lat="43.622818" lon="12.7683659"><ele>846.0</ele><time>2026-04-11T10:16:45.538Z</time></trkpt><trkpt lat="43.6227441" lon="12.7684574"><ele>846.0</ele><time>2026-04-11T10:16:46.539Z</time></trkpt><trkpt lat="43.6226737" lon="12.7685461"><ele>846.0</ele><time>2026-04-11T10:16:47.538Z</time></trkpt><trkpt lat="43.6225965" lon="12.7686265"><ele>844.5999999999999</ele><time>2026-04-11T10:16:48.539Z</time></trkpt><trkpt lat="43.622528" lon="12.7687163"><ele>843.2</ele><time>2026-04-11T10:16:49.539Z</time></trkpt><trkpt lat="43.6224545" lon="12.7688008"><ele>841.8</ele><time>2026-04-11T10:16:50.539Z</time></trkpt><trkpt lat="43.6223741" lon="12.76889"><ele>840.4000000000001</ele><time>2026-04-11T10:16:51.537Z</time></trkpt><trkpt lat="43.6222983" lon="12.7689788"><ele>839.0</ele><time>2026-04-11T10:16:52.539Z</time></trkpt><trkpt lat="43.6222276" lon="12.7690697"><ele>839.0</ele><time>2026-04-11T10:16:53.539Z</time></trkpt><trkpt lat="43.6221653" lon="12.7691716"><ele>839.0</ele><time>2026-04-11T10:16:54.539Z</time></trkpt><trkpt lat="43.6221102" lon="12.7692751"><ele>839.0</ele><time>2026-04-11T10:16:55.539Z</time></trkpt><trkpt lat="43.6220478" lon="12.769374"><ele>839.0</ele><time>2026-04-11T10:16:56.537Z</time></trkpt><trkpt lat="43.6219874" lon="12.7694671"><ele>839.0</ele><time>2026-04-11T10:16:57.54Z</time></trkpt><trkpt lat="43.6219299" lon="12.7695498"><ele>837.6666666666667</ele><time>2026-04-11T10:16:58.539Z</time></trkpt><trkpt lat="43.6218701" lon="12.7696371"><ele>836.3333333333334</ele><time>2026-04-11T10:16:59.54Z</time></trkpt><trkpt lat="43.6218065" lon="12.7697308"><ele>835.0</ele><time>2026-04-11T10:17:00.538Z</time></trkpt><trkpt lat="43.6217476" lon="12.7698173"><ele>833.6666666666667</ele><time>2026-04-11T10:17:01.54Z</time></trkpt><trkpt lat="43.6216908" lon="12.7699075"><ele>832.3333333333334</ele><time>2026-04-11T10:17:02.539Z</time></trkpt><trkpt lat="43.6216368" lon="12.7700089"><ele>831.0</ele><time>2026-04-11T10:17:03.537Z</time></trkpt><trkpt lat="43.6215862" lon="12.7700957"><ele>831.0</ele><time>2026-04-11T10:17:04.537Z</time></trkpt><trkpt lat="43.6215318" lon="12.7701739"><ele>831.0</ele><time>2026-04-11T10:17:05.539Z</time></trkpt><trkpt lat="43.6214723" lon="12.7702508"><ele>831.0</ele><time>2026-04-11T10:17:06.539Z</time></trkpt><trkpt lat="43.6214128" lon="12.7703258"><ele>831.0</ele><time>2026-04-11T10:17:07.538Z</time></trkpt><trkpt lat="43.621362" lon="12.7704124"><ele>831.0</ele><time>2026-04-11T10:17:08.538Z</time></trkpt><trkpt lat="43.6213246" lon="12.7705097"><ele>831.0</ele><time>2026-04-11T10:17:09.538Z</time></trkpt><trkpt lat="43.6212857" lon="12.7706065"><ele>829.4</ele><time>2026-04-11T10:17:10.539Z</time></trkpt><trkpt lat="43.6212374" lon="12.7707076"><ele>827.8</ele><time>2026-04-11T10:17:11.539Z</time></trkpt><trkpt lat="43.6211783" lon="12.7708027"><ele>826.1999999999999</ele><time>2026-04-11T10:17:12.537Z</time></trkpt><trkpt lat="43.6211114" lon="12.7708883"><ele>824.5999999999999</ele><time>2026-04-11T10:17:13.538Z</time></trkpt><trkpt lat="43.621038" lon="12.7709692"><ele>823.0</ele><time>2026-04-11T10:17:14.539Z</time></trkpt><trkpt lat="43.6209604" lon="12.7710431"><ele>820.8333333333333</ele><time>2026-04-11T10:17:15.54Z</time></trkpt><trkpt lat="43.6208747" lon="12.7711145"><ele>818.6666666666666</ele><time>2026-04-11T10:17:16.538Z</time></trkpt><trkpt lat="43.6207916" lon="12.7711759"><ele>816.5</ele><time>2026-04-11T10:17:17.539Z</time></trkpt><trkpt lat="43.6207228" lon="12.7712321"><ele>814.3333333333333</ele><time>2026-04-11T10:17:18.538Z</time></trkpt><trkpt lat="43.620656" lon="12.7712671"><ele>812.1666666666666</ele><time>2026-04-11T10:17:19.538Z</time></trkpt><trkpt lat="43.620592" lon="12.7712625"><ele>810.0</ele><time>2026-04-11T10:17:20.54Z</time></trkpt><trkpt lat="43.6205277" lon="12.771232"><ele>810.0</ele><time>2026-04-11T10:17:21.538Z</time></trkpt><trkpt lat="43.6204574" lon="12.7711836"><ele>810.0</ele><time>2026-04-11T10:17:22.539Z</time></trkpt><trkpt lat="43.6203776" lon="12.7711254"><ele>810.0</ele><time>2026-04-11T10:17:23.539Z</time></trkpt><trkpt lat="43.6202937" lon="12.7710691"><ele>810.0</ele><time>2026-04-11T10:17:24.538Z</time></trkpt><trkpt lat="43.6202154" lon="12.7710167"><ele>810.0</ele><time>2026-04-11T10:17:25.539Z</time></trkpt><trkpt lat="43.6201365" lon="12.7709545"><ele>810.0</ele><time>2026-04-11T10:17:26.538Z</time></trkpt><trkpt lat="43.6200572" lon="12.7708902"><ele>809.6</ele><time>2026-04-11T10:17:27.54Z</time></trkpt><trkpt lat="43.6199768" lon="12.7708334"><ele>809.2</ele><time>2026-04-11T10:17:28.537Z</time></trkpt><trkpt lat="43.6198924" lon="12.7707974"><ele>808.8</ele><time>2026-04-11T10:17:29.54Z</time></trkpt><trkpt lat="43.6198082" lon="12.770785"><ele>808.4</ele><time>2026-04-11T10:17:30.538Z</time></trkpt><trkpt lat="43.619711" lon="12.7708047"><ele>808.0</ele><time>2026-04-11T10:17:31.538Z</time></trkpt><trkpt lat="43.6196176" lon="12.770832"><ele>808.0</ele><time>2026-04-11T10:17:32.538Z</time></trkpt><trkpt lat="43.6195123" lon="12.7708546"><ele>808.0</ele><time>2026-04-11T10:17:33.539Z</time></trkpt><trkpt lat="43.6194076" lon="12.7708742"><ele>808.0</ele><time>2026-04-11T10:17:34.54Z</time></trkpt><trkpt lat="43.6193013" lon="12.7709"><ele>808.0</ele><time>2026-04-11T10:17:35.539Z</time></trkpt><trkpt lat="43.6191968" lon="12.7709243"><ele>808.0</ele><time>2026-04-11T10:17:36.538Z</time></trkpt><trkpt lat="43.6191011" lon="12.7709528"><ele>806.1666666666666</ele><time>2026-04-11T10:17:37.539Z</time></trkpt><trkpt lat="43.6190055" lon="12.770995"><ele>804.3333333333333</ele><time>2026-04-11T10:17:38.538Z</time></trkpt><trkpt lat="43.6189242" lon="12.7710484"><ele>802.5</ele><time>2026-04-11T10:17:39.538Z</time></trkpt><trkpt lat="43.6188486" lon="12.7711189"><ele>800.6666666666667</ele><time>2026-04-11T10:17:40.539Z</time></trkpt><trkpt lat="43.6187829" lon="12.7711939"><ele>798.8333333333334</ele><time>2026-04-11T10:17:41.538Z</time></trkpt><trkpt lat="43.6187303" lon="12.7712761"><ele>797.0</ele><time>2026-04-11T10:17:42.539Z</time></trkpt><trkpt lat="43.6186873" lon="12.7713482"><ele>795.5000000000001</ele><time>2026-04-11T10:17:43.538Z</time></trkpt><trkpt lat="43.6186561" lon="12.7714269"><ele>794.0</ele><time>2026-04-11T10:17:44.538Z</time></trkpt><trkpt lat="43.6186025" lon="12.7715485"><ele>792.5</ele><time>2026-04-11T10:17:46.538Z</time></trkpt><trkpt lat="43.6185741" lon="12.771631"><ele>791.0</ele><time>2026-04-11T10:17:58.539Z</time></trkpt><trkpt lat="43.6185524" lon="12.7717236"><ele>789.5000000000001</ele><time>2026-04-11T10:18:06.538Z</time></trkpt><trkpt lat="43.6185141" lon="12.7718139"><ele>788.0</ele><time>2026-04-11T10:18:09.539Z</time></trkpt><trkpt lat="43.6184807" lon="12.7719049"><ele>786.8333333333334</ele><time>2026-04-11T10:18:12.538Z</time></trkpt><trkpt lat="43.6184317" lon="12.7720037"><ele>785.6666666666667</ele><time>2026-04-11T10:18:30.538Z</time></trkpt><trkpt lat="43.6184038" lon="12.772116"><ele>784.5</ele><time>2026-04-11T10:18:32.538Z</time></trkpt><trkpt lat="43.6183543" lon="12.7722602"><ele>783.3333333333333</ele><time>2026-04-11T10:18:34.539Z</time></trkpt><trkpt lat="43.618326" lon="12.7723462"><ele>782.1666666666666</ele><time>2026-04-11T10:18:35.537Z</time></trkpt><trkpt lat="43.6182926" lon="12.7724396"><ele>781.0</ele><time>2026-04-11T10:18:36.54Z</time></trkpt><trkpt lat="43.6182568" lon="12.7725423"><ele>780.9999999999999</ele><time>2026-04-11T10:18:37.539Z</time></trkpt><trkpt lat="43.6182226" lon="12.7726471"><ele>781.0</ele><time>2026-04-11T10:18:38.539Z</time></trkpt><trkpt lat="43.61819" lon="12.7727562"><ele>781.0</ele><time>2026-04-11T10:18:39.539Z</time></trkpt><trkpt lat="43.6181603" lon="12.7728637"><ele>781.0</ele><time>2026-04-11T10:18:40.538Z</time></trkpt><trkpt lat="43.6181285" lon="12.7729689"><ele>780.9999999999999</ele><time>2026-04-11T10:18:41.539Z</time></trkpt><trkpt lat="43.6181031" lon="12.7730715"><ele>781.0</ele><time>2026-04-11T10:18:42.539Z</time></trkpt><trkpt lat="43.6180755" lon="12.7731656"><ele>772.0</ele><time>2026-04-11T10:18:43.538Z</time></trkpt><trkpt lat="43.6180366" lon="12.7733229"><ele>772.0</ele><time>2026-04-11T10:18:45.54Z</time></trkpt><trkpt lat="43.6179798" lon="12.7734411"><ele>772.0</ele><time>2026-04-11T10:18:47.539Z</time></trkpt></trkseg></trk></gpx>